<?xml version="1.0" encoding="utf-8"?>
<gpx xmlns:xsi="http://www.w3.org/2001/XMLSchema-instance" xmlns:xsd="http://www.w3.org/2001/XMLSchema" version="1.1" creator="Shapelink.com" xmlns="http://www.topografix.com/GPX/1/1" xmlns:gpxtpx="http://www.garmin.com/xmlschemas/TrackPointExtension/v1">
  <metadata>
    <name>Löpning 21.02 km, 2014-04-29</name>
    <desc></desc>
    <author><name>Stefan Östlund</name></author> 
    <time>2014-04-29T18:41:04Z</time>
  </metadata>
  <trk>
    <name>Löpning 21.02 km, 2014-04-29</name>
    <trkseg>
      <trkpt lat="59.985227510333" lon="15.826942753047">
        <ele>111</ele>
        <time>2014-04-29T18:41:04Z</time>
      </trkpt>
      <trkpt lat="59.985214015469" lon="15.826903022826">
        <ele>112.8</ele>
        <time>2014-04-29T18:41:05Z</time>
      </trkpt>
      <trkpt lat="59.985196832567" lon="15.826876452193">
        <ele>113.4</ele>
        <time>2014-04-29T18:41:06Z</time>
      </trkpt>
      <trkpt lat="59.985113935545" lon="15.826746616513">
        <ele>112.4</ele>
        <time>2014-04-29T18:41:11Z</time>
      </trkpt>
      <trkpt lat="59.985098261386" lon="15.826723817736">
        <ele>112.2</ele>
        <time>2014-04-29T18:41:12Z</time>
      </trkpt>
      <trkpt lat="59.985040929168" lon="15.826623570174">
        <ele>111.8</ele>
        <time>2014-04-29T18:41:15Z</time>
      </trkpt>
      <trkpt lat="59.985024249181" lon="15.826608063653">
        <ele>111.6</ele>
        <time>2014-04-29T18:41:16Z</time>
      </trkpt>
      <trkpt lat="59.984917966649" lon="15.826558275148">
        <ele>111.6</ele>
        <time>2014-04-29T18:41:21Z</time>
      </trkpt>
      <trkpt lat="59.984879158437" lon="15.826560119167">
        <ele>111.6</ele>
        <time>2014-04-29T18:41:23Z</time>
      </trkpt>
      <trkpt lat="59.984818138182" lon="15.826592305675">
        <ele>111.4</ele>
        <time>2014-04-29T18:41:26Z</time>
      </trkpt>
      <trkpt lat="59.984786370769" lon="15.826646955684">
        <ele>111.6</ele>
        <time>2014-04-29T18:41:29Z</time>
      </trkpt>
      <trkpt lat="59.984764913097" lon="15.826670341194">
        <ele>111.8</ele>
        <time>2014-04-29T18:41:30Z</time>
      </trkpt>
      <trkpt lat="59.984682938084" lon="15.826600100845">
        <ele>111.8</ele>
        <time>2014-04-29T18:41:34Z</time>
      </trkpt>
      <trkpt lat="59.984366940334" lon="15.82649926655">
        <ele>111.8</ele>
        <time>2014-04-29T18:41:35Z</time>
      </trkpt>
      <trkpt lat="59.98413274996" lon="15.826410753652">
        <ele>111.6</ele>
        <time>2014-04-29T18:41:36Z</time>
      </trkpt>
      <trkpt lat="59.983925549313" lon="15.826274966821">
        <ele>112</ele>
        <time>2014-04-29T18:41:39Z</time>
      </trkpt>
      <trkpt lat="59.983800575137" lon="15.826176563278">
        <ele>113</ele>
        <time>2014-04-29T18:41:43Z</time>
      </trkpt>
      <trkpt lat="59.983724635094" lon="15.826097019017">
        <ele>114.2</ele>
        <time>2014-04-29T18:41:47Z</time>
      </trkpt>
      <trkpt lat="59.98370854184" lon="15.826067598537">
        <ele>114.4</ele>
        <time>2014-04-29T18:41:48Z</time>
      </trkpt>
      <trkpt lat="59.983669565991" lon="15.825997861102">
        <ele>115.2</ele>
        <time>2014-04-29T18:41:51Z</time>
      </trkpt>
      <trkpt lat="59.98365053907" lon="15.825964752585">
        <ele>115.4</ele>
        <time>2014-04-29T18:41:52Z</time>
      </trkpt>
      <trkpt lat="59.983634278178" lon="15.82594354637">
        <ele>115.8</ele>
        <time>2014-04-29T18:41:53Z</time>
      </trkpt>
      <trkpt lat="59.983616257086" lon="15.825892249122">
        <ele>116.4</ele>
        <time>2014-04-29T18:41:55Z</time>
      </trkpt>
      <trkpt lat="59.983593793586" lon="15.825822176412">
        <ele>116.8</ele>
        <time>2014-04-29T18:41:57Z</time>
      </trkpt>
      <trkpt lat="59.983520116657" lon="15.825548255816">
        <ele>117.2</ele>
        <time>2014-04-29T18:42:03Z</time>
      </trkpt>
      <trkpt lat="59.983426826075" lon="15.825256314129">
        <ele>115.6</ele>
        <time>2014-04-29T18:42:10Z</time>
      </trkpt>
      <trkpt lat="59.983414672315" lon="15.825221277773">
        <ele>115.4</ele>
        <time>2014-04-29T18:42:11Z</time>
      </trkpt>
      <trkpt lat="59.983350466937" lon="15.825003180653">
        <ele>114.4</ele>
        <time>2014-04-29T18:42:16Z</time>
      </trkpt>
      <trkpt lat="59.983312329277" lon="15.824825149029">
        <ele>113.6</ele>
        <time>2014-04-29T18:42:20Z</time>
      </trkpt>
      <trkpt lat="59.983321717009" lon="15.824779802933">
        <ele>113.4</ele>
        <time>2014-04-29T18:42:21Z</time>
      </trkpt>
      <trkpt lat="59.983339402825" lon="15.824583414942">
        <ele>112.8</ele>
        <time>2014-04-29T18:42:25Z</time>
      </trkpt>
      <trkpt lat="59.983369661495" lon="15.824448466301">
        <ele>112.4</ele>
        <time>2014-04-29T18:42:28Z</time>
      </trkpt>
      <trkpt lat="59.983380390331" lon="15.824405886233">
        <ele>112.2</ele>
        <time>2014-04-29T18:42:29Z</time>
      </trkpt>
      <trkpt lat="59.983390280977" lon="15.824311086908">
        <ele>111.8</ele>
        <time>2014-04-29T18:42:31Z</time>
      </trkpt>
      <trkpt lat="59.983410062268" lon="15.82421653904">
        <ele>111.2</ele>
        <time>2014-04-29T18:42:33Z</time>
      </trkpt>
      <trkpt lat="59.983453731984" lon="15.824169935659">
        <ele>110.6</ele>
        <time>2014-04-29T18:42:35Z</time>
      </trkpt>
      <trkpt lat="59.983534868807" lon="15.82419147715">
        <ele>110.2</ele>
        <time>2014-04-29T18:42:38Z</time>
      </trkpt>
      <trkpt lat="59.983559763059" lon="15.824195500463">
        <ele>110.2</ele>
        <time>2014-04-29T18:42:39Z</time>
      </trkpt>
      <trkpt lat="59.983652718365" lon="15.824281163514">
        <ele>109.6</ele>
        <time>2014-04-29T18:42:43Z</time>
      </trkpt>
      <trkpt lat="59.983680462465" lon="15.824321564287">
        <ele>109.2</ele>
        <time>2014-04-29T18:42:45Z</time>
      </trkpt>
      <trkpt lat="59.983707033098" lon="15.824358612299">
        <ele>109</ele>
        <time>2014-04-29T18:42:46Z</time>
      </trkpt>
      <trkpt lat="59.983723377809" lon="15.824387194589">
        <ele>108.8</ele>
        <time>2014-04-29T18:42:47Z</time>
      </trkpt>
      <trkpt lat="59.983817841858" lon="15.824539996684">
        <ele>108.8</ele>
        <time>2014-04-29T18:42:52Z</time>
      </trkpt>
      <trkpt lat="59.983919179067" lon="15.824650134891">
        <ele>108.6</ele>
        <time>2014-04-29T18:42:56Z</time>
      </trkpt>
      <trkpt lat="59.983998974785" lon="15.824665473774">
        <ele>108</ele>
        <time>2014-04-29T18:42:59Z</time>
      </trkpt>
      <trkpt lat="59.984052954242" lon="15.824651559815">
        <ele>107.4</ele>
        <time>2014-04-29T18:43:01Z</time>
      </trkpt>
      <trkpt lat="59.984121769667" lon="15.824637729675">
        <ele>106.8</ele>
        <time>2014-04-29T18:43:04Z</time>
      </trkpt>
      <trkpt lat="59.98419335112" lon="15.824622223154">
        <ele>106.6</ele>
        <time>2014-04-29T18:43:07Z</time>
      </trkpt>
      <trkpt lat="59.984334921464" lon="15.824566734955">
        <ele>106.2</ele>
        <time>2014-04-29T18:43:12Z</time>
      </trkpt>
      <trkpt lat="59.984522089362" lon="15.824421141297">
        <ele>106</ele>
        <time>2014-04-29T18:43:19Z</time>
      </trkpt>
      <trkpt lat="59.984680255875" lon="15.824301196262">
        <ele>106.6</ele>
        <time>2014-04-29T18:43:26Z</time>
      </trkpt>
      <trkpt lat="59.984689978883" lon="15.824274625629">
        <ele>106.6</ele>
        <time>2014-04-29T18:43:27Z</time>
      </trkpt>
      <trkpt lat="59.984768182039" lon="15.824147220701">
        <ele>107.4</ele>
        <time>2014-04-29T18:43:31Z</time>
      </trkpt>
      <trkpt lat="59.98483045958" lon="15.824046805501">
        <ele>107.8</ele>
        <time>2014-04-29T18:43:34Z</time>
      </trkpt>
      <trkpt lat="59.984907656908" lon="15.823924597353">
        <ele>107.8</ele>
        <time>2014-04-29T18:43:38Z</time>
      </trkpt>
      <trkpt lat="59.985030116513" lon="15.823666350916">
        <ele>107.8</ele>
        <time>2014-04-29T18:43:45Z</time>
      </trkpt>
      <trkpt lat="59.985064901412" lon="15.823359070346">
        <ele>107.6</ele>
        <time>2014-04-29T18:43:51Z</time>
      </trkpt>
      <trkpt lat="59.985017962754" lon="15.822966797277">
        <ele>107.4</ele>
        <time>2014-04-29T18:43:58Z</time>
      </trkpt>
      <trkpt lat="59.985011676326" lon="15.82291893661">
        <ele>107.2</ele>
        <time>2014-04-29T18:43:59Z</time>
      </trkpt>
      <trkpt lat="59.984970437363" lon="15.822596736252">
        <ele>107.2</ele>
        <time>2014-04-29T18:44:05Z</time>
      </trkpt>
      <trkpt lat="59.984946632758" lon="15.822321558371">
        <ele>106.8</ele>
        <time>2014-04-29T18:44:10Z</time>
      </trkpt>
      <trkpt lat="59.984930707142" lon="15.822163559496">
        <ele>106.4</ele>
        <time>2014-04-29T18:44:13Z</time>
      </trkpt>
      <trkpt lat="59.984889887273" lon="15.82179190591">
        <ele>106</ele>
        <time>2014-04-29T18:44:20Z</time>
      </trkpt>
      <trkpt lat="59.98486851342" lon="15.82149929367">
        <ele>106.2</ele>
        <time>2014-04-29T18:44:26Z</time>
      </trkpt>
      <trkpt lat="59.984841858968" lon="15.821140715852">
        <ele>106.6</ele>
        <time>2014-04-29T18:44:33Z</time>
      </trkpt>
      <trkpt lat="59.984830040485" lon="15.820777527988">
        <ele>106.4</ele>
        <time>2014-04-29T18:44:40Z</time>
      </trkpt>
      <trkpt lat="59.984894832596" lon="15.82052975893">
        <ele>106.4</ele>
        <time>2014-04-29T18:44:46Z</time>
      </trkpt>
      <trkpt lat="59.985017040744" lon="15.820414088666">
        <ele>106</ele>
        <time>2014-04-29T18:44:52Z</time>
      </trkpt>
      <trkpt lat="59.985190462321" lon="15.82033412531">
        <ele>106.4</ele>
        <time>2014-04-29T18:44:59Z</time>
      </trkpt>
      <trkpt lat="59.985344270244" lon="15.820379974321">
        <ele>106.6</ele>
        <time>2014-04-29T18:45:05Z</time>
      </trkpt>
      <trkpt lat="59.98550562188" lon="15.820361953229">
        <ele>107</ele>
        <time>2014-04-29T18:45:11Z</time>
      </trkpt>
      <trkpt lat="59.985558344051" lon="15.820209570229">
        <ele>106.6</ele>
        <time>2014-04-29T18:45:15Z</time>
      </trkpt>
      <trkpt lat="59.985635289922" lon="15.819881251082">
        <ele>106.6</ele>
        <time>2014-04-29T18:45:22Z</time>
      </trkpt>
      <trkpt lat="59.985719947144" lon="15.819599535316">
        <ele>106.8</ele>
        <time>2014-04-29T18:45:28Z</time>
      </trkpt>
      <trkpt lat="59.985841317102" lon="15.819410774857">
        <ele>106.8</ele>
        <time>2014-04-29T18:45:34Z</time>
      </trkpt>
      <trkpt lat="59.985861768946" lon="15.819417815655">
        <ele>106.6</ele>
        <time>2014-04-29T18:45:35Z</time>
      </trkpt>
      <trkpt lat="59.985946342349" lon="15.819444134831">
        <ele>106.2</ele>
        <time>2014-04-29T18:45:38Z</time>
      </trkpt>
      <trkpt lat="59.986102748662" lon="15.819512950256">
        <ele>106</ele>
        <time>2014-04-29T18:45:44Z</time>
      </trkpt>
      <trkpt lat="59.986195117235" lon="15.8195576258">
        <ele>106</ele>
        <time>2014-04-29T18:45:48Z</time>
      </trkpt>
      <trkpt lat="59.98628647998" lon="15.819575479254">
        <ele>106.2</ele>
        <time>2014-04-29T18:45:52Z</time>
      </trkpt>
      <trkpt lat="59.986306764185" lon="15.819551339373">
        <ele>106.2</ele>
        <time>2014-04-29T18:45:53Z</time>
      </trkpt>
      <trkpt lat="59.986329395324" lon="15.819410104305">
        <ele>106.6</ele>
        <time>2014-04-29T18:45:56Z</time>
      </trkpt>
      <trkpt lat="59.986330820248" lon="15.819365931675">
        <ele>106.6</ele>
        <time>2014-04-29T18:45:57Z</time>
        <extensions><gpxtpx:TrackPointExtension><gpxtpx:hr>84</gpxtpx:hr></gpxtpx:TrackPointExtension></extensions>
      </trkpt>
      <trkpt lat="59.98633408919" lon="15.819316310808">
        <ele>107</ele>
        <time>2014-04-29T18:45:58Z</time>
        <extensions><gpxtpx:TrackPointExtension><gpxtpx:hr>84</gpxtpx:hr></gpxtpx:TrackPointExtension></extensions>
      </trkpt>
      <trkpt lat="59.986342051998" lon="15.819285046309">
        <ele>107</ele>
        <time>2014-04-29T18:45:59Z</time>
        <extensions><gpxtpx:TrackPointExtension><gpxtpx:hr>93</gpxtpx:hr></gpxtpx:TrackPointExtension></extensions>
      </trkpt>
      <trkpt lat="59.98634615913" lon="15.819226205349">
        <ele>107.2</ele>
        <time>2014-04-29T18:46:00Z</time>
        <extensions><gpxtpx:TrackPointExtension><gpxtpx:hr>101</gpxtpx:hr></gpxtpx:TrackPointExtension></extensions>
      </trkpt>
      <trkpt lat="59.986347164959" lon="15.819183792919">
        <ele>107.4</ele>
        <time>2014-04-29T18:46:01Z</time>
        <extensions><gpxtpx:TrackPointExtension><gpxtpx:hr>112</gpxtpx:hr></gpxtpx:TrackPointExtension></extensions>
      </trkpt>
      <trkpt lat="59.986349008977" lon="15.8191335015">
        <ele>107.2</ele>
        <time>2014-04-29T18:46:02Z</time>
        <extensions><gpxtpx:TrackPointExtension><gpxtpx:hr>122</gpxtpx:hr></gpxtpx:TrackPointExtension></extensions>
      </trkpt>
      <trkpt lat="59.986348170787" lon="15.819093603641">
        <ele>107.2</ele>
        <time>2014-04-29T18:46:03Z</time>
        <extensions><gpxtpx:TrackPointExtension><gpxtpx:hr>126</gpxtpx:hr></gpxtpx:TrackPointExtension></extensions>
      </trkpt>
      <trkpt lat="59.986356804147" lon="15.819041468203">
        <ele>107.2</ele>
        <time>2014-04-29T18:46:04Z</time>
        <extensions><gpxtpx:TrackPointExtension><gpxtpx:hr>134</gpxtpx:hr></gpxtpx:TrackPointExtension></extensions>
      </trkpt>
      <trkpt lat="59.986361246556" lon="15.819010706618">
        <ele>107.2</ele>
        <time>2014-04-29T18:46:05Z</time>
        <extensions><gpxtpx:TrackPointExtension><gpxtpx:hr>139</gpxtpx:hr></gpxtpx:TrackPointExtension></extensions>
      </trkpt>
      <trkpt lat="59.986371137202" lon="15.818963935599">
        <ele>107.2</ele>
        <time>2014-04-29T18:46:06Z</time>
        <extensions><gpxtpx:TrackPointExtension><gpxtpx:hr>142</gpxtpx:hr></gpxtpx:TrackPointExtension></extensions>
      </trkpt>
      <trkpt lat="59.986417405307" lon="15.818811049685">
        <ele>107.2</ele>
        <time>2014-04-29T18:46:10Z</time>
        <extensions><gpxtpx:TrackPointExtension><gpxtpx:hr>147</gpxtpx:hr></gpxtpx:TrackPointExtension></extensions>
      </trkpt>
      <trkpt lat="59.986431151628" lon="15.818783054128">
        <ele>107.2</ele>
        <time>2014-04-29T18:46:11Z</time>
        <extensions><gpxtpx:TrackPointExtension><gpxtpx:hr>152</gpxtpx:hr></gpxtpx:TrackPointExtension></extensions>
      </trkpt>
      <trkpt lat="59.986526453868" lon="15.818578870967">
        <ele>108</ele>
        <time>2014-04-29T18:46:17Z</time>
        <extensions><gpxtpx:TrackPointExtension><gpxtpx:hr>154</gpxtpx:hr></gpxtpx:TrackPointExtension></extensions>
      </trkpt>
      <trkpt lat="59.986540200189" lon="15.818532351404">
        <ele>108.2</ele>
        <time>2014-04-29T18:46:18Z</time>
        <extensions><gpxtpx:TrackPointExtension><gpxtpx:hr>154</gpxtpx:hr></gpxtpx:TrackPointExtension></extensions>
      </trkpt>
      <trkpt lat="59.986583115533" lon="15.818307548761">
        <ele>109</ele>
        <time>2014-04-29T18:46:23Z</time>
        <extensions><gpxtpx:TrackPointExtension><gpxtpx:hr>154</gpxtpx:hr></gpxtpx:TrackPointExtension></extensions>
      </trkpt>
      <trkpt lat="59.986695600674" lon="15.817988701165">
        <ele>108.4</ele>
        <time>2014-04-29T18:46:30Z</time>
        <extensions><gpxtpx:TrackPointExtension><gpxtpx:hr>157</gpxtpx:hr></gpxtpx:TrackPointExtension></extensions>
      </trkpt>
      <trkpt lat="59.986780341715" lon="15.817729197443">
        <ele>107.8</ele>
        <time>2014-04-29T18:46:36Z</time>
        <extensions><gpxtpx:TrackPointExtension><gpxtpx:hr>158</gpxtpx:hr></gpxtpx:TrackPointExtension></extensions>
      </trkpt>
      <trkpt lat="59.986825687811" lon="15.817436333746">
        <ele>107.8</ele>
        <time>2014-04-29T18:46:42Z</time>
        <extensions><gpxtpx:TrackPointExtension><gpxtpx:hr>158</gpxtpx:hr></gpxtpx:TrackPointExtension></extensions>
      </trkpt>
      <trkpt lat="59.986848570406" lon="15.817133076489">
        <ele>107.8</ele>
        <time>2014-04-29T18:46:48Z</time>
        <extensions><gpxtpx:TrackPointExtension><gpxtpx:hr>158</gpxtpx:hr></gpxtpx:TrackPointExtension></extensions>
      </trkpt>
      <trkpt lat="59.986844714731" lon="15.816818587482">
        <ele>107.8</ele>
        <time>2014-04-29T18:46:54Z</time>
        <extensions><gpxtpx:TrackPointExtension><gpxtpx:hr>158</gpxtpx:hr></gpxtpx:TrackPointExtension></extensions>
      </trkpt>
      <trkpt lat="59.986835075542" lon="15.816452382132">
        <ele>108</ele>
        <time>2014-04-29T18:47:01Z</time>
        <extensions><gpxtpx:TrackPointExtension><gpxtpx:hr>159</gpxtpx:hr></gpxtpx:TrackPointExtension></extensions>
      </trkpt>
      <trkpt lat="59.986800793558" lon="15.816157339141">
        <ele>108.2</ele>
        <time>2014-04-29T18:47:07Z</time>
        <extensions><gpxtpx:TrackPointExtension><gpxtpx:hr>159</gpxtpx:hr></gpxtpx:TrackPointExtension></extensions>
      </trkpt>
      <trkpt lat="59.986756201833" lon="15.816122218966">
        <ele>108.4</ele>
        <time>2014-04-29T18:47:09Z</time>
        <extensions><gpxtpx:TrackPointExtension><gpxtpx:hr>159</gpxtpx:hr></gpxtpx:TrackPointExtension></extensions>
      </trkpt>
      <trkpt lat="59.986711610109" lon="15.816139904782">
        <ele>108.8</ele>
        <time>2014-04-29T18:47:11Z</time>
        <extensions><gpxtpx:TrackPointExtension><gpxtpx:hr>159</gpxtpx:hr></gpxtpx:TrackPointExtension></extensions>
      </trkpt>
      <trkpt lat="59.986661989242" lon="15.816179635003">
        <ele>109</ele>
        <time>2014-04-29T18:47:13Z</time>
        <extensions><gpxtpx:TrackPointExtension><gpxtpx:hr>159</gpxtpx:hr></gpxtpx:TrackPointExtension></extensions>
      </trkpt>
      <trkpt lat="59.986619157717" lon="15.816212156788">
        <ele>108.8</ele>
        <time>2014-04-29T18:47:15Z</time>
        <extensions><gpxtpx:TrackPointExtension><gpxtpx:hr>154</gpxtpx:hr></gpxtpx:TrackPointExtension></extensions>
      </trkpt>
      <trkpt lat="59.986568447202" lon="15.816252222285">
        <ele>108.8</ele>
        <time>2014-04-29T18:47:17Z</time>
        <extensions><gpxtpx:TrackPointExtension><gpxtpx:hr>154</gpxtpx:hr></gpxtpx:TrackPointExtension></extensions>
      </trkpt>
      <trkpt lat="59.986538775265" lon="15.816274937242">
        <ele>108.8</ele>
        <time>2014-04-29T18:47:18Z</time>
        <extensions><gpxtpx:TrackPointExtension><gpxtpx:hr>157</gpxtpx:hr></gpxtpx:TrackPointExtension></extensions>
      </trkpt>
      <trkpt lat="59.98641975224" lon="15.816354900599">
        <ele>108.8</ele>
        <time>2014-04-29T18:47:23Z</time>
        <extensions><gpxtpx:TrackPointExtension><gpxtpx:hr>154</gpxtpx:hr></gpxtpx:TrackPointExtension></extensions>
      </trkpt>
      <trkpt lat="59.986371388659" lon="15.816390188411">
        <ele>108.6</ele>
        <time>2014-04-29T18:47:25Z</time>
        <extensions><gpxtpx:TrackPointExtension><gpxtpx:hr>153</gpxtpx:hr></gpxtpx:TrackPointExtension></extensions>
      </trkpt>
      <trkpt lat="59.986174916849" lon="15.816478366032">
        <ele>107.8</ele>
        <time>2014-04-29T18:47:32Z</time>
        <extensions><gpxtpx:TrackPointExtension><gpxtpx:hr>152</gpxtpx:hr></gpxtpx:TrackPointExtension></extensions>
      </trkpt>
      <trkpt lat="59.986044997349" lon="15.816461602226">
        <ele>107.4</ele>
        <time>2014-04-29T18:47:37Z</time>
        <extensions><gpxtpx:TrackPointExtension><gpxtpx:hr>152</gpxtpx:hr></gpxtpx:TrackPointExtension></extensions>
      </trkpt>
      <trkpt lat="59.98588389717" lon="15.81641013734">
        <ele>107</ele>
        <time>2014-04-29T18:47:43Z</time>
        <extensions><gpxtpx:TrackPointExtension><gpxtpx:hr>149</gpxtpx:hr></gpxtpx:TrackPointExtension></extensions>
      </trkpt>
      <trkpt lat="59.985720785335" lon="15.816335454583">
        <ele>106.8</ele>
        <time>2014-04-29T18:47:49Z</time>
        <extensions><gpxtpx:TrackPointExtension><gpxtpx:hr>147</gpxtpx:hr></gpxtpx:TrackPointExtension></extensions>
      </trkpt>
      <trkpt lat="59.985690526664" lon="15.816321792081">
        <ele>106.6</ele>
        <time>2014-04-29T18:47:50Z</time>
        <extensions><gpxtpx:TrackPointExtension><gpxtpx:hr>147</gpxtpx:hr></gpxtpx:TrackPointExtension></extensions>
      </trkpt>
      <trkpt lat="59.985583489761" lon="15.816270913929">
        <ele>106.6</ele>
        <time>2014-04-29T18:47:54Z</time>
        <extensions><gpxtpx:TrackPointExtension><gpxtpx:hr>146</gpxtpx:hr></gpxtpx:TrackPointExtension></extensions>
      </trkpt>
      <trkpt lat="59.985432615504" lon="15.816124817356">
        <ele>106.4</ele>
        <time>2014-04-29T18:48:00Z</time>
        <extensions><gpxtpx:TrackPointExtension><gpxtpx:hr>147</gpxtpx:hr></gpxtpx:TrackPointExtension></extensions>
      </trkpt>
      <trkpt lat="59.98531258665" lon="15.815897583961">
        <ele>106.6</ele>
        <time>2014-04-29T18:48:06Z</time>
        <extensions><gpxtpx:TrackPointExtension><gpxtpx:hr>147</gpxtpx:hr></gpxtpx:TrackPointExtension></extensions>
      </trkpt>
      <trkpt lat="59.985229857266" lon="15.815727934241">
        <ele>106.6</ele>
        <time>2014-04-29T18:48:11Z</time>
        <extensions><gpxtpx:TrackPointExtension><gpxtpx:hr>148</gpxtpx:hr></gpxtpx:TrackPointExtension></extensions>
      </trkpt>
      <trkpt lat="59.985139416531" lon="15.815466837958">
        <ele>106.8</ele>
        <time>2014-04-29T18:48:17Z</time>
        <extensions><gpxtpx:TrackPointExtension><gpxtpx:hr>149</gpxtpx:hr></gpxtpx:TrackPointExtension></extensions>
      </trkpt>
      <trkpt lat="59.985031373799" lon="15.815145643428">
        <ele>107.2</ele>
        <time>2014-04-29T18:48:24Z</time>
        <extensions><gpxtpx:TrackPointExtension><gpxtpx:hr>148</gpxtpx:hr></gpxtpx:TrackPointExtension></extensions>
      </trkpt>
      <trkpt lat="59.985025674105" lon="15.815112283453">
        <ele>107.4</ele>
        <time>2014-04-29T18:48:25Z</time>
        <extensions><gpxtpx:TrackPointExtension><gpxtpx:hr>149</gpxtpx:hr></gpxtpx:TrackPointExtension></extensions>
      </trkpt>
      <trkpt lat="59.984978567809" lon="15.814929222688">
        <ele>107.6</ele>
        <time>2014-04-29T18:48:29Z</time>
        <extensions><gpxtpx:TrackPointExtension><gpxtpx:hr>148</gpxtpx:hr></gpxtpx:TrackPointExtension></extensions>
      </trkpt>
      <trkpt lat="59.984963648021" lon="15.814871387556">
        <ele>107.6</ele>
        <time>2014-04-29T18:48:30Z</time>
        <extensions><gpxtpx:TrackPointExtension><gpxtpx:hr>149</gpxtpx:hr></gpxtpx:TrackPointExtension></extensions>
      </trkpt>
      <trkpt lat="59.98491444625" lon="15.814556479454">
        <ele>107.8</ele>
        <time>2014-04-29T18:48:36Z</time>
        <extensions><gpxtpx:TrackPointExtension><gpxtpx:hr>148</gpxtpx:hr></gpxtpx:TrackPointExtension></extensions>
      </trkpt>
      <trkpt lat="59.984883433208" lon="15.814308291301">
        <ele>107.8</ele>
        <time>2014-04-29T18:48:41Z</time>
        <extensions><gpxtpx:TrackPointExtension><gpxtpx:hr>146</gpxtpx:hr></gpxtpx:TrackPointExtension></extensions>
      </trkpt>
      <trkpt lat="59.984850492328" lon="15.814069323242">
        <ele>107.6</ele>
        <time>2014-04-29T18:48:46Z</time>
        <extensions><gpxtpx:TrackPointExtension><gpxtpx:hr>146</gpxtpx:hr></gpxtpx:TrackPointExtension></extensions>
      </trkpt>
      <trkpt lat="59.984820988029" lon="15.813857093453">
        <ele>107.4</ele>
        <time>2014-04-29T18:48:51Z</time>
        <extensions><gpxtpx:TrackPointExtension><gpxtpx:hr>146</gpxtpx:hr></gpxtpx:TrackPointExtension></extensions>
      </trkpt>
      <trkpt lat="59.984800620005" lon="15.813753744587">
        <ele>107.2</ele>
        <time>2014-04-29T18:48:54Z</time>
        <extensions><gpxtpx:TrackPointExtension><gpxtpx:hr>147</gpxtpx:hr></gpxtpx:TrackPointExtension></extensions>
      </trkpt>
      <trkpt lat="59.984795590863" lon="15.813711751252">
        <ele>107.4</ele>
        <time>2014-04-29T18:48:55Z</time>
        <extensions><gpxtpx:TrackPointExtension><gpxtpx:hr>147</gpxtpx:hr></gpxtpx:TrackPointExtension></extensions>
      </trkpt>
      <trkpt lat="59.984726943076" lon="15.813390389085">
        <ele>107.4</ele>
        <time>2014-04-29T18:49:02Z</time>
        <extensions><gpxtpx:TrackPointExtension><gpxtpx:hr>148</gpxtpx:hr></gpxtpx:TrackPointExtension></extensions>
      </trkpt>
      <trkpt lat="59.984680339694" lon="15.813175728545">
        <ele>107.8</ele>
        <time>2014-04-29T18:49:07Z</time>
        <extensions><gpxtpx:TrackPointExtension><gpxtpx:hr>148</gpxtpx:hr></gpxtpx:TrackPointExtension></extensions>
      </trkpt>
      <trkpt lat="59.984658295289" lon="15.812911111861">
        <ele>107.8</ele>
        <time>2014-04-29T18:49:12Z</time>
        <extensions><gpxtpx:TrackPointExtension><gpxtpx:hr>149</gpxtpx:hr></gpxtpx:TrackPointExtension></extensions>
      </trkpt>
      <trkpt lat="59.984683021903" lon="15.812630569562">
        <ele>108</ele>
        <time>2014-04-29T18:49:18Z</time>
        <extensions><gpxtpx:TrackPointExtension><gpxtpx:hr>150</gpxtpx:hr></gpxtpx:TrackPointExtension></extensions>
      </trkpt>
      <trkpt lat="59.984690314159" lon="15.812521437183">
        <ele>108.6</ele>
        <time>2014-04-29T18:49:20Z</time>
        <extensions><gpxtpx:TrackPointExtension><gpxtpx:hr>150</gpxtpx:hr></gpxtpx:TrackPointExtension></extensions>
      </trkpt>
      <trkpt lat="59.984698779881" lon="15.812377352268">
        <ele>109.2</ele>
        <time>2014-04-29T18:49:23Z</time>
        <extensions><gpxtpx:TrackPointExtension><gpxtpx:hr>151</gpxtpx:hr></gpxtpx:TrackPointExtension></extensions>
      </trkpt>
      <trkpt lat="59.984692241997" lon="15.812154812738">
        <ele>109.8</ele>
        <time>2014-04-29T18:49:27Z</time>
        <extensions><gpxtpx:TrackPointExtension><gpxtpx:hr>152</gpxtpx:hr></gpxtpx:TrackPointExtension></extensions>
      </trkpt>
      <trkpt lat="59.984684865922" lon="15.812099073082">
        <ele>109.8</ele>
        <time>2014-04-29T18:49:28Z</time>
        <extensions><gpxtpx:TrackPointExtension><gpxtpx:hr>151</gpxtpx:hr></gpxtpx:TrackPointExtension></extensions>
      </trkpt>
      <trkpt lat="59.984619822353" lon="15.811817189679">
        <ele>111</ele>
        <time>2014-04-29T18:49:34Z</time>
        <extensions><gpxtpx:TrackPointExtension><gpxtpx:hr>152</gpxtpx:hr></gpxtpx:TrackPointExtension></extensions>
      </trkpt>
      <trkpt lat="59.984547989443" lon="15.811536312103">
        <ele>111.4</ele>
        <time>2014-04-29T18:49:40Z</time>
        <extensions><gpxtpx:TrackPointExtension><gpxtpx:hr>152</gpxtpx:hr></gpxtpx:TrackPointExtension></extensions>
      </trkpt>
      <trkpt lat="59.984461823478" lon="15.811194581911">
        <ele>112</ele>
        <time>2014-04-29T18:49:47Z</time>
        <extensions><gpxtpx:TrackPointExtension><gpxtpx:hr>153</gpxtpx:hr></gpxtpx:TrackPointExtension></extensions>
      </trkpt>
      <trkpt lat="59.984397199005" lon="15.810937928036">
        <ele>112.2</ele>
        <time>2014-04-29T18:49:52Z</time>
        <extensions><gpxtpx:TrackPointExtension><gpxtpx:hr>154</gpxtpx:hr></gpxtpx:TrackPointExtension></extensions>
      </trkpt>
      <trkpt lat="59.984309943393" lon="15.810608100146">
        <ele>112.4</ele>
        <time>2014-04-29T18:49:59Z</time>
        <extensions><gpxtpx:TrackPointExtension><gpxtpx:hr>155</gpxtpx:hr></gpxtpx:TrackPointExtension></extensions>
      </trkpt>
      <trkpt lat="59.984243223444" lon="15.810322528705">
        <ele>113</ele>
        <time>2014-04-29T18:50:05Z</time>
        <extensions><gpxtpx:TrackPointExtension><gpxtpx:hr>154</gpxtpx:hr></gpxtpx:TrackPointExtension></extensions>
      </trkpt>
      <trkpt lat="59.984215479344" lon="15.810222700238">
        <ele>113</ele>
        <time>2014-04-29T18:50:07Z</time>
        <extensions><gpxtpx:TrackPointExtension><gpxtpx:hr>154</gpxtpx:hr></gpxtpx:TrackPointExtension></extensions>
      </trkpt>
      <trkpt lat="59.984164433554" lon="15.810046093538">
        <ele>113.2</ele>
        <time>2014-04-29T18:50:11Z</time>
        <extensions><gpxtpx:TrackPointExtension><gpxtpx:hr>153</gpxtpx:hr></gpxtpx:TrackPointExtension></extensions>
      </trkpt>
      <trkpt lat="59.984101234004" lon="15.809812908992">
        <ele>113</ele>
        <time>2014-04-29T18:50:16Z</time>
        <extensions><gpxtpx:TrackPointExtension><gpxtpx:hr>153</gpxtpx:hr></gpxtpx:TrackPointExtension></extensions>
      </trkpt>
      <trkpt lat="59.9840479251" lon="15.809578970075">
        <ele>112.8</ele>
        <time>2014-04-29T18:50:21Z</time>
        <extensions><gpxtpx:TrackPointExtension><gpxtpx:hr>153</gpxtpx:hr></gpxtpx:TrackPointExtension></extensions>
      </trkpt>
      <trkpt lat="59.983971146867" lon="15.80928593874">
        <ele>113</ele>
        <time>2014-04-29T18:50:27Z</time>
        <extensions><gpxtpx:TrackPointExtension><gpxtpx:hr>153</gpxtpx:hr></gpxtpx:TrackPointExtension></extensions>
      </trkpt>
      <trkpt lat="59.983898308128" lon="15.809074379504">
        <ele>113</ele>
        <time>2014-04-29T18:50:32Z</time>
        <extensions><gpxtpx:TrackPointExtension><gpxtpx:hr>152</gpxtpx:hr></gpxtpx:TrackPointExtension></extensions>
      </trkpt>
      <trkpt lat="59.98380116187" lon="15.808825269341">
        <ele>113.2</ele>
        <time>2014-04-29T18:50:38Z</time>
        <extensions><gpxtpx:TrackPointExtension><gpxtpx:hr>152</gpxtpx:hr></gpxtpx:TrackPointExtension></extensions>
      </trkpt>
      <trkpt lat="59.983697058633" lon="15.808621002361">
        <ele>113</ele>
        <time>2014-04-29T18:50:44Z</time>
        <extensions><gpxtpx:TrackPointExtension><gpxtpx:hr>153</gpxtpx:hr></gpxtpx:TrackPointExtension></extensions>
      </trkpt>
      <trkpt lat="59.983670739457" lon="15.808521844447">
        <ele>113</ele>
        <time>2014-04-29T18:50:46Z</time>
        <extensions><gpxtpx:TrackPointExtension><gpxtpx:hr>153</gpxtpx:hr></gpxtpx:TrackPointExtension></extensions>
      </trkpt>
      <trkpt lat="59.983627321199" lon="15.808475157246">
        <ele>113</ele>
        <time>2014-04-29T18:50:48Z</time>
        <extensions><gpxtpx:TrackPointExtension><gpxtpx:hr>153</gpxtpx:hr></gpxtpx:TrackPointExtension></extensions>
      </trkpt>
      <trkpt lat="59.983475944027" lon="15.808371640742">
        <ele>113.2</ele>
        <time>2014-04-29T18:50:54Z</time>
        <extensions><gpxtpx:TrackPointExtension><gpxtpx:hr>153</gpxtpx:hr></gpxtpx:TrackPointExtension></extensions>
      </trkpt>
      <trkpt lat="59.983370583504" lon="15.808407934383">
        <ele>113.2</ele>
        <time>2014-04-29T18:50:59Z</time>
        <extensions><gpxtpx:TrackPointExtension><gpxtpx:hr>151</gpxtpx:hr></gpxtpx:TrackPointExtension></extensions>
      </trkpt>
      <trkpt lat="59.983339319006" lon="15.8083908353">
        <ele>113.4</ele>
        <time>2014-04-29T18:51:00Z</time>
        <extensions><gpxtpx:TrackPointExtension><gpxtpx:hr>151</gpxtpx:hr></gpxtpx:TrackPointExtension></extensions>
      </trkpt>
      <trkpt lat="59.983266480267" lon="15.80834322609">
        <ele>113.4</ele>
        <time>2014-04-29T18:51:03Z</time>
        <extensions><gpxtpx:TrackPointExtension><gpxtpx:hr>151</gpxtpx:hr></gpxtpx:TrackPointExtension></extensions>
      </trkpt>
      <trkpt lat="59.983144691214" lon="15.808427464217">
        <ele>113.2</ele>
        <time>2014-04-29T18:51:08Z</time>
        <extensions><gpxtpx:TrackPointExtension><gpxtpx:hr>151</gpxtpx:hr></gpxtpx:TrackPointExtension></extensions>
      </trkpt>
      <trkpt lat="59.98306103982" lon="15.808617901057">
        <ele>113.2</ele>
        <time>2014-04-29T18:51:13Z</time>
        <extensions><gpxtpx:TrackPointExtension><gpxtpx:hr>151</gpxtpx:hr></gpxtpx:TrackPointExtension></extensions>
      </trkpt>
      <trkpt lat="59.982947716489" lon="15.808849828318">
        <ele>113.2</ele>
        <time>2014-04-29T18:51:19Z</time>
        <extensions><gpxtpx:TrackPointExtension><gpxtpx:hr>150</gpxtpx:hr></gpxtpx:TrackPointExtension></extensions>
      </trkpt>
      <trkpt lat="59.982795165852" lon="15.809126934037">
        <ele>113.2</ele>
        <time>2014-04-29T18:51:26Z</time>
        <extensions><gpxtpx:TrackPointExtension><gpxtpx:hr>150</gpxtpx:hr></gpxtpx:TrackPointExtension></extensions>
      </trkpt>
      <trkpt lat="59.982697181404" lon="15.809329273179">
        <ele>112.8</ele>
        <time>2014-04-29T18:51:31Z</time>
        <extensions><gpxtpx:TrackPointExtension><gpxtpx:hr>150</gpxtpx:hr></gpxtpx:TrackPointExtension></extensions>
      </trkpt>
      <trkpt lat="59.982564412057" lon="15.809643846005">
        <ele>112.4</ele>
        <time>2014-04-29T18:51:38Z</time>
        <extensions><gpxtpx:TrackPointExtension><gpxtpx:hr>150</gpxtpx:hr></gpxtpx:TrackPointExtension></extensions>
      </trkpt>
      <trkpt lat="59.982442371547" lon="15.809895889834">
        <ele>112.2</ele>
        <time>2014-04-29T18:51:44Z</time>
        <extensions><gpxtpx:TrackPointExtension><gpxtpx:hr>150</gpxtpx:hr></gpxtpx:TrackPointExtension></extensions>
      </trkpt>
      <trkpt lat="59.982301807031" lon="15.810178862885">
        <ele>112.2</ele>
        <time>2014-04-29T18:51:51Z</time>
        <extensions><gpxtpx:TrackPointExtension><gpxtpx:hr>150</gpxtpx:hr></gpxtpx:TrackPointExtension></extensions>
      </trkpt>
      <trkpt lat="59.982283366844" lon="15.810211803764">
        <ele>112</ele>
        <time>2014-04-29T18:51:52Z</time>
        <extensions><gpxtpx:TrackPointExtension><gpxtpx:hr>150</gpxtpx:hr></gpxtpx:TrackPointExtension></extensions>
      </trkpt>
      <trkpt lat="59.98222226277" lon="15.810305094346">
        <ele>112</ele>
        <time>2014-04-29T18:51:55Z</time>
        <extensions><gpxtpx:TrackPointExtension><gpxtpx:hr>150</gpxtpx:hr></gpxtpx:TrackPointExtension></extensions>
      </trkpt>
      <trkpt lat="59.982163254172" lon="15.810408862308">
        <ele>111.8</ele>
        <time>2014-04-29T18:51:58Z</time>
        <extensions><gpxtpx:TrackPointExtension><gpxtpx:hr>150</gpxtpx:hr></gpxtpx:TrackPointExtension></extensions>
      </trkpt>
      <trkpt lat="59.982059905306" lon="15.810659313574">
        <ele>112</ele>
        <time>2014-04-29T18:52:05Z</time>
        <extensions><gpxtpx:TrackPointExtension><gpxtpx:hr>150</gpxtpx:hr></gpxtpx:TrackPointExtension></extensions>
      </trkpt>
      <trkpt lat="59.981946246698" lon="15.811006492004">
        <ele>111.8</ele>
        <time>2014-04-29T18:52:12Z</time>
        <extensions><gpxtpx:TrackPointExtension><gpxtpx:hr>150</gpxtpx:hr></gpxtpx:TrackPointExtension></extensions>
      </trkpt>
      <trkpt lat="59.98187860474" lon="15.811298349872">
        <ele>111.6</ele>
        <time>2014-04-29T18:52:18Z</time>
        <extensions><gpxtpx:TrackPointExtension><gpxtpx:hr>150</gpxtpx:hr></gpxtpx:TrackPointExtension></extensions>
      </trkpt>
      <trkpt lat="59.981839042157" lon="15.811591548845">
        <ele>111.4</ele>
        <time>2014-04-29T18:52:24Z</time>
        <extensions><gpxtpx:TrackPointExtension><gpxtpx:hr>150</gpxtpx:hr></gpxtpx:TrackPointExtension></extensions>
      </trkpt>
      <trkpt lat="59.98185345903" lon="15.811934368685">
        <ele>111.2</ele>
        <time>2014-04-29T18:52:30Z</time>
        <extensions><gpxtpx:TrackPointExtension><gpxtpx:hr>151</gpxtpx:hr></gpxtpx:TrackPointExtension></extensions>
      </trkpt>
      <trkpt lat="59.981858069077" lon="15.811977954581">
        <ele>110.8</ele>
        <time>2014-04-29T18:52:31Z</time>
        <extensions><gpxtpx:TrackPointExtension><gpxtpx:hr>151</gpxtpx:hr></gpxtpx:TrackPointExtension></extensions>
      </trkpt>
      <trkpt lat="59.981847004965" lon="15.812086500227">
        <ele>110.8</ele>
        <time>2014-04-29T18:52:33Z</time>
        <extensions><gpxtpx:TrackPointExtension><gpxtpx:hr>151</gpxtpx:hr></gpxtpx:TrackPointExtension></extensions>
      </trkpt>
      <trkpt lat="59.981826134026" lon="15.812173504382">
        <ele>110.4</ele>
        <time>2014-04-29T18:52:35Z</time>
        <extensions><gpxtpx:TrackPointExtension><gpxtpx:hr>159</gpxtpx:hr></gpxtpx:TrackPointExtension></extensions>
      </trkpt>
      <trkpt lat="59.98180937022" lon="15.812236703932">
        <ele>110.6</ele>
        <time>2014-04-29T18:52:36Z</time>
        <extensions><gpxtpx:TrackPointExtension><gpxtpx:hr>159</gpxtpx:hr></gpxtpx:TrackPointExtension></extensions>
      </trkpt>
      <trkpt lat="59.981783973053" lon="15.8123294916">
        <ele>110.6</ele>
        <time>2014-04-29T18:52:38Z</time>
        <extensions><gpxtpx:TrackPointExtension><gpxtpx:hr>155</gpxtpx:hr></gpxtpx:TrackPointExtension></extensions>
      </trkpt>
      <trkpt lat="59.9817625992" lon="15.81242043525">
        <ele>110.6</ele>
        <time>2014-04-29T18:52:40Z</time>
        <extensions><gpxtpx:TrackPointExtension><gpxtpx:hr>153</gpxtpx:hr></gpxtpx:TrackPointExtension></extensions>
      </trkpt>
      <trkpt lat="59.981683474034" lon="15.812709694728">
        <ele>110.4</ele>
        <time>2014-04-29T18:52:46Z</time>
        <extensions><gpxtpx:TrackPointExtension><gpxtpx:hr>151</gpxtpx:hr></gpxtpx:TrackPointExtension></extensions>
      </trkpt>
      <trkpt lat="59.981608623639" lon="15.812967689708">
        <ele>110.4</ele>
        <time>2014-04-29T18:52:52Z</time>
        <extensions><gpxtpx:TrackPointExtension><gpxtpx:hr>151</gpxtpx:hr></gpxtpx:TrackPointExtension></extensions>
      </trkpt>
      <trkpt lat="59.981516422704" lon="15.813244460151">
        <ele>110.4</ele>
        <time>2014-04-29T18:52:58Z</time>
        <extensions><gpxtpx:TrackPointExtension><gpxtpx:hr>152</gpxtpx:hr></gpxtpx:TrackPointExtension></extensions>
      </trkpt>
      <trkpt lat="59.981442661956" lon="15.813465155661">
        <ele>110.6</ele>
        <time>2014-04-29T18:53:03Z</time>
        <extensions><gpxtpx:TrackPointExtension><gpxtpx:hr>152</gpxtpx:hr></gpxtpx:TrackPointExtension></extensions>
      </trkpt>
      <trkpt lat="59.98134534806" lon="15.813697502017">
        <ele>110.6</ele>
        <time>2014-04-29T18:53:08Z</time>
        <extensions><gpxtpx:TrackPointExtension><gpxtpx:hr>152</gpxtpx:hr></gpxtpx:TrackPointExtension></extensions>
      </trkpt>
      <trkpt lat="59.981252560392" lon="15.813927166164">
        <ele>110.4</ele>
        <time>2014-04-29T18:53:13Z</time>
        <extensions><gpxtpx:TrackPointExtension><gpxtpx:hr>152</gpxtpx:hr></gpxtpx:TrackPointExtension></extensions>
      </trkpt>
      <trkpt lat="59.981179386377" lon="15.81409195438">
        <ele>110.4</ele>
        <time>2014-04-29T18:53:17Z</time>
        <extensions><gpxtpx:TrackPointExtension><gpxtpx:hr>153</gpxtpx:hr></gpxtpx:TrackPointExtension></extensions>
      </trkpt>
      <trkpt lat="59.981063716114" lon="15.814343830571">
        <ele>110.6</ele>
        <time>2014-04-29T18:53:23Z</time>
        <extensions><gpxtpx:TrackPointExtension><gpxtpx:hr>153</gpxtpx:hr></gpxtpx:TrackPointExtension></extensions>
      </trkpt>
      <trkpt lat="59.980974281207" lon="15.814530663192">
        <ele>111</ele>
        <time>2014-04-29T18:53:28Z</time>
        <extensions><gpxtpx:TrackPointExtension><gpxtpx:hr>153</gpxtpx:hr></gpxtpx:TrackPointExtension></extensions>
      </trkpt>
      <trkpt lat="59.980878224596" lon="15.814771642908">
        <ele>110.8</ele>
        <time>2014-04-29T18:53:34Z</time>
        <extensions><gpxtpx:TrackPointExtension><gpxtpx:hr>153</gpxtpx:hr></gpxtpx:TrackPointExtension></extensions>
      </trkpt>
      <trkpt lat="59.980735396966" lon="15.815078336746">
        <ele>111.2</ele>
        <time>2014-04-29T18:53:42Z</time>
        <extensions><gpxtpx:TrackPointExtension><gpxtpx:hr>154</gpxtpx:hr></gpxtpx:TrackPointExtension></extensions>
      </trkpt>
      <trkpt lat="59.980651410297" lon="15.815241029486">
        <ele>111.6</ele>
        <time>2014-04-29T18:53:47Z</time>
        <extensions><gpxtpx:TrackPointExtension><gpxtpx:hr>154</gpxtpx:hr></gpxtpx:TrackPointExtension></extensions>
      </trkpt>
      <trkpt lat="59.980556527153" lon="15.815412271768">
        <ele>111.6</ele>
        <time>2014-04-29T18:53:52Z</time>
        <extensions><gpxtpx:TrackPointExtension><gpxtpx:hr>153</gpxtpx:hr></gpxtpx:TrackPointExtension></extensions>
      </trkpt>
      <trkpt lat="59.980462482199" lon="15.815567839891">
        <ele>111.6</ele>
        <time>2014-04-29T18:53:57Z</time>
        <extensions><gpxtpx:TrackPointExtension><gpxtpx:hr>153</gpxtpx:hr></gpxtpx:TrackPointExtension></extensions>
      </trkpt>
      <trkpt lat="59.980434151366" lon="15.815600277856">
        <ele>111.8</ele>
        <time>2014-04-29T18:53:58Z</time>
        <extensions><gpxtpx:TrackPointExtension><gpxtpx:hr>153</gpxtpx:hr></gpxtpx:TrackPointExtension></extensions>
      </trkpt>
      <trkpt lat="59.980350164697" lon="15.815737321973">
        <ele>112</ele>
        <time>2014-04-29T18:54:03Z</time>
        <extensions><gpxtpx:TrackPointExtension><gpxtpx:hr>153</gpxtpx:hr></gpxtpx:TrackPointExtension></extensions>
      </trkpt>
      <trkpt lat="59.980226447806" lon="15.815922897309">
        <ele>112.2</ele>
        <time>2014-04-29T18:54:09Z</time>
        <extensions><gpxtpx:TrackPointExtension><gpxtpx:hr>154</gpxtpx:hr></gpxtpx:TrackPointExtension></extensions>
      </trkpt>
      <trkpt lat="59.980130726472" lon="15.816074777395">
        <ele>112.4</ele>
        <time>2014-04-29T18:54:14Z</time>
        <extensions><gpxtpx:TrackPointExtension><gpxtpx:hr>154</gpxtpx:hr></gpxtpx:TrackPointExtension></extensions>
      </trkpt>
      <trkpt lat="59.980018660426" lon="15.81625783816">
        <ele>112.8</ele>
        <time>2014-04-29T18:54:20Z</time>
        <extensions><gpxtpx:TrackPointExtension><gpxtpx:hr>154</gpxtpx:hr></gpxtpx:TrackPointExtension></extensions>
      </trkpt>
      <trkpt lat="59.980003992096" lon="15.816290108487">
        <ele>112.8</ele>
        <time>2014-04-29T18:54:21Z</time>
        <extensions><gpxtpx:TrackPointExtension><gpxtpx:hr>154</gpxtpx:hr></gpxtpx:TrackPointExtension></extensions>
      </trkpt>
      <trkpt lat="59.97993006371" lon="15.816410556436">
        <ele>113</ele>
        <time>2014-04-29T18:54:25Z</time>
        <extensions><gpxtpx:TrackPointExtension><gpxtpx:hr>154</gpxtpx:hr></gpxtpx:TrackPointExtension></extensions>
      </trkpt>
      <trkpt lat="59.979835851118" lon="15.81659370102">
        <ele>113.2</ele>
        <time>2014-04-29T18:54:30Z</time>
        <extensions><gpxtpx:TrackPointExtension><gpxtpx:hr>154</gpxtpx:hr></gpxtpx:TrackPointExtension></extensions>
      </trkpt>
      <trkpt lat="59.979751193896" lon="15.816760500893">
        <ele>113.4</ele>
        <time>2014-04-29T18:54:35Z</time>
        <extensions><gpxtpx:TrackPointExtension><gpxtpx:hr>154</gpxtpx:hr></gpxtpx:TrackPointExtension></extensions>
      </trkpt>
      <trkpt lat="59.979652287439" lon="15.816959738731">
        <ele>113.6</ele>
        <time>2014-04-29T18:54:40Z</time>
        <extensions><gpxtpx:TrackPointExtension><gpxtpx:hr>154</gpxtpx:hr></gpxtpx:TrackPointExtension></extensions>
      </trkpt>
      <trkpt lat="59.979571988806" lon="15.817104075104">
        <ele>114</ele>
        <time>2014-04-29T18:54:44Z</time>
        <extensions><gpxtpx:TrackPointExtension><gpxtpx:hr>155</gpxtpx:hr></gpxtpx:TrackPointExtension></extensions>
      </trkpt>
      <trkpt lat="59.979529744014" lon="15.817189151421">
        <ele>113.8</ele>
        <time>2014-04-29T18:54:46Z</time>
        <extensions><gpxtpx:TrackPointExtension><gpxtpx:hr>155</gpxtpx:hr></gpxtpx:TrackPointExtension></extensions>
      </trkpt>
      <trkpt lat="59.979418935254" lon="15.817416384816">
        <ele>114</ele>
        <time>2014-04-29T18:54:52Z</time>
        <extensions><gpxtpx:TrackPointExtension><gpxtpx:hr>155</gpxtpx:hr></gpxtpx:TrackPointExtension></extensions>
      </trkpt>
      <trkpt lat="59.979324890301" lon="15.817615035921">
        <ele>114</ele>
        <time>2014-04-29T18:54:57Z</time>
        <extensions><gpxtpx:TrackPointExtension><gpxtpx:hr>155</gpxtpx:hr></gpxtpx:TrackPointExtension></extensions>
      </trkpt>
      <trkpt lat="59.979216260836" lon="15.817857356742">
        <ele>114</ele>
        <time>2014-04-29T18:55:03Z</time>
        <extensions><gpxtpx:TrackPointExtension><gpxtpx:hr>155</gpxtpx:hr></gpxtpx:TrackPointExtension></extensions>
      </trkpt>
      <trkpt lat="59.979148954153" lon="15.818029018119">
        <ele>114</ele>
        <time>2014-04-29T18:55:07Z</time>
        <extensions><gpxtpx:TrackPointExtension><gpxtpx:hr>156</gpxtpx:hr></gpxtpx:TrackPointExtension></extensions>
      </trkpt>
      <trkpt lat="59.979133782908" lon="15.818065144122">
        <ele>114</ele>
        <time>2014-04-29T18:55:08Z</time>
        <extensions><gpxtpx:TrackPointExtension><gpxtpx:hr>155</gpxtpx:hr></gpxtpx:TrackPointExtension></extensions>
      </trkpt>
      <trkpt lat="59.979041079059" lon="15.818286677822">
        <ele>114.2</ele>
        <time>2014-04-29T18:55:13Z</time>
        <extensions><gpxtpx:TrackPointExtension><gpxtpx:hr>156</gpxtpx:hr></gpxtpx:TrackPointExtension></extensions>
      </trkpt>
      <trkpt lat="59.978917110711" lon="15.81859680824">
        <ele>114.2</ele>
        <time>2014-04-29T18:55:20Z</time>
        <extensions><gpxtpx:TrackPointExtension><gpxtpx:hr>156</gpxtpx:hr></gpxtpx:TrackPointExtension></extensions>
      </trkpt>
      <trkpt lat="59.978893641382" lon="15.818653134629">
        <ele>114</ele>
        <time>2014-04-29T18:55:21Z</time>
        <extensions><gpxtpx:TrackPointExtension><gpxtpx:hr>156</gpxtpx:hr></gpxtpx:TrackPointExtension></extensions>
      </trkpt>
      <trkpt lat="59.978808062151" lon="15.818870477378">
        <ele>114</ele>
        <time>2014-04-29T18:55:26Z</time>
        <extensions><gpxtpx:TrackPointExtension><gpxtpx:hr>155</gpxtpx:hr></gpxtpx:TrackPointExtension></extensions>
      </trkpt>
      <trkpt lat="59.978722315282" lon="15.819085557014">
        <ele>113.6</ele>
        <time>2014-04-29T18:55:31Z</time>
        <extensions><gpxtpx:TrackPointExtension><gpxtpx:hr>155</gpxtpx:hr></gpxtpx:TrackPointExtension></extensions>
      </trkpt>
      <trkpt lat="59.978605890647" lon="15.819290326908">
        <ele>113.4</ele>
        <time>2014-04-29T18:55:37Z</time>
        <extensions><gpxtpx:TrackPointExtension><gpxtpx:hr>155</gpxtpx:hr></gpxtpx:TrackPointExtension></extensions>
      </trkpt>
      <trkpt lat="59.97848963365" lon="15.819468107074">
        <ele>113.4</ele>
        <time>2014-04-29T18:55:43Z</time>
        <extensions><gpxtpx:TrackPointExtension><gpxtpx:hr>154</gpxtpx:hr></gpxtpx:TrackPointExtension></extensions>
      </trkpt>
      <trkpt lat="59.978374969214" lon="15.819712188095">
        <ele>113.6</ele>
        <time>2014-04-29T18:55:50Z</time>
        <extensions><gpxtpx:TrackPointExtension><gpxtpx:hr>154</gpxtpx:hr></gpxtpx:TrackPointExtension></extensions>
      </trkpt>
      <trkpt lat="59.978263154626" lon="15.819940930232">
        <ele>113.2</ele>
        <time>2014-04-29T18:55:56Z</time>
        <extensions><gpxtpx:TrackPointExtension><gpxtpx:hr>154</gpxtpx:hr></gpxtpx:TrackPointExtension></extensions>
      </trkpt>
      <trkpt lat="59.978143209592" lon="15.820195740089">
        <ele>113.2</ele>
        <time>2014-04-29T18:56:02Z</time>
        <extensions><gpxtpx:TrackPointExtension><gpxtpx:hr>153</gpxtpx:hr></gpxtpx:TrackPointExtension></extensions>
      </trkpt>
      <trkpt lat="59.978035083041" lon="15.82045356743">
        <ele>113.2</ele>
        <time>2014-04-29T18:56:08Z</time>
        <extensions><gpxtpx:TrackPointExtension><gpxtpx:hr>153</gpxtpx:hr></gpxtpx:TrackPointExtension></extensions>
      </trkpt>
      <trkpt lat="59.978006165475" lon="15.820541661233">
        <ele>113</ele>
        <time>2014-04-29T18:56:10Z</time>
        <extensions><gpxtpx:TrackPointExtension><gpxtpx:hr>152</gpxtpx:hr></gpxtpx:TrackPointExtension></extensions>
      </trkpt>
      <trkpt lat="59.977941038087" lon="15.820724470541">
        <ele>113</ele>
        <time>2014-04-29T18:56:14Z</time>
        <extensions><gpxtpx:TrackPointExtension><gpxtpx:hr>153</gpxtpx:hr></gpxtpx:TrackPointExtension></extensions>
      </trkpt>
      <trkpt lat="59.977932823822" lon="15.820871572942">
        <ele>113</ele>
        <time>2014-04-29T18:56:17Z</time>
        <extensions><gpxtpx:TrackPointExtension><gpxtpx:hr>152</gpxtpx:hr></gpxtpx:TrackPointExtension></extensions>
      </trkpt>
      <trkpt lat="59.977949671447" lon="15.820903591812">
        <ele>113.2</ele>
        <time>2014-04-29T18:56:18Z</time>
        <extensions><gpxtpx:TrackPointExtension><gpxtpx:hr>152</gpxtpx:hr></gpxtpx:TrackPointExtension></extensions>
      </trkpt>
      <trkpt lat="59.978069867939" lon="15.821065278724">
        <ele>112.8</ele>
        <time>2014-04-29T18:56:23Z</time>
        <extensions><gpxtpx:TrackPointExtension><gpxtpx:hr>151</gpxtpx:hr></gpxtpx:TrackPointExtension></extensions>
      </trkpt>
      <trkpt lat="59.978099875152" lon="15.821256469935">
        <ele>112.6</ele>
        <time>2014-04-29T18:56:27Z</time>
        <extensions><gpxtpx:TrackPointExtension><gpxtpx:hr>151</gpxtpx:hr></gpxtpx:TrackPointExtension></extensions>
      </trkpt>
      <trkpt lat="59.978122422472" lon="15.821478003636">
        <ele>112.6</ele>
        <time>2014-04-29T18:56:32Z</time>
        <extensions><gpxtpx:TrackPointExtension><gpxtpx:hr>152</gpxtpx:hr></gpxtpx:TrackPointExtension></extensions>
      </trkpt>
      <trkpt lat="59.978112615645" lon="15.821536760777">
        <ele>112.6</ele>
        <time>2014-04-29T18:56:33Z</time>
        <extensions><gpxtpx:TrackPointExtension><gpxtpx:hr>152</gpxtpx:hr></gpxtpx:TrackPointExtension></extensions>
      </trkpt>
      <trkpt lat="59.978073472157" lon="15.821652431041">
        <ele>112.4</ele>
        <time>2014-04-29T18:56:36Z</time>
        <extensions><gpxtpx:TrackPointExtension><gpxtpx:hr>152</gpxtpx:hr></gpxtpx:TrackPointExtension></extensions>
      </trkpt>
      <trkpt lat="59.978035418317" lon="15.821747817099">
        <ele>112.2</ele>
        <time>2014-04-29T18:56:38Z</time>
        <extensions><gpxtpx:TrackPointExtension><gpxtpx:hr>152</gpxtpx:hr></gpxtpx:TrackPointExtension></extensions>
      </trkpt>
      <trkpt lat="59.978000214323" lon="15.821831468493">
        <ele>111.6</ele>
        <time>2014-04-29T18:56:40Z</time>
        <extensions><gpxtpx:TrackPointExtension><gpxtpx:hr>151</gpxtpx:hr></gpxtpx:TrackPointExtension></extensions>
      </trkpt>
      <trkpt lat="59.977928297594" lon="15.822010673583">
        <ele>110.4</ele>
        <time>2014-04-29T18:56:44Z</time>
        <extensions><gpxtpx:TrackPointExtension><gpxtpx:hr>151</gpxtpx:hr></gpxtpx:TrackPointExtension></extensions>
      </trkpt>
      <trkpt lat="59.977822937071" lon="15.822270428762">
        <ele>109.6</ele>
        <time>2014-04-29T18:56:50Z</time>
        <extensions><gpxtpx:TrackPointExtension><gpxtpx:hr>151</gpxtpx:hr></gpxtpx:TrackPointExtension></extensions>
      </trkpt>
      <trkpt lat="59.977806843817" lon="15.822311919183">
        <ele>109.4</ele>
        <time>2014-04-29T18:56:51Z</time>
        <extensions><gpxtpx:TrackPointExtension><gpxtpx:hr>151</gpxtpx:hr></gpxtpx:TrackPointExtension></extensions>
      </trkpt>
      <trkpt lat="59.977695951238" lon="15.822601346299">
        <ele>109.2</ele>
        <time>2014-04-29T18:56:57Z</time>
        <extensions><gpxtpx:TrackPointExtension><gpxtpx:hr>151</gpxtpx:hr></gpxtpx:TrackPointExtension></extensions>
      </trkpt>
      <trkpt lat="59.977606935427" lon="15.822797818109">
        <ele>109.4</ele>
        <time>2014-04-29T18:57:02Z</time>
        <extensions><gpxtpx:TrackPointExtension><gpxtpx:hr>152</gpxtpx:hr></gpxtpx:TrackPointExtension></extensions>
      </trkpt>
      <trkpt lat="59.977510040626" lon="15.822999402881">
        <ele>109.4</ele>
        <time>2014-04-29T18:57:07Z</time>
        <extensions><gpxtpx:TrackPointExtension><gpxtpx:hr>153</gpxtpx:hr></gpxtpx:TrackPointExtension></extensions>
      </trkpt>
      <trkpt lat="59.9773962982" lon="15.823213057593">
        <ele>109.8</ele>
        <time>2014-04-29T18:57:13Z</time>
        <extensions><gpxtpx:TrackPointExtension><gpxtpx:hr>153</gpxtpx:hr></gpxtpx:TrackPointExtension></extensions>
      </trkpt>
      <trkpt lat="59.977279203013" lon="15.823440793902">
        <ele>110.4</ele>
        <time>2014-04-29T18:57:20Z</time>
        <extensions><gpxtpx:TrackPointExtension><gpxtpx:hr>154</gpxtpx:hr></gpxtpx:TrackPointExtension></extensions>
      </trkpt>
      <trkpt lat="59.97725430876" lon="15.823491420597">
        <ele>110.4</ele>
        <time>2014-04-29T18:57:21Z</time>
        <extensions><gpxtpx:TrackPointExtension><gpxtpx:hr>154</gpxtpx:hr></gpxtpx:TrackPointExtension></extensions>
      </trkpt>
      <trkpt lat="59.977131178603" lon="15.82369367592">
        <ele>110.6</ele>
        <time>2014-04-29T18:57:27Z</time>
        <extensions><gpxtpx:TrackPointExtension><gpxtpx:hr>154</gpxtpx:hr></gpxtpx:TrackPointExtension></extensions>
      </trkpt>
      <trkpt lat="59.977002935484" lon="15.823913952336">
        <ele>109.8</ele>
        <time>2014-04-29T18:57:33Z</time>
        <extensions><gpxtpx:TrackPointExtension><gpxtpx:hr>153</gpxtpx:hr></gpxtpx:TrackPointExtension></extensions>
      </trkpt>
      <trkpt lat="59.976946944371" lon="15.824026521295">
        <ele>109.4</ele>
        <time>2014-04-29T18:57:36Z</time>
        <extensions><gpxtpx:TrackPointExtension><gpxtpx:hr>153</gpxtpx:hr></gpxtpx:TrackPointExtension></extensions>
      </trkpt>
      <trkpt lat="59.976901346818" lon="15.824107909575">
        <ele>109.2</ele>
        <time>2014-04-29T18:57:38Z</time>
        <extensions><gpxtpx:TrackPointExtension><gpxtpx:hr>153</gpxtpx:hr></gpxtpx:TrackPointExtension></extensions>
      </trkpt>
      <trkpt lat="59.976797327399" lon="15.824294406921">
        <ele>109</ele>
        <time>2014-04-29T18:57:43Z</time>
        <extensions><gpxtpx:TrackPointExtension><gpxtpx:hr>154</gpxtpx:hr></gpxtpx:TrackPointExtension></extensions>
      </trkpt>
      <trkpt lat="59.976698923856" lon="15.824456512928">
        <ele>108.6</ele>
        <time>2014-04-29T18:57:48Z</time>
        <extensions><gpxtpx:TrackPointExtension><gpxtpx:hr>154</gpxtpx:hr></gpxtpx:TrackPointExtension></extensions>
      </trkpt>
      <trkpt lat="59.976554503664" lon="15.824704533443">
        <ele>109</ele>
        <time>2014-04-29T18:57:55Z</time>
        <extensions><gpxtpx:TrackPointExtension><gpxtpx:hr>154</gpxtpx:hr></gpxtpx:TrackPointExtension></extensions>
      </trkpt>
      <trkpt lat="59.976424751803" lon="15.824948111549">
        <ele>108.6</ele>
        <time>2014-04-29T18:58:01Z</time>
        <extensions><gpxtpx:TrackPointExtension><gpxtpx:hr>155</gpxtpx:hr></gpxtpx:TrackPointExtension></extensions>
      </trkpt>
      <trkpt lat="59.976329281926" lon="15.825123796239">
        <ele>108.6</ele>
        <time>2014-04-29T18:58:06Z</time>
        <extensions><gpxtpx:TrackPointExtension><gpxtpx:hr>156</gpxtpx:hr></gpxtpx:TrackPointExtension></extensions>
      </trkpt>
      <trkpt lat="59.976212438196" lon="15.825278777629">
        <ele>108.2</ele>
        <time>2014-04-29T18:58:11Z</time>
        <extensions><gpxtpx:TrackPointExtension><gpxtpx:hr>157</gpxtpx:hr></gpxtpx:TrackPointExtension></extensions>
      </trkpt>
      <trkpt lat="59.976166756824" lon="15.825335523114">
        <ele>108.4</ele>
        <time>2014-04-29T18:58:13Z</time>
        <extensions><gpxtpx:TrackPointExtension><gpxtpx:hr>157</gpxtpx:hr></gpxtpx:TrackPointExtension></extensions>
      </trkpt>
      <trkpt lat="59.976035831496" lon="15.825490839779">
        <ele>108.2</ele>
        <time>2014-04-29T18:58:19Z</time>
        <extensions><gpxtpx:TrackPointExtension><gpxtpx:hr>156</gpxtpx:hr></gpxtpx:TrackPointExtension></extensions>
      </trkpt>
      <trkpt lat="59.975929213688" lon="15.825617322698">
        <ele>108</ele>
        <time>2014-04-29T18:58:24Z</time>
        <extensions><gpxtpx:TrackPointExtension><gpxtpx:hr>156</gpxtpx:hr></gpxtpx:TrackPointExtension></extensions>
      </trkpt>
      <trkpt lat="59.975799042732" lon="15.82579116337">
        <ele>107.8</ele>
        <time>2014-04-29T18:58:30Z</time>
        <extensions><gpxtpx:TrackPointExtension><gpxtpx:hr>155</gpxtpx:hr></gpxtpx:TrackPointExtension></extensions>
      </trkpt>
      <trkpt lat="59.975667027757" lon="15.82596081309">
        <ele>107.4</ele>
        <time>2014-04-29T18:58:36Z</time>
        <extensions><gpxtpx:TrackPointExtension><gpxtpx:hr>154</gpxtpx:hr></gpxtpx:TrackPointExtension></extensions>
      </trkpt>
      <trkpt lat="59.975556889549" lon="15.826110010967">
        <ele>107.6</ele>
        <time>2014-04-29T18:58:41Z</time>
        <extensions><gpxtpx:TrackPointExtension><gpxtpx:hr>155</gpxtpx:hr></gpxtpx:TrackPointExtension></extensions>
      </trkpt>
      <trkpt lat="59.975431161001" lon="15.826272284612">
        <ele>107.8</ele>
        <time>2014-04-29T18:58:47Z</time>
        <extensions><gpxtpx:TrackPointExtension><gpxtpx:hr>155</gpxtpx:hr></gpxtpx:TrackPointExtension></extensions>
      </trkpt>
      <trkpt lat="59.975328315049" lon="15.826398096979">
        <ele>108.4</ele>
        <time>2014-04-29T18:58:52Z</time>
        <extensions><gpxtpx:TrackPointExtension><gpxtpx:hr>155</gpxtpx:hr></gpxtpx:TrackPointExtension></extensions>
      </trkpt>
      <trkpt lat="59.975218428299" lon="15.826544361189">
        <ele>109.2</ele>
        <time>2014-04-29T18:58:57Z</time>
        <extensions><gpxtpx:TrackPointExtension><gpxtpx:hr>156</gpxtpx:hr></gpxtpx:TrackPointExtension></extensions>
      </trkpt>
      <trkpt lat="59.975201832131" lon="15.826564645395">
        <ele>109.4</ele>
        <time>2014-04-29T18:58:58Z</time>
        <extensions><gpxtpx:TrackPointExtension><gpxtpx:hr>156</gpxtpx:hr></gpxtpx:TrackPointExtension></extensions>
      </trkpt>
      <trkpt lat="59.975121868774" lon="15.826663216576">
        <ele>110</ele>
        <time>2014-04-29T18:59:02Z</time>
        <extensions><gpxtpx:TrackPointExtension><gpxtpx:hr>157</gpxtpx:hr></gpxtpx:TrackPointExtension></extensions>
      </trkpt>
      <trkpt lat="59.975005444139" lon="15.826803613454">
        <ele>110.6</ele>
        <time>2014-04-29T18:59:07Z</time>
        <extensions><gpxtpx:TrackPointExtension><gpxtpx:hr>157</gpxtpx:hr></gpxtpx:TrackPointExtension></extensions>
      </trkpt>
      <trkpt lat="59.974988428876" lon="15.826820963994">
        <ele>110.8</ele>
        <time>2014-04-29T18:59:08Z</time>
        <extensions><gpxtpx:TrackPointExtension><gpxtpx:hr>157</gpxtpx:hr></gpxtpx:TrackPointExtension></extensions>
      </trkpt>
      <trkpt lat="59.97485733591" lon="15.826985919848">
        <ele>110.8</ele>
        <time>2014-04-29T18:59:14Z</time>
        <extensions><gpxtpx:TrackPointExtension><gpxtpx:hr>157</gpxtpx:hr></gpxtpx:TrackPointExtension></extensions>
      </trkpt>
      <trkpt lat="59.974725991488" lon="15.827134111896">
        <ele>111</ele>
        <time>2014-04-29T18:59:20Z</time>
        <extensions><gpxtpx:TrackPointExtension><gpxtpx:hr>156</gpxtpx:hr></gpxtpx:TrackPointExtension></extensions>
      </trkpt>
      <trkpt lat="59.974596910179" lon="15.827229078859">
        <ele>110.8</ele>
        <time>2014-04-29T18:59:25Z</time>
        <extensions><gpxtpx:TrackPointExtension><gpxtpx:hr>157</gpxtpx:hr></gpxtpx:TrackPointExtension></extensions>
      </trkpt>
      <trkpt lat="59.974459279329" lon="15.827411385253">
        <ele>111.2</ele>
        <time>2014-04-29T18:59:31Z</time>
        <extensions><gpxtpx:TrackPointExtension><gpxtpx:hr>157</gpxtpx:hr></gpxtpx:TrackPointExtension></extensions>
      </trkpt>
      <trkpt lat="59.974322738126" lon="15.827606013045">
        <ele>111.4</ele>
        <time>2014-04-29T18:59:37Z</time>
        <extensions><gpxtpx:TrackPointExtension><gpxtpx:hr>159</gpxtpx:hr></gpxtpx:TrackPointExtension></extensions>
      </trkpt>
      <trkpt lat="59.974204385653" lon="15.827738698572">
        <ele>111.8</ele>
        <time>2014-04-29T18:59:42Z</time>
        <extensions><gpxtpx:TrackPointExtension><gpxtpx:hr>159</gpxtpx:hr></gpxtpx:TrackPointExtension></extensions>
      </trkpt>
      <trkpt lat="59.974173624068" lon="15.82777432166">
        <ele>111.8</ele>
        <time>2014-04-29T18:59:43Z</time>
        <extensions><gpxtpx:TrackPointExtension><gpxtpx:hr>159</gpxtpx:hr></gpxtpx:TrackPointExtension></extensions>
      </trkpt>
      <trkpt lat="59.974034316838" lon="15.827961573377">
        <ele>111.2</ele>
        <time>2014-04-29T18:59:49Z</time>
        <extensions><gpxtpx:TrackPointExtension><gpxtpx:hr>160</gpxtpx:hr></gpxtpx:TrackPointExtension></extensions>
      </trkpt>
      <trkpt lat="59.973923005164" lon="15.828104736283">
        <ele>111.6</ele>
        <time>2014-04-29T18:59:54Z</time>
        <extensions><gpxtpx:TrackPointExtension><gpxtpx:hr>158</gpxtpx:hr></gpxtpx:TrackPointExtension></extensions>
      </trkpt>
      <trkpt lat="59.973781434819" lon="15.828289724886">
        <ele>111.4</ele>
        <time>2014-04-29T19:00:00Z</time>
        <extensions><gpxtpx:TrackPointExtension><gpxtpx:hr>157</gpxtpx:hr></gpxtpx:TrackPointExtension></extensions>
      </trkpt>
      <trkpt lat="59.973664255813" lon="15.828434480354">
        <ele>111.2</ele>
        <time>2014-04-29T19:00:05Z</time>
        <extensions><gpxtpx:TrackPointExtension><gpxtpx:hr>156</gpxtpx:hr></gpxtpx:TrackPointExtension></extensions>
      </trkpt>
      <trkpt lat="59.973542802036" lon="15.82856641151">
        <ele>111.6</ele>
        <time>2014-04-29T19:00:10Z</time>
        <extensions><gpxtpx:TrackPointExtension><gpxtpx:hr>157</gpxtpx:hr></gpxtpx:TrackPointExtension></extensions>
      </trkpt>
      <trkpt lat="59.973419336602" lon="15.828727930784">
        <ele>111.2</ele>
        <time>2014-04-29T19:00:15Z</time>
        <extensions><gpxtpx:TrackPointExtension><gpxtpx:hr>158</gpxtpx:hr></gpxtpx:TrackPointExtension></extensions>
      </trkpt>
      <trkpt lat="59.97331732884" lon="15.828884672374">
        <ele>111.2</ele>
        <time>2014-04-29T19:00:20Z</time>
        <extensions><gpxtpx:TrackPointExtension><gpxtpx:hr>157</gpxtpx:hr></gpxtpx:TrackPointExtension></extensions>
      </trkpt>
      <trkpt lat="59.973193444312" lon="15.829067900777">
        <ele>110.4</ele>
        <time>2014-04-29T19:00:25Z</time>
        <extensions><gpxtpx:TrackPointExtension><gpxtpx:hr>157</gpxtpx:hr></gpxtpx:TrackPointExtension></extensions>
      </trkpt>
      <trkpt lat="59.973036954179" lon="15.829271161929">
        <ele>110.2</ele>
        <time>2014-04-29T19:00:32Z</time>
        <extensions><gpxtpx:TrackPointExtension><gpxtpx:hr>157</gpxtpx:hr></gpxtpx:TrackPointExtension></extensions>
      </trkpt>
      <trkpt lat="59.972915416583" lon="15.82940518856">
        <ele>109.6</ele>
        <time>2014-04-29T19:00:37Z</time>
        <extensions><gpxtpx:TrackPointExtension><gpxtpx:hr>156</gpxtpx:hr></gpxtpx:TrackPointExtension></extensions>
      </trkpt>
      <trkpt lat="59.972898066044" lon="15.829424131662">
        <ele>109.4</ele>
        <time>2014-04-29T19:00:38Z</time>
        <extensions><gpxtpx:TrackPointExtension><gpxtpx:hr>156</gpxtpx:hr></gpxtpx:TrackPointExtension></extensions>
      </trkpt>
      <trkpt lat="59.972777869552" lon="15.829564612359">
        <ele>109.6</ele>
        <time>2014-04-29T19:00:43Z</time>
        <extensions><gpxtpx:TrackPointExtension><gpxtpx:hr>157</gpxtpx:hr></gpxtpx:TrackPointExtension></extensions>
      </trkpt>
      <trkpt lat="59.972640825436" lon="15.829710038379">
        <ele>109.4</ele>
        <time>2014-04-29T19:00:49Z</time>
        <extensions><gpxtpx:TrackPointExtension><gpxtpx:hr>156</gpxtpx:hr></gpxtpx:TrackPointExtension></extensions>
      </trkpt>
      <trkpt lat="59.972531860694" lon="15.829798635095">
        <ele>109.8</ele>
        <time>2014-04-29T19:00:54Z</time>
        <extensions><gpxtpx:TrackPointExtension><gpxtpx:hr>156</gpxtpx:hr></gpxtpx:TrackPointExtension></extensions>
      </trkpt>
      <trkpt lat="59.972423063591" lon="15.829920172691">
        <ele>109.8</ele>
        <time>2014-04-29T19:00:59Z</time>
        <extensions><gpxtpx:TrackPointExtension><gpxtpx:hr>157</gpxtpx:hr></gpxtpx:TrackPointExtension></extensions>
      </trkpt>
      <trkpt lat="59.972319547087" lon="15.830041039735">
        <ele>110.4</ele>
        <time>2014-04-29T19:01:04Z</time>
        <extensions><gpxtpx:TrackPointExtension><gpxtpx:hr>157</gpxtpx:hr></gpxtpx:TrackPointExtension></extensions>
      </trkpt>
      <trkpt lat="59.972293060273" lon="15.83007087931">
        <ele>110.6</ele>
        <time>2014-04-29T19:01:05Z</time>
        <extensions><gpxtpx:TrackPointExtension><gpxtpx:hr>158</gpxtpx:hr></gpxtpx:TrackPointExtension></extensions>
      </trkpt>
      <trkpt lat="59.97219113633" lon="15.83021027036">
        <ele>110.6</ele>
        <time>2014-04-29T19:01:10Z</time>
        <extensions><gpxtpx:TrackPointExtension><gpxtpx:hr>157</gpxtpx:hr></gpxtpx:TrackPointExtension></extensions>
      </trkpt>
      <trkpt lat="59.972079908475" lon="15.830369107425">
        <ele>110.6</ele>
        <time>2014-04-29T19:01:15Z</time>
        <extensions><gpxtpx:TrackPointExtension><gpxtpx:hr>158</gpxtpx:hr></gpxtpx:TrackPointExtension></extensions>
      </trkpt>
      <trkpt lat="59.971934230998" lon="15.830571781844">
        <ele>111.2</ele>
        <time>2014-04-29T19:01:22Z</time>
        <extensions><gpxtpx:TrackPointExtension><gpxtpx:hr>159</gpxtpx:hr></gpxtpx:TrackPointExtension></extensions>
      </trkpt>
      <trkpt lat="59.971848651767" lon="15.830675885081">
        <ele>111.6</ele>
        <time>2014-04-29T19:01:26Z</time>
        <extensions><gpxtpx:TrackPointExtension><gpxtpx:hr>159</gpxtpx:hr></gpxtpx:TrackPointExtension></extensions>
      </trkpt>
      <trkpt lat="59.971806490794" lon="15.830725925043">
        <ele>111.6</ele>
        <time>2014-04-29T19:01:28Z</time>
        <extensions><gpxtpx:TrackPointExtension><gpxtpx:hr>158</gpxtpx:hr></gpxtpx:TrackPointExtension></extensions>
      </trkpt>
      <trkpt lat="59.971730550751" lon="15.830821143463">
        <ele>112</ele>
        <time>2014-04-29T19:01:31Z</time>
        <extensions><gpxtpx:TrackPointExtension><gpxtpx:hr>165</gpxtpx:hr></gpxtpx:TrackPointExtension></extensions>
      </trkpt>
      <trkpt lat="59.97171504423" lon="15.830837655813">
        <ele>111.8</ele>
        <time>2014-04-29T19:01:32Z</time>
        <extensions><gpxtpx:TrackPointExtension><gpxtpx:hr>165</gpxtpx:hr></gpxtpx:TrackPointExtension></extensions>
      </trkpt>
      <trkpt lat="59.971666345373" lon="15.83088979125">
        <ele>112.2</ele>
        <time>2014-04-29T19:01:34Z</time>
        <extensions><gpxtpx:TrackPointExtension><gpxtpx:hr>162</gpxtpx:hr></gpxtpx:TrackPointExtension></extensions>
      </trkpt>
      <trkpt lat="59.971580095589" lon="15.830997833982">
        <ele>112.4</ele>
        <time>2014-04-29T19:01:38Z</time>
        <extensions><gpxtpx:TrackPointExtension><gpxtpx:hr>160</gpxtpx:hr></gpxtpx:TrackPointExtension></extensions>
      </trkpt>
      <trkpt lat="59.971552267671" lon="15.831035049632">
        <ele>113</ele>
        <time>2014-04-29T19:01:39Z</time>
        <extensions><gpxtpx:TrackPointExtension><gpxtpx:hr>160</gpxtpx:hr></gpxtpx:TrackPointExtension></extensions>
      </trkpt>
      <trkpt lat="59.971448583528" lon="15.831162203103">
        <ele>113.2</ele>
        <time>2014-04-29T19:01:44Z</time>
        <extensions><gpxtpx:TrackPointExtension><gpxtpx:hr>159</gpxtpx:hr></gpxtpx:TrackPointExtension></extensions>
      </trkpt>
      <trkpt lat="59.971361327916" lon="15.831269407645">
        <ele>114</ele>
        <time>2014-04-29T19:01:48Z</time>
        <extensions><gpxtpx:TrackPointExtension><gpxtpx:hr>161</gpxtpx:hr></gpxtpx:TrackPointExtension></extensions>
      </trkpt>
      <trkpt lat="59.971337271854" lon="15.831303521991">
        <ele>114</ele>
        <time>2014-04-29T19:01:49Z</time>
        <extensions><gpxtpx:TrackPointExtension><gpxtpx:hr>160</gpxtpx:hr></gpxtpx:TrackPointExtension></extensions>
      </trkpt>
      <trkpt lat="59.971239538863" lon="15.83143000491">
        <ele>115</ele>
        <time>2014-04-29T19:01:54Z</time>
        <extensions><gpxtpx:TrackPointExtension><gpxtpx:hr>161</gpxtpx:hr></gpxtpx:TrackPointExtension></extensions>
      </trkpt>
      <trkpt lat="59.971197880805" lon="15.831481302157">
        <ele>115.2</ele>
        <time>2014-04-29T19:01:56Z</time>
        <extensions><gpxtpx:TrackPointExtension><gpxtpx:hr>167</gpxtpx:hr></gpxtpx:TrackPointExtension></extensions>
      </trkpt>
      <trkpt lat="59.971173824742" lon="15.831507956609">
        <ele>115.2</ele>
        <time>2014-04-29T19:01:57Z</time>
        <extensions><gpxtpx:TrackPointExtension><gpxtpx:hr>167</gpxtpx:hr></gpxtpx:TrackPointExtension></extensions>
      </trkpt>
      <trkpt lat="59.971132753417" lon="15.831565205008">
        <ele>115.6</ele>
        <time>2014-04-29T19:01:59Z</time>
        <extensions><gpxtpx:TrackPointExtension><gpxtpx:hr>164</gpxtpx:hr></gpxtpx:TrackPointExtension></extensions>
      </trkpt>
      <trkpt lat="59.971115486696" lon="15.831584651023">
        <ele>115.6</ele>
        <time>2014-04-29T19:02:00Z</time>
        <extensions><gpxtpx:TrackPointExtension><gpxtpx:hr>164</gpxtpx:hr></gpxtpx:TrackPointExtension></extensions>
      </trkpt>
      <trkpt lat="59.971046252176" lon="15.831674421206">
        <ele>116.2</ele>
        <time>2014-04-29T19:02:03Z</time>
        <extensions><gpxtpx:TrackPointExtension><gpxtpx:hr>162</gpxtpx:hr></gpxtpx:TrackPointExtension></extensions>
      </trkpt>
      <trkpt lat="59.971009120345" lon="15.83172513172">
        <ele>116.4</ele>
        <time>2014-04-29T19:02:05Z</time>
        <extensions><gpxtpx:TrackPointExtension><gpxtpx:hr>162</gpxtpx:hr></gpxtpx:TrackPointExtension></extensions>
      </trkpt>
      <trkpt lat="59.970909208059" lon="15.831854883581">
        <ele>116.8</ele>
        <time>2014-04-29T19:02:10Z</time>
        <extensions><gpxtpx:TrackPointExtension><gpxtpx:hr>162</gpxtpx:hr></gpxtpx:TrackPointExtension></extensions>
      </trkpt>
      <trkpt lat="59.970870651305" lon="15.831910707057">
        <ele>117.2</ele>
        <time>2014-04-29T19:02:12Z</time>
        <extensions><gpxtpx:TrackPointExtension><gpxtpx:hr>162</gpxtpx:hr></gpxtpx:TrackPointExtension></extensions>
      </trkpt>
      <trkpt lat="59.970806948841" lon="15.832005925477">
        <ele>117.4</ele>
        <time>2014-04-29T19:02:15Z</time>
        <extensions><gpxtpx:TrackPointExtension><gpxtpx:hr>162</gpxtpx:hr></gpxtpx:TrackPointExtension></extensions>
      </trkpt>
      <trkpt lat="59.970730757341" lon="15.832197116688">
        <ele>117.8</ele>
        <time>2014-04-29T19:02:20Z</time>
        <extensions><gpxtpx:TrackPointExtension><gpxtpx:hr>161</gpxtpx:hr></gpxtpx:TrackPointExtension></extensions>
      </trkpt>
      <trkpt lat="59.97072908096" lon="15.832250509411">
        <ele>118.2</ele>
        <time>2014-04-29T19:02:21Z</time>
        <extensions><gpxtpx:TrackPointExtension><gpxtpx:hr>161</gpxtpx:hr></gpxtpx:TrackPointExtension></extensions>
      </trkpt>
      <trkpt lat="59.970737379044" lon="15.832279343158">
        <ele>118.2</ele>
        <time>2014-04-29T19:02:22Z</time>
        <extensions><gpxtpx:TrackPointExtension><gpxtpx:hr>161</gpxtpx:hr></gpxtpx:TrackPointExtension></extensions>
      </trkpt>
      <trkpt lat="59.970753891394" lon="15.832382356748">
        <ele>118.4</ele>
        <time>2014-04-29T19:02:24Z</time>
        <extensions><gpxtpx:TrackPointExtension><gpxtpx:hr>161</gpxtpx:hr></gpxtpx:TrackPointExtension></extensions>
      </trkpt>
      <trkpt lat="59.970810636878" lon="15.832589557394">
        <ele>119.2</ele>
        <time>2014-04-29T19:02:29Z</time>
        <extensions><gpxtpx:TrackPointExtension><gpxtpx:hr>161</gpxtpx:hr></gpxtpx:TrackPointExtension></extensions>
      </trkpt>
      <trkpt lat="59.970866376534" lon="15.832806900144">
        <ele>118.8</ele>
        <time>2014-04-29T19:02:34Z</time>
        <extensions><gpxtpx:TrackPointExtension><gpxtpx:hr>160</gpxtpx:hr></gpxtpx:TrackPointExtension></extensions>
      </trkpt>
      <trkpt lat="59.970947513357" lon="15.833074953407">
        <ele>117.6</ele>
        <time>2014-04-29T19:02:40Z</time>
        <extensions><gpxtpx:TrackPointExtension><gpxtpx:hr>159</gpxtpx:hr></gpxtpx:TrackPointExtension></extensions>
      </trkpt>
      <trkpt lat="59.971007443964" lon="15.833331691101">
        <ele>117.8</ele>
        <time>2014-04-29T19:02:45Z</time>
        <extensions><gpxtpx:TrackPointExtension><gpxtpx:hr>159</gpxtpx:hr></gpxtpx:TrackPointExtension></extensions>
      </trkpt>
      <trkpt lat="59.971047509462" lon="15.833548530936">
        <ele>117.6</ele>
        <time>2014-04-29T19:02:49Z</time>
        <extensions><gpxtpx:TrackPointExtension><gpxtpx:hr>159</gpxtpx:hr></gpxtpx:TrackPointExtension></extensions>
      </trkpt>
      <trkpt lat="59.971047341824" lon="15.833584321663">
        <ele>117.6</ele>
        <time>2014-04-29T19:02:50Z</time>
        <extensions><gpxtpx:TrackPointExtension><gpxtpx:hr>159</gpxtpx:hr></gpxtpx:TrackPointExtension></extensions>
      </trkpt>
      <trkpt lat="59.971019346267" lon="15.833886573091">
        <ele>117.6</ele>
        <time>2014-04-29T19:02:55Z</time>
        <extensions><gpxtpx:TrackPointExtension><gpxtpx:hr>160</gpxtpx:hr></gpxtpx:TrackPointExtension></extensions>
      </trkpt>
      <trkpt lat="59.971019513905" lon="15.833929572254">
        <ele>117.2</ele>
        <time>2014-04-29T19:02:56Z</time>
        <extensions><gpxtpx:TrackPointExtension><gpxtpx:hr>160</gpxtpx:hr></gpxtpx:TrackPointExtension></extensions>
      </trkpt>
      <trkpt lat="59.971027476713" lon="15.834148759022">
        <ele>116.8</ele>
        <time>2014-04-29T19:03:00Z</time>
        <extensions><gpxtpx:TrackPointExtension><gpxtpx:hr>160</gpxtpx:hr></gpxtpx:TrackPointExtension></extensions>
      </trkpt>
      <trkpt lat="59.971043067053" lon="15.834433324635">
        <ele>116.8</ele>
        <time>2014-04-29T19:03:05Z</time>
        <extensions><gpxtpx:TrackPointExtension><gpxtpx:hr>159</gpxtpx:hr></gpxtpx:TrackPointExtension></extensions>
      </trkpt>
      <trkpt lat="59.971082545817" lon="15.834764493629">
        <ele>116.8</ele>
        <time>2014-04-29T19:03:11Z</time>
        <extensions><gpxtpx:TrackPointExtension><gpxtpx:hr>159</gpxtpx:hr></gpxtpx:TrackPointExtension></extensions>
      </trkpt>
      <trkpt lat="59.971125377342" lon="15.835029445589">
        <ele>116.8</ele>
        <time>2014-04-29T19:03:16Z</time>
        <extensions><gpxtpx:TrackPointExtension><gpxtpx:hr>160</gpxtpx:hr></gpxtpx:TrackPointExtension></extensions>
      </trkpt>
      <trkpt lat="59.971201317385" lon="15.835330188274">
        <ele>116.4</ele>
        <time>2014-04-29T19:03:22Z</time>
        <extensions><gpxtpx:TrackPointExtension><gpxtpx:hr>159</gpxtpx:hr></gpxtpx:TrackPointExtension></extensions>
      </trkpt>
      <trkpt lat="59.971218584105" lon="15.835394226015">
        <ele>116.2</ele>
        <time>2014-04-29T19:03:23Z</time>
        <extensions><gpxtpx:TrackPointExtension><gpxtpx:hr>159</gpxtpx:hr></gpxtpx:TrackPointExtension></extensions>
      </trkpt>
      <trkpt lat="59.971272647381" lon="15.835634199902">
        <ele>116.2</ele>
        <time>2014-04-29T19:03:28Z</time>
        <extensions><gpxtpx:TrackPointExtension><gpxtpx:hr>159</gpxtpx:hr></gpxtpx:TrackPointExtension></extensions>
      </trkpt>
      <trkpt lat="59.971356047317" lon="15.835842490196">
        <ele>116</ele>
        <time>2014-04-29T19:03:33Z</time>
        <extensions><gpxtpx:TrackPointExtension><gpxtpx:hr>158</gpxtpx:hr></gpxtpx:TrackPointExtension></extensions>
      </trkpt>
      <trkpt lat="59.971468867734" lon="15.836035525426">
        <ele>115.2</ele>
        <time>2014-04-29T19:03:39Z</time>
        <extensions><gpxtpx:TrackPointExtension><gpxtpx:hr>158</gpxtpx:hr></gpxtpx:TrackPointExtension></extensions>
      </trkpt>
      <trkpt lat="59.971597529948" lon="15.836230656132">
        <ele>114.2</ele>
        <time>2014-04-29T19:03:45Z</time>
        <extensions><gpxtpx:TrackPointExtension><gpxtpx:hr>157</gpxtpx:hr></gpxtpx:TrackPointExtension></extensions>
      </trkpt>
      <trkpt lat="59.971608845517" lon="15.836272314191">
        <ele>114</ele>
        <time>2014-04-29T19:03:46Z</time>
        <extensions><gpxtpx:TrackPointExtension><gpxtpx:hr>157</gpxtpx:hr></gpxtpx:TrackPointExtension></extensions>
      </trkpt>
      <trkpt lat="59.971611779183" lon="15.836337776855">
        <ele>113.6</ele>
        <time>2014-04-29T19:03:47Z</time>
        <extensions><gpxtpx:TrackPointExtension><gpxtpx:hr>157</gpxtpx:hr></gpxtpx:TrackPointExtension></extensions>
      </trkpt>
      <trkpt lat="59.971614461392" lon="15.836451686919">
        <ele>113.4</ele>
        <time>2014-04-29T19:03:49Z</time>
        <extensions><gpxtpx:TrackPointExtension><gpxtpx:hr>157</gpxtpx:hr></gpxtpx:TrackPointExtension></extensions>
      </trkpt>
      <trkpt lat="59.971594428644" lon="15.83678746596">
        <ele>112.8</ele>
        <time>2014-04-29T19:03:55Z</time>
        <extensions><gpxtpx:TrackPointExtension><gpxtpx:hr>155</gpxtpx:hr></gpxtpx:TrackPointExtension></extensions>
      </trkpt>
      <trkpt lat="59.971538186073" lon="15.837047304958">
        <ele>112.2</ele>
        <time>2014-04-29T19:04:00Z</time>
        <extensions><gpxtpx:TrackPointExtension><gpxtpx:hr>154</gpxtpx:hr></gpxtpx:TrackPointExtension></extensions>
      </trkpt>
      <trkpt lat="59.971490576863" lon="15.837271772325">
        <ele>111.6</ele>
        <time>2014-04-29T19:04:04Z</time>
        <extensions><gpxtpx:TrackPointExtension><gpxtpx:hr>154</gpxtpx:hr></gpxtpx:TrackPointExtension></extensions>
      </trkpt>
      <trkpt lat="59.971478004009" lon="15.837333295494">
        <ele>111.6</ele>
        <time>2014-04-29T19:04:05Z</time>
        <extensions><gpxtpx:TrackPointExtension><gpxtpx:hr>154</gpxtpx:hr></gpxtpx:TrackPointExtension></extensions>
      </trkpt>
      <trkpt lat="59.971421509981" lon="15.837646108121">
        <ele>111.2</ele>
        <time>2014-04-29T19:04:11Z</time>
        <extensions><gpxtpx:TrackPointExtension><gpxtpx:hr>154</gpxtpx:hr></gpxtpx:TrackPointExtension></extensions>
      </trkpt>
      <trkpt lat="59.971355376765" lon="15.837946012616">
        <ele>111.2</ele>
        <time>2014-04-29T19:04:17Z</time>
        <extensions><gpxtpx:TrackPointExtension><gpxtpx:hr>153</gpxtpx:hr></gpxtpx:TrackPointExtension></extensions>
      </trkpt>
      <trkpt lat="59.971252446994" lon="15.838239714503">
        <ele>111.2</ele>
        <time>2014-04-29T19:04:24Z</time>
        <extensions><gpxtpx:TrackPointExtension><gpxtpx:hr>153</gpxtpx:hr></gpxtpx:TrackPointExtension></extensions>
      </trkpt>
      <trkpt lat="59.971149014309" lon="15.838465271518">
        <ele>111.2</ele>
        <time>2014-04-29T19:04:30Z</time>
        <extensions><gpxtpx:TrackPointExtension><gpxtpx:hr>153</gpxtpx:hr></gpxtpx:TrackPointExtension></extensions>
      </trkpt>
      <trkpt lat="59.971031500027" lon="15.83868060261">
        <ele>111.4</ele>
        <time>2014-04-29T19:04:36Z</time>
        <extensions><gpxtpx:TrackPointExtension><gpxtpx:hr>152</gpxtpx:hr></gpxtpx:TrackPointExtension></extensions>
      </trkpt>
      <trkpt lat="59.970895210281" lon="15.838929964229">
        <ele>111.8</ele>
        <time>2014-04-29T19:04:43Z</time>
        <extensions><gpxtpx:TrackPointExtension><gpxtpx:hr>152</gpxtpx:hr></gpxtpx:TrackPointExtension></extensions>
      </trkpt>
      <trkpt lat="59.970780629665" lon="15.839144540951">
        <ele>111.8</ele>
        <time>2014-04-29T19:04:49Z</time>
        <extensions><gpxtpx:TrackPointExtension><gpxtpx:hr>152</gpxtpx:hr></gpxtpx:TrackPointExtension></extensions>
      </trkpt>
      <trkpt lat="59.970660936087" lon="15.839382335544">
        <ele>111.6</ele>
        <time>2014-04-29T19:04:56Z</time>
        <extensions><gpxtpx:TrackPointExtension><gpxtpx:hr>153</gpxtpx:hr></gpxtpx:TrackPointExtension></extensions>
      </trkpt>
      <trkpt lat="59.970560101792" lon="15.839573275298">
        <ele>111.4</ele>
        <time>2014-04-29T19:05:02Z</time>
        <extensions><gpxtpx:TrackPointExtension><gpxtpx:hr>154</gpxtpx:hr></gpxtpx:TrackPointExtension></extensions>
      </trkpt>
      <trkpt lat="59.970472343266" lon="15.839770333841">
        <ele>111.6</ele>
        <time>2014-04-29T19:05:07Z</time>
        <extensions><gpxtpx:TrackPointExtension><gpxtpx:hr>154</gpxtpx:hr></gpxtpx:TrackPointExtension></extensions>
      </trkpt>
      <trkpt lat="59.970336556435" lon="15.840019192547">
        <ele>111.4</ele>
        <time>2014-04-29T19:05:14Z</time>
        <extensions><gpxtpx:TrackPointExtension><gpxtpx:hr>155</gpxtpx:hr></gpxtpx:TrackPointExtension></extensions>
      </trkpt>
      <trkpt lat="59.970207223669" lon="15.840215915814">
        <ele>110.4</ele>
        <time>2014-04-29T19:05:20Z</time>
        <extensions><gpxtpx:TrackPointExtension><gpxtpx:hr>156</gpxtpx:hr></gpxtpx:TrackPointExtension></extensions>
      </trkpt>
      <trkpt lat="59.970085434616" lon="15.84033485502">
        <ele>110.2</ele>
        <time>2014-04-29T19:05:26Z</time>
        <extensions><gpxtpx:TrackPointExtension><gpxtpx:hr>156</gpxtpx:hr></gpxtpx:TrackPointExtension></extensions>
      </trkpt>
      <trkpt lat="59.969957442954" lon="15.84037810564">
        <ele>110.2</ele>
        <time>2014-04-29T19:05:31Z</time>
        <extensions><gpxtpx:TrackPointExtension><gpxtpx:hr>156</gpxtpx:hr></gpxtpx:TrackPointExtension></extensions>
      </trkpt>
      <trkpt lat="59.969793157652" lon="15.84037383087">
        <ele>110</ele>
        <time>2014-04-29T19:05:37Z</time>
        <extensions><gpxtpx:TrackPointExtension><gpxtpx:hr>156</gpxtpx:hr></gpxtpx:TrackPointExtension></extensions>
      </trkpt>
      <trkpt lat="59.969626190141" lon="15.840366203338">
        <ele>109.6</ele>
        <time>2014-04-29T19:05:43Z</time>
        <extensions><gpxtpx:TrackPointExtension><gpxtpx:hr>156</gpxtpx:hr></gpxtpx:TrackPointExtension></extensions>
      </trkpt>
      <trkpt lat="59.969516135752" lon="15.840354552492">
        <ele>109.4</ele>
        <time>2014-04-29T19:05:47Z</time>
        <extensions><gpxtpx:TrackPointExtension><gpxtpx:hr>156</gpxtpx:hr></gpxtpx:TrackPointExtension></extensions>
      </trkpt>
      <trkpt lat="59.96943583712" lon="15.840349439532">
        <ele>109.2</ele>
        <time>2014-04-29T19:05:50Z</time>
        <extensions><gpxtpx:TrackPointExtension><gpxtpx:hr>156</gpxtpx:hr></gpxtpx:TrackPointExtension></extensions>
      </trkpt>
      <trkpt lat="59.969244059175" lon="15.84033049643">
        <ele>109.4</ele>
        <time>2014-04-29T19:05:57Z</time>
        <extensions><gpxtpx:TrackPointExtension><gpxtpx:hr>156</gpxtpx:hr></gpxtpx:TrackPointExtension></extensions>
      </trkpt>
      <trkpt lat="59.96906795539" lon="15.840318258852">
        <ele>109.6</ele>
        <time>2014-04-29T19:06:04Z</time>
        <extensions><gpxtpx:TrackPointExtension><gpxtpx:hr>156</gpxtpx:hr></gpxtpx:TrackPointExtension></extensions>
      </trkpt>
      <trkpt lat="59.969018166885" lon="15.840319432318">
        <ele>109.8</ele>
        <time>2014-04-29T19:06:06Z</time>
        <extensions><gpxtpx:TrackPointExtension><gpxtpx:hr>152</gpxtpx:hr></gpxtpx:TrackPointExtension></extensions>
      </trkpt>
      <trkpt lat="59.968918086961" lon="15.840310212225">
        <ele>110</ele>
        <time>2014-04-29T19:06:10Z</time>
        <extensions><gpxtpx:TrackPointExtension><gpxtpx:hr>152</gpxtpx:hr></gpxtpx:TrackPointExtension></extensions>
      </trkpt>
      <trkpt lat="59.968737373129" lon="15.840322365984">
        <ele>109.8</ele>
        <time>2014-04-29T19:06:17Z</time>
        <extensions><gpxtpx:TrackPointExtension><gpxtpx:hr>152</gpxtpx:hr></gpxtpx:TrackPointExtension></extensions>
      </trkpt>
      <trkpt lat="59.968567388132" lon="15.840411297977">
        <ele>109.8</ele>
        <time>2014-04-29T19:06:24Z</time>
        <extensions><gpxtpx:TrackPointExtension><gpxtpx:hr>152</gpxtpx:hr></gpxtpx:TrackPointExtension></extensions>
      </trkpt>
      <trkpt lat="59.968451801687" lon="15.840498888865">
        <ele>109.6</ele>
        <time>2014-04-29T19:06:29Z</time>
        <extensions><gpxtpx:TrackPointExtension><gpxtpx:hr>152</gpxtpx:hr></gpxtpx:TrackPointExtension></extensions>
      </trkpt>
      <trkpt lat="59.968340490013" lon="15.840557143092">
        <ele>109</ele>
        <time>2014-04-29T19:06:34Z</time>
        <extensions><gpxtpx:TrackPointExtension><gpxtpx:hr>152</gpxtpx:hr></gpxtpx:TrackPointExtension></extensions>
      </trkpt>
      <trkpt lat="59.968251725659" lon="15.840625371784">
        <ele>108.6</ele>
        <time>2014-04-29T19:06:37Z</time>
        <extensions><gpxtpx:TrackPointExtension><gpxtpx:hr>149</gpxtpx:hr></gpxtpx:TrackPointExtension></extensions>
      </trkpt>
      <trkpt lat="59.9681858439" lon="15.84067935124">
        <ele>108.8</ele>
        <time>2014-04-29T19:06:40Z</time>
        <extensions><gpxtpx:TrackPointExtension><gpxtpx:hr>149</gpxtpx:hr></gpxtpx:TrackPointExtension></extensions>
      </trkpt>
      <trkpt lat="59.968096157536" lon="15.840728972107">
        <ele>108.6</ele>
        <time>2014-04-29T19:06:44Z</time>
        <extensions><gpxtpx:TrackPointExtension><gpxtpx:hr>146</gpxtpx:hr></gpxtpx:TrackPointExtension></extensions>
      </trkpt>
      <trkpt lat="59.968067910522" lon="15.840750429779">
        <ele>108.4</ele>
        <time>2014-04-29T19:06:45Z</time>
        <extensions><gpxtpx:TrackPointExtension><gpxtpx:hr>146</gpxtpx:hr></gpxtpx:TrackPointExtension></extensions>
      </trkpt>
      <trkpt lat="59.967971853912" lon="15.840818239376">
        <ele>108.8</ele>
        <time>2014-04-29T19:06:49Z</time>
        <extensions><gpxtpx:TrackPointExtension><gpxtpx:hr>130</gpxtpx:hr></gpxtpx:TrackPointExtension></extensions>
      </trkpt>
      <trkpt lat="59.967955173925" lon="15.840826788917">
        <ele>109</ele>
        <time>2014-04-29T19:06:50Z</time>
        <extensions><gpxtpx:TrackPointExtension><gpxtpx:hr>124</gpxtpx:hr></gpxtpx:TrackPointExtension></extensions>
      </trkpt>
      <trkpt lat="59.967920137569" lon="15.840846989304">
        <ele>109.2</ele>
        <time>2014-04-29T19:06:51Z</time>
        <extensions><gpxtpx:TrackPointExtension><gpxtpx:hr>118</gpxtpx:hr></gpxtpx:TrackPointExtension></extensions>
      </trkpt>
      <trkpt lat="59.967901529744" lon="15.840854784474">
        <ele>109</ele>
        <time>2014-04-29T19:06:52Z</time>
        <extensions><gpxtpx:TrackPointExtension><gpxtpx:hr>123</gpxtpx:hr></gpxtpx:TrackPointExtension></extensions>
      </trkpt>
      <trkpt lat="59.967751326039" lon="15.840870039538">
        <ele>108.8</ele>
        <time>2014-04-29T19:06:57Z</time>
        <extensions><gpxtpx:TrackPointExtension><gpxtpx:hr>127</gpxtpx:hr></gpxtpx:TrackPointExtension></extensions>
      </trkpt>
      <trkpt lat="59.967609001324" lon="15.84085511975">
        <ele>108.8</ele>
        <time>2014-04-29T19:07:02Z</time>
        <extensions><gpxtpx:TrackPointExtension><gpxtpx:hr>131</gpxtpx:hr></gpxtpx:TrackPointExtension></extensions>
      </trkpt>
      <trkpt lat="59.967580502853" lon="15.840844223276">
        <ele>108.6</ele>
        <time>2014-04-29T19:07:03Z</time>
        <extensions><gpxtpx:TrackPointExtension><gpxtpx:hr>131</gpxtpx:hr></gpxtpx:TrackPointExtension></extensions>
      </trkpt>
      <trkpt lat="59.967467933893" lon="15.840839361772">
        <ele>108.4</ele>
        <time>2014-04-29T19:07:07Z</time>
        <extensions><gpxtpx:TrackPointExtension><gpxtpx:hr>139</gpxtpx:hr></gpxtpx:TrackPointExtension></extensions>
      </trkpt>
      <trkpt lat="59.967445889488" lon="15.840835757554">
        <ele>108.4</ele>
        <time>2014-04-29T19:07:08Z</time>
        <extensions><gpxtpx:TrackPointExtension><gpxtpx:hr>144</gpxtpx:hr></gpxtpx:TrackPointExtension></extensions>
      </trkpt>
      <trkpt lat="59.967409679666" lon="15.840826872736">
        <ele>108.6</ele>
        <time>2014-04-29T19:07:09Z</time>
        <extensions><gpxtpx:TrackPointExtension><gpxtpx:hr>147</gpxtpx:hr></gpxtpx:TrackPointExtension></extensions>
      </trkpt>
      <trkpt lat="59.967390066013" lon="15.840825363994">
        <ele>108.4</ele>
        <time>2014-04-29T19:07:10Z</time>
        <extensions><gpxtpx:TrackPointExtension><gpxtpx:hr>144</gpxtpx:hr></gpxtpx:TrackPointExtension></extensions>
      </trkpt>
      <trkpt lat="59.967355113477" lon="15.840821173042">
        <ele>108.2</ele>
        <time>2014-04-29T19:07:11Z</time>
        <extensions><gpxtpx:TrackPointExtension><gpxtpx:hr>144</gpxtpx:hr></gpxtpx:TrackPointExtension></extensions>
      </trkpt>
      <trkpt lat="59.967301888391" lon="15.840808013454">
        <ele>108.2</ele>
        <time>2014-04-29T19:07:13Z</time>
        <extensions><gpxtpx:TrackPointExtension><gpxtpx:hr>147</gpxtpx:hr></gpxtpx:TrackPointExtension></extensions>
      </trkpt>
      <trkpt lat="59.96727691032" lon="15.840806085616">
        <ele>108.2</ele>
        <time>2014-04-29T19:07:14Z</time>
        <extensions><gpxtpx:TrackPointExtension><gpxtpx:hr>147</gpxtpx:hr></gpxtpx:TrackPointExtension></extensions>
      </trkpt>
      <trkpt lat="59.967109691352" lon="15.840779263526">
        <ele>108</ele>
        <time>2014-04-29T19:07:20Z</time>
        <extensions><gpxtpx:TrackPointExtension><gpxtpx:hr>147</gpxtpx:hr></gpxtpx:TrackPointExtension></extensions>
      </trkpt>
      <trkpt lat="59.966997960582" lon="15.84076249972">
        <ele>108</ele>
        <time>2014-04-29T19:07:24Z</time>
        <extensions><gpxtpx:TrackPointExtension><gpxtpx:hr>150</gpxtpx:hr></gpxtpx:TrackPointExtension></extensions>
      </trkpt>
      <trkpt lat="59.96694020927" lon="15.840770462528">
        <ele>108</ele>
        <time>2014-04-29T19:07:26Z</time>
        <extensions><gpxtpx:TrackPointExtension><gpxtpx:hr>154</gpxtpx:hr></gpxtpx:TrackPointExtension></extensions>
      </trkpt>
      <trkpt lat="59.966784641147" lon="15.840819831938">
        <ele>107.4</ele>
        <time>2014-04-29T19:07:32Z</time>
        <extensions><gpxtpx:TrackPointExtension><gpxtpx:hr>155</gpxtpx:hr></gpxtpx:TrackPointExtension></extensions>
      </trkpt>
      <trkpt lat="59.966674754396" lon="15.841025775298">
        <ele>107.4</ele>
        <time>2014-04-29T19:07:37Z</time>
        <extensions><gpxtpx:TrackPointExtension><gpxtpx:hr>155</gpxtpx:hr></gpxtpx:TrackPointExtension></extensions>
      </trkpt>
      <trkpt lat="59.966588504612" lon="15.84119793959">
        <ele>107.4</ele>
        <time>2014-04-29T19:07:42Z</time>
        <extensions><gpxtpx:TrackPointExtension><gpxtpx:hr>154</gpxtpx:hr></gpxtpx:TrackPointExtension></extensions>
      </trkpt>
      <trkpt lat="59.966505523771" lon="15.841392483562">
        <ele>107.4</ele>
        <time>2014-04-29T19:07:47Z</time>
        <extensions><gpxtpx:TrackPointExtension><gpxtpx:hr>155</gpxtpx:hr></gpxtpx:TrackPointExtension></extensions>
      </trkpt>
      <trkpt lat="59.966431763023" lon="15.841590128839">
        <ele>108</ele>
        <time>2014-04-29T19:07:52Z</time>
        <extensions><gpxtpx:TrackPointExtension><gpxtpx:hr>157</gpxtpx:hr></gpxtpx:TrackPointExtension></extensions>
      </trkpt>
      <trkpt lat="59.966377364472" lon="15.841801520437">
        <ele>108.2</ele>
        <time>2014-04-29T19:07:57Z</time>
        <extensions><gpxtpx:TrackPointExtension><gpxtpx:hr>158</gpxtpx:hr></gpxtpx:TrackPointExtension></extensions>
      </trkpt>
      <trkpt lat="59.966328833252" lon="15.842004446313">
        <ele>109</ele>
        <time>2014-04-29T19:08:02Z</time>
        <extensions><gpxtpx:TrackPointExtension><gpxtpx:hr>158</gpxtpx:hr></gpxtpx:TrackPointExtension></extensions>
      </trkpt>
      <trkpt lat="59.966315506026" lon="15.842067310587">
        <ele>109.4</ele>
        <time>2014-04-29T19:08:03Z</time>
        <extensions><gpxtpx:TrackPointExtension><gpxtpx:hr>159</gpxtpx:hr></gpxtpx:TrackPointExtension></extensions>
      </trkpt>
      <trkpt lat="59.966303771362" lon="15.842186417431">
        <ele>110.4</ele>
        <time>2014-04-29T19:08:06Z</time>
        <extensions><gpxtpx:TrackPointExtension><gpxtpx:hr>160</gpxtpx:hr></gpxtpx:TrackPointExtension></extensions>
      </trkpt>
      <trkpt lat="59.966287342831" lon="15.842340476811">
        <ele>111.4</ele>
        <time>2014-04-29T19:08:09Z</time>
        <extensions><gpxtpx:TrackPointExtension><gpxtpx:hr>159</gpxtpx:hr></gpxtpx:TrackPointExtension></extensions>
      </trkpt>
      <trkpt lat="59.966276697814" lon="15.842464109883">
        <ele>111.6</ele>
        <time>2014-04-29T19:08:12Z</time>
        <extensions><gpxtpx:TrackPointExtension><gpxtpx:hr>159</gpxtpx:hr></gpxtpx:TrackPointExtension></extensions>
      </trkpt>
      <trkpt lat="59.966249037534" lon="15.842731157318">
        <ele>112</ele>
        <time>2014-04-29T19:08:17Z</time>
        <extensions><gpxtpx:TrackPointExtension><gpxtpx:hr>159</gpxtpx:hr></gpxtpx:TrackPointExtension></extensions>
      </trkpt>
      <trkpt lat="59.96621995233" lon="15.84294481203">
        <ele>112.6</ele>
        <time>2014-04-29T19:08:21Z</time>
        <extensions><gpxtpx:TrackPointExtension><gpxtpx:hr>160</gpxtpx:hr></gpxtpx:TrackPointExtension></extensions>
      </trkpt>
      <trkpt lat="59.966216264293" lon="15.842982949689">
        <ele>112.6</ele>
        <time>2014-04-29T19:08:22Z</time>
        <extensions><gpxtpx:TrackPointExtension><gpxtpx:hr>161</gpxtpx:hr></gpxtpx:TrackPointExtension></extensions>
      </trkpt>
      <trkpt lat="59.966177204624" lon="15.843260809779">
        <ele>112.8</ele>
        <time>2014-04-29T19:08:27Z</time>
        <extensions><gpxtpx:TrackPointExtension><gpxtpx:hr>161</gpxtpx:hr></gpxtpx:TrackPointExtension></extensions>
      </trkpt>
      <trkpt lat="59.96612389572" lon="15.843505477533">
        <ele>112.2</ele>
        <time>2014-04-29T19:08:32Z</time>
        <extensions><gpxtpx:TrackPointExtension><gpxtpx:hr>161</gpxtpx:hr></gpxtpx:TrackPointExtension></extensions>
      </trkpt>
      <trkpt lat="59.966010237113" lon="15.843782164156">
        <ele>111.6</ele>
        <time>2014-04-29T19:08:38Z</time>
        <extensions><gpxtpx:TrackPointExtension><gpxtpx:hr>161</gpxtpx:hr></gpxtpx:TrackPointExtension></extensions>
      </trkpt>
      <trkpt lat="59.965986516327" lon="15.843823319301">
        <ele>111.6</ele>
        <time>2014-04-29T19:08:39Z</time>
        <extensions><gpxtpx:TrackPointExtension><gpxtpx:hr>160</gpxtpx:hr></gpxtpx:TrackPointExtension></extensions>
      </trkpt>
      <trkpt lat="59.965880066156" lon="15.843956423923">
        <ele>111</ele>
        <time>2014-04-29T19:08:44Z</time>
        <extensions><gpxtpx:TrackPointExtension><gpxtpx:hr>161</gpxtpx:hr></gpxtpx:TrackPointExtension></extensions>
      </trkpt>
      <trkpt lat="59.965770347044" lon="15.844093887135">
        <ele>111.2</ele>
        <time>2014-04-29T19:08:49Z</time>
        <extensions><gpxtpx:TrackPointExtension><gpxtpx:hr>161</gpxtpx:hr></gpxtpx:TrackPointExtension></extensions>
      </trkpt>
      <trkpt lat="59.965667249635" lon="15.844209808856">
        <ele>111.2</ele>
        <time>2014-04-29T19:08:54Z</time>
        <extensions><gpxtpx:TrackPointExtension><gpxtpx:hr>162</gpxtpx:hr></gpxtpx:TrackPointExtension></extensions>
      </trkpt>
      <trkpt lat="59.96554043144" lon="15.844367304817">
        <ele>111.4</ele>
        <time>2014-04-29T19:09:00Z</time>
        <extensions><gpxtpx:TrackPointExtension><gpxtpx:hr>162</gpxtpx:hr></gpxtpx:TrackPointExtension></extensions>
      </trkpt>
      <trkpt lat="59.96542878449" lon="15.844493536279">
        <ele>111.4</ele>
        <time>2014-04-29T19:09:05Z</time>
        <extensions><gpxtpx:TrackPointExtension><gpxtpx:hr>161</gpxtpx:hr></gpxtpx:TrackPointExtension></extensions>
      </trkpt>
      <trkpt lat="59.965329626575" lon="15.84460509941">
        <ele>111.6</ele>
        <time>2014-04-29T19:09:10Z</time>
        <extensions><gpxtpx:TrackPointExtension><gpxtpx:hr>161</gpxtpx:hr></gpxtpx:TrackPointExtension></extensions>
      </trkpt>
      <trkpt lat="59.965250836685" lon="15.844685230404">
        <ele>111.4</ele>
        <time>2014-04-29T19:09:13Z</time>
        <extensions><gpxtpx:TrackPointExtension><gpxtpx:hr>161</gpxtpx:hr></gpxtpx:TrackPointExtension></extensions>
      </trkpt>
      <trkpt lat="59.96520624496" lon="15.844718171284">
        <ele>111.4</ele>
        <time>2014-04-29T19:09:15Z</time>
        <extensions><gpxtpx:TrackPointExtension><gpxtpx:hr>161</gpxtpx:hr></gpxtpx:TrackPointExtension></extensions>
      </trkpt>
      <trkpt lat="59.965080264956" lon="15.844779191539">
        <ele>110.8</ele>
        <time>2014-04-29T19:09:20Z</time>
        <extensions><gpxtpx:TrackPointExtension><gpxtpx:hr>159</gpxtpx:hr></gpxtpx:TrackPointExtension></extensions>
      </trkpt>
      <trkpt lat="59.96491975151" lon="15.84474532865">
        <ele>111.2</ele>
        <time>2014-04-29T19:09:26Z</time>
        <extensions><gpxtpx:TrackPointExtension><gpxtpx:hr>158</gpxtpx:hr></gpxtpx:TrackPointExtension></extensions>
      </trkpt>
      <trkpt lat="59.964770134538" lon="15.844781370834">
        <ele>111.6</ele>
        <time>2014-04-29T19:09:32Z</time>
        <extensions><gpxtpx:TrackPointExtension><gpxtpx:hr>159</gpxtpx:hr></gpxtpx:TrackPointExtension></extensions>
      </trkpt>
      <trkpt lat="59.964639041573" lon="15.844890587032">
        <ele>111.6</ele>
        <time>2014-04-29T19:09:38Z</time>
        <extensions><gpxtpx:TrackPointExtension><gpxtpx:hr>159</gpxtpx:hr></gpxtpx:TrackPointExtension></extensions>
      </trkpt>
      <trkpt lat="59.964509792626" lon="15.845034839585">
        <ele>111.4</ele>
        <time>2014-04-29T19:09:44Z</time>
        <extensions><gpxtpx:TrackPointExtension><gpxtpx:hr>159</gpxtpx:hr></gpxtpx:TrackPointExtension></extensions>
      </trkpt>
      <trkpt lat="59.964381465688" lon="15.845183283091">
        <ele>111.2</ele>
        <time>2014-04-29T19:09:50Z</time>
        <extensions><gpxtpx:TrackPointExtension><gpxtpx:hr>158</gpxtpx:hr></gpxtpx:TrackPointExtension></extensions>
      </trkpt>
      <trkpt lat="59.964246181771" lon="15.84532787092">
        <ele>111.2</ele>
        <time>2014-04-29T19:09:56Z</time>
        <extensions><gpxtpx:TrackPointExtension><gpxtpx:hr>158</gpxtpx:hr></gpxtpx:TrackPointExtension></extensions>
      </trkpt>
      <trkpt lat="59.96411559172" lon="15.845470447093">
        <ele>111</ele>
        <time>2014-04-29T19:10:02Z</time>
        <extensions><gpxtpx:TrackPointExtension><gpxtpx:hr>157</gpxtpx:hr></gpxtpx:TrackPointExtension></extensions>
      </trkpt>
      <trkpt lat="59.963984582573" lon="15.845619980246">
        <ele>111</ele>
        <time>2014-04-29T19:10:08Z</time>
        <extensions><gpxtpx:TrackPointExtension><gpxtpx:hr>156</gpxtpx:hr></gpxtpx:TrackPointExtension></extensions>
      </trkpt>
      <trkpt lat="59.963854579255" lon="15.845779823139">
        <ele>111</ele>
        <time>2014-04-29T19:10:14Z</time>
        <extensions><gpxtpx:TrackPointExtension><gpxtpx:hr>156</gpxtpx:hr></gpxtpx:TrackPointExtension></extensions>
      </trkpt>
      <trkpt lat="59.963717116043" lon="15.84589406848">
        <ele>111</ele>
        <time>2014-04-29T19:10:20Z</time>
        <extensions><gpxtpx:TrackPointExtension><gpxtpx:hr>155</gpxtpx:hr></gpxtpx:TrackPointExtension></extensions>
      </trkpt>
      <trkpt lat="59.963699849322" lon="15.845885099843">
        <ele>111.4</ele>
        <time>2014-04-29T19:10:21Z</time>
        <extensions><gpxtpx:TrackPointExtension><gpxtpx:hr>156</gpxtpx:hr></gpxtpx:TrackPointExtension></extensions>
      </trkpt>
      <trkpt lat="59.963617958128" lon="15.845853080973">
        <ele>111.6</ele>
        <time>2014-04-29T19:10:24Z</time>
        <extensions><gpxtpx:TrackPointExtension><gpxtpx:hr>155</gpxtpx:hr></gpxtpx:TrackPointExtension></extensions>
      </trkpt>
      <trkpt lat="59.963504550979" lon="15.845663985237">
        <ele>112.2</ele>
        <time>2014-04-29T19:10:30Z</time>
        <extensions><gpxtpx:TrackPointExtension><gpxtpx:hr>155</gpxtpx:hr></gpxtpx:TrackPointExtension></extensions>
      </trkpt>
      <trkpt lat="59.963421989232" lon="15.845521157607">
        <ele>112.6</ele>
        <time>2014-04-29T19:10:35Z</time>
        <extensions><gpxtpx:TrackPointExtension><gpxtpx:hr>157</gpxtpx:hr></gpxtpx:TrackPointExtension></extensions>
      </trkpt>
      <trkpt lat="59.963397597894" lon="15.845481511205">
        <ele>112.8</ele>
        <time>2014-04-29T19:10:36Z</time>
        <extensions><gpxtpx:TrackPointExtension><gpxtpx:hr>157</gpxtpx:hr></gpxtpx:TrackPointExtension></extensions>
      </trkpt>
      <trkpt lat="59.963276060298" lon="15.845254193991">
        <ele>113.8</ele>
        <time>2014-04-29T19:10:43Z</time>
        <extensions><gpxtpx:TrackPointExtension><gpxtpx:hr>159</gpxtpx:hr></gpxtpx:TrackPointExtension></extensions>
      </trkpt>
      <trkpt lat="59.963151924312" lon="15.845063505694">
        <ele>114.4</ele>
        <time>2014-04-29T19:10:49Z</time>
        <extensions><gpxtpx:TrackPointExtension><gpxtpx:hr>159</gpxtpx:hr></gpxtpx:TrackPointExtension></extensions>
      </trkpt>
      <trkpt lat="59.963050670922" lon="15.844973735511">
        <ele>114.8</ele>
        <time>2014-04-29T19:10:53Z</time>
        <extensions><gpxtpx:TrackPointExtension><gpxtpx:hr>159</gpxtpx:hr></gpxtpx:TrackPointExtension></extensions>
      </trkpt>
      <trkpt lat="59.963016640395" lon="15.844955462962">
        <ele>115</ele>
        <time>2014-04-29T19:10:54Z</time>
        <extensions><gpxtpx:TrackPointExtension><gpxtpx:hr>159</gpxtpx:hr></gpxtpx:TrackPointExtension></extensions>
      </trkpt>
      <trkpt lat="59.962856797501" lon="15.844953535125">
        <ele>115.6</ele>
        <time>2014-04-29T19:11:01Z</time>
        <extensions><gpxtpx:TrackPointExtension><gpxtpx:hr>160</gpxtpx:hr></gpxtpx:TrackPointExtension></extensions>
      </trkpt>
      <trkpt lat="59.962781947106" lon="15.844983039424">
        <ele>116</ele>
        <time>2014-04-29T19:11:04Z</time>
        <extensions><gpxtpx:TrackPointExtension><gpxtpx:hr>160</gpxtpx:hr></gpxtpx:TrackPointExtension></extensions>
      </trkpt>
      <trkpt lat="59.962698211893" lon="15.845014471561">
        <ele>116.6</ele>
        <time>2014-04-29T19:11:08Z</time>
        <extensions><gpxtpx:TrackPointExtension><gpxtpx:hr>160</gpxtpx:hr></gpxtpx:TrackPointExtension></extensions>
      </trkpt>
      <trkpt lat="59.962643645704" lon="15.845020757988">
        <ele>117</ele>
        <time>2014-04-29T19:11:11Z</time>
        <extensions><gpxtpx:TrackPointExtension><gpxtpx:hr>160</gpxtpx:hr></gpxtpx:TrackPointExtension></extensions>
      </trkpt>
      <trkpt lat="59.962575836107" lon="15.845040623099">
        <ele>117.6</ele>
        <time>2014-04-29T19:11:14Z</time>
        <extensions><gpxtpx:TrackPointExtension><gpxtpx:hr>161</gpxtpx:hr></gpxtpx:TrackPointExtension></extensions>
      </trkpt>
      <trkpt lat="59.962529400364" lon="15.845057806">
        <ele>118</ele>
        <time>2014-04-29T19:11:17Z</time>
        <extensions><gpxtpx:TrackPointExtension><gpxtpx:hr>161</gpxtpx:hr></gpxtpx:TrackPointExtension></extensions>
      </trkpt>
      <trkpt lat="59.962491933256" lon="15.84507163614">
        <ele>118.2</ele>
        <time>2014-04-29T19:11:19Z</time>
        <extensions><gpxtpx:TrackPointExtension><gpxtpx:hr>161</gpxtpx:hr></gpxtpx:TrackPointExtension></extensions>
      </trkpt>
      <trkpt lat="59.962386991829" lon="15.845116311684">
        <ele>119</ele>
        <time>2014-04-29T19:11:24Z</time>
        <extensions><gpxtpx:TrackPointExtension><gpxtpx:hr>162</gpxtpx:hr></gpxtpx:TrackPointExtension></extensions>
      </trkpt>
      <trkpt lat="59.962301496416" lon="15.84513835609">
        <ele>120.2</ele>
        <time>2014-04-29T19:11:29Z</time>
        <extensions><gpxtpx:TrackPointExtension><gpxtpx:hr>163</gpxtpx:hr></gpxtpx:TrackPointExtension></extensions>
      </trkpt>
      <trkpt lat="59.962209546939" lon="15.845193676651">
        <ele>120.6</ele>
        <time>2014-04-29T19:11:33Z</time>
        <extensions><gpxtpx:TrackPointExtension><gpxtpx:hr>164</gpxtpx:hr></gpxtpx:TrackPointExtension></extensions>
      </trkpt>
      <trkpt lat="59.962082058191" lon="15.845294427127">
        <ele>121.2</ele>
        <time>2014-04-29T19:11:39Z</time>
        <extensions><gpxtpx:TrackPointExtension><gpxtpx:hr>164</gpxtpx:hr></gpxtpx:TrackPointExtension></extensions>
      </trkpt>
      <trkpt lat="59.962053559721" lon="15.845321249217">
        <ele>121.4</ele>
        <time>2014-04-29T19:11:40Z</time>
        <extensions><gpxtpx:TrackPointExtension><gpxtpx:hr>164</gpxtpx:hr></gpxtpx:TrackPointExtension></extensions>
      </trkpt>
      <trkpt lat="59.962042495608" lon="15.845324015245">
        <ele>121.4</ele>
        <time>2014-04-29T19:11:41Z</time>
        <extensions><gpxtpx:TrackPointExtension><gpxtpx:hr>164</gpxtpx:hr></gpxtpx:TrackPointExtension></extensions>
      </trkpt>
      <trkpt lat="59.962002765387" lon="15.845350837335">
        <ele>121.6</ele>
        <time>2014-04-29T19:11:43Z</time>
        <extensions><gpxtpx:TrackPointExtension><gpxtpx:hr>164</gpxtpx:hr></gpxtpx:TrackPointExtension></extensions>
      </trkpt>
      <trkpt lat="59.96196269989" lon="15.845370534807">
        <ele>121.8</ele>
        <time>2014-04-29T19:11:45Z</time>
        <extensions><gpxtpx:TrackPointExtension><gpxtpx:hr>164</gpxtpx:hr></gpxtpx:TrackPointExtension></extensions>
      </trkpt>
      <trkpt lat="59.961923137307" lon="15.845380257815">
        <ele>122.4</ele>
        <time>2014-04-29T19:11:47Z</time>
        <extensions><gpxtpx:TrackPointExtension><gpxtpx:hr>164</gpxtpx:hr></gpxtpx:TrackPointExtension></extensions>
      </trkpt>
      <trkpt lat="59.961897488683" lon="15.845380760729">
        <ele>122.4</ele>
        <time>2014-04-29T19:11:48Z</time>
        <extensions><gpxtpx:TrackPointExtension><gpxtpx:hr>165</gpxtpx:hr></gpxtpx:TrackPointExtension></extensions>
      </trkpt>
      <trkpt lat="59.961885251105" lon="15.845388639718">
        <ele>122.6</ele>
        <time>2014-04-29T19:11:49Z</time>
        <extensions><gpxtpx:TrackPointExtension><gpxtpx:hr>165</gpxtpx:hr></gpxtpx:TrackPointExtension></extensions>
      </trkpt>
      <trkpt lat="59.961794558913" lon="15.845407666638">
        <ele>123.4</ele>
        <time>2014-04-29T19:11:53Z</time>
        <extensions><gpxtpx:TrackPointExtension><gpxtpx:hr>165</gpxtpx:hr></gpxtpx:TrackPointExtension></extensions>
      </trkpt>
      <trkpt lat="59.961766730994" lon="15.84541445598">
        <ele>123.6</ele>
        <time>2014-04-29T19:11:54Z</time>
        <extensions><gpxtpx:TrackPointExtension><gpxtpx:hr>165</gpxtpx:hr></gpxtpx:TrackPointExtension></extensions>
      </trkpt>
      <trkpt lat="59.961721468717" lon="15.845402637497">
        <ele>123.8</ele>
        <time>2014-04-29T19:11:56Z</time>
        <extensions><gpxtpx:TrackPointExtension><gpxtpx:hr>166</gpxtpx:hr></gpxtpx:TrackPointExtension></extensions>
      </trkpt>
      <trkpt lat="59.961650390178" lon="15.845389729366">
        <ele>124.2</ele>
        <time>2014-04-29T19:11:59Z</time>
        <extensions><gpxtpx:TrackPointExtension><gpxtpx:hr>166</gpxtpx:hr></gpxtpx:TrackPointExtension></extensions>
      </trkpt>
      <trkpt lat="59.961460959166" lon="15.845311610028">
        <ele>124.6</ele>
        <time>2014-04-29T19:12:06Z</time>
        <extensions><gpxtpx:TrackPointExtension><gpxtpx:hr>164</gpxtpx:hr></gpxtpx:TrackPointExtension></extensions>
      </trkpt>
      <trkpt lat="59.961332799867" lon="15.845221085474">
        <ele>124.6</ele>
        <time>2014-04-29T19:12:11Z</time>
        <extensions><gpxtpx:TrackPointExtension><gpxtpx:hr>163</gpxtpx:hr></gpxtpx:TrackPointExtension></extensions>
      </trkpt>
      <trkpt lat="59.961278401315" lon="15.845172386616">
        <ele>124.8</ele>
        <time>2014-04-29T19:12:13Z</time>
        <extensions><gpxtpx:TrackPointExtension><gpxtpx:hr>163</gpxtpx:hr></gpxtpx:TrackPointExtension></extensions>
      </trkpt>
      <trkpt lat="59.961182428524" lon="15.845082197338">
        <ele>124.8</ele>
        <time>2014-04-29T19:12:17Z</time>
        <extensions><gpxtpx:TrackPointExtension><gpxtpx:hr>162</gpxtpx:hr></gpxtpx:TrackPointExtension></extensions>
      </trkpt>
      <trkpt lat="59.961083605886" lon="15.844967113808">
        <ele>125</ele>
        <time>2014-04-29T19:12:21Z</time>
        <extensions><gpxtpx:TrackPointExtension><gpxtpx:hr>163</gpxtpx:hr></gpxtpx:TrackPointExtension></extensions>
      </trkpt>
      <trkpt lat="59.96097153984" lon="15.844846330583">
        <ele>124.8</ele>
        <time>2014-04-29T19:12:26Z</time>
        <extensions><gpxtpx:TrackPointExtension><gpxtpx:hr>162</gpxtpx:hr></gpxtpx:TrackPointExtension></extensions>
      </trkpt>
      <trkpt lat="59.960848912597" lon="15.844707610086">
        <ele>125</ele>
        <time>2014-04-29T19:12:31Z</time>
        <extensions><gpxtpx:TrackPointExtension><gpxtpx:hr>161</gpxtpx:hr></gpxtpx:TrackPointExtension></extensions>
      </trkpt>
      <trkpt lat="59.96068588458" lon="15.84461716935">
        <ele>124.6</ele>
        <time>2014-04-29T19:12:37Z</time>
        <extensions><gpxtpx:TrackPointExtension><gpxtpx:hr>160</gpxtpx:hr></gpxtpx:TrackPointExtension></extensions>
      </trkpt>
      <trkpt lat="59.960520677269" lon="15.844608955085">
        <ele>124</ele>
        <time>2014-04-29T19:12:43Z</time>
        <extensions><gpxtpx:TrackPointExtension><gpxtpx:hr>160</gpxtpx:hr></gpxtpx:TrackPointExtension></extensions>
      </trkpt>
      <trkpt lat="59.960418166593" lon="15.844631418586">
        <ele>123.6</ele>
        <time>2014-04-29T19:12:47Z</time>
        <extensions><gpxtpx:TrackPointExtension><gpxtpx:hr>160</gpxtpx:hr></gpxtpx:TrackPointExtension></extensions>
      </trkpt>
      <trkpt lat="59.960376759991" lon="15.844660336152">
        <ele>123.6</ele>
        <time>2014-04-29T19:12:48Z</time>
        <extensions><gpxtpx:TrackPointExtension><gpxtpx:hr>160</gpxtpx:hr></gpxtpx:TrackPointExtension></extensions>
      </trkpt>
      <trkpt lat="59.960256982595" lon="15.844741053879">
        <ele>123.4</ele>
        <time>2014-04-29T19:12:53Z</time>
        <extensions><gpxtpx:TrackPointExtension><gpxtpx:hr>160</gpxtpx:hr></gpxtpx:TrackPointExtension></extensions>
      </trkpt>
      <trkpt lat="59.96011717245" lon="15.844831578434">
        <ele>123</ele>
        <time>2014-04-29T19:12:59Z</time>
        <extensions><gpxtpx:TrackPointExtension><gpxtpx:hr>160</gpxtpx:hr></gpxtpx:TrackPointExtension></extensions>
      </trkpt>
      <trkpt lat="59.959970908239" lon="15.844916570932">
        <ele>122.8</ele>
        <time>2014-04-29T19:13:05Z</time>
        <extensions><gpxtpx:TrackPointExtension><gpxtpx:hr>159</gpxtpx:hr></gpxtpx:TrackPointExtension></extensions>
      </trkpt>
      <trkpt lat="59.95993017219" lon="15.844936687499">
        <ele>122.6</ele>
        <time>2014-04-29T19:13:06Z</time>
        <extensions><gpxtpx:TrackPointExtension><gpxtpx:hr>159</gpxtpx:hr></gpxtpx:TrackPointExtension></extensions>
      </trkpt>
      <trkpt lat="59.959821375087" lon="15.844956384972">
        <ele>122.6</ele>
        <time>2014-04-29T19:13:10Z</time>
        <extensions><gpxtpx:TrackPointExtension><gpxtpx:hr>159</gpxtpx:hr></gpxtpx:TrackPointExtension></extensions>
      </trkpt>
      <trkpt lat="59.959689611569" lon="15.844876337796">
        <ele>122.4</ele>
        <time>2014-04-29T19:13:15Z</time>
        <extensions><gpxtpx:TrackPointExtension><gpxtpx:hr>158</gpxtpx:hr></gpxtpx:TrackPointExtension></extensions>
      </trkpt>
      <trkpt lat="59.959525745362" lon="15.844783717766">
        <ele>122.2</ele>
        <time>2014-04-29T19:13:21Z</time>
        <extensions><gpxtpx:TrackPointExtension><gpxtpx:hr>158</gpxtpx:hr></gpxtpx:TrackPointExtension></extensions>
      </trkpt>
      <trkpt lat="59.959384091198" lon="15.844844821841">
        <ele>122.2</ele>
        <time>2014-04-29T19:13:27Z</time>
        <extensions><gpxtpx:TrackPointExtension><gpxtpx:hr>159</gpxtpx:hr></gpxtpx:TrackPointExtension></extensions>
      </trkpt>
      <trkpt lat="59.959233216941" lon="15.844942554832">
        <ele>122.4</ele>
        <time>2014-04-29T19:13:33Z</time>
        <extensions><gpxtpx:TrackPointExtension><gpxtpx:hr>159</gpxtpx:hr></gpxtpx:TrackPointExtension></extensions>
      </trkpt>
      <trkpt lat="59.959086701274" lon="15.845040287822">
        <ele>122.4</ele>
        <time>2014-04-29T19:13:39Z</time>
        <extensions><gpxtpx:TrackPointExtension><gpxtpx:hr>159</gpxtpx:hr></gpxtpx:TrackPointExtension></extensions>
      </trkpt>
      <trkpt lat="59.958937503397" lon="15.845133746043">
        <ele>122.2</ele>
        <time>2014-04-29T19:13:45Z</time>
        <extensions><gpxtpx:TrackPointExtension><gpxtpx:hr>159</gpxtpx:hr></gpxtpx:TrackPointExtension></extensions>
      </trkpt>
      <trkpt lat="59.958790484816" lon="15.845206584781">
        <ele>122.2</ele>
        <time>2014-04-29T19:13:51Z</time>
        <extensions><gpxtpx:TrackPointExtension><gpxtpx:hr>158</gpxtpx:hr></gpxtpx:TrackPointExtension></extensions>
      </trkpt>
      <trkpt lat="59.958640113473" lon="15.84527682513">
        <ele>122.2</ele>
        <time>2014-04-29T19:13:57Z</time>
        <extensions><gpxtpx:TrackPointExtension><gpxtpx:hr>158</gpxtpx:hr></gpxtpx:TrackPointExtension></extensions>
      </trkpt>
      <trkpt lat="59.958502147347" lon="15.84533222951">
        <ele>122</ele>
        <time>2014-04-29T19:14:02Z</time>
        <extensions><gpxtpx:TrackPointExtension><gpxtpx:hr>158</gpxtpx:hr></gpxtpx:TrackPointExtension></extensions>
      </trkpt>
      <trkpt lat="59.95834951289" lon="15.845399536192">
        <ele>122</ele>
        <time>2014-04-29T19:14:08Z</time>
        <extensions><gpxtpx:TrackPointExtension><gpxtpx:hr>158</gpxtpx:hr></gpxtpx:TrackPointExtension></extensions>
      </trkpt>
      <trkpt lat="59.958195537329" lon="15.845453599468">
        <ele>122.2</ele>
        <time>2014-04-29T19:14:14Z</time>
        <extensions><gpxtpx:TrackPointExtension><gpxtpx:hr>158</gpxtpx:hr></gpxtpx:TrackPointExtension></extensions>
      </trkpt>
      <trkpt lat="59.958072239533" lon="15.845492240041">
        <ele>122</ele>
        <time>2014-04-29T19:14:19Z</time>
        <extensions><gpxtpx:TrackPointExtension><gpxtpx:hr>158</gpxtpx:hr></gpxtpx:TrackPointExtension></extensions>
      </trkpt>
      <trkpt lat="59.957877444103" lon="15.845546973869">
        <ele>121.8</ele>
        <time>2014-04-29T19:14:26Z</time>
        <extensions><gpxtpx:TrackPointExtension><gpxtpx:hr>157</gpxtpx:hr></gpxtpx:TrackPointExtension></extensions>
      </trkpt>
      <trkpt lat="59.957786584273" lon="15.845541357994">
        <ele>122</ele>
        <time>2014-04-29T19:14:30Z</time>
        <extensions><gpxtpx:TrackPointExtension><gpxtpx:hr>157</gpxtpx:hr></gpxtpx:TrackPointExtension></extensions>
      </trkpt>
      <trkpt lat="59.957745596766" lon="15.845474051312">
        <ele>122</ele>
        <time>2014-04-29T19:14:32Z</time>
        <extensions><gpxtpx:TrackPointExtension><gpxtpx:hr>157</gpxtpx:hr></gpxtpx:TrackPointExtension></extensions>
      </trkpt>
      <trkpt lat="59.957618694752" lon="15.845238938928">
        <ele>121.8</ele>
        <time>2014-04-29T19:14:38Z</time>
        <extensions><gpxtpx:TrackPointExtension><gpxtpx:hr>157</gpxtpx:hr></gpxtpx:TrackPointExtension></extensions>
      </trkpt>
      <trkpt lat="59.957613162696" lon="15.845204154029">
        <ele>121.6</ele>
        <time>2014-04-29T19:14:39Z</time>
        <extensions><gpxtpx:TrackPointExtension><gpxtpx:hr>157</gpxtpx:hr></gpxtpx:TrackPointExtension></extensions>
      </trkpt>
      <trkpt lat="59.957573181018" lon="15.844932748005">
        <ele>121</ele>
        <time>2014-04-29T19:14:44Z</time>
        <extensions><gpxtpx:TrackPointExtension><gpxtpx:hr>157</gpxtpx:hr></gpxtpx:TrackPointExtension></extensions>
      </trkpt>
      <trkpt lat="59.957545604557" lon="15.84461809136">
        <ele>120.8</ele>
        <time>2014-04-29T19:14:50Z</time>
        <extensions><gpxtpx:TrackPointExtension><gpxtpx:hr>158</gpxtpx:hr></gpxtpx:TrackPointExtension></extensions>
      </trkpt>
      <trkpt lat="59.957534540445" lon="15.844391947612">
        <ele>120.6</ele>
        <time>2014-04-29T19:14:54Z</time>
        <extensions><gpxtpx:TrackPointExtension><gpxtpx:hr>158</gpxtpx:hr></gpxtpx:TrackPointExtension></extensions>
      </trkpt>
      <trkpt lat="59.957534121349" lon="15.844362443313">
        <ele>120.6</ele>
        <time>2014-04-29T19:14:55Z</time>
        <extensions><gpxtpx:TrackPointExtension><gpxtpx:hr>157</gpxtpx:hr></gpxtpx:TrackPointExtension></extensions>
      </trkpt>
      <trkpt lat="59.95752280578" lon="15.843969751149">
        <ele>120.6</ele>
        <time>2014-04-29T19:15:02Z</time>
        <extensions><gpxtpx:TrackPointExtension><gpxtpx:hr>157</gpxtpx:hr></gpxtpx:TrackPointExtension></extensions>
      </trkpt>
      <trkpt lat="59.957502353936" lon="15.84357412532">
        <ele>120.6</ele>
        <time>2014-04-29T19:15:10Z</time>
        <extensions><gpxtpx:TrackPointExtension><gpxtpx:hr>157</gpxtpx:hr></gpxtpx:TrackPointExtension></extensions>
      </trkpt>
      <trkpt lat="59.957475531846" lon="15.84324605763">
        <ele>120.4</ele>
        <time>2014-04-29T19:15:17Z</time>
        <extensions><gpxtpx:TrackPointExtension><gpxtpx:hr>158</gpxtpx:hr></gpxtpx:TrackPointExtension></extensions>
      </trkpt>
      <trkpt lat="59.957431862131" lon="15.842896532267">
        <ele>120.6</ele>
        <time>2014-04-29T19:15:24Z</time>
        <extensions><gpxtpx:TrackPointExtension><gpxtpx:hr>159</gpxtpx:hr></gpxtpx:TrackPointExtension></extensions>
      </trkpt>
      <trkpt lat="59.957369333133" lon="15.842497134581">
        <ele>120.6</ele>
        <time>2014-04-29T19:15:32Z</time>
        <extensions><gpxtpx:TrackPointExtension><gpxtpx:hr>158</gpxtpx:hr></gpxtpx:TrackPointExtension></extensions>
      </trkpt>
      <trkpt lat="59.957322645932" lon="15.842178622261">
        <ele>119.8</ele>
        <time>2014-04-29T19:15:38Z</time>
        <extensions><gpxtpx:TrackPointExtension><gpxtpx:hr>157</gpxtpx:hr></gpxtpx:TrackPointExtension></extensions>
      </trkpt>
      <trkpt lat="59.957301272079" lon="15.842032860965">
        <ele>119.4</ele>
        <time>2014-04-29T19:15:41Z</time>
        <extensions><gpxtpx:TrackPointExtension><gpxtpx:hr>157</gpxtpx:hr></gpxtpx:TrackPointExtension></extensions>
      </trkpt>
      <trkpt lat="59.957272773609" lon="15.841823816299">
        <ele>119</ele>
        <time>2014-04-29T19:15:45Z</time>
        <extensions><gpxtpx:TrackPointExtension><gpxtpx:hr>154</gpxtpx:hr></gpxtpx:TrackPointExtension></extensions>
      </trkpt>
      <trkpt lat="59.957238994539" lon="15.841514356434">
        <ele>118.6</ele>
        <time>2014-04-29T19:15:51Z</time>
        <extensions><gpxtpx:TrackPointExtension><gpxtpx:hr>155</gpxtpx:hr></gpxtpx:TrackPointExtension></extensions>
      </trkpt>
      <trkpt lat="59.957206975669" lon="15.841134656221">
        <ele>118.4</ele>
        <time>2014-04-29T19:15:58Z</time>
        <extensions><gpxtpx:TrackPointExtension><gpxtpx:hr>156</gpxtpx:hr></gpxtpx:TrackPointExtension></extensions>
      </trkpt>
      <trkpt lat="59.957177136093" lon="15.840825866908">
        <ele>118.6</ele>
        <time>2014-04-29T19:16:04Z</time>
        <extensions><gpxtpx:TrackPointExtension><gpxtpx:hr>159</gpxtpx:hr></gpxtpx:TrackPointExtension></extensions>
      </trkpt>
      <trkpt lat="59.957164060324" lon="15.840717656538">
        <ele>118.6</ele>
        <time>2014-04-29T19:16:06Z</time>
        <extensions><gpxtpx:TrackPointExtension><gpxtpx:hr>159</gpxtpx:hr></gpxtpx:TrackPointExtension></extensions>
      </trkpt>
      <trkpt lat="59.957124078646" lon="15.840386068448">
        <ele>119</ele>
        <time>2014-04-29T19:16:13Z</time>
        <extensions><gpxtpx:TrackPointExtension><gpxtpx:hr>159</gpxtpx:hr></gpxtpx:TrackPointExtension></extensions>
      </trkpt>
      <trkpt lat="59.957059035078" lon="15.840100664645">
        <ele>119.2</ele>
        <time>2014-04-29T19:16:19Z</time>
        <extensions><gpxtpx:TrackPointExtension><gpxtpx:hr>158</gpxtpx:hr></gpxtpx:TrackPointExtension></extensions>
      </trkpt>
      <trkpt lat="59.956996589899" lon="15.839912742376">
        <ele>119.4</ele>
        <time>2014-04-29T19:16:23Z</time>
        <extensions><gpxtpx:TrackPointExtension><gpxtpx:hr>159</gpxtpx:hr></gpxtpx:TrackPointExtension></extensions>
      </trkpt>
      <trkpt lat="59.956965409219" lon="15.839825905859">
        <ele>119.2</ele>
        <time>2014-04-29T19:16:25Z</time>
        <extensions><gpxtpx:TrackPointExtension><gpxtpx:hr>159</gpxtpx:hr></gpxtpx:TrackPointExtension></extensions>
      </trkpt>
      <trkpt lat="59.95684152469" lon="15.839512925595">
        <ele>119</ele>
        <time>2014-04-29T19:16:32Z</time>
        <extensions><gpxtpx:TrackPointExtension><gpxtpx:hr>160</gpxtpx:hr></gpxtpx:TrackPointExtension></extensions>
      </trkpt>
      <trkpt lat="59.956726189703" lon="15.839228946716">
        <ele>118.2</ele>
        <time>2014-04-29T19:16:39Z</time>
        <extensions><gpxtpx:TrackPointExtension><gpxtpx:hr>160</gpxtpx:hr></gpxtpx:TrackPointExtension></extensions>
      </trkpt>
      <trkpt lat="59.956653434783" lon="15.839071786031">
        <ele>118.2</ele>
        <time>2014-04-29T19:16:43Z</time>
        <extensions><gpxtpx:TrackPointExtension><gpxtpx:hr>159</gpxtpx:hr></gpxtpx:TrackPointExtension></extensions>
      </trkpt>
      <trkpt lat="59.95656022802" lon="15.838831476867">
        <ele>118</ele>
        <time>2014-04-29T19:16:49Z</time>
        <extensions><gpxtpx:TrackPointExtension><gpxtpx:hr>159</gpxtpx:hr></gpxtpx:TrackPointExtension></extensions>
      </trkpt>
      <trkpt lat="59.956445647404" lon="15.838517155498">
        <ele>118.2</ele>
        <time>2014-04-29T19:16:56Z</time>
        <extensions><gpxtpx:TrackPointExtension><gpxtpx:hr>159</gpxtpx:hr></gpxtpx:TrackPointExtension></extensions>
      </trkpt>
      <trkpt lat="59.956353278831" lon="15.838251113892">
        <ele>118.6</ele>
        <time>2014-04-29T19:17:02Z</time>
        <extensions><gpxtpx:TrackPointExtension><gpxtpx:hr>160</gpxtpx:hr></gpxtpx:TrackPointExtension></extensions>
      </trkpt>
      <trkpt lat="59.956257725134" lon="15.837945174426">
        <ele>118.8</ele>
        <time>2014-04-29T19:17:09Z</time>
        <extensions><gpxtpx:TrackPointExtension><gpxtpx:hr>161</gpxtpx:hr></gpxtpx:TrackPointExtension></extensions>
      </trkpt>
      <trkpt lat="59.956242889166" lon="15.837889686227">
        <ele>119</ele>
        <time>2014-04-29T19:17:10Z</time>
        <extensions><gpxtpx:TrackPointExtension><gpxtpx:hr>161</gpxtpx:hr></gpxtpx:TrackPointExtension></extensions>
      </trkpt>
      <trkpt lat="59.956169379875" lon="15.837620794773">
        <ele>118.8</ele>
        <time>2014-04-29T19:17:16Z</time>
        <extensions><gpxtpx:TrackPointExtension><gpxtpx:hr>159</gpxtpx:hr></gpxtpx:TrackPointExtension></extensions>
      </trkpt>
      <trkpt lat="59.956092853099" lon="15.837307982147">
        <ele>118.4</ele>
        <time>2014-04-29T19:17:23Z</time>
        <extensions><gpxtpx:TrackPointExtension><gpxtpx:hr>159</gpxtpx:hr></gpxtpx:TrackPointExtension></extensions>
      </trkpt>
      <trkpt lat="59.956026049331" lon="15.836952170357">
        <ele>118.4</ele>
        <time>2014-04-29T19:17:30Z</time>
        <extensions><gpxtpx:TrackPointExtension><gpxtpx:hr>160</gpxtpx:hr></gpxtpx:TrackPointExtension></extensions>
      </trkpt>
      <trkpt lat="59.955976344645" lon="15.836626114324">
        <ele>118.2</ele>
        <time>2014-04-29T19:17:37Z</time>
        <extensions><gpxtpx:TrackPointExtension><gpxtpx:hr>161</gpxtpx:hr></gpxtpx:TrackPointExtension></extensions>
      </trkpt>
      <trkpt lat="59.955913899466" lon="15.83625244908">
        <ele>117.6</ele>
        <time>2014-04-29T19:17:44Z</time>
        <extensions><gpxtpx:TrackPointExtension><gpxtpx:hr>159</gpxtpx:hr></gpxtpx:TrackPointExtension></extensions>
      </trkpt>
      <trkpt lat="59.955881964415" lon="15.836009876803">
        <ele>117.2</ele>
        <time>2014-04-29T19:17:49Z</time>
        <extensions><gpxtpx:TrackPointExtension><gpxtpx:hr>158</gpxtpx:hr></gpxtpx:TrackPointExtension></extensions>
      </trkpt>
      <trkpt lat="59.955872995779" lon="15.835947934538">
        <ele>117.2</ele>
        <time>2014-04-29T19:17:50Z</time>
        <extensions><gpxtpx:TrackPointExtension><gpxtpx:hr>159</gpxtpx:hr></gpxtpx:TrackPointExtension></extensions>
      </trkpt>
      <trkpt lat="59.95582354255" lon="15.835537221283">
        <ele>116.8</ele>
        <time>2014-04-29T19:17:58Z</time>
        <extensions><gpxtpx:TrackPointExtension><gpxtpx:hr>158</gpxtpx:hr></gpxtpx:TrackPointExtension></extensions>
      </trkpt>
      <trkpt lat="59.955787500367" lon="15.835228683427">
        <ele>116.6</ele>
        <time>2014-04-29T19:18:04Z</time>
        <extensions><gpxtpx:TrackPointExtension><gpxtpx:hr>158</gpxtpx:hr></gpxtpx:TrackPointExtension></extensions>
      </trkpt>
      <trkpt lat="59.955777022988" lon="15.835084263235">
        <ele>116.2</ele>
        <time>2014-04-29T19:18:07Z</time>
        <extensions><gpxtpx:TrackPointExtension><gpxtpx:hr>157</gpxtpx:hr></gpxtpx:TrackPointExtension></extensions>
      </trkpt>
      <trkpt lat="59.955760343" lon="15.834810510278">
        <ele>116.2</ele>
        <time>2014-04-29T19:18:12Z</time>
        <extensions><gpxtpx:TrackPointExtension><gpxtpx:hr>158</gpxtpx:hr></gpxtpx:TrackPointExtension></extensions>
      </trkpt>
      <trkpt lat="59.955756990239" lon="15.834459057078">
        <ele>115.4</ele>
        <time>2014-04-29T19:18:19Z</time>
        <extensions><gpxtpx:TrackPointExtension><gpxtpx:hr>156</gpxtpx:hr></gpxtpx:TrackPointExtension></extensions>
      </trkpt>
      <trkpt lat="59.95574827306" lon="15.834148339927">
        <ele>115.4</ele>
        <time>2014-04-29T19:18:25Z</time>
        <extensions><gpxtpx:TrackPointExtension><gpxtpx:hr>157</gpxtpx:hr></gpxtpx:TrackPointExtension></extensions>
      </trkpt>
      <trkpt lat="59.955758331344" lon="15.833837958053">
        <ele>115.4</ele>
        <time>2014-04-29T19:18:31Z</time>
        <extensions><gpxtpx:TrackPointExtension><gpxtpx:hr>157</gpxtpx:hr></gpxtpx:TrackPointExtension></extensions>
      </trkpt>
      <trkpt lat="59.955762689933" lon="15.833537550643">
        <ele>115.4</ele>
        <time>2014-04-29T19:18:37Z</time>
        <extensions><gpxtpx:TrackPointExtension><gpxtpx:hr>158</gpxtpx:hr></gpxtpx:TrackPointExtension></extensions>
      </trkpt>
      <trkpt lat="59.955772580579" lon="15.833231275901">
        <ele>115.8</ele>
        <time>2014-04-29T19:18:43Z</time>
        <extensions><gpxtpx:TrackPointExtension><gpxtpx:hr>158</gpxtpx:hr></gpxtpx:TrackPointExtension></extensions>
      </trkpt>
      <trkpt lat="59.955781884491" lon="15.832926845178">
        <ele>115.6</ele>
        <time>2014-04-29T19:18:49Z</time>
        <extensions><gpxtpx:TrackPointExtension><gpxtpx:hr>158</gpxtpx:hr></gpxtpx:TrackPointExtension></extensions>
      </trkpt>
      <trkpt lat="59.955796049908" lon="15.832637669519">
        <ele>116.2</ele>
        <time>2014-04-29T19:18:55Z</time>
        <extensions><gpxtpx:TrackPointExtension><gpxtpx:hr>158</gpxtpx:hr></gpxtpx:TrackPointExtension></extensions>
      </trkpt>
      <trkpt lat="59.955809460953" lon="15.832378584892">
        <ele>116</ele>
        <time>2014-04-29T19:19:00Z</time>
        <extensions><gpxtpx:TrackPointExtension><gpxtpx:hr>159</gpxtpx:hr></gpxtpx:TrackPointExtension></extensions>
      </trkpt>
      <trkpt lat="59.955815915018" lon="15.832241289318">
        <ele>116.4</ele>
        <time>2014-04-29T19:19:03Z</time>
        <extensions><gpxtpx:TrackPointExtension><gpxtpx:hr>162</gpxtpx:hr></gpxtpx:TrackPointExtension></extensions>
      </trkpt>
      <trkpt lat="59.955822955817" lon="15.832040542737">
        <ele>116.6</ele>
        <time>2014-04-29T19:19:07Z</time>
        <extensions><gpxtpx:TrackPointExtension><gpxtpx:hr>161</gpxtpx:hr></gpxtpx:TrackPointExtension></extensions>
      </trkpt>
      <trkpt lat="59.955841312185" lon="15.831725466996">
        <ele>116.8</ele>
        <time>2014-04-29T19:19:13Z</time>
        <extensions><gpxtpx:TrackPointExtension><gpxtpx:hr>161</gpxtpx:hr></gpxtpx:TrackPointExtension></extensions>
      </trkpt>
      <trkpt lat="59.955872325227" lon="15.831341743469">
        <ele>117</ele>
        <time>2014-04-29T19:19:20Z</time>
        <extensions><gpxtpx:TrackPointExtension><gpxtpx:hr>161</gpxtpx:hr></gpxtpx:TrackPointExtension></extensions>
      </trkpt>
      <trkpt lat="59.955899482593" lon="15.831037312746">
        <ele>117</ele>
        <time>2014-04-29T19:19:26Z</time>
        <extensions><gpxtpx:TrackPointExtension><gpxtpx:hr>161</gpxtpx:hr></gpxtpx:TrackPointExtension></extensions>
      </trkpt>
      <trkpt lat="59.955907780677" lon="15.830937903374">
        <ele>117.2</ele>
        <time>2014-04-29T19:19:28Z</time>
        <extensions><gpxtpx:TrackPointExtension><gpxtpx:hr>160</gpxtpx:hr></gpxtpx:TrackPointExtension></extensions>
      </trkpt>
      <trkpt lat="59.955915743485" lon="15.830734474584">
        <ele>117.6</ele>
        <time>2014-04-29T19:19:32Z</time>
        <extensions><gpxtpx:TrackPointExtension><gpxtpx:hr>161</gpxtpx:hr></gpxtpx:TrackPointExtension></extensions>
      </trkpt>
      <trkpt lat="59.955930327997" lon="15.830417973921">
        <ele>117.4</ele>
        <time>2014-04-29T19:19:38Z</time>
        <extensions><gpxtpx:TrackPointExtension><gpxtpx:hr>160</gpxtpx:hr></gpxtpx:TrackPointExtension></extensions>
      </trkpt>
      <trkpt lat="59.955941224471" lon="15.830067861825">
        <ele>117.6</ele>
        <time>2014-04-29T19:19:45Z</time>
        <extensions><gpxtpx:TrackPointExtension><gpxtpx:hr>160</gpxtpx:hr></gpxtpx:TrackPointExtension></extensions>
      </trkpt>
      <trkpt lat="59.955945834517" lon="15.829677265137">
        <ele>117.2</ele>
        <time>2014-04-29T19:19:52Z</time>
        <extensions><gpxtpx:TrackPointExtension><gpxtpx:hr>160</gpxtpx:hr></gpxtpx:TrackPointExtension></extensions>
      </trkpt>
      <trkpt lat="59.9559646938" lon="15.829466376454">
        <ele>117.2</ele>
        <time>2014-04-29T19:19:56Z</time>
        <extensions><gpxtpx:TrackPointExtension><gpxtpx:hr>159</gpxtpx:hr></gpxtpx:TrackPointExtension></extensions>
      </trkpt>
      <trkpt lat="59.955972321332" lon="15.829143589363">
        <ele>117</ele>
        <time>2014-04-29T19:20:02Z</time>
        <extensions><gpxtpx:TrackPointExtension><gpxtpx:hr>160</gpxtpx:hr></gpxtpx:TrackPointExtension></extensions>
      </trkpt>
      <trkpt lat="59.955980954692" lon="15.828812085092">
        <ele>117</ele>
        <time>2014-04-29T19:20:09Z</time>
        <extensions><gpxtpx:TrackPointExtension><gpxtpx:hr>160</gpxtpx:hr></gpxtpx:TrackPointExtension></extensions>
      </trkpt>
      <trkpt lat="59.955999897793" lon="15.828529447317">
        <ele>117.8</ele>
        <time>2014-04-29T19:20:15Z</time>
        <extensions><gpxtpx:TrackPointExtension><gpxtpx:hr>160</gpxtpx:hr></gpxtpx:TrackPointExtension></extensions>
      </trkpt>
      <trkpt lat="59.956018840894" lon="15.828335573897">
        <ele>118.4</ele>
        <time>2014-04-29T19:20:19Z</time>
        <extensions><gpxtpx:TrackPointExtension><gpxtpx:hr>160</gpxtpx:hr></gpxtpx:TrackPointExtension></extensions>
      </trkpt>
      <trkpt lat="59.95602529496" lon="15.828269775957">
        <ele>118.4</ele>
        <time>2014-04-29T19:20:20Z</time>
        <extensions><gpxtpx:TrackPointExtension><gpxtpx:hr>160</gpxtpx:hr></gpxtpx:TrackPointExtension></extensions>
      </trkpt>
      <trkpt lat="59.956047339365" lon="15.828045057133">
        <ele>118.8</ele>
        <time>2014-04-29T19:20:25Z</time>
        <extensions><gpxtpx:TrackPointExtension><gpxtpx:hr>160</gpxtpx:hr></gpxtpx:TrackPointExtension></extensions>
      </trkpt>
      <trkpt lat="59.956069719046" lon="15.82788253203">
        <ele>119.6</ele>
        <time>2014-04-29T19:20:28Z</time>
        <extensions><gpxtpx:TrackPointExtension><gpxtpx:hr>160</gpxtpx:hr></gpxtpx:TrackPointExtension></extensions>
      </trkpt>
      <trkpt lat="59.956075167283" lon="15.827781194821">
        <ele>119.8</ele>
        <time>2014-04-29T19:20:30Z</time>
        <extensions><gpxtpx:TrackPointExtension><gpxtpx:hr>160</gpxtpx:hr></gpxtpx:TrackPointExtension></extensions>
      </trkpt>
      <trkpt lat="59.956110203639" lon="15.827495539561">
        <ele>120.6</ele>
        <time>2014-04-29T19:20:36Z</time>
        <extensions><gpxtpx:TrackPointExtension><gpxtpx:hr>161</gpxtpx:hr></gpxtpx:TrackPointExtension></extensions>
      </trkpt>
      <trkpt lat="59.956156304106" lon="15.827200496569">
        <ele>121.4</ele>
        <time>2014-04-29T19:20:42Z</time>
        <extensions><gpxtpx:TrackPointExtension><gpxtpx:hr>161</gpxtpx:hr></gpxtpx:TrackPointExtension></extensions>
      </trkpt>
      <trkpt lat="59.956171894446" lon="15.82710779272">
        <ele>121.8</ele>
        <time>2014-04-29T19:20:44Z</time>
        <extensions><gpxtpx:TrackPointExtension><gpxtpx:hr>162</gpxtpx:hr></gpxtpx:TrackPointExtension></extensions>
      </trkpt>
      <trkpt lat="59.956191340461" lon="15.826917020604">
        <ele>122.4</ele>
        <time>2014-04-29T19:20:48Z</time>
        <extensions><gpxtpx:TrackPointExtension><gpxtpx:hr>163</gpxtpx:hr></gpxtpx:TrackPointExtension></extensions>
      </trkpt>
      <trkpt lat="59.95622000657" lon="15.826732032001">
        <ele>123</ele>
        <time>2014-04-29T19:20:52Z</time>
        <extensions><gpxtpx:TrackPointExtension><gpxtpx:hr>164</gpxtpx:hr></gpxtpx:TrackPointExtension></extensions>
      </trkpt>
      <trkpt lat="59.956220341846" lon="15.826708227396">
        <ele>123.2</ele>
        <time>2014-04-29T19:20:53Z</time>
        <extensions><gpxtpx:TrackPointExtension><gpxtpx:hr>164</gpxtpx:hr></gpxtpx:TrackPointExtension></extensions>
      </trkpt>
      <trkpt lat="59.956257725134" lon="15.826452160254">
        <ele>123.8</ele>
        <time>2014-04-29T19:20:58Z</time>
        <extensions><gpxtpx:TrackPointExtension><gpxtpx:hr>164</gpxtpx:hr></gpxtpx:TrackPointExtension></extensions>
      </trkpt>
      <trkpt lat="59.956268118694" lon="15.826336573809">
        <ele>124.2</ele>
        <time>2014-04-29T19:21:01Z</time>
        <extensions><gpxtpx:TrackPointExtension><gpxtpx:hr>164</gpxtpx:hr></gpxtpx:TrackPointExtension></extensions>
      </trkpt>
      <trkpt lat="59.956280523911" lon="15.826251413673">
        <ele>124.2</ele>
        <time>2014-04-29T19:21:03Z</time>
        <extensions><gpxtpx:TrackPointExtension><gpxtpx:hr>163</gpxtpx:hr></gpxtpx:TrackPointExtension></extensions>
      </trkpt>
      <trkpt lat="59.956317571923" lon="15.826012864709">
        <ele>125.2</ele>
        <time>2014-04-29T19:21:08Z</time>
        <extensions><gpxtpx:TrackPointExtension><gpxtpx:hr>163</gpxtpx:hr></gpxtpx:TrackPointExtension></extensions>
      </trkpt>
      <trkpt lat="59.956339951605" lon="15.825889902189">
        <ele>125.4</ele>
        <time>2014-04-29T19:21:11Z</time>
        <extensions><gpxtpx:TrackPointExtension><gpxtpx:hr>163</gpxtpx:hr></gpxtpx:TrackPointExtension></extensions>
      </trkpt>
      <trkpt lat="59.956383369863" lon="15.825648168102">
        <ele>126.2</ele>
        <time>2014-04-29T19:21:16Z</time>
        <extensions><gpxtpx:TrackPointExtension><gpxtpx:hr>163</gpxtpx:hr></gpxtpx:TrackPointExtension></extensions>
      </trkpt>
      <trkpt lat="59.9563870579" lon="15.82562319003">
        <ele>126.4</ele>
        <time>2014-04-29T19:21:17Z</time>
        <extensions><gpxtpx:TrackPointExtension><gpxtpx:hr>163</gpxtpx:hr></gpxtpx:TrackPointExtension></extensions>
      </trkpt>
      <trkpt lat="59.956451514736" lon="15.82536008209">
        <ele>126.8</ele>
        <time>2014-04-29T19:21:23Z</time>
        <extensions><gpxtpx:TrackPointExtension><gpxtpx:hr>164</gpxtpx:hr></gpxtpx:TrackPointExtension></extensions>
      </trkpt>
      <trkpt lat="59.956484790891" lon="15.825206357986">
        <ele>127.2</ele>
        <time>2014-04-29T19:21:26Z</time>
        <extensions><gpxtpx:TrackPointExtension><gpxtpx:hr>164</gpxtpx:hr></gpxtpx:TrackPointExtension></extensions>
      </trkpt>
      <trkpt lat="59.956534914672" lon="15.824997480959">
        <ele>127.8</ele>
        <time>2014-04-29T19:21:31Z</time>
        <extensions><gpxtpx:TrackPointExtension><gpxtpx:hr>164</gpxtpx:hr></gpxtpx:TrackPointExtension></extensions>
      </trkpt>
      <trkpt lat="59.956551343203" lon="15.824906369671">
        <ele>128.4</ele>
        <time>2014-04-29T19:21:33Z</time>
        <extensions><gpxtpx:TrackPointExtension><gpxtpx:hr>165</gpxtpx:hr></gpxtpx:TrackPointExtension></extensions>
      </trkpt>
      <trkpt lat="59.956578249112" lon="15.824727416039">
        <ele>129.2</ele>
        <time>2014-04-29T19:21:37Z</time>
        <extensions><gpxtpx:TrackPointExtension><gpxtpx:hr>165</gpxtpx:hr></gpxtpx:TrackPointExtension></extensions>
      </trkpt>
      <trkpt lat="59.956589564681" lon="15.824673855677">
        <ele>129.4</ele>
        <time>2014-04-29T19:21:38Z</time>
        <extensions><gpxtpx:TrackPointExtension><gpxtpx:hr>165</gpxtpx:hr></gpxtpx:TrackPointExtension></extensions>
      </trkpt>
      <trkpt lat="59.956644633785" lon="15.824420303106">
        <ele>130</ele>
        <time>2014-04-29T19:21:44Z</time>
        <extensions><gpxtpx:TrackPointExtension><gpxtpx:hr>164</gpxtpx:hr></gpxtpx:TrackPointExtension></extensions>
      </trkpt>
      <trkpt lat="59.956660559401" lon="15.824333047494">
        <ele>130.6</ele>
        <time>2014-04-29T19:21:46Z</time>
        <extensions><gpxtpx:TrackPointExtension><gpxtpx:hr>164</gpxtpx:hr></gpxtpx:TrackPointExtension></extensions>
      </trkpt>
      <trkpt lat="59.956710264087" lon="15.824069352821">
        <ele>131.2</ele>
        <time>2014-04-29T19:21:52Z</time>
        <extensions><gpxtpx:TrackPointExtension><gpxtpx:hr>164</gpxtpx:hr></gpxtpx:TrackPointExtension></extensions>
      </trkpt>
      <trkpt lat="59.956742785871" lon="15.823896517977">
        <ele>131.8</ele>
        <time>2014-04-29T19:21:56Z</time>
        <extensions><gpxtpx:TrackPointExtension><gpxtpx:hr>164</gpxtpx:hr></gpxtpx:TrackPointExtension></extensions>
      </trkpt>
      <trkpt lat="59.956758711487" lon="15.823778668419">
        <ele>132</ele>
        <time>2014-04-29T19:21:59Z</time>
        <extensions><gpxtpx:TrackPointExtension><gpxtpx:hr>165</gpxtpx:hr></gpxtpx:TrackPointExtension></extensions>
      </trkpt>
      <trkpt lat="59.956794083118" lon="15.823503741995">
        <ele>131.6</ele>
        <time>2014-04-29T19:22:05Z</time>
        <extensions><gpxtpx:TrackPointExtension><gpxtpx:hr>164</gpxtpx:hr></gpxtpx:TrackPointExtension></extensions>
      </trkpt>
      <trkpt lat="59.956844290718" lon="15.823223367333">
        <ele>131.8</ele>
        <time>2014-04-29T19:22:11Z</time>
        <extensions><gpxtpx:TrackPointExtension><gpxtpx:hr>164</gpxtpx:hr></gpxtpx:TrackPointExtension></extensions>
      </trkpt>
      <trkpt lat="59.956888128072" lon="15.822940981016">
        <ele>131.4</ele>
        <time>2014-04-29T19:22:17Z</time>
        <extensions><gpxtpx:TrackPointExtension><gpxtpx:hr>161</gpxtpx:hr></gpxtpx:TrackPointExtension></extensions>
      </trkpt>
      <trkpt lat="59.956898521632" lon="15.822872165591">
        <ele>131.2</ele>
        <time>2014-04-29T19:22:18Z</time>
        <extensions><gpxtpx:TrackPointExtension><gpxtpx:hr>161</gpxtpx:hr></gpxtpx:TrackPointExtension></extensions>
      </trkpt>
      <trkpt lat="59.95692634955" lon="15.822574943304">
        <ele>130.6</ele>
        <time>2014-04-29T19:22:24Z</time>
        <extensions><gpxtpx:TrackPointExtension><gpxtpx:hr>159</gpxtpx:hr></gpxtpx:TrackPointExtension></extensions>
      </trkpt>
      <trkpt lat="59.956928612664" lon="15.822544852272">
        <ele>130.6</ele>
        <time>2014-04-29T19:22:25Z</time>
        <extensions><gpxtpx:TrackPointExtension><gpxtpx:hr>160</gpxtpx:hr></gpxtpx:TrackPointExtension></extensions>
      </trkpt>
      <trkpt lat="59.956947723404" lon="15.822236314416">
        <ele>130.2</ele>
        <time>2014-04-29T19:22:31Z</time>
        <extensions><gpxtpx:TrackPointExtension><gpxtpx:hr>159</gpxtpx:hr></gpxtpx:TrackPointExtension></extensions>
      </trkpt>
      <trkpt lat="59.956951327622" lon="15.821964405477">
        <ele>130</ele>
        <time>2014-04-29T19:22:36Z</time>
        <extensions><gpxtpx:TrackPointExtension><gpxtpx:hr>160</gpxtpx:hr></gpxtpx:TrackPointExtension></extensions>
      </trkpt>
      <trkpt lat="59.956906149164" lon="15.821672631428">
        <ele>130.2</ele>
        <time>2014-04-29T19:22:42Z</time>
        <extensions><gpxtpx:TrackPointExtension><gpxtpx:hr>161</gpxtpx:hr></gpxtpx:TrackPointExtension></extensions>
      </trkpt>
      <trkpt lat="59.956852421165" lon="15.821472387761">
        <ele>130</ele>
        <time>2014-04-29T19:22:47Z</time>
        <extensions><gpxtpx:TrackPointExtension><gpxtpx:hr>159</gpxtpx:hr></gpxtpx:TrackPointExtension></extensions>
      </trkpt>
      <trkpt lat="59.956803135574" lon="15.821301648393">
        <ele>130.2</ele>
        <time>2014-04-29T19:22:51Z</time>
        <extensions><gpxtpx:TrackPointExtension><gpxtpx:hr>156</gpxtpx:hr></gpxtpx:TrackPointExtension></extensions>
      </trkpt>
      <trkpt lat="59.956773547456" lon="15.821218499914">
        <ele>130.2</ele>
        <time>2014-04-29T19:22:53Z</time>
        <extensions><gpxtpx:TrackPointExtension><gpxtpx:hr>156</gpxtpx:hr></gpxtpx:TrackPointExtension></extensions>
      </trkpt>
      <trkpt lat="59.956675982103" lon="15.820904932916">
        <ele>130</ele>
        <time>2014-04-29T19:23:00Z</time>
        <extensions><gpxtpx:TrackPointExtension><gpxtpx:hr>156</gpxtpx:hr></gpxtpx:TrackPointExtension></extensions>
      </trkpt>
      <trkpt lat="59.95660180226" lon="15.820646518841">
        <ele>129.8</ele>
        <time>2014-04-29T19:23:06Z</time>
        <extensions><gpxtpx:TrackPointExtension><gpxtpx:hr>158</gpxtpx:hr></gpxtpx:TrackPointExtension></extensions>
      </trkpt>
      <trkpt lat="59.956557881087" lon="15.820462536067">
        <ele>129.6</ele>
        <time>2014-04-29T19:23:10Z</time>
        <extensions><gpxtpx:TrackPointExtension><gpxtpx:hr>157</gpxtpx:hr></gpxtpx:TrackPointExtension></extensions>
      </trkpt>
      <trkpt lat="59.95655067265" lon="15.820434372872">
        <ele>129.8</ele>
        <time>2014-04-29T19:23:11Z</time>
        <extensions><gpxtpx:TrackPointExtension><gpxtpx:hr>157</gpxtpx:hr></gpxtpx:TrackPointExtension></extensions>
      </trkpt>
      <trkpt lat="59.956477414817" lon="15.820180485025">
        <ele>129.6</ele>
        <time>2014-04-29T19:23:17Z</time>
        <extensions><gpxtpx:TrackPointExtension><gpxtpx:hr>157</gpxtpx:hr></gpxtpx:TrackPointExtension></extensions>
      </trkpt>
      <trkpt lat="59.956406336278" lon="15.819952497259">
        <ele>129.4</ele>
        <time>2014-04-29T19:23:22Z</time>
        <extensions><gpxtpx:TrackPointExtension><gpxtpx:hr>158</gpxtpx:hr></gpxtpx:TrackPointExtension></extensions>
      </trkpt>
      <trkpt lat="59.956295527518" lon="15.819611689076">
        <ele>129.8</ele>
        <time>2014-04-29T19:23:30Z</time>
        <extensions><gpxtpx:TrackPointExtension><gpxtpx:hr>158</gpxtpx:hr></gpxtpx:TrackPointExtension></extensions>
      </trkpt>
      <trkpt lat="59.956223778427" lon="15.819412702695">
        <ele>129.8</ele>
        <time>2014-04-29T19:23:35Z</time>
        <extensions><gpxtpx:TrackPointExtension><gpxtpx:hr>158</gpxtpx:hr></gpxtpx:TrackPointExtension></extensions>
      </trkpt>
      <trkpt lat="59.956147922203" lon="15.819171303883">
        <ele>130.2</ele>
        <time>2014-04-29T19:23:41Z</time>
        <extensions><gpxtpx:TrackPointExtension><gpxtpx:hr>158</gpxtpx:hr></gpxtpx:TrackPointExtension></extensions>
      </trkpt>
      <trkpt lat="59.956047926098" lon="15.818869723007">
        <ele>130.6</ele>
        <time>2014-04-29T19:23:48Z</time>
        <extensions><gpxtpx:TrackPointExtension><gpxtpx:hr>158</gpxtpx:hr></gpxtpx:TrackPointExtension></extensions>
      </trkpt>
      <trkpt lat="59.955996964127" lon="15.81866864115">
        <ele>131</ele>
        <time>2014-04-29T19:23:53Z</time>
        <extensions><gpxtpx:TrackPointExtension><gpxtpx:hr>158</gpxtpx:hr></gpxtpx:TrackPointExtension></extensions>
      </trkpt>
      <trkpt lat="59.955986654386" lon="15.818630168214">
        <ele>131</ele>
        <time>2014-04-29T19:23:54Z</time>
        <extensions><gpxtpx:TrackPointExtension><gpxtpx:hr>158</gpxtpx:hr></gpxtpx:TrackPointExtension></extensions>
      </trkpt>
      <trkpt lat="59.955946169794" lon="15.81846605055">
        <ele>131.6</ele>
        <time>2014-04-29T19:23:57Z</time>
        <extensions><gpxtpx:TrackPointExtension><gpxtpx:hr>158</gpxtpx:hr></gpxtpx:TrackPointExtension></extensions>
      </trkpt>
      <trkpt lat="59.955894621089" lon="15.818281648681">
        <ele>132</ele>
        <time>2014-04-29T19:24:01Z</time>
        <extensions><gpxtpx:TrackPointExtension><gpxtpx:hr>158</gpxtpx:hr></gpxtpx:TrackPointExtension></extensions>
      </trkpt>
      <trkpt lat="59.955803090706" lon="15.817971266806">
        <ele>132.2</ele>
        <time>2014-04-29T19:24:08Z</time>
        <extensions><gpxtpx:TrackPointExtension><gpxtpx:hr>160</gpxtpx:hr></gpxtpx:TrackPointExtension></extensions>
      </trkpt>
      <trkpt lat="59.955792948604" lon="15.817937320098">
        <ele>132.4</ele>
        <time>2014-04-29T19:24:09Z</time>
        <extensions><gpxtpx:TrackPointExtension><gpxtpx:hr>160</gpxtpx:hr></gpxtpx:TrackPointExtension></extensions>
      </trkpt>
      <trkpt lat="59.955685492605" lon="15.81761771813">
        <ele>132.4</ele>
        <time>2014-04-29T19:24:16Z</time>
        <extensions><gpxtpx:TrackPointExtension><gpxtpx:hr>161</gpxtpx:hr></gpxtpx:TrackPointExtension></extensions>
      </trkpt>
      <trkpt lat="59.955677026883" lon="15.817581927404">
        <ele>132.4</ele>
        <time>2014-04-29T19:24:17Z</time>
        <extensions><gpxtpx:TrackPointExtension><gpxtpx:hr>161</gpxtpx:hr></gpxtpx:TrackPointExtension></extensions>
      </trkpt>
      <trkpt lat="59.955647438765" lon="15.817488972098">
        <ele>132.6</ele>
        <time>2014-04-29T19:24:19Z</time>
        <extensions><gpxtpx:TrackPointExtension><gpxtpx:hr>160</gpxtpx:hr></gpxtpx:TrackPointExtension></extensions>
      </trkpt>
      <trkpt lat="59.955584742129" lon="15.817306498066">
        <ele>132.8</ele>
        <time>2014-04-29T19:24:23Z</time>
        <extensions><gpxtpx:TrackPointExtension><gpxtpx:hr>161</gpxtpx:hr></gpxtpx:TrackPointExtension></extensions>
      </trkpt>
      <trkpt lat="59.955477789044" lon="15.81705596298">
        <ele>132.6</ele>
        <time>2014-04-29T19:24:29Z</time>
        <extensions><gpxtpx:TrackPointExtension><gpxtpx:hr>162</gpxtpx:hr></gpxtpx:TrackPointExtension></extensions>
      </trkpt>
      <trkpt lat="59.955333536491" lon="15.816773576662">
        <ele>132.2</ele>
        <time>2014-04-29T19:24:36Z</time>
        <extensions><gpxtpx:TrackPointExtension><gpxtpx:hr>161</gpxtpx:hr></gpxtpx:TrackPointExtension></extensions>
      </trkpt>
      <trkpt lat="59.955216357484" lon="15.816557742655">
        <ele>132</ele>
        <time>2014-04-29T19:24:42Z</time>
        <extensions><gpxtpx:TrackPointExtension><gpxtpx:hr>161</gpxtpx:hr></gpxtpx:TrackPointExtension></extensions>
      </trkpt>
      <trkpt lat="59.955085432157" lon="15.816315589473">
        <ele>131.8</ele>
        <time>2014-04-29T19:24:49Z</time>
        <extensions><gpxtpx:TrackPointExtension><gpxtpx:hr>161</gpxtpx:hr></gpxtpx:TrackPointExtension></extensions>
      </trkpt>
      <trkpt lat="59.954972863197" lon="15.816078800708">
        <ele>131.8</ele>
        <time>2014-04-29T19:24:55Z</time>
        <extensions><gpxtpx:TrackPointExtension><gpxtpx:hr>160</gpxtpx:hr></gpxtpx:TrackPointExtension></extensions>
      </trkpt>
      <trkpt lat="59.95494662784" lon="15.816022474319">
        <ele>131.6</ele>
        <time>2014-04-29T19:24:56Z</time>
        <extensions><gpxtpx:TrackPointExtension><gpxtpx:hr>160</gpxtpx:hr></gpxtpx:TrackPointExtension></extensions>
      </trkpt>
      <trkpt lat="59.954825593159" lon="15.815750146285">
        <ele>131.4</ele>
        <time>2014-04-29T19:25:03Z</time>
        <extensions><gpxtpx:TrackPointExtension><gpxtpx:hr>159</gpxtpx:hr></gpxtpx:TrackPointExtension></extensions>
      </trkpt>
      <trkpt lat="59.954727105796" lon="15.815542694181">
        <ele>131.4</ele>
        <time>2014-04-29T19:25:09Z</time>
        <extensions><gpxtpx:TrackPointExtension><gpxtpx:hr>159</gpxtpx:hr></gpxtpx:TrackPointExtension></extensions>
      </trkpt>
      <trkpt lat="59.954635826871" lon="15.815277993679">
        <ele>131.6</ele>
        <time>2014-04-29T19:25:15Z</time>
        <extensions><gpxtpx:TrackPointExtension><gpxtpx:hr>160</gpxtpx:hr></gpxtpx:TrackPointExtension></extensions>
      </trkpt>
      <trkpt lat="59.954546308145" lon="15.814955122769">
        <ele>131.4</ele>
        <time>2014-04-29T19:25:22Z</time>
        <extensions><gpxtpx:TrackPointExtension><gpxtpx:hr>161</gpxtpx:hr></gpxtpx:TrackPointExtension></extensions>
      </trkpt>
      <trkpt lat="59.954491490498" lon="15.81477843225">
        <ele>131.6</ele>
        <time>2014-04-29T19:25:27Z</time>
        <extensions><gpxtpx:TrackPointExtension><gpxtpx:hr>162</gpxtpx:hr></gpxtpx:TrackPointExtension></extensions>
      </trkpt>
      <trkpt lat="59.954404653981" lon="15.814509373158">
        <ele>131.8</ele>
        <time>2014-04-29T19:25:33Z</time>
        <extensions><gpxtpx:TrackPointExtension><gpxtpx:hr>164</gpxtpx:hr></gpxtpx:TrackPointExtension></extensions>
      </trkpt>
      <trkpt lat="59.954328797758" lon="15.814241152257">
        <ele>131.8</ele>
        <time>2014-04-29T19:25:38Z</time>
        <extensions><gpxtpx:TrackPointExtension><gpxtpx:hr>163</gpxtpx:hr></gpxtpx:TrackPointExtension></extensions>
      </trkpt>
      <trkpt lat="59.954245062545" lon="15.813967231661">
        <ele>131.2</ele>
        <time>2014-04-29T19:25:44Z</time>
        <extensions><gpxtpx:TrackPointExtension><gpxtpx:hr>162</gpxtpx:hr></gpxtpx:TrackPointExtension></extensions>
      </trkpt>
      <trkpt lat="59.954165518284" lon="15.813643857837">
        <ele>131.2</ele>
        <time>2014-04-29T19:25:51Z</time>
        <extensions><gpxtpx:TrackPointExtension><gpxtpx:hr>161</gpxtpx:hr></gpxtpx:TrackPointExtension></extensions>
      </trkpt>
      <trkpt lat="59.954076083377" lon="15.813287207857">
        <ele>131.2</ele>
        <time>2014-04-29T19:25:58Z</time>
        <extensions><gpxtpx:TrackPointExtension><gpxtpx:hr>161</gpxtpx:hr></gpxtpx:TrackPointExtension></extensions>
      </trkpt>
      <trkpt lat="59.954028977081" lon="15.813055029139">
        <ele>131</ele>
        <time>2014-04-29T19:26:03Z</time>
        <extensions><gpxtpx:TrackPointExtension><gpxtpx:hr>160</gpxtpx:hr></gpxtpx:TrackPointExtension></extensions>
      </trkpt>
      <trkpt lat="59.95395027101" lon="15.812699301168">
        <ele>131.2</ele>
        <time>2014-04-29T19:26:10Z</time>
        <extensions><gpxtpx:TrackPointExtension><gpxtpx:hr>160</gpxtpx:hr></gpxtpx:TrackPointExtension></extensions>
      </trkpt>
      <trkpt lat="59.953938284889" lon="15.812663929537">
        <ele>131.2</ele>
        <time>2014-04-29T19:26:11Z</time>
        <extensions><gpxtpx:TrackPointExtension><gpxtpx:hr>160</gpxtpx:hr></gpxtpx:TrackPointExtension></extensions>
      </trkpt>
      <trkpt lat="59.953838372603" lon="15.81239009276">
        <ele>131</ele>
        <time>2014-04-29T19:26:17Z</time>
        <extensions><gpxtpx:TrackPointExtension><gpxtpx:hr>159</gpxtpx:hr></gpxtpx:TrackPointExtension></extensions>
      </trkpt>
      <trkpt lat="59.953700909391" lon="15.812072250992">
        <ele>130.8</ele>
        <time>2014-04-29T19:26:24Z</time>
        <extensions><gpxtpx:TrackPointExtension><gpxtpx:hr>160</gpxtpx:hr></gpxtpx:TrackPointExtension></extensions>
      </trkpt>
      <trkpt lat="59.953688168898" lon="15.812044255435">
        <ele>130.8</ele>
        <time>2014-04-29T19:26:25Z</time>
        <extensions><gpxtpx:TrackPointExtension><gpxtpx:hr>160</gpxtpx:hr></gpxtpx:TrackPointExtension></extensions>
      </trkpt>
      <trkpt lat="59.95353821665" lon="15.811749631539">
        <ele>130.6</ele>
        <time>2014-04-29T19:26:32Z</time>
        <extensions><gpxtpx:TrackPointExtension><gpxtpx:hr>159</gpxtpx:hr></gpxtpx:TrackPointExtension></extensions>
      </trkpt>
      <trkpt lat="59.953525559977" lon="15.811725240201">
        <ele>130.8</ele>
        <time>2014-04-29T19:26:33Z</time>
        <extensions><gpxtpx:TrackPointExtension><gpxtpx:hr>160</gpxtpx:hr></gpxtpx:TrackPointExtension></extensions>
      </trkpt>
      <trkpt lat="59.95339890942" lon="15.811505801976">
        <ele>130.4</ele>
        <time>2014-04-29T19:26:39Z</time>
        <extensions><gpxtpx:TrackPointExtension><gpxtpx:hr>159</gpxtpx:hr></gpxtpx:TrackPointExtension></extensions>
      </trkpt>
      <trkpt lat="59.953372171149" lon="15.811457773671">
        <ele>130.6</ele>
        <time>2014-04-29T19:26:40Z</time>
        <extensions><gpxtpx:TrackPointExtension><gpxtpx:hr>159</gpxtpx:hr></gpxtpx:TrackPointExtension></extensions>
      </trkpt>
      <trkpt lat="59.953241832554" lon="15.811236742884">
        <ele>130.4</ele>
        <time>2014-04-29T19:26:46Z</time>
        <extensions><gpxtpx:TrackPointExtension><gpxtpx:hr>161</gpxtpx:hr></gpxtpx:TrackPointExtension></extensions>
      </trkpt>
      <trkpt lat="59.953082827851" lon="15.811015209183">
        <ele>129.8</ele>
        <time>2014-04-29T19:26:53Z</time>
        <extensions><gpxtpx:TrackPointExtension><gpxtpx:hr>161</gpxtpx:hr></gpxtpx:TrackPointExtension></extensions>
      </trkpt>
      <trkpt lat="59.952935390174" lon="15.810858383775">
        <ele>129.8</ele>
        <time>2014-04-29T19:26:59Z</time>
        <extensions><gpxtpx:TrackPointExtension><gpxtpx:hr>158</gpxtpx:hr></gpxtpx:TrackPointExtension></extensions>
      </trkpt>
      <trkpt lat="59.952786192298" lon="15.810713209212">
        <ele>129.6</ele>
        <time>2014-04-29T19:27:05Z</time>
        <extensions><gpxtpx:TrackPointExtension><gpxtpx:hr>155</gpxtpx:hr></gpxtpx:TrackPointExtension></extensions>
      </trkpt>
      <trkpt lat="59.9527496472" lon="15.81068563275">
        <ele>129.4</ele>
        <time>2014-04-29T19:27:06Z</time>
        <extensions><gpxtpx:TrackPointExtension><gpxtpx:hr>154</gpxtpx:hr></gpxtpx:TrackPointExtension></extensions>
      </trkpt>
      <trkpt lat="59.952585529536" lon="15.81052637659">
        <ele>128.8</ele>
        <time>2014-04-29T19:27:13Z</time>
        <extensions><gpxtpx:TrackPointExtension><gpxtpx:hr>157</gpxtpx:hr></gpxtpx:TrackPointExtension></extensions>
      </trkpt>
      <trkpt lat="59.952462986112" lon="15.810384219512">
        <ele>128.4</ele>
        <time>2014-04-29T19:27:18Z</time>
        <extensions><gpxtpx:TrackPointExtension><gpxtpx:hr>159</gpxtpx:hr></gpxtpx:TrackPointExtension></extensions>
      </trkpt>
      <trkpt lat="59.952418394387" lon="15.81032730639">
        <ele>128.2</ele>
        <time>2014-04-29T19:27:20Z</time>
        <extensions><gpxtpx:TrackPointExtension><gpxtpx:hr>160</gpxtpx:hr></gpxtpx:TrackPointExtension></extensions>
      </trkpt>
      <trkpt lat="59.952249918133" lon="15.810079285875">
        <ele>128</ele>
        <time>2014-04-29T19:27:28Z</time>
        <extensions><gpxtpx:TrackPointExtension><gpxtpx:hr>160</gpxtpx:hr></gpxtpx:TrackPointExtension></extensions>
      </trkpt>
      <trkpt lat="59.952075826004" lon="15.809844341129">
        <ele>128.2</ele>
        <time>2014-04-29T19:27:36Z</time>
        <extensions><gpxtpx:TrackPointExtension><gpxtpx:hr>161</gpxtpx:hr></gpxtpx:TrackPointExtension></extensions>
      </trkpt>
      <trkpt lat="59.951944146305" lon="15.809692880139">
        <ele>128.4</ele>
        <time>2014-04-29T19:27:42Z</time>
        <extensions><gpxtpx:TrackPointExtension><gpxtpx:hr>163</gpxtpx:hr></gpxtpx:TrackPointExtension></extensions>
      </trkpt>
      <trkpt lat="59.951803330332" lon="15.809540161863">
        <ele>128.2</ele>
        <time>2014-04-29T19:27:48Z</time>
        <extensions><gpxtpx:TrackPointExtension><gpxtpx:hr>162</gpxtpx:hr></gpxtpx:TrackPointExtension></extensions>
      </trkpt>
      <trkpt lat="59.951622365043" lon="15.809334805235">
        <ele>128.4</ele>
        <time>2014-04-29T19:27:56Z</time>
        <extensions><gpxtpx:TrackPointExtension><gpxtpx:hr>162</gpxtpx:hr></gpxtpx:TrackPointExtension></extensions>
      </trkpt>
      <trkpt lat="59.951473586261" lon="15.809158617631">
        <ele>128.6</ele>
        <time>2014-04-29T19:28:03Z</time>
        <extensions><gpxtpx:TrackPointExtension><gpxtpx:hr>163</gpxtpx:hr></gpxtpx:TrackPointExtension></extensions>
      </trkpt>
      <trkpt lat="59.95131005533" lon="15.808971114457">
        <ele>128.4</ele>
        <time>2014-04-29T19:28:10Z</time>
        <extensions><gpxtpx:TrackPointExtension><gpxtpx:hr>163</gpxtpx:hr></gpxtpx:TrackPointExtension></extensions>
      </trkpt>
      <trkpt lat="59.951293459162" lon="15.808951165527">
        <ele>128.8</ele>
        <time>2014-04-29T19:28:11Z</time>
        <extensions><gpxtpx:TrackPointExtension><gpxtpx:hr>162</gpxtpx:hr></gpxtpx:TrackPointExtension></extensions>
      </trkpt>
      <trkpt lat="59.951148871332" lon="15.808812947944">
        <ele>128.8</ele>
        <time>2014-04-29T19:28:17Z</time>
        <extensions><gpxtpx:TrackPointExtension><gpxtpx:hr>162</gpxtpx:hr></gpxtpx:TrackPointExtension></extensions>
      </trkpt>
      <trkpt lat="59.951017359272" lon="15.808657631278">
        <ele>128.2</ele>
        <time>2014-04-29T19:28:23Z</time>
        <extensions><gpxtpx:TrackPointExtension><gpxtpx:hr>160</gpxtpx:hr></gpxtpx:TrackPointExtension></extensions>
      </trkpt>
      <trkpt lat="59.950902443379" lon="15.808457639068">
        <ele>127.4</ele>
        <time>2014-04-29T19:28:29Z</time>
        <extensions><gpxtpx:TrackPointExtension><gpxtpx:hr>159</gpxtpx:hr></gpxtpx:TrackPointExtension></extensions>
      </trkpt>
      <trkpt lat="59.950869334862" lon="15.80838563852">
        <ele>127</ele>
        <time>2014-04-29T19:28:31Z</time>
        <extensions><gpxtpx:TrackPointExtension><gpxtpx:hr>159</gpxtpx:hr></gpxtpx:TrackPointExtension></extensions>
      </trkpt>
      <trkpt lat="59.950797921047" lon="15.808150693774">
        <ele>126.8</ele>
        <time>2014-04-29T19:28:36Z</time>
        <extensions><gpxtpx:TrackPointExtension><gpxtpx:hr>158</gpxtpx:hr></gpxtpx:TrackPointExtension></extensions>
      </trkpt>
      <trkpt lat="59.950754083693" lon="15.807821871713">
        <ele>126.6</ele>
        <time>2014-04-29T19:28:43Z</time>
        <extensions><gpxtpx:TrackPointExtension><gpxtpx:hr>157</gpxtpx:hr></gpxtpx:TrackPointExtension></extensions>
      </trkpt>
      <trkpt lat="59.950734889135" lon="15.807502353564">
        <ele>126.4</ele>
        <time>2014-04-29T19:28:49Z</time>
        <extensions><gpxtpx:TrackPointExtension><gpxtpx:hr>159</gpxtpx:hr></gpxtpx:TrackPointExtension></extensions>
      </trkpt>
      <trkpt lat="59.95073270984" lon="15.807186439633">
        <ele>126.4</ele>
        <time>2014-04-29T19:28:55Z</time>
        <extensions><gpxtpx:TrackPointExtension><gpxtpx:hr>159</gpxtpx:hr></gpxtpx:TrackPointExtension></extensions>
      </trkpt>
      <trkpt lat="59.950746204704" lon="15.806874884292">
        <ele>126.6</ele>
        <time>2014-04-29T19:29:01Z</time>
        <extensions><gpxtpx:TrackPointExtension><gpxtpx:hr>159</gpxtpx:hr></gpxtpx:TrackPointExtension></extensions>
      </trkpt>
      <trkpt lat="59.950773697346" lon="15.806481521577">
        <ele>126.8</ele>
        <time>2014-04-29T19:29:08Z</time>
        <extensions><gpxtpx:TrackPointExtension><gpxtpx:hr>160</gpxtpx:hr></gpxtpx:TrackPointExtension></extensions>
      </trkpt>
      <trkpt lat="59.950792891905" lon="15.806211456656">
        <ele>126.8</ele>
        <time>2014-04-29T19:29:13Z</time>
        <extensions><gpxtpx:TrackPointExtension><gpxtpx:hr>161</gpxtpx:hr></gpxtpx:TrackPointExtension></extensions>
      </trkpt>
      <trkpt lat="59.95080797933" lon="15.805883221328">
        <ele>126.2</ele>
        <time>2014-04-29T19:29:19Z</time>
        <extensions><gpxtpx:TrackPointExtension><gpxtpx:hr>162</gpxtpx:hr></gpxtpx:TrackPointExtension></extensions>
      </trkpt>
      <trkpt lat="59.950809236616" lon="15.80577836372">
        <ele>126</ele>
        <time>2014-04-29T19:29:21Z</time>
        <extensions><gpxtpx:TrackPointExtension><gpxtpx:hr>162</gpxtpx:hr></gpxtpx:TrackPointExtension></extensions>
      </trkpt>
      <trkpt lat="59.950811751187" lon="15.805560769513">
        <ele>126</ele>
        <time>2014-04-29T19:29:25Z</time>
        <extensions><gpxtpx:TrackPointExtension><gpxtpx:hr>162</gpxtpx:hr></gpxtpx:TrackPointExtension></extensions>
      </trkpt>
      <trkpt lat="59.950789036229" lon="15.805179476738">
        <ele>125.8</ele>
        <time>2014-04-29T19:29:32Z</time>
        <extensions><gpxtpx:TrackPointExtension><gpxtpx:hr>163</gpxtpx:hr></gpxtpx:TrackPointExtension></extensions>
      </trkpt>
      <trkpt lat="59.950763219967" lon="15.804866496474">
        <ele>126.4</ele>
        <time>2014-04-29T19:29:38Z</time>
        <extensions><gpxtpx:TrackPointExtension><gpxtpx:hr>163</gpxtpx:hr></gpxtpx:TrackPointExtension></extensions>
      </trkpt>
      <trkpt lat="59.950751485303" lon="15.804681843147">
        <ele>126.8</ele>
        <time>2014-04-29T19:29:42Z</time>
        <extensions><gpxtpx:TrackPointExtension><gpxtpx:hr>163</gpxtpx:hr></gpxtpx:TrackPointExtension></extensions>
      </trkpt>
      <trkpt lat="59.950734972954" lon="15.804579919204">
        <ele>127</ele>
        <time>2014-04-29T19:29:44Z</time>
        <extensions><gpxtpx:TrackPointExtension><gpxtpx:hr>164</gpxtpx:hr></gpxtpx:TrackPointExtension></extensions>
      </trkpt>
      <trkpt lat="59.950707815588" lon="15.804377915338">
        <ele>127.4</ele>
        <time>2014-04-29T19:29:48Z</time>
        <extensions><gpxtpx:TrackPointExtension><gpxtpx:hr>164</gpxtpx:hr></gpxtpx:TrackPointExtension></extensions>
      </trkpt>
      <trkpt lat="59.950666325167" lon="15.804108856246">
        <ele>127.2</ele>
        <time>2014-04-29T19:29:54Z</time>
        <extensions><gpxtpx:TrackPointExtension><gpxtpx:hr>164</gpxtpx:hr></gpxtpx:TrackPointExtension></extensions>
      </trkpt>
      <trkpt lat="59.950595665723" lon="15.803839629516">
        <ele>127.4</ele>
        <time>2014-04-29T19:30:00Z</time>
        <extensions><gpxtpx:TrackPointExtension><gpxtpx:hr>165</gpxtpx:hr></gpxtpx:TrackPointExtension></extensions>
      </trkpt>
      <trkpt lat="59.950494915247" lon="15.803533187136">
        <ele>127.2</ele>
        <time>2014-04-29T19:30:07Z</time>
        <extensions><gpxtpx:TrackPointExtension><gpxtpx:hr>163</gpxtpx:hr></gpxtpx:TrackPointExtension></extensions>
      </trkpt>
      <trkpt lat="59.950396595523" lon="15.803283154964">
        <ele>127</ele>
        <time>2014-04-29T19:30:13Z</time>
        <extensions><gpxtpx:TrackPointExtension><gpxtpx:hr>161</gpxtpx:hr></gpxtpx:TrackPointExtension></extensions>
      </trkpt>
      <trkpt lat="59.950277153403" lon="15.803089868277">
        <ele>127.6</ele>
        <time>2014-04-29T19:30:19Z</time>
        <extensions><gpxtpx:TrackPointExtension><gpxtpx:hr>162</gpxtpx:hr></gpxtpx:TrackPointExtension></extensions>
      </trkpt>
      <trkpt lat="59.950145641342" lon="15.802916698158">
        <ele>127.6</ele>
        <time>2014-04-29T19:30:25Z</time>
        <extensions><gpxtpx:TrackPointExtension><gpxtpx:hr>162</gpxtpx:hr></gpxtpx:TrackPointExtension></extensions>
      </trkpt>
      <trkpt lat="59.949964340776" lon="15.802724752575">
        <ele>128</ele>
        <time>2014-04-29T19:30:32Z</time>
        <extensions><gpxtpx:TrackPointExtension><gpxtpx:hr>163</gpxtpx:hr></gpxtpx:TrackPointExtension></extensions>
      </trkpt>
      <trkpt lat="59.949815645814" lon="15.802587959915">
        <ele>127.6</ele>
        <time>2014-04-29T19:30:38Z</time>
        <extensions><gpxtpx:TrackPointExtension><gpxtpx:hr>163</gpxtpx:hr></gpxtpx:TrackPointExtension></extensions>
      </trkpt>
      <trkpt lat="59.949675500393" lon="15.802444629371">
        <ele>127.4</ele>
        <time>2014-04-29T19:30:44Z</time>
        <extensions><gpxtpx:TrackPointExtension><gpxtpx:hr>163</gpxtpx:hr></gpxtpx:TrackPointExtension></extensions>
      </trkpt>
      <trkpt lat="59.949538204819" lon="15.802228124812">
        <ele>127.2</ele>
        <time>2014-04-29T19:30:50Z</time>
        <extensions><gpxtpx:TrackPointExtension><gpxtpx:hr>163</gpxtpx:hr></gpxtpx:TrackPointExtension></extensions>
      </trkpt>
      <trkpt lat="59.949455559254" lon="15.802064007148">
        <ele>127.4</ele>
        <time>2014-04-29T19:30:55Z</time>
        <extensions><gpxtpx:TrackPointExtension><gpxtpx:hr>163</gpxtpx:hr></gpxtpx:TrackPointExtension></extensions>
      </trkpt>
      <trkpt lat="59.949371404946" lon="15.801818501204">
        <ele>127.6</ele>
        <time>2014-04-29T19:31:01Z</time>
        <extensions><gpxtpx:TrackPointExtension><gpxtpx:hr>163</gpxtpx:hr></gpxtpx:TrackPointExtension></extensions>
      </trkpt>
      <trkpt lat="59.949313402176" lon="15.801530247554">
        <ele>127.8</ele>
        <time>2014-04-29T19:31:07Z</time>
        <extensions><gpxtpx:TrackPointExtension><gpxtpx:hr>164</gpxtpx:hr></gpxtpx:TrackPointExtension></extensions>
      </trkpt>
      <trkpt lat="59.94927233085" lon="15.801269989461">
        <ele>128</ele>
        <time>2014-04-29T19:31:12Z</time>
        <extensions><gpxtpx:TrackPointExtension><gpxtpx:hr>164</gpxtpx:hr></gpxtpx:TrackPointExtension></extensions>
      </trkpt>
      <trkpt lat="59.94923947379" lon="15.801077289507">
        <ele>128.2</ele>
        <time>2014-04-29T19:31:16Z</time>
        <extensions><gpxtpx:TrackPointExtension><gpxtpx:hr>164</gpxtpx:hr></gpxtpx:TrackPointExtension></extensions>
      </trkpt>
      <trkpt lat="59.949222207069" lon="15.800983915105">
        <ele>128.2</ele>
        <time>2014-04-29T19:31:18Z</time>
        <extensions><gpxtpx:TrackPointExtension><gpxtpx:hr>164</gpxtpx:hr></gpxtpx:TrackPointExtension></extensions>
      </trkpt>
      <trkpt lat="59.949182812124" lon="15.800698846579">
        <ele>128.4</ele>
        <time>2014-04-29T19:31:24Z</time>
        <extensions><gpxtpx:TrackPointExtension><gpxtpx:hr>163</gpxtpx:hr></gpxtpx:TrackPointExtension></extensions>
      </trkpt>
      <trkpt lat="59.949143920094" lon="15.800395170227">
        <ele>128.4</ele>
        <time>2014-04-29T19:31:30Z</time>
        <extensions><gpxtpx:TrackPointExtension><gpxtpx:hr>162</gpxtpx:hr></gpxtpx:TrackPointExtension></extensions>
      </trkpt>
      <trkpt lat="59.94909840636" lon="15.800077328458">
        <ele>129</ele>
        <time>2014-04-29T19:31:36Z</time>
        <extensions><gpxtpx:TrackPointExtension><gpxtpx:hr>162</gpxtpx:hr></gpxtpx:TrackPointExtension></extensions>
      </trkpt>
      <trkpt lat="59.949068315327" lon="15.799942212179">
        <ele>129.4</ele>
        <time>2014-04-29T19:31:39Z</time>
        <extensions><gpxtpx:TrackPointExtension><gpxtpx:hr>163</gpxtpx:hr></gpxtpx:TrackPointExtension></extensions>
      </trkpt>
      <trkpt lat="59.949035709724" lon="15.799777507782">
        <ele>129.4</ele>
        <time>2014-04-29T19:31:42Z</time>
        <extensions><gpxtpx:TrackPointExtension><gpxtpx:hr>163</gpxtpx:hr></gpxtpx:TrackPointExtension></extensions>
      </trkpt>
      <trkpt lat="59.94896069169" lon="15.799432173371">
        <ele>130</ele>
        <time>2014-04-29T19:31:49Z</time>
        <extensions><gpxtpx:TrackPointExtension><gpxtpx:hr>163</gpxtpx:hr></gpxtpx:TrackPointExtension></extensions>
      </trkpt>
      <trkpt lat="59.948886930943" lon="15.799140399322">
        <ele>130</ele>
        <time>2014-04-29T19:31:55Z</time>
        <extensions><gpxtpx:TrackPointExtension><gpxtpx:hr>163</gpxtpx:hr></gpxtpx:TrackPointExtension></extensions>
      </trkpt>
      <trkpt lat="59.948763465509" lon="15.798869244754">
        <ele>130.4</ele>
        <time>2014-04-29T19:32:02Z</time>
        <extensions><gpxtpx:TrackPointExtension><gpxtpx:hr>163</gpxtpx:hr></gpxtpx:TrackPointExtension></extensions>
      </trkpt>
      <trkpt lat="59.948644945398" lon="15.798679227009">
        <ele>130.2</ele>
        <time>2014-04-29T19:32:08Z</time>
        <extensions><gpxtpx:TrackPointExtension><gpxtpx:hr>162</gpxtpx:hr></gpxtpx:TrackPointExtension></extensions>
      </trkpt>
      <trkpt lat="59.948494909331" lon="15.798514522612">
        <ele>130.2</ele>
        <time>2014-04-29T19:32:15Z</time>
        <extensions><gpxtpx:TrackPointExtension><gpxtpx:hr>162</gpxtpx:hr></gpxtpx:TrackPointExtension></extensions>
      </trkpt>
      <trkpt lat="59.948358871043" lon="15.798378316686">
        <ele>130.2</ele>
        <time>2014-04-29T19:32:21Z</time>
        <extensions><gpxtpx:TrackPointExtension><gpxtpx:hr>162</gpxtpx:hr></gpxtpx:TrackPointExtension></extensions>
      </trkpt>
      <trkpt lat="59.948225179687" lon="15.798274129629">
        <ele>130.4</ele>
        <time>2014-04-29T19:32:26Z</time>
        <extensions><gpxtpx:TrackPointExtension><gpxtpx:hr>162</gpxtpx:hr></gpxtpx:TrackPointExtension></extensions>
      </trkpt>
      <trkpt lat="59.948210259899" lon="15.798260383308">
        <ele>130.4</ele>
        <time>2014-04-29T19:32:27Z</time>
        <extensions><gpxtpx:TrackPointExtension><gpxtpx:hr>163</gpxtpx:hr></gpxtpx:TrackPointExtension></extensions>
      </trkpt>
      <trkpt lat="59.948032982647" lon="15.798138426617">
        <ele>131</ele>
        <time>2014-04-29T19:32:34Z</time>
        <extensions><gpxtpx:TrackPointExtension><gpxtpx:hr>163</gpxtpx:hr></gpxtpx:TrackPointExtension></extensions>
      </trkpt>
      <trkpt lat="59.948020158336" lon="15.798128955066">
        <ele>131</ele>
        <time>2014-04-29T19:32:35Z</time>
        <extensions><gpxtpx:TrackPointExtension><gpxtpx:hr>163</gpxtpx:hr></gpxtpx:TrackPointExtension></extensions>
      </trkpt>
      <trkpt lat="59.947973471135" lon="15.79809576273">
        <ele>131.4</ele>
        <time>2014-04-29T19:32:37Z</time>
        <extensions><gpxtpx:TrackPointExtension><gpxtpx:hr>164</gpxtpx:hr></gpxtpx:TrackPointExtension></extensions>
      </trkpt>
      <trkpt lat="59.94788386859" lon="15.798032730818">
        <ele>132</ele>
        <time>2014-04-29T19:32:41Z</time>
        <extensions><gpxtpx:TrackPointExtension><gpxtpx:hr>164</gpxtpx:hr></gpxtpx:TrackPointExtension></extensions>
      </trkpt>
      <trkpt lat="59.94783801958" lon="15.797997610644">
        <ele>132.4</ele>
        <time>2014-04-29T19:32:43Z</time>
        <extensions><gpxtpx:TrackPointExtension><gpxtpx:hr>165</gpxtpx:hr></gpxtpx:TrackPointExtension></extensions>
      </trkpt>
      <trkpt lat="59.947743471712" lon="15.79792954959">
        <ele>133</ele>
        <time>2014-04-29T19:32:47Z</time>
        <extensions><gpxtpx:TrackPointExtension><gpxtpx:hr>166</gpxtpx:hr></gpxtpx:TrackPointExtension></extensions>
      </trkpt>
      <trkpt lat="59.947656383738" lon="15.797865008935">
        <ele>133.8</ele>
        <time>2014-04-29T19:32:51Z</time>
        <extensions><gpxtpx:TrackPointExtension><gpxtpx:hr>167</gpxtpx:hr></gpxtpx:TrackPointExtension></extensions>
      </trkpt>
      <trkpt lat="59.94761204347" lon="15.797820584849">
        <ele>134.2</ele>
        <time>2014-04-29T19:32:53Z</time>
        <extensions><gpxtpx:TrackPointExtension><gpxtpx:hr>168</gpxtpx:hr></gpxtpx:TrackPointExtension></extensions>
      </trkpt>
      <trkpt lat="59.947539623827" lon="15.797752356157">
        <ele>135.2</ele>
        <time>2014-04-29T19:32:56Z</time>
        <extensions><gpxtpx:TrackPointExtension><gpxtpx:hr>169</gpxtpx:hr></gpxtpx:TrackPointExtension></extensions>
      </trkpt>
      <trkpt lat="59.947435101494" lon="15.797654455528">
        <ele>136</ele>
        <time>2014-04-29T19:33:01Z</time>
        <extensions><gpxtpx:TrackPointExtension><gpxtpx:hr>170</gpxtpx:hr></gpxtpx:TrackPointExtension></extensions>
      </trkpt>
      <trkpt lat="59.947409117594" lon="15.79762998037">
        <ele>136.4</ele>
        <time>2014-04-29T19:33:02Z</time>
        <extensions><gpxtpx:TrackPointExtension><gpxtpx:hr>170</gpxtpx:hr></gpxtpx:TrackPointExtension></extensions>
      </trkpt>
      <trkpt lat="59.947317671031" lon="15.797508526593">
        <ele>137.2</ele>
        <time>2014-04-29T19:33:07Z</time>
        <extensions><gpxtpx:TrackPointExtension><gpxtpx:hr>171</gpxtpx:hr></gpxtpx:TrackPointExtension></extensions>
      </trkpt>
      <trkpt lat="59.947290262207" lon="15.797470808029">
        <ele>137.6</ele>
        <time>2014-04-29T19:33:08Z</time>
        <extensions><gpxtpx:TrackPointExtension><gpxtpx:hr>170</gpxtpx:hr></gpxtpx:TrackPointExtension></extensions>
      </trkpt>
      <trkpt lat="59.947206024081" lon="15.797312892973">
        <ele>138.6</ele>
        <time>2014-04-29T19:33:13Z</time>
        <extensions><gpxtpx:TrackPointExtension><gpxtpx:hr>169</gpxtpx:hr></gpxtpx:TrackPointExtension></extensions>
      </trkpt>
      <trkpt lat="59.94718532078" lon="15.797271318734">
        <ele>138.8</ele>
        <time>2014-04-29T19:33:14Z</time>
        <extensions><gpxtpx:TrackPointExtension><gpxtpx:hr>169</gpxtpx:hr></gpxtpx:TrackPointExtension></extensions>
      </trkpt>
      <trkpt lat="59.947133688256" lon="15.79702229239">
        <ele>139.4</ele>
        <time>2014-04-29T19:33:20Z</time>
        <extensions><gpxtpx:TrackPointExtension><gpxtpx:hr>168</gpxtpx:hr></gpxtpx:TrackPointExtension></extensions>
      </trkpt>
      <trkpt lat="59.947151625529" lon="15.796840069816">
        <ele>139.6</ele>
        <time>2014-04-29T19:33:24Z</time>
        <extensions><gpxtpx:TrackPointExtension><gpxtpx:hr>168</gpxtpx:hr></gpxtpx:TrackPointExtension></extensions>
      </trkpt>
      <trkpt lat="59.947165288031" lon="15.796808889136">
        <ele>139.6</ele>
        <time>2014-04-29T19:33:25Z</time>
        <extensions><gpxtpx:TrackPointExtension><gpxtpx:hr>167</gpxtpx:hr></gpxtpx:TrackPointExtension></extensions>
      </trkpt>
      <trkpt lat="59.947289507836" lon="15.796616440639">
        <ele>139.8</ele>
        <time>2014-04-29T19:33:31Z</time>
        <extensions><gpxtpx:TrackPointExtension><gpxtpx:hr>167</gpxtpx:hr></gpxtpx:TrackPointExtension></extensions>
      </trkpt>
      <trkpt lat="59.947445159778" lon="15.796405551955">
        <ele>139.6</ele>
        <time>2014-04-29T19:33:38Z</time>
        <extensions><gpxtpx:TrackPointExtension><gpxtpx:hr>166</gpxtpx:hr></gpxtpx:TrackPointExtension></extensions>
      </trkpt>
      <trkpt lat="59.947582874447" lon="15.796206733212">
        <ele>139.6</ele>
        <time>2014-04-29T19:33:45Z</time>
        <extensions><gpxtpx:TrackPointExtension><gpxtpx:hr>165</gpxtpx:hr></gpxtpx:TrackPointExtension></extensions>
      </trkpt>
      <trkpt lat="59.947711285204" lon="15.79601822421">
        <ele>139.4</ele>
        <time>2014-04-29T19:33:51Z</time>
        <extensions><gpxtpx:TrackPointExtension><gpxtpx:hr>166</gpxtpx:hr></gpxtpx:TrackPointExtension></extensions>
      </trkpt>
      <trkpt lat="59.947824859992" lon="15.795856369659">
        <ele>139.8</ele>
        <time>2014-04-29T19:33:56Z</time>
        <extensions><gpxtpx:TrackPointExtension><gpxtpx:hr>166</gpxtpx:hr></gpxtpx:TrackPointExtension></extensions>
      </trkpt>
      <trkpt lat="59.94792108424" lon="15.79571697861">
        <ele>139.8</ele>
        <time>2014-04-29T19:34:01Z</time>
        <extensions><gpxtpx:TrackPointExtension><gpxtpx:hr>165</gpxtpx:hr></gpxtpx:TrackPointExtension></extensions>
      </trkpt>
      <trkpt lat="59.948042454198" lon="15.795529307798">
        <ele>140.2</ele>
        <time>2014-04-29T19:34:07Z</time>
        <extensions><gpxtpx:TrackPointExtension><gpxtpx:hr>164</gpxtpx:hr></gpxtpx:TrackPointExtension></extensions>
      </trkpt>
      <trkpt lat="59.948184443638" lon="15.795282963663">
        <ele>140.6</ele>
        <time>2014-04-29T19:34:14Z</time>
        <extensions><gpxtpx:TrackPointExtension><gpxtpx:hr>165</gpxtpx:hr></gpxtpx:TrackPointExtension></extensions>
      </trkpt>
      <trkpt lat="59.948198022321" lon="15.795257985592">
        <ele>140.8</ele>
        <time>2014-04-29T19:34:15Z</time>
        <extensions><gpxtpx:TrackPointExtension><gpxtpx:hr>164</gpxtpx:hr></gpxtpx:TrackPointExtension></extensions>
      </trkpt>
      <trkpt lat="59.948297180235" lon="15.795068219304">
        <ele>141.2</ele>
        <time>2014-04-29T19:34:20Z</time>
        <extensions><gpxtpx:TrackPointExtension><gpxtpx:hr>164</gpxtpx:hr></gpxtpx:TrackPointExtension></extensions>
      </trkpt>
      <trkpt lat="59.948407653719" lon="15.794849116355">
        <ele>141.6</ele>
        <time>2014-04-29T19:34:26Z</time>
        <extensions><gpxtpx:TrackPointExtension><gpxtpx:hr>164</gpxtpx:hr></gpxtpx:TrackPointExtension></extensions>
      </trkpt>
      <trkpt lat="59.948490550742" lon="15.794682987034">
        <ele>141.8</ele>
        <time>2014-04-29T19:34:31Z</time>
        <extensions><gpxtpx:TrackPointExtension><gpxtpx:hr>165</gpxtpx:hr></gpxtpx:TrackPointExtension></extensions>
      </trkpt>
      <trkpt lat="59.948535058647" lon="15.794599000365">
        <ele>142.2</ele>
        <time>2014-04-29T19:34:33Z</time>
        <extensions><gpxtpx:TrackPointExtension><gpxtpx:hr>165</gpxtpx:hr></gpxtpx:TrackPointExtension></extensions>
      </trkpt>
      <trkpt lat="59.948650896549" lon="15.794371431693">
        <ele>142.4</ele>
        <time>2014-04-29T19:34:39Z</time>
        <extensions><gpxtpx:TrackPointExtension><gpxtpx:hr>166</gpxtpx:hr></gpxtpx:TrackPointExtension></extensions>
      </trkpt>
      <trkpt lat="59.948715856299" lon="15.794245535508">
        <ele>142.8</ele>
        <time>2014-04-29T19:34:42Z</time>
        <extensions><gpxtpx:TrackPointExtension><gpxtpx:hr>166</gpxtpx:hr></gpxtpx:TrackPointExtension></extensions>
      </trkpt>
      <trkpt lat="59.948797328398" lon="15.794103043154">
        <ele>143.2</ele>
        <time>2014-04-29T19:34:46Z</time>
        <extensions><gpxtpx:TrackPointExtension><gpxtpx:hr>166</gpxtpx:hr></gpxtpx:TrackPointExtension></extensions>
      </trkpt>
      <trkpt lat="59.948893049732" lon="15.793930543587">
        <ele>142.8</ele>
        <time>2014-04-29T19:34:51Z</time>
        <extensions><gpxtpx:TrackPointExtension><gpxtpx:hr>166</gpxtpx:hr></gpxtpx:TrackPointExtension></extensions>
      </trkpt>
      <trkpt lat="59.949004445225" lon="15.793719319627">
        <ele>143.4</ele>
        <time>2014-04-29T19:34:57Z</time>
        <extensions><gpxtpx:TrackPointExtension><gpxtpx:hr>166</gpxtpx:hr></gpxtpx:TrackPointExtension></extensions>
      </trkpt>
      <trkpt lat="59.949122797698" lon="15.793512705714">
        <ele>143.4</ele>
        <time>2014-04-29T19:35:03Z</time>
        <extensions><gpxtpx:TrackPointExtension><gpxtpx:hr>165</gpxtpx:hr></gpxtpx:TrackPointExtension></extensions>
      </trkpt>
      <trkpt lat="59.949276521802" lon="15.793270887807">
        <ele>143.6</ele>
        <time>2014-04-29T19:35:10Z</time>
        <extensions><gpxtpx:TrackPointExtension><gpxtpx:hr>164</gpxtpx:hr></gpxtpx:TrackPointExtension></extensions>
      </trkpt>
      <trkpt lat="59.949418008327" lon="15.793040804565">
        <ele>143.2</ele>
        <time>2014-04-29T19:35:17Z</time>
        <extensions><gpxtpx:TrackPointExtension><gpxtpx:hr>164</gpxtpx:hr></gpxtpx:TrackPointExtension></extensions>
      </trkpt>
      <trkpt lat="59.949550358579" lon="15.792844919488">
        <ele>143.4</ele>
        <time>2014-04-29T19:35:23Z</time>
        <extensions><gpxtpx:TrackPointExtension><gpxtpx:hr>164</gpxtpx:hr></gpxtpx:TrackPointExtension></extensions>
      </trkpt>
      <trkpt lat="59.949720595032" lon="15.792618608102">
        <ele>142.8</ele>
        <time>2014-04-29T19:35:30Z</time>
        <extensions><gpxtpx:TrackPointExtension><gpxtpx:hr>163</gpxtpx:hr></gpxtpx:TrackPointExtension></extensions>
      </trkpt>
      <trkpt lat="59.949736101553" lon="15.792599078268">
        <ele>142.8</ele>
        <time>2014-04-29T19:35:31Z</time>
        <extensions><gpxtpx:TrackPointExtension><gpxtpx:hr>163</gpxtpx:hr></gpxtpx:TrackPointExtension></extensions>
      </trkpt>
      <trkpt lat="59.94990424253" lon="15.792413251474">
        <ele>142.6</ele>
        <time>2014-04-29T19:35:38Z</time>
        <extensions><gpxtpx:TrackPointExtension><gpxtpx:hr>163</gpxtpx:hr></gpxtpx:TrackPointExtension></extensions>
      </trkpt>
      <trkpt lat="59.949920168146" lon="15.792394643649">
        <ele>142.6</ele>
        <time>2014-04-29T19:35:39Z</time>
        <extensions><gpxtpx:TrackPointExtension><gpxtpx:hr>163</gpxtpx:hr></gpxtpx:TrackPointExtension></extensions>
      </trkpt>
      <trkpt lat="59.950083950534" lon="15.792172607034">
        <ele>142.2</ele>
        <time>2014-04-29T19:35:46Z</time>
        <extensions><gpxtpx:TrackPointExtension><gpxtpx:hr>163</gpxtpx:hr></gpxtpx:TrackPointExtension></extensions>
      </trkpt>
      <trkpt lat="59.95017179288" lon="15.792059199885">
        <ele>141.6</ele>
        <time>2014-04-29T19:35:50Z</time>
        <extensions><gpxtpx:TrackPointExtension><gpxtpx:hr>163</gpxtpx:hr></gpxtpx:TrackPointExtension></extensions>
      </trkpt>
      <trkpt lat="59.950217055157" lon="15.792011925951">
        <ele>141.6</ele>
        <time>2014-04-29T19:35:52Z</time>
        <extensions><gpxtpx:TrackPointExtension><gpxtpx:hr>162</gpxtpx:hr></gpxtpx:TrackPointExtension></extensions>
      </trkpt>
      <trkpt lat="59.950349070132" lon="15.791829116642">
        <ele>141.4</ele>
        <time>2014-04-29T19:35:58Z</time>
        <extensions><gpxtpx:TrackPointExtension><gpxtpx:hr>160</gpxtpx:hr></gpxtpx:TrackPointExtension></extensions>
      </trkpt>
      <trkpt lat="59.95045141317" lon="15.791708920151">
        <ele>141.4</ele>
        <time>2014-04-29T19:36:03Z</time>
        <extensions><gpxtpx:TrackPointExtension><gpxtpx:hr>160</gpxtpx:hr></gpxtpx:TrackPointExtension></extensions>
      </trkpt>
      <trkpt lat="59.950600946322" lon="15.791533151641">
        <ele>141</ele>
        <time>2014-04-29T19:36:10Z</time>
        <extensions><gpxtpx:TrackPointExtension><gpxtpx:hr>162</gpxtpx:hr></gpxtpx:TrackPointExtension></extensions>
      </trkpt>
      <trkpt lat="59.950717370957" lon="15.79137054272">
        <ele>141</ele>
        <time>2014-04-29T19:36:16Z</time>
        <extensions><gpxtpx:TrackPointExtension><gpxtpx:hr>161</gpxtpx:hr></gpxtpx:TrackPointExtension></extensions>
      </trkpt>
      <trkpt lat="59.950866820291" lon="15.79118354246">
        <ele>141.4</ele>
        <time>2014-04-29T19:36:23Z</time>
        <extensions><gpxtpx:TrackPointExtension><gpxtpx:hr>161</gpxtpx:hr></gpxtpx:TrackPointExtension></extensions>
      </trkpt>
      <trkpt lat="59.951004702598" lon="15.791033422574">
        <ele>141.6</ele>
        <time>2014-04-29T19:36:29Z</time>
        <extensions><gpxtpx:TrackPointExtension><gpxtpx:hr>163</gpxtpx:hr></gpxtpx:TrackPointExtension></extensions>
      </trkpt>
      <trkpt lat="59.951112996787" lon="15.790891265497">
        <ele>142</ele>
        <time>2014-04-29T19:36:34Z</time>
        <extensions><gpxtpx:TrackPointExtension><gpxtpx:hr>163</gpxtpx:hr></gpxtpx:TrackPointExtension></extensions>
      </trkpt>
      <trkpt lat="59.951212489977" lon="15.79074122943">
        <ele>142.6</ele>
        <time>2014-04-29T19:36:39Z</time>
        <extensions><gpxtpx:TrackPointExtension><gpxtpx:hr>165</gpxtpx:hr></gpxtpx:TrackPointExtension></extensions>
      </trkpt>
      <trkpt lat="59.951236965135" lon="15.790701834485">
        <ele>142.6</ele>
        <time>2014-04-29T19:36:40Z</time>
        <extensions><gpxtpx:TrackPointExtension><gpxtpx:hr>165</gpxtpx:hr></gpxtpx:TrackPointExtension></extensions>
      </trkpt>
      <trkpt lat="59.95134727098" lon="15.79050661996">
        <ele>143.2</ele>
        <time>2014-04-29T19:36:46Z</time>
        <extensions><gpxtpx:TrackPointExtension><gpxtpx:hr>166</gpxtpx:hr></gpxtpx:TrackPointExtension></extensions>
      </trkpt>
      <trkpt lat="59.951422372833" lon="15.790385333821">
        <ele>143.8</ele>
        <time>2014-04-29T19:36:50Z</time>
        <extensions><gpxtpx:TrackPointExtension><gpxtpx:hr>165</gpxtpx:hr></gpxtpx:TrackPointExtension></extensions>
      </trkpt>
      <trkpt lat="59.951464701444" lon="15.790292210877">
        <ele>143.8</ele>
        <time>2014-04-29T19:36:53Z</time>
        <extensions><gpxtpx:TrackPointExtension><gpxtpx:hr>165</gpxtpx:hr></gpxtpx:TrackPointExtension></extensions>
      </trkpt>
      <trkpt lat="59.951571905985" lon="15.790074868128">
        <ele>144.6</ele>
        <time>2014-04-29T19:36:59Z</time>
        <extensions><gpxtpx:TrackPointExtension><gpxtpx:hr>166</gpxtpx:hr></gpxtpx:TrackPointExtension></extensions>
      </trkpt>
      <trkpt lat="59.951598644257" lon="15.790022984147">
        <ele>144.8</ele>
        <time>2014-04-29T19:37:00Z</time>
        <extensions><gpxtpx:TrackPointExtension><gpxtpx:hr>166</gpxtpx:hr></gpxtpx:TrackPointExtension></extensions>
      </trkpt>
      <trkpt lat="59.951681876555" lon="15.789853418246">
        <ele>145.2</ele>
        <time>2014-04-29T19:37:04Z</time>
        <extensions><gpxtpx:TrackPointExtension><gpxtpx:hr>167</gpxtpx:hr></gpxtpx:TrackPointExtension></extensions>
      </trkpt>
      <trkpt lat="59.951783465222" lon="15.789564326406">
        <ele>146</ele>
        <time>2014-04-29T19:37:10Z</time>
        <extensions><gpxtpx:TrackPointExtension><gpxtpx:hr>168</gpxtpx:hr></gpxtpx:TrackPointExtension></extensions>
      </trkpt>
      <trkpt lat="59.951852448285" lon="15.789380511269">
        <ele>146.6</ele>
        <time>2014-04-29T19:37:14Z</time>
        <extensions><gpxtpx:TrackPointExtension><gpxtpx:hr>168</gpxtpx:hr></gpxtpx:TrackPointExtension></extensions>
      </trkpt>
      <trkpt lat="59.951862841845" lon="15.78934488818">
        <ele>146.6</ele>
        <time>2014-04-29T19:37:15Z</time>
        <extensions><gpxtpx:TrackPointExtension><gpxtpx:hr>169</gpxtpx:hr></gpxtpx:TrackPointExtension></extensions>
      </trkpt>
      <trkpt lat="59.951939536259" lon="15.789167778566">
        <ele>147</ele>
        <time>2014-04-29T19:37:19Z</time>
        <extensions><gpxtpx:TrackPointExtension><gpxtpx:hr>168</gpxtpx:hr></gpxtpx:TrackPointExtension></extensions>
      </trkpt>
      <trkpt lat="59.951960407197" lon="15.789109272882">
        <ele>147.2</ele>
        <time>2014-04-29T19:37:20Z</time>
        <extensions><gpxtpx:TrackPointExtension><gpxtpx:hr>169</gpxtpx:hr></gpxtpx:TrackPointExtension></extensions>
      </trkpt>
      <trkpt lat="59.952033665031" lon="15.788907101378">
        <ele>148</ele>
        <time>2014-04-29T19:37:25Z</time>
        <extensions><gpxtpx:TrackPointExtension><gpxtpx:hr>169</gpxtpx:hr></gpxtpx:TrackPointExtension></extensions>
      </trkpt>
      <trkpt lat="59.952069623396" lon="15.788819845766">
        <ele>148.2</ele>
        <time>2014-04-29T19:37:27Z</time>
        <extensions><gpxtpx:TrackPointExtension><gpxtpx:hr>169</gpxtpx:hr></gpxtpx:TrackPointExtension></extensions>
      </trkpt>
      <trkpt lat="59.952091332525" lon="15.788768967614">
        <ele>148.2</ele>
        <time>2014-04-29T19:37:28Z</time>
        <extensions><gpxtpx:TrackPointExtension><gpxtpx:hr>169</gpxtpx:hr></gpxtpx:TrackPointExtension></extensions>
      </trkpt>
      <trkpt lat="59.95218873024" lon="15.788504602388">
        <ele>149</ele>
        <time>2014-04-29T19:37:34Z</time>
        <extensions><gpxtpx:TrackPointExtension><gpxtpx:hr>169</gpxtpx:hr></gpxtpx:TrackPointExtension></extensions>
      </trkpt>
      <trkpt lat="59.952219491825" lon="15.788406953216">
        <ele>149.4</ele>
        <time>2014-04-29T19:37:36Z</time>
        <extensions><gpxtpx:TrackPointExtension><gpxtpx:hr>169</gpxtpx:hr></gpxtpx:TrackPointExtension></extensions>
      </trkpt>
      <trkpt lat="59.952255450189" lon="15.788267729804">
        <ele>149.6</ele>
        <time>2014-04-29T19:37:39Z</time>
        <extensions><gpxtpx:TrackPointExtension><gpxtpx:hr>169</gpxtpx:hr></gpxtpx:TrackPointExtension></extensions>
      </trkpt>
      <trkpt lat="59.952330971137" lon="15.788002191111">
        <ele>150</ele>
        <time>2014-04-29T19:37:44Z</time>
        <extensions><gpxtpx:TrackPointExtension><gpxtpx:hr>170</gpxtpx:hr></gpxtpx:TrackPointExtension></extensions>
      </trkpt>
      <trkpt lat="59.952367516235" lon="15.787874870002">
        <ele>150.4</ele>
        <time>2014-04-29T19:37:47Z</time>
        <extensions><gpxtpx:TrackPointExtension><gpxtpx:hr>170</gpxtpx:hr></gpxtpx:TrackPointExtension></extensions>
      </trkpt>
      <trkpt lat="59.952420657501" lon="15.787678901106">
        <ele>150.6</ele>
        <time>2014-04-29T19:37:51Z</time>
        <extensions><gpxtpx:TrackPointExtension><gpxtpx:hr>170</gpxtpx:hr></gpxtpx:TrackPointExtension></extensions>
      </trkpt>
      <trkpt lat="59.952468601987" lon="15.787568427622">
        <ele>150.8</ele>
        <time>2014-04-29T19:37:54Z</time>
        <extensions><gpxtpx:TrackPointExtension><gpxtpx:hr>170</gpxtpx:hr></gpxtpx:TrackPointExtension></extensions>
      </trkpt>
      <trkpt lat="59.95252023451" lon="15.787531044334">
        <ele>151.2</ele>
        <time>2014-04-29T19:37:56Z</time>
        <extensions><gpxtpx:TrackPointExtension><gpxtpx:hr>171</gpxtpx:hr></gpxtpx:TrackPointExtension></extensions>
      </trkpt>
      <trkpt lat="59.952557617798" lon="15.787477400154">
        <ele>151.2</ele>
        <time>2014-04-29T19:37:58Z</time>
        <extensions><gpxtpx:TrackPointExtension><gpxtpx:hr>170</gpxtpx:hr></gpxtpx:TrackPointExtension></extensions>
      </trkpt>
      <trkpt lat="59.952596342191" lon="15.787470191717">
        <ele>151.4</ele>
        <time>2014-04-29T19:38:00Z</time>
        <extensions><gpxtpx:TrackPointExtension><gpxtpx:hr>169</gpxtpx:hr></gpxtpx:TrackPointExtension></extensions>
      </trkpt>
      <trkpt lat="59.952612603083" lon="15.787477986887">
        <ele>151.2</ele>
        <time>2014-04-29T19:38:01Z</time>
        <extensions><gpxtpx:TrackPointExtension><gpxtpx:hr>169</gpxtpx:hr></gpxtpx:TrackPointExtension></extensions>
      </trkpt>
      <trkpt lat="59.952677059919" lon="15.787552082911">
        <ele>151.2</ele>
        <time>2014-04-29T19:38:04Z</time>
        <extensions><gpxtpx:TrackPointExtension><gpxtpx:hr>169</gpxtpx:hr></gpxtpx:TrackPointExtension></extensions>
      </trkpt>
      <trkpt lat="59.952707067132" lon="15.787614695728">
        <ele>151.2</ele>
        <time>2014-04-29T19:38:06Z</time>
        <extensions><gpxtpx:TrackPointExtension><gpxtpx:hr>169</gpxtpx:hr></gpxtpx:TrackPointExtension></extensions>
      </trkpt>
      <trkpt lat="59.952735314146" lon="15.787691641599">
        <ele>151.6</ele>
        <time>2014-04-29T19:38:08Z</time>
        <extensions><gpxtpx:TrackPointExtension><gpxtpx:hr>168</gpxtpx:hr></gpxtpx:TrackPointExtension></extensions>
      </trkpt>
      <trkpt lat="59.952792814001" lon="15.787837654352">
        <ele>152</ele>
        <time>2014-04-29T19:38:12Z</time>
        <extensions><gpxtpx:TrackPointExtension><gpxtpx:hr>168</gpxtpx:hr></gpxtpx:TrackPointExtension></extensions>
      </trkpt>
      <trkpt lat="59.952892223373" lon="15.788066480309">
        <ele>152.4</ele>
        <time>2014-04-29T19:38:18Z</time>
        <extensions><gpxtpx:TrackPointExtension><gpxtpx:hr>168</gpxtpx:hr></gpxtpx:TrackPointExtension></extensions>
      </trkpt>
      <trkpt lat="59.952994566411" lon="15.788291534409">
        <ele>152.2</ele>
        <time>2014-04-29T19:38:23Z</time>
        <extensions><gpxtpx:TrackPointExtension><gpxtpx:hr>167</gpxtpx:hr></gpxtpx:TrackPointExtension></extensions>
      </trkpt>
      <trkpt lat="59.95306732133" lon="15.788478283212">
        <ele>152.2</ele>
        <time>2014-04-29T19:38:28Z</time>
        <extensions><gpxtpx:TrackPointExtension><gpxtpx:hr>167</gpxtpx:hr></gpxtpx:TrackPointExtension></extensions>
      </trkpt>
      <trkpt lat="59.953137645498" lon="15.788597390056">
        <ele>152</ele>
        <time>2014-04-29T19:38:32Z</time>
        <extensions><gpxtpx:TrackPointExtension><gpxtpx:hr>165</gpxtpx:hr></gpxtpx:TrackPointExtension></extensions>
      </trkpt>
      <trkpt lat="59.953178633004" lon="15.788653464988">
        <ele>152</ele>
        <time>2014-04-29T19:38:34Z</time>
        <extensions><gpxtpx:TrackPointExtension><gpxtpx:hr>165</gpxtpx:hr></gpxtpx:TrackPointExtension></extensions>
      </trkpt>
      <trkpt lat="59.953258009627" lon="15.788715239614">
        <ele>152</ele>
        <time>2014-04-29T19:38:37Z</time>
        <extensions><gpxtpx:TrackPointExtension><gpxtpx:hr>165</gpxtpx:hr></gpxtpx:TrackPointExtension></extensions>
      </trkpt>
      <trkpt lat="59.953407291323" lon="15.788733009249">
        <ele>151.8</ele>
        <time>2014-04-29T19:38:43Z</time>
        <extensions><gpxtpx:TrackPointExtension><gpxtpx:hr>163</gpxtpx:hr></gpxtpx:TrackPointExtension></extensions>
      </trkpt>
      <trkpt lat="59.953436711803" lon="15.788744492456">
        <ele>151.6</ele>
        <time>2014-04-29T19:38:45Z</time>
        <extensions><gpxtpx:TrackPointExtension><gpxtpx:hr>163</gpxtpx:hr></gpxtpx:TrackPointExtension></extensions>
      </trkpt>
      <trkpt lat="59.95349152945" lon="15.788730578497">
        <ele>151.6</ele>
        <time>2014-04-29T19:38:47Z</time>
        <extensions><gpxtpx:TrackPointExtension><gpxtpx:hr>163</gpxtpx:hr></gpxtpx:TrackPointExtension></extensions>
      </trkpt>
      <trkpt lat="59.953599320725" lon="15.788753880188">
        <ele>150.8</ele>
        <time>2014-04-29T19:38:52Z</time>
        <extensions><gpxtpx:TrackPointExtension><gpxtpx:hr>161</gpxtpx:hr></gpxtpx:TrackPointExtension></extensions>
      </trkpt>
      <trkpt lat="59.953636452556" lon="15.788752203807">
        <ele>150.4</ele>
        <time>2014-04-29T19:38:53Z</time>
        <extensions><gpxtpx:TrackPointExtension><gpxtpx:hr>161</gpxtpx:hr></gpxtpx:TrackPointExtension></extensions>
      </trkpt>
      <trkpt lat="59.953654473647" lon="15.788753125817">
        <ele>150.4</ele>
        <time>2014-04-29T19:38:54Z</time>
        <extensions><gpxtpx:TrackPointExtension><gpxtpx:hr>160</gpxtpx:hr></gpxtpx:TrackPointExtension></extensions>
      </trkpt>
      <trkpt lat="59.953747848049" lon="15.78878053464">
        <ele>150</ele>
        <time>2014-04-29T19:38:57Z</time>
        <extensions><gpxtpx:TrackPointExtension><gpxtpx:hr>157</gpxtpx:hr></gpxtpx:TrackPointExtension></extensions>
      </trkpt>
      <trkpt lat="59.953817585483" lon="15.788794616237">
        <ele>149</ele>
        <time>2014-04-29T19:39:00Z</time>
        <extensions><gpxtpx:TrackPointExtension><gpxtpx:hr>156</gpxtpx:hr></gpxtpx:TrackPointExtension></extensions>
      </trkpt>
      <trkpt lat="59.953906014562" lon="15.788845662028">
        <ele>148.4</ele>
        <time>2014-04-29T19:39:03Z</time>
        <extensions><gpxtpx:TrackPointExtension><gpxtpx:hr>155</gpxtpx:hr></gpxtpx:TrackPointExtension></extensions>
      </trkpt>
      <trkpt lat="59.953960245475" lon="15.788879022002">
        <ele>148</ele>
        <time>2014-04-29T19:39:05Z</time>
        <extensions><gpxtpx:TrackPointExtension><gpxtpx:hr>156</gpxtpx:hr></gpxtpx:TrackPointExtension></extensions>
      </trkpt>
      <trkpt lat="59.954033335671" lon="15.788930989802">
        <ele>147</ele>
        <time>2014-04-29T19:39:08Z</time>
        <extensions><gpxtpx:TrackPointExtension><gpxtpx:hr>157</gpxtpx:hr></gpxtpx:TrackPointExtension></extensions>
      </trkpt>
      <trkpt lat="59.954068204388" lon="15.788962757215">
        <ele>146.8</ele>
        <time>2014-04-29T19:39:09Z</time>
        <extensions><gpxtpx:TrackPointExtension><gpxtpx:hr>158</gpxtpx:hr></gpxtpx:TrackPointExtension></extensions>
      </trkpt>
      <trkpt lat="59.954132325947" lon="15.789038781077">
        <ele>146.2</ele>
        <time>2014-04-29T19:39:12Z</time>
        <extensions><gpxtpx:TrackPointExtension><gpxtpx:hr>157</gpxtpx:hr></gpxtpx:TrackPointExtension></extensions>
      </trkpt>
      <trkpt lat="59.954185467213" lon="15.789094939828">
        <ele>145.6</ele>
        <time>2014-04-29T19:39:14Z</time>
        <extensions><gpxtpx:TrackPointExtension><gpxtpx:hr>158</gpxtpx:hr></gpxtpx:TrackPointExtension></extensions>
      </trkpt>
      <trkpt lat="59.954315470532" lon="15.789227876812">
        <ele>144.4</ele>
        <time>2014-04-29T19:39:19Z</time>
        <extensions><gpxtpx:TrackPointExtension><gpxtpx:hr>159</gpxtpx:hr></gpxtpx:TrackPointExtension></extensions>
      </trkpt>
      <trkpt lat="59.954439187422" lon="15.789436334744">
        <ele>144.4</ele>
        <time>2014-04-29T19:39:25Z</time>
        <extensions><gpxtpx:TrackPointExtension><gpxtpx:hr>159</gpxtpx:hr></gpxtpx:TrackPointExtension></extensions>
      </trkpt>
      <trkpt lat="59.954517474398" lon="15.789634231478">
        <ele>144</ele>
        <time>2014-04-29T19:39:30Z</time>
        <extensions><gpxtpx:TrackPointExtension><gpxtpx:hr>159</gpxtpx:hr></gpxtpx:TrackPointExtension></extensions>
      </trkpt>
      <trkpt lat="59.954627109692" lon="15.789949307218">
        <ele>143.6</ele>
        <time>2014-04-29T19:39:37Z</time>
        <extensions><gpxtpx:TrackPointExtension><gpxtpx:hr>159</gpxtpx:hr></gpxtpx:TrackPointExtension></extensions>
      </trkpt>
      <trkpt lat="59.954657536" lon="15.790030611679">
        <ele>143.4</ele>
        <time>2014-04-29T19:39:39Z</time>
        <extensions><gpxtpx:TrackPointExtension><gpxtpx:hr>159</gpxtpx:hr></gpxtpx:TrackPointExtension></extensions>
      </trkpt>
      <trkpt lat="59.954739427194" lon="15.790210906416">
        <ele>143.4</ele>
        <time>2014-04-29T19:39:44Z</time>
        <extensions><gpxtpx:TrackPointExtension><gpxtpx:hr>160</gpxtpx:hr></gpxtpx:TrackPointExtension></extensions>
      </trkpt>
      <trkpt lat="59.954821234569" lon="15.7903473638">
        <ele>143.2</ele>
        <time>2014-04-29T19:39:48Z</time>
        <extensions><gpxtpx:TrackPointExtension><gpxtpx:hr>160</gpxtpx:hr></gpxtpx:TrackPointExtension></extensions>
      </trkpt>
      <trkpt lat="59.954917542636" lon="15.790541907772">
        <ele>143.2</ele>
        <time>2014-04-29T19:39:53Z</time>
        <extensions><gpxtpx:TrackPointExtension><gpxtpx:hr>161</gpxtpx:hr></gpxtpx:TrackPointExtension></extensions>
      </trkpt>
      <trkpt lat="59.955035643652" lon="15.790740642697">
        <ele>142.8</ele>
        <time>2014-04-29T19:39:59Z</time>
        <extensions><gpxtpx:TrackPointExtension><gpxtpx:hr>159</gpxtpx:hr></gpxtpx:TrackPointExtension></extensions>
      </trkpt>
      <trkpt lat="59.955165982246" lon="15.790931582451">
        <ele>142.6</ele>
        <time>2014-04-29T19:40:05Z</time>
        <extensions><gpxtpx:TrackPointExtension><gpxtpx:hr>158</gpxtpx:hr></gpxtpx:TrackPointExtension></extensions>
      </trkpt>
      <trkpt lat="59.955223901197" lon="15.791105004027">
        <ele>142.8</ele>
        <time>2014-04-29T19:40:09Z</time>
        <extensions><gpxtpx:TrackPointExtension><gpxtpx:hr>158</gpxtpx:hr></gpxtpx:TrackPointExtension></extensions>
      </trkpt>
      <trkpt lat="59.955258015543" lon="15.791326621547">
        <ele>142.6</ele>
        <time>2014-04-29T19:40:14Z</time>
        <extensions><gpxtpx:TrackPointExtension><gpxtpx:hr>157</gpxtpx:hr></gpxtpx:TrackPointExtension></extensions>
      </trkpt>
      <trkpt lat="59.955293722451" lon="15.791457463056">
        <ele>142.6</ele>
        <time>2014-04-29T19:40:17Z</time>
        <extensions><gpxtpx:TrackPointExtension><gpxtpx:hr>157</gpxtpx:hr></gpxtpx:TrackPointExtension></extensions>
      </trkpt>
      <trkpt lat="59.955291962251" lon="15.791487134993">
        <ele>142.8</ele>
        <time>2014-04-29T19:40:18Z</time>
        <extensions><gpxtpx:TrackPointExtension><gpxtpx:hr>157</gpxtpx:hr></gpxtpx:TrackPointExtension></extensions>
      </trkpt>
      <trkpt lat="59.95523924008" lon="15.791631806642">
        <ele>142.6</ele>
        <time>2014-04-29T19:40:22Z</time>
        <extensions><gpxtpx:TrackPointExtension><gpxtpx:hr>157</gpxtpx:hr></gpxtpx:TrackPointExtension></extensions>
      </trkpt>
      <trkpt lat="59.955213842914" lon="15.791677152738">
        <ele>142.6</ele>
        <time>2014-04-29T19:40:23Z</time>
        <extensions><gpxtpx:TrackPointExtension><gpxtpx:hr>157</gpxtpx:hr></gpxtpx:TrackPointExtension></extensions>
      </trkpt>
      <trkpt lat="59.955114684999" lon="15.791799109429">
        <ele>142.4</ele>
        <time>2014-04-29T19:40:27Z</time>
        <extensions><gpxtpx:TrackPointExtension><gpxtpx:hr>159</gpxtpx:hr></gpxtpx:TrackPointExtension></extensions>
      </trkpt>
      <trkpt lat="59.955017454922" lon="15.791965071112">
        <ele>142.2</ele>
        <time>2014-04-29T19:40:32Z</time>
        <extensions><gpxtpx:TrackPointExtension><gpxtpx:hr>159</gpxtpx:hr></gpxtpx:TrackPointExtension></extensions>
      </trkpt>
      <trkpt lat="59.95503061451" lon="15.792179144919">
        <ele>142.2</ele>
        <time>2014-04-29T19:40:36Z</time>
        <extensions><gpxtpx:TrackPointExtension><gpxtpx:hr>159</gpxtpx:hr></gpxtpx:TrackPointExtension></extensions>
      </trkpt>
      <trkpt lat="59.955042349175" lon="15.792241757736">
        <ele>142.2</ele>
        <time>2014-04-29T19:40:37Z</time>
        <extensions><gpxtpx:TrackPointExtension><gpxtpx:hr>159</gpxtpx:hr></gpxtpx:TrackPointExtension></extensions>
      </trkpt>
      <trkpt lat="59.955072440207" lon="15.792362289503">
        <ele>142.2</ele>
        <time>2014-04-29T19:40:40Z</time>
        <extensions><gpxtpx:TrackPointExtension><gpxtpx:hr>159</gpxtpx:hr></gpxtpx:TrackPointExtension></extensions>
      </trkpt>
      <trkpt lat="59.955085096881" lon="15.792415095493">
        <ele>142.2</ele>
        <time>2014-04-29T19:40:41Z</time>
        <extensions><gpxtpx:TrackPointExtension><gpxtpx:hr>159</gpxtpx:hr></gpxtpx:TrackPointExtension></extensions>
      </trkpt>
      <trkpt lat="59.956077598035" lon="15.791957611218">
        <ele>143.2</ele>
        <time>2014-04-29T20:01:27Z</time>
        <extensions><gpxtpx:TrackPointExtension><gpxtpx:hr>105</gpxtpx:hr></gpxtpx:TrackPointExtension></extensions>
      </trkpt>
      <trkpt lat="59.956070724875" lon="15.791939925402">
        <ele>143.2</ele>
        <time>2014-04-29T20:01:28Z</time>
        <extensions><gpxtpx:TrackPointExtension><gpxtpx:hr>107</gpxtpx:hr></gpxtpx:TrackPointExtension></extensions>
      </trkpt>
      <trkpt lat="59.956057649106" lon="15.791913941503">
        <ele>143.2</ele>
        <time>2014-04-29T20:01:30Z</time>
        <extensions><gpxtpx:TrackPointExtension><gpxtpx:hr>111</gpxtpx:hr></gpxtpx:TrackPointExtension></extensions>
      </trkpt>
      <trkpt lat="59.956040047109" lon="15.791883263737">
        <ele>143.2</ele>
        <time>2014-04-29T20:01:32Z</time>
        <extensions><gpxtpx:TrackPointExtension><gpxtpx:hr>114</gpxtpx:hr></gpxtpx:TrackPointExtension></extensions>
      </trkpt>
      <trkpt lat="59.956008866429" lon="15.791806988418">
        <ele>143.2</ele>
        <time>2014-04-29T20:01:33Z</time>
        <extensions><gpxtpx:TrackPointExtension><gpxtpx:hr>116</gpxtpx:hr></gpxtpx:TrackPointExtension></extensions>
      </trkpt>
      <trkpt lat="59.955926723778" lon="15.7917012088">
        <ele>143.4</ele>
        <time>2014-04-29T20:01:35Z</time>
        <extensions><gpxtpx:TrackPointExtension><gpxtpx:hr>119</gpxtpx:hr></gpxtpx:TrackPointExtension></extensions>
      </trkpt>
      <trkpt lat="59.955866625533" lon="15.791632980108">
        <ele>143.4</ele>
        <time>2014-04-29T20:01:38Z</time>
        <extensions><gpxtpx:TrackPointExtension><gpxtpx:hr>122</gpxtpx:hr></gpxtpx:TrackPointExtension></extensions>
      </trkpt>
      <trkpt lat="59.955773418769" lon="15.791524015367">
        <ele>143</ele>
        <time>2014-04-29T20:01:42Z</time>
        <extensions><gpxtpx:TrackPointExtension><gpxtpx:hr>125</gpxtpx:hr></gpxtpx:TrackPointExtension></extensions>
      </trkpt>
      <trkpt lat="59.955728910863" lon="15.791482944041">
        <ele>143</ele>
        <time>2014-04-29T20:01:44Z</time>
        <extensions><gpxtpx:TrackPointExtension><gpxtpx:hr>126</gpxtpx:hr></gpxtpx:TrackPointExtension></extensions>
      </trkpt>
      <trkpt lat="59.955607037991" lon="15.791362496093">
        <ele>142.8</ele>
        <time>2014-04-29T20:01:49Z</time>
        <extensions><gpxtpx:TrackPointExtension><gpxtpx:hr>129</gpxtpx:hr></gpxtpx:TrackPointExtension></extensions>
      </trkpt>
      <trkpt lat="59.955582479015" lon="15.79134196043">
        <ele>142.6</ele>
        <time>2014-04-29T20:01:50Z</time>
        <extensions><gpxtpx:TrackPointExtension><gpxtpx:hr>129</gpxtpx:hr></gpxtpx:TrackPointExtension></extensions>
      </trkpt>
      <trkpt lat="59.955419450998" lon="15.791203072295">
        <ele>142.4</ele>
        <time>2014-04-29T20:01:57Z</time>
        <extensions><gpxtpx:TrackPointExtension><gpxtpx:hr>132</gpxtpx:hr></gpxtpx:TrackPointExtension></extensions>
      </trkpt>
      <trkpt lat="59.955324232578" lon="15.791054964066">
        <ele>142</ele>
        <time>2014-04-29T20:02:02Z</time>
        <extensions><gpxtpx:TrackPointExtension><gpxtpx:hr>133</gpxtpx:hr></gpxtpx:TrackPointExtension></extensions>
      </trkpt>
      <trkpt lat="59.95520898141" lon="15.790838962421">
        <ele>141.8</ele>
        <time>2014-04-29T20:02:08Z</time>
        <extensions><gpxtpx:TrackPointExtension><gpxtpx:hr>136</gpxtpx:hr></gpxtpx:TrackPointExtension></extensions>
      </trkpt>
      <trkpt lat="59.955188529566" lon="15.790805937722">
        <ele>141.8</ele>
        <time>2014-04-29T20:02:09Z</time>
        <extensions><gpxtpx:TrackPointExtension><gpxtpx:hr>136</gpxtpx:hr></gpxtpx:TrackPointExtension></extensions>
      </trkpt>
      <trkpt lat="59.95506959036" lon="15.79060703516">
        <ele>141.8</ele>
        <time>2014-04-29T20:02:15Z</time>
        <extensions><gpxtpx:TrackPointExtension><gpxtpx:hr>138</gpxtpx:hr></gpxtpx:TrackPointExtension></extensions>
      </trkpt>
      <trkpt lat="59.954964062199" lon="15.79043394886">
        <ele>141.6</ele>
        <time>2014-04-29T20:02:21Z</time>
        <extensions><gpxtpx:TrackPointExtension><gpxtpx:hr>139</gpxtpx:hr></gpxtpx:TrackPointExtension></extensions>
      </trkpt>
      <trkpt lat="59.954864736646" lon="15.790215097368">
        <ele>142</ele>
        <time>2014-04-29T20:02:27Z</time>
        <extensions><gpxtpx:TrackPointExtension><gpxtpx:hr>141</gpxtpx:hr></gpxtpx:TrackPointExtension></extensions>
      </trkpt>
      <trkpt lat="59.954797010869" lon="15.79004528001">
        <ele>142.4</ele>
        <time>2014-04-29T20:02:32Z</time>
        <extensions><gpxtpx:TrackPointExtension><gpxtpx:hr>142</gpxtpx:hr></gpxtpx:TrackPointExtension></extensions>
      </trkpt>
      <trkpt lat="59.954690644518" lon="15.789771778509">
        <ele>142.4</ele>
        <time>2014-04-29T20:02:38Z</time>
        <extensions><gpxtpx:TrackPointExtension><gpxtpx:hr>143</gpxtpx:hr></gpxtpx:TrackPointExtension></extensions>
      </trkpt>
      <trkpt lat="59.954614620656" lon="15.789548903704">
        <ele>142.4</ele>
        <time>2014-04-29T20:02:43Z</time>
        <extensions><gpxtpx:TrackPointExtension><gpxtpx:hr>144</gpxtpx:hr></gpxtpx:TrackPointExtension></extensions>
      </trkpt>
      <trkpt lat="59.954534824938" lon="15.789278000593">
        <ele>143</ele>
        <time>2014-04-29T20:02:49Z</time>
        <extensions><gpxtpx:TrackPointExtension><gpxtpx:hr>144</gpxtpx:hr></gpxtpx:TrackPointExtension></extensions>
      </trkpt>
      <trkpt lat="59.954493837431" lon="15.78911983408">
        <ele>143.2</ele>
        <time>2014-04-29T20:02:53Z</time>
        <extensions><gpxtpx:TrackPointExtension><gpxtpx:hr>144</gpxtpx:hr></gpxtpx:TrackPointExtension></extensions>
      </trkpt>
      <trkpt lat="59.954501297325" lon="15.789052024484">
        <ele>143.4</ele>
        <time>2014-04-29T20:02:55Z</time>
        <extensions><gpxtpx:TrackPointExtension><gpxtpx:hr>144</gpxtpx:hr></gpxtpx:TrackPointExtension></extensions>
      </trkpt>
      <trkpt lat="59.954518061131" lon="15.78898916021">
        <ele>143.4</ele>
        <time>2014-04-29T20:02:57Z</time>
        <extensions><gpxtpx:TrackPointExtension><gpxtpx:hr>144</gpxtpx:hr></gpxtpx:TrackPointExtension></extensions>
      </trkpt>
      <trkpt lat="59.954546811059" lon="15.788839794695">
        <ele>142</ele>
        <time>2014-04-29T20:03:01Z</time>
        <extensions><gpxtpx:TrackPointExtension><gpxtpx:hr>144</gpxtpx:hr></gpxtpx:TrackPointExtension></extensions>
      </trkpt>
      <trkpt lat="59.954559970647" lon="15.788763938472">
        <ele>140.8</ele>
        <time>2014-04-29T20:03:03Z</time>
        <extensions><gpxtpx:TrackPointExtension><gpxtpx:hr>144</gpxtpx:hr></gpxtpx:TrackPointExtension></extensions>
      </trkpt>
      <trkpt lat="59.954585619271" lon="15.788669222966">
        <ele>139.8</ele>
        <time>2014-04-29T20:03:05Z</time>
        <extensions><gpxtpx:TrackPointExtension><gpxtpx:hr>144</gpxtpx:hr></gpxtpx:TrackPointExtension></extensions>
      </trkpt>
      <trkpt lat="59.954610681161" lon="15.788577022031">
        <ele>138.8</ele>
        <time>2014-04-29T20:03:07Z</time>
        <extensions><gpxtpx:TrackPointExtension><gpxtpx:hr>144</gpxtpx:hr></gpxtpx:TrackPointExtension></extensions>
      </trkpt>
      <trkpt lat="59.954621493816" lon="15.788538632914">
        <ele>138.4</ele>
        <time>2014-04-29T20:03:08Z</time>
        <extensions><gpxtpx:TrackPointExtension><gpxtpx:hr>144</gpxtpx:hr></gpxtpx:TrackPointExtension></extensions>
      </trkpt>
      <trkpt lat="59.954668432474" lon="15.788400163874">
        <ele>137.4</ele>
        <time>2014-04-29T20:03:11Z</time>
        <extensions><gpxtpx:TrackPointExtension><gpxtpx:hr>144</gpxtpx:hr></gpxtpx:TrackPointExtension></extensions>
      </trkpt>
      <trkpt lat="59.954678993672" lon="15.788370156661">
        <ele>137</ele>
        <time>2014-04-29T20:03:12Z</time>
        <extensions><gpxtpx:TrackPointExtension><gpxtpx:hr>144</gpxtpx:hr></gpxtpx:TrackPointExtension></extensions>
      </trkpt>
      <trkpt lat="59.954766500741" lon="15.788125908002">
        <ele>136.8</ele>
        <time>2014-04-29T20:03:17Z</time>
        <extensions><gpxtpx:TrackPointExtension><gpxtpx:hr>146</gpxtpx:hr></gpxtpx:TrackPointExtension></extensions>
      </trkpt>
      <trkpt lat="59.954853840172" lon="15.787847042084">
        <ele>136.2</ele>
        <time>2014-04-29T20:03:23Z</time>
        <extensions><gpxtpx:TrackPointExtension><gpxtpx:hr>147</gpxtpx:hr></gpxtpx:TrackPointExtension></extensions>
      </trkpt>
      <trkpt lat="59.954956937581" lon="15.787489302456">
        <ele>136.4</ele>
        <time>2014-04-29T20:03:31Z</time>
        <extensions><gpxtpx:TrackPointExtension><gpxtpx:hr>147</gpxtpx:hr></gpxtpx:TrackPointExtension></extensions>
      </trkpt>
      <trkpt lat="59.955034889281" lon="15.787202306092">
        <ele>136.4</ele>
        <time>2014-04-29T20:03:37Z</time>
        <extensions><gpxtpx:TrackPointExtension><gpxtpx:hr>145</gpxtpx:hr></gpxtpx:TrackPointExtension></extensions>
      </trkpt>
      <trkpt lat="59.955097753555" lon="15.786975827068">
        <ele>136.4</ele>
        <time>2014-04-29T20:03:42Z</time>
        <extensions><gpxtpx:TrackPointExtension><gpxtpx:hr>145</gpxtpx:hr></gpxtpx:TrackPointExtension></extensions>
      </trkpt>
      <trkpt lat="59.955150559545" lon="15.786723447964">
        <ele>136.8</ele>
        <time>2014-04-29T20:03:47Z</time>
        <extensions><gpxtpx:TrackPointExtension><gpxtpx:hr>146</gpxtpx:hr></gpxtpx:TrackPointExtension></extensions>
      </trkpt>
      <trkpt lat="59.955192720518" lon="15.786529826">
        <ele>136.8</ele>
        <time>2014-04-29T20:03:51Z</time>
        <extensions><gpxtpx:TrackPointExtension><gpxtpx:hr>148</gpxtpx:hr></gpxtpx:TrackPointExtension></extensions>
      </trkpt>
      <trkpt lat="59.955211328343" lon="15.786476265639">
        <ele>136.8</ele>
        <time>2014-04-29T20:03:52Z</time>
        <extensions><gpxtpx:TrackPointExtension><gpxtpx:hr>148</gpxtpx:hr></gpxtpx:TrackPointExtension></extensions>
      </trkpt>
      <trkpt lat="59.955259356648" lon="15.786248864606">
        <ele>136.8</ele>
        <time>2014-04-29T20:03:57Z</time>
        <extensions><gpxtpx:TrackPointExtension><gpxtpx:hr>149</gpxtpx:hr></gpxtpx:TrackPointExtension></extensions>
      </trkpt>
      <trkpt lat="59.955315096304" lon="15.785948457196">
        <ele>137</ele>
        <time>2014-04-29T20:04:04Z</time>
        <extensions><gpxtpx:TrackPointExtension><gpxtpx:hr>149</gpxtpx:hr></gpxtpx:TrackPointExtension></extensions>
      </trkpt>
      <trkpt lat="59.955362873152" lon="15.785726755857">
        <ele>136.8</ele>
        <time>2014-04-29T20:04:09Z</time>
        <extensions><gpxtpx:TrackPointExtension><gpxtpx:hr>149</gpxtpx:hr></gpxtpx:TrackPointExtension></extensions>
      </trkpt>
      <trkpt lat="59.955414757133" lon="15.785521566868">
        <ele>137.2</ele>
        <time>2014-04-29T20:04:14Z</time>
        <extensions><gpxtpx:TrackPointExtension><gpxtpx:hr>150</gpxtpx:hr></gpxtpx:TrackPointExtension></extensions>
      </trkpt>
      <trkpt lat="59.955464461818" lon="15.78536214307">
        <ele>137.8</ele>
        <time>2014-04-29T20:04:18Z</time>
        <extensions><gpxtpx:TrackPointExtension><gpxtpx:hr>150</gpxtpx:hr></gpxtpx:TrackPointExtension></extensions>
      </trkpt>
      <trkpt lat="59.955478375778" lon="15.785315707326">
        <ele>137.8</ele>
        <time>2014-04-29T20:04:19Z</time>
        <extensions><gpxtpx:TrackPointExtension><gpxtpx:hr>150</gpxtpx:hr></gpxtpx:TrackPointExtension></extensions>
      </trkpt>
      <trkpt lat="59.9555595126" lon="15.785105237737">
        <ele>138.2</ele>
        <time>2014-04-29T20:04:26Z</time>
        <extensions><gpxtpx:TrackPointExtension><gpxtpx:hr>150</gpxtpx:hr></gpxtpx:TrackPointExtension></extensions>
      </trkpt>
      <trkpt lat="59.955632938072" lon="15.78496475704">
        <ele>139.6</ele>
        <time>2014-04-29T20:04:31Z</time>
        <extensions><gpxtpx:TrackPointExtension><gpxtpx:hr>151</gpxtpx:hr></gpxtpx:TrackPointExtension></extensions>
      </trkpt>
      <trkpt lat="59.955663951114" lon="15.784884793684">
        <ele>140.6</ele>
        <time>2014-04-29T20:04:34Z</time>
        <extensions><gpxtpx:TrackPointExtension><gpxtpx:hr>152</gpxtpx:hr></gpxtpx:TrackPointExtension></extensions>
      </trkpt>
      <trkpt lat="59.955686833709" lon="15.784874232486">
        <ele>141</ele>
        <time>2014-04-29T20:04:36Z</time>
        <extensions><gpxtpx:TrackPointExtension><gpxtpx:hr>152</gpxtpx:hr></gpxtpx:TrackPointExtension></extensions>
      </trkpt>
      <trkpt lat="59.955715835094" lon="15.784881440923">
        <ele>141.8</ele>
        <time>2014-04-29T20:04:38Z</time>
        <extensions><gpxtpx:TrackPointExtension><gpxtpx:hr>153</gpxtpx:hr></gpxtpx:TrackPointExtension></extensions>
      </trkpt>
      <trkpt lat="59.955769563094" lon="15.784900970757">
        <ele>143.2</ele>
        <time>2014-04-29T20:04:41Z</time>
        <extensions><gpxtpx:TrackPointExtension><gpxtpx:hr>153</gpxtpx:hr></gpxtpx:TrackPointExtension></extensions>
      </trkpt>
      <trkpt lat="59.955826811492" lon="15.784882362932">
        <ele>144.4</ele>
        <time>2014-04-29T20:04:44Z</time>
        <extensions><gpxtpx:TrackPointExtension><gpxtpx:hr>154</gpxtpx:hr></gpxtpx:TrackPointExtension></extensions>
      </trkpt>
      <trkpt lat="59.955934518948" lon="15.784731823951">
        <ele>145</ele>
        <time>2014-04-29T20:04:50Z</time>
        <extensions><gpxtpx:TrackPointExtension><gpxtpx:hr>154</gpxtpx:hr></gpxtpx:TrackPointExtension></extensions>
      </trkpt>
      <trkpt lat="59.956026552245" lon="15.784544991329">
        <ele>145</ele>
        <time>2014-04-29T20:04:56Z</time>
        <extensions><gpxtpx:TrackPointExtension><gpxtpx:hr>155</gpxtpx:hr></gpxtpx:TrackPointExtension></extensions>
      </trkpt>
      <trkpt lat="59.956116322428" lon="15.784346926957">
        <ele>145</ele>
        <time>2014-04-29T20:05:02Z</time>
        <extensions><gpxtpx:TrackPointExtension><gpxtpx:hr>155</gpxtpx:hr></gpxtpx:TrackPointExtension></extensions>
      </trkpt>
      <trkpt lat="59.9561620038" lon="15.784230167046">
        <ele>145.4</ele>
        <time>2014-04-29T20:05:05Z</time>
        <extensions><gpxtpx:TrackPointExtension><gpxtpx:hr>156</gpxtpx:hr></gpxtpx:TrackPointExtension></extensions>
      </trkpt>
      <trkpt lat="59.956235513091" lon="15.784133691341">
        <ele>146.4</ele>
        <time>2014-04-29T20:05:09Z</time>
        <extensions><gpxtpx:TrackPointExtension><gpxtpx:hr>156</gpxtpx:hr></gpxtpx:TrackPointExtension></extensions>
      </trkpt>
      <trkpt lat="59.956258060411" lon="15.784118771553">
        <ele>146.6</ele>
        <time>2014-04-29T20:05:10Z</time>
        <extensions><gpxtpx:TrackPointExtension><gpxtpx:hr>156</gpxtpx:hr></gpxtpx:TrackPointExtension></extensions>
      </trkpt>
      <trkpt lat="59.956344729289" lon="15.784086920321">
        <ele>147</ele>
        <time>2014-04-29T20:05:14Z</time>
        <extensions><gpxtpx:TrackPointExtension><gpxtpx:hr>157</gpxtpx:hr></gpxtpx:TrackPointExtension></extensions>
      </trkpt>
      <trkpt lat="59.956487808377" lon="15.783975189552">
        <ele>146.8</ele>
        <time>2014-04-29T20:05:21Z</time>
        <extensions><gpxtpx:TrackPointExtension><gpxtpx:hr>157</gpxtpx:hr></gpxtpx:TrackPointExtension></extensions>
      </trkpt>
      <trkpt lat="59.956665672362" lon="15.783831523731">
        <ele>146.6</ele>
        <time>2014-04-29T20:05:29Z</time>
        <extensions><gpxtpx:TrackPointExtension><gpxtpx:hr>157</gpxtpx:hr></gpxtpx:TrackPointExtension></extensions>
      </trkpt>
      <trkpt lat="59.956842865795" lon="15.783620467409">
        <ele>147</ele>
        <time>2014-04-29T20:05:37Z</time>
        <extensions><gpxtpx:TrackPointExtension><gpxtpx:hr>156</gpxtpx:hr></gpxtpx:TrackPointExtension></extensions>
      </trkpt>
      <trkpt lat="59.956970605999" lon="15.783463977277">
        <ele>147</ele>
        <time>2014-04-29T20:05:43Z</time>
        <extensions><gpxtpx:TrackPointExtension><gpxtpx:hr>154</gpxtpx:hr></gpxtpx:TrackPointExtension></extensions>
      </trkpt>
      <trkpt lat="59.957093987614" lon="15.783294830471">
        <ele>147.2</ele>
        <time>2014-04-29T20:05:49Z</time>
        <extensions><gpxtpx:TrackPointExtension><gpxtpx:hr>154</gpxtpx:hr></gpxtpx:TrackPointExtension></extensions>
      </trkpt>
      <trkpt lat="59.957194989547" lon="15.783158121631">
        <ele>147.4</ele>
        <time>2014-04-29T20:05:54Z</time>
        <extensions><gpxtpx:TrackPointExtension><gpxtpx:hr>154</gpxtpx:hr></gpxtpx:TrackPointExtension></extensions>
      </trkpt>
      <trkpt lat="59.957312000915" lon="15.782977323979">
        <ele>147.6</ele>
        <time>2014-04-29T20:05:59Z</time>
        <extensions><gpxtpx:TrackPointExtension><gpxtpx:hr>154</gpxtpx:hr></gpxtpx:TrackPointExtension></extensions>
      </trkpt>
      <trkpt lat="59.957336392254" lon="15.782950669527">
        <ele>147.6</ele>
        <time>2014-04-29T20:06:00Z</time>
        <extensions><gpxtpx:TrackPointExtension><gpxtpx:hr>154</gpxtpx:hr></gpxtpx:TrackPointExtension></extensions>
      </trkpt>
      <trkpt lat="59.957465976477" lon="15.782781271264">
        <ele>147.6</ele>
        <time>2014-04-29T20:06:06Z</time>
        <extensions><gpxtpx:TrackPointExtension><gpxtpx:hr>153</gpxtpx:hr></gpxtpx:TrackPointExtension></extensions>
      </trkpt>
      <trkpt lat="59.957604948431" lon="15.782661242411">
        <ele>147.8</ele>
        <time>2014-04-29T20:06:12Z</time>
        <extensions><gpxtpx:TrackPointExtension><gpxtpx:hr>154</gpxtpx:hr></gpxtpx:TrackPointExtension></extensions>
      </trkpt>
      <trkpt lat="59.957776945084" lon="15.782525455579">
        <ele>148</ele>
        <time>2014-04-29T20:06:19Z</time>
        <extensions><gpxtpx:TrackPointExtension><gpxtpx:hr>153</gpxtpx:hr></gpxtpx:TrackPointExtension></extensions>
      </trkpt>
      <trkpt lat="59.957968890667" lon="15.782396541908">
        <ele>148.6</ele>
        <time>2014-04-29T20:06:27Z</time>
        <extensions><gpxtpx:TrackPointExtension><gpxtpx:hr>154</gpxtpx:hr></gpxtpx:TrackPointExtension></extensions>
      </trkpt>
      <trkpt lat="59.958113981411" lon="15.7823176682">
        <ele>149.2</ele>
        <time>2014-04-29T20:06:33Z</time>
        <extensions><gpxtpx:TrackPointExtension><gpxtpx:hr>153</gpxtpx:hr></gpxtpx:TrackPointExtension></extensions>
      </trkpt>
      <trkpt lat="59.958265610039" lon="15.78225530684">
        <ele>149.4</ele>
        <time>2014-04-29T20:06:39Z</time>
        <extensions><gpxtpx:TrackPointExtension><gpxtpx:hr>153</gpxtpx:hr></gpxtpx:TrackPointExtension></extensions>
      </trkpt>
      <trkpt lat="59.958388991654" lon="15.782205266878">
        <ele>149.4</ele>
        <time>2014-04-29T20:06:44Z</time>
        <extensions><gpxtpx:TrackPointExtension><gpxtpx:hr>154</gpxtpx:hr></gpxtpx:TrackPointExtension></extensions>
      </trkpt>
      <trkpt lat="59.958553696051" lon="15.782198645175">
        <ele>149.6</ele>
        <time>2014-04-29T20:06:51Z</time>
        <extensions><gpxtpx:TrackPointExtension><gpxtpx:hr>152</gpxtpx:hr></gpxtpx:TrackPointExtension></extensions>
      </trkpt>
      <trkpt lat="59.95865419507" lon="15.78219906427">
        <ele>149.6</ele>
        <time>2014-04-29T20:06:55Z</time>
        <extensions><gpxtpx:TrackPointExtension><gpxtpx:hr>152</gpxtpx:hr></gpxtpx:TrackPointExtension></extensions>
      </trkpt>
      <trkpt lat="59.95875117369" lon="15.782205015421">
        <ele>149.6</ele>
        <time>2014-04-29T20:06:59Z</time>
        <extensions><gpxtpx:TrackPointExtension><gpxtpx:hr>153</gpxtpx:hr></gpxtpx:TrackPointExtension></extensions>
      </trkpt>
      <trkpt lat="59.95887757279" lon="15.782231837511">
        <ele>149.6</ele>
        <time>2014-04-29T20:07:04Z</time>
        <extensions><gpxtpx:TrackPointExtension><gpxtpx:hr>153</gpxtpx:hr></gpxtpx:TrackPointExtension></extensions>
      </trkpt>
      <trkpt lat="59.958970109001" lon="15.782263604924">
        <ele>149.8</ele>
        <time>2014-04-29T20:07:09Z</time>
        <extensions><gpxtpx:TrackPointExtension><gpxtpx:hr>153</gpxtpx:hr></gpxtpx:TrackPointExtension></extensions>
      </trkpt>
      <trkpt lat="59.959070691839" lon="15.782323786989">
        <ele>150.2</ele>
        <time>2014-04-29T20:07:14Z</time>
        <extensions><gpxtpx:TrackPointExtension><gpxtpx:hr>153</gpxtpx:hr></gpxtpx:TrackPointExtension></extensions>
      </trkpt>
      <trkpt lat="59.959200862795" lon="15.782349519432">
        <ele>150.4</ele>
        <time>2014-04-29T20:07:19Z</time>
        <extensions><gpxtpx:TrackPointExtension><gpxtpx:hr>154</gpxtpx:hr></gpxtpx:TrackPointExtension></extensions>
      </trkpt>
      <trkpt lat="59.9593008589" lon="15.782381454483">
        <ele>150.8</ele>
        <time>2014-04-29T20:07:23Z</time>
        <extensions><gpxtpx:TrackPointExtension><gpxtpx:hr>154</gpxtpx:hr></gpxtpx:TrackPointExtension></extensions>
      </trkpt>
      <trkpt lat="59.959416612983" lon="15.782439541072">
        <ele>151.2</ele>
        <time>2014-04-29T20:07:28Z</time>
        <extensions><gpxtpx:TrackPointExtension><gpxtpx:hr>155</gpxtpx:hr></gpxtpx:TrackPointExtension></extensions>
      </trkpt>
      <trkpt lat="59.959519123659" lon="15.782489245757">
        <ele>151</ele>
        <time>2014-04-29T20:07:32Z</time>
        <extensions><gpxtpx:TrackPointExtension><gpxtpx:hr>155</gpxtpx:hr></gpxtpx:TrackPointExtension></extensions>
      </trkpt>
      <trkpt lat="59.959636218846" lon="15.782534088939">
        <ele>151.6</ele>
        <time>2014-04-29T20:07:38Z</time>
        <extensions><gpxtpx:TrackPointExtension><gpxtpx:hr>156</gpxtpx:hr></gpxtpx:TrackPointExtension></extensions>
      </trkpt>
      <trkpt lat="59.959813496098" lon="15.782566694543">
        <ele>151.8</ele>
        <time>2014-04-29T20:07:44Z</time>
        <extensions><gpxtpx:TrackPointExtension><gpxtpx:hr>156</gpxtpx:hr></gpxtpx:TrackPointExtension></extensions>
      </trkpt>
      <trkpt lat="59.959931261837" lon="15.782579267398">
        <ele>151.8</ele>
        <time>2014-04-29T20:07:49Z</time>
        <extensions><gpxtpx:TrackPointExtension><gpxtpx:hr>157</gpxtpx:hr></gpxtpx:TrackPointExtension></extensions>
      </trkpt>
      <trkpt lat="59.959954898804" lon="15.782588655129">
        <ele>152.2</ele>
        <time>2014-04-29T20:07:50Z</time>
        <extensions><gpxtpx:TrackPointExtension><gpxtpx:hr>157</gpxtpx:hr></gpxtpx:TrackPointExtension></extensions>
      </trkpt>
      <trkpt lat="59.960055984557" lon="15.782637689263">
        <ele>152.4</ele>
        <time>2014-04-29T20:07:54Z</time>
        <extensions><gpxtpx:TrackPointExtension><gpxtpx:hr>158</gpxtpx:hr></gpxtpx:TrackPointExtension></extensions>
      </trkpt>
      <trkpt lat="59.960138546303" lon="15.782678006217">
        <ele>152.8</ele>
        <time>2014-04-29T20:07:57Z</time>
        <extensions><gpxtpx:TrackPointExtension><gpxtpx:hr>157</gpxtpx:hr></gpxtpx:TrackPointExtension></extensions>
      </trkpt>
      <trkpt lat="59.960184982046" lon="15.782719831914">
        <ele>152.8</ele>
        <time>2014-04-29T20:07:59Z</time>
        <extensions><gpxtpx:TrackPointExtension><gpxtpx:hr>156</gpxtpx:hr></gpxtpx:TrackPointExtension></extensions>
      </trkpt>
      <trkpt lat="59.960252288729" lon="15.782790742815">
        <ele>153</ele>
        <time>2014-04-29T20:08:02Z</time>
        <extensions><gpxtpx:TrackPointExtension><gpxtpx:hr>156</gpxtpx:hr></gpxtpx:TrackPointExtension></extensions>
      </trkpt>
      <trkpt lat="59.96029025875" lon="15.782835502177">
        <ele>153.2</ele>
        <time>2014-04-29T20:08:04Z</time>
        <extensions><gpxtpx:TrackPointExtension><gpxtpx:hr>156</gpxtpx:hr></gpxtpx:TrackPointExtension></extensions>
      </trkpt>
      <trkpt lat="59.960332168266" lon="15.782864335924">
        <ele>153.2</ele>
        <time>2014-04-29T20:08:05Z</time>
        <extensions><gpxtpx:TrackPointExtension><gpxtpx:hr>156</gpxtpx:hr></gpxtpx:TrackPointExtension></extensions>
      </trkpt>
      <trkpt lat="59.960419340059" lon="15.782966762781">
        <ele>153.8</ele>
        <time>2014-04-29T20:08:09Z</time>
        <extensions><gpxtpx:TrackPointExtension><gpxtpx:hr>156</gpxtpx:hr></gpxtpx:TrackPointExtension></extensions>
      </trkpt>
      <trkpt lat="59.960515983403" lon="15.783077571541">
        <ele>154.2</ele>
        <time>2014-04-29T20:08:13Z</time>
        <extensions><gpxtpx:TrackPointExtension><gpxtpx:hr>157</gpxtpx:hr></gpxtpx:TrackPointExtension></extensions>
      </trkpt>
      <trkpt lat="59.960533836856" lon="15.783098023385">
        <ele>154.2</ele>
        <time>2014-04-29T20:08:14Z</time>
        <extensions><gpxtpx:TrackPointExtension><gpxtpx:hr>157</gpxtpx:hr></gpxtpx:TrackPointExtension></extensions>
      </trkpt>
      <trkpt lat="59.96066166088" lon="15.783218974248">
        <ele>154.4</ele>
        <time>2014-04-29T20:08:19Z</time>
        <extensions><gpxtpx:TrackPointExtension><gpxtpx:hr>157</gpxtpx:hr></gpxtpx:TrackPointExtension></extensions>
      </trkpt>
      <trkpt lat="59.96068588458" lon="15.783230457455">
        <ele>154.6</ele>
        <time>2014-04-29T20:08:20Z</time>
        <extensions><gpxtpx:TrackPointExtension><gpxtpx:hr>157</gpxtpx:hr></gpxtpx:TrackPointExtension></extensions>
      </trkpt>
      <trkpt lat="59.960735421628" lon="15.783292064443">
        <ele>154.6</ele>
        <time>2014-04-29T20:08:22Z</time>
        <extensions><gpxtpx:TrackPointExtension><gpxtpx:hr>158</gpxtpx:hr></gpxtpx:TrackPointExtension></extensions>
      </trkpt>
      <trkpt lat="59.960842207074" lon="15.783405555412">
        <ele>155</ele>
        <time>2014-04-29T20:08:27Z</time>
        <extensions><gpxtpx:TrackPointExtension><gpxtpx:hr>158</gpxtpx:hr></gpxtpx:TrackPointExtension></extensions>
      </trkpt>
      <trkpt lat="59.960937090218" lon="15.783505551517">
        <ele>155.2</ele>
        <time>2014-04-29T20:08:31Z</time>
        <extensions><gpxtpx:TrackPointExtension><gpxtpx:hr>157</gpxtpx:hr></gpxtpx:TrackPointExtension></extensions>
      </trkpt>
      <trkpt lat="59.960952680558" lon="15.783516447991">
        <ele>155.2</ele>
        <time>2014-04-29T20:08:32Z</time>
        <extensions><gpxtpx:TrackPointExtension><gpxtpx:hr>157</gpxtpx:hr></gpxtpx:TrackPointExtension></extensions>
      </trkpt>
      <trkpt lat="59.96097237803" lon="15.783542767167">
        <ele>155.4</ele>
        <time>2014-04-29T20:08:33Z</time>
        <extensions><gpxtpx:TrackPointExtension><gpxtpx:hr>158</gpxtpx:hr></gpxtpx:TrackPointExtension></extensions>
      </trkpt>
      <trkpt lat="59.961063573137" lon="15.783634549007">
        <ele>155.4</ele>
        <time>2014-04-29T20:08:37Z</time>
        <extensions><gpxtpx:TrackPointExtension><gpxtpx:hr>158</gpxtpx:hr></gpxtpx:TrackPointExtension></extensions>
      </trkpt>
      <trkpt lat="59.96116197668" lon="15.783805958927">
        <ele>155.4</ele>
        <time>2014-04-29T20:08:42Z</time>
        <extensions><gpxtpx:TrackPointExtension><gpxtpx:hr>158</gpxtpx:hr></gpxtpx:TrackPointExtension></extensions>
      </trkpt>
      <trkpt lat="59.96127882041" lon="15.783967310563">
        <ele>155.4</ele>
        <time>2014-04-29T20:08:47Z</time>
        <extensions><gpxtpx:TrackPointExtension><gpxtpx:hr>158</gpxtpx:hr></gpxtpx:TrackPointExtension></extensions>
      </trkpt>
      <trkpt lat="59.961390634999" lon="15.784143079072">
        <ele>156</ele>
        <time>2014-04-29T20:08:53Z</time>
        <extensions><gpxtpx:TrackPointExtension><gpxtpx:hr>158</gpxtpx:hr></gpxtpx:TrackPointExtension></extensions>
      </trkpt>
      <trkpt lat="59.961463976651" lon="15.784256905317">
        <ele>156</ele>
        <time>2014-04-29T20:08:57Z</time>
        <extensions><gpxtpx:TrackPointExtension><gpxtpx:hr>158</gpxtpx:hr></gpxtpx:TrackPointExtension></extensions>
      </trkpt>
      <trkpt lat="59.961499264464" lon="15.784314153716">
        <ele>156.4</ele>
        <time>2014-04-29T20:08:59Z</time>
        <extensions><gpxtpx:TrackPointExtension><gpxtpx:hr>157</gpxtpx:hr></gpxtpx:TrackPointExtension></extensions>
      </trkpt>
      <trkpt lat="59.961513597518" lon="15.784328738227">
        <ele>156.4</ele>
        <time>2014-04-29T20:09:00Z</time>
        <extensions><gpxtpx:TrackPointExtension><gpxtpx:hr>158</gpxtpx:hr></gpxtpx:TrackPointExtension></extensions>
      </trkpt>
      <trkpt lat="59.961540503427" lon="15.784390345216">
        <ele>156.6</ele>
        <time>2014-04-29T20:09:02Z</time>
        <extensions><gpxtpx:TrackPointExtension><gpxtpx:hr>158</gpxtpx:hr></gpxtpx:TrackPointExtension></extensions>
      </trkpt>
      <trkpt lat="59.961575120687" lon="15.78446360305">
        <ele>156.8</ele>
        <time>2014-04-29T20:09:04Z</time>
        <extensions><gpxtpx:TrackPointExtension><gpxtpx:hr>157</gpxtpx:hr></gpxtpx:TrackPointExtension></extensions>
      </trkpt>
      <trkpt lat="59.961631279439" lon="15.784533927217">
        <ele>157</ele>
        <time>2014-04-29T20:09:07Z</time>
        <extensions><gpxtpx:TrackPointExtension><gpxtpx:hr>158</gpxtpx:hr></gpxtpx:TrackPointExtension></extensions>
      </trkpt>
      <trkpt lat="59.961642092094" lon="15.784570388496">
        <ele>157.2</ele>
        <time>2014-04-29T20:09:08Z</time>
        <extensions><gpxtpx:TrackPointExtension><gpxtpx:hr>158</gpxtpx:hr></gpxtpx:TrackPointExtension></extensions>
      </trkpt>
      <trkpt lat="59.961671596393" lon="15.784640964121">
        <ele>157.2</ele>
        <time>2014-04-29T20:09:10Z</time>
        <extensions><gpxtpx:TrackPointExtension><gpxtpx:hr>157</gpxtpx:hr></gpxtpx:TrackPointExtension></extensions>
      </trkpt>
      <trkpt lat="59.961707722396" lon="15.784684801474">
        <ele>157.6</ele>
        <time>2014-04-29T20:09:12Z</time>
        <extensions><gpxtpx:TrackPointExtension><gpxtpx:hr>158</gpxtpx:hr></gpxtpx:TrackPointExtension></extensions>
      </trkpt>
      <trkpt lat="59.961745608598" lon="15.784710785374">
        <ele>158.2</ele>
        <time>2014-04-29T20:09:14Z</time>
        <extensions><gpxtpx:TrackPointExtension><gpxtpx:hr>158</gpxtpx:hr></gpxtpx:TrackPointExtension></extensions>
      </trkpt>
      <trkpt lat="59.961813669652" lon="15.784827210009">
        <ele>158.6</ele>
        <time>2014-04-29T20:09:18Z</time>
        <extensions><gpxtpx:TrackPointExtension><gpxtpx:hr>158</gpxtpx:hr></gpxtpx:TrackPointExtension></extensions>
      </trkpt>
      <trkpt lat="59.961828840896" lon="15.784848667681">
        <ele>158.8</ele>
        <time>2014-04-29T20:09:19Z</time>
        <extensions><gpxtpx:TrackPointExtension><gpxtpx:hr>157</gpxtpx:hr></gpxtpx:TrackPointExtension></extensions>
      </trkpt>
      <trkpt lat="59.961901847273" lon="15.784932570532">
        <ele>159.6</ele>
        <time>2014-04-29T20:09:23Z</time>
        <extensions><gpxtpx:TrackPointExtension><gpxtpx:hr>157</gpxtpx:hr></gpxtpx:TrackPointExtension></extensions>
      </trkpt>
      <trkpt lat="59.961916599423" lon="15.784957380965">
        <ele>160</ele>
        <time>2014-04-29T20:09:24Z</time>
        <extensions><gpxtpx:TrackPointExtension><gpxtpx:hr>157</gpxtpx:hr></gpxtpx:TrackPointExtension></extensions>
      </trkpt>
      <trkpt lat="59.962002681568" lon="15.785054108128">
        <ele>160.8</ele>
        <time>2014-04-29T20:09:27Z</time>
        <extensions><gpxtpx:TrackPointExtension><gpxtpx:hr>157</gpxtpx:hr></gpxtpx:TrackPointExtension></extensions>
      </trkpt>
      <trkpt lat="59.962056493387" lon="15.785111691803">
        <ele>161.2</ele>
        <time>2014-04-29T20:09:29Z</time>
        <extensions><gpxtpx:TrackPointExtension><gpxtpx:hr>157</gpxtpx:hr></gpxtpx:TrackPointExtension></extensions>
      </trkpt>
      <trkpt lat="59.962102593854" lon="15.785171957687">
        <ele>161.8</ele>
        <time>2014-04-29T20:09:31Z</time>
        <extensions><gpxtpx:TrackPointExtension><gpxtpx:hr>157</gpxtpx:hr></gpxtpx:TrackPointExtension></extensions>
      </trkpt>
      <trkpt lat="59.962169481441" lon="15.785251753405">
        <ele>162.2</ele>
        <time>2014-04-29T20:09:34Z</time>
        <extensions><gpxtpx:TrackPointExtension><gpxtpx:hr>158</gpxtpx:hr></gpxtpx:TrackPointExtension></extensions>
      </trkpt>
      <trkpt lat="59.962237039581" lon="15.785334818065">
        <ele>162.4</ele>
        <time>2014-04-29T20:09:38Z</time>
        <extensions><gpxtpx:TrackPointExtension><gpxtpx:hr>159</gpxtpx:hr></gpxtpx:TrackPointExtension></extensions>
      </trkpt>
      <trkpt lat="59.962274674326" lon="15.785385528579">
        <ele>162.8</ele>
        <time>2014-04-29T20:09:40Z</time>
        <extensions><gpxtpx:TrackPointExtension><gpxtpx:hr>160</gpxtpx:hr></gpxtpx:TrackPointExtension></extensions>
      </trkpt>
      <trkpt lat="59.962339969352" lon="15.785458283499">
        <ele>163</ele>
        <time>2014-04-29T20:09:43Z</time>
        <extensions><gpxtpx:TrackPointExtension><gpxtpx:hr>161</gpxtpx:hr></gpxtpx:TrackPointExtension></extensions>
      </trkpt>
      <trkpt lat="59.962467122823" lon="15.785626173019">
        <ele>163.4</ele>
        <time>2014-04-29T20:09:49Z</time>
        <extensions><gpxtpx:TrackPointExtension><gpxtpx:hr>161</gpxtpx:hr></gpxtpx:TrackPointExtension></extensions>
      </trkpt>
      <trkpt lat="59.96254532598" lon="15.785759361461">
        <ele>163.4</ele>
        <time>2014-04-29T20:09:53Z</time>
        <extensions><gpxtpx:TrackPointExtension><gpxtpx:hr>161</gpxtpx:hr></gpxtpx:TrackPointExtension></extensions>
      </trkpt>
      <trkpt lat="59.962552031502" lon="15.785808647051">
        <ele>163.4</ele>
        <time>2014-04-29T20:09:54Z</time>
        <extensions><gpxtpx:TrackPointExtension><gpxtpx:hr>161</gpxtpx:hr></gpxtpx:TrackPointExtension></extensions>
      </trkpt>
      <trkpt lat="59.962583715096" lon="15.785833541304">
        <ele>163.6</ele>
        <time>2014-04-29T20:09:55Z</time>
        <extensions><gpxtpx:TrackPointExtension><gpxtpx:hr>161</gpxtpx:hr></gpxtpx:TrackPointExtension></extensions>
      </trkpt>
      <trkpt lat="59.962631911039" lon="15.785941416398">
        <ele>163.6</ele>
        <time>2014-04-29T20:09:58Z</time>
        <extensions><gpxtpx:TrackPointExtension><gpxtpx:hr>160</gpxtpx:hr></gpxtpx:TrackPointExtension></extensions>
      </trkpt>
      <trkpt lat="59.962675329298" lon="15.786098828539">
        <ele>163.6</ele>
        <time>2014-04-29T20:10:01Z</time>
        <extensions><gpxtpx:TrackPointExtension><gpxtpx:hr>159</gpxtpx:hr></gpxtpx:TrackPointExtension></extensions>
      </trkpt>
      <trkpt lat="59.962688321248" lon="15.7861281652">
        <ele>163.6</ele>
        <time>2014-04-29T20:10:02Z</time>
        <extensions><gpxtpx:TrackPointExtension><gpxtpx:hr>159</gpxtpx:hr></gpxtpx:TrackPointExtension></extensions>
      </trkpt>
      <trkpt lat="59.962740205228" lon="15.786271076649">
        <ele>163.8</ele>
        <time>2014-04-29T20:10:05Z</time>
        <extensions><gpxtpx:TrackPointExtension><gpxtpx:hr>159</gpxtpx:hr></gpxtpx:TrackPointExtension></extensions>
      </trkpt>
      <trkpt lat="59.962753280997" lon="15.786303263158">
        <ele>163.8</ele>
        <time>2014-04-29T20:10:06Z</time>
        <extensions><gpxtpx:TrackPointExtension><gpxtpx:hr>159</gpxtpx:hr></gpxtpx:TrackPointExtension></extensions>
      </trkpt>
      <trkpt lat="59.962828299031" lon="15.786523120478">
        <ele>164</ele>
        <time>2014-04-29T20:10:11Z</time>
        <extensions><gpxtpx:TrackPointExtension><gpxtpx:hr>159</gpxtpx:hr></gpxtpx:TrackPointExtension></extensions>
      </trkpt>
      <trkpt lat="59.962867861614" lon="15.786642143503">
        <ele>164.2</ele>
        <time>2014-04-29T20:10:14Z</time>
        <extensions><gpxtpx:TrackPointExtension><gpxtpx:hr>159</gpxtpx:hr></gpxtpx:TrackPointExtension></extensions>
      </trkpt>
      <trkpt lat="59.962907843292" lon="15.786735769361">
        <ele>164.2</ele>
        <time>2014-04-29T20:10:16Z</time>
        <extensions><gpxtpx:TrackPointExtension><gpxtpx:hr>159</gpxtpx:hr></gpxtpx:TrackPointExtension></extensions>
      </trkpt>
      <trkpt lat="59.962982861325" lon="15.786933247">
        <ele>164.4</ele>
        <time>2014-04-29T20:10:21Z</time>
        <extensions><gpxtpx:TrackPointExtension><gpxtpx:hr>161</gpxtpx:hr></gpxtpx:TrackPointExtension></extensions>
      </trkpt>
      <trkpt lat="59.963042791933" lon="15.787084624171">
        <ele>165</ele>
        <time>2014-04-29T20:10:25Z</time>
        <extensions><gpxtpx:TrackPointExtension><gpxtpx:hr>161</gpxtpx:hr></gpxtpx:TrackPointExtension></extensions>
      </trkpt>
      <trkpt lat="59.963069362566" lon="15.787158384919">
        <ele>165.4</ele>
        <time>2014-04-29T20:10:27Z</time>
        <extensions><gpxtpx:TrackPointExtension><gpxtpx:hr>161</gpxtpx:hr></gpxtpx:TrackPointExtension></extensions>
      </trkpt>
      <trkpt lat="59.96310967952" lon="15.787269193679">
        <ele>166</ele>
        <time>2014-04-29T20:10:30Z</time>
        <extensions><gpxtpx:TrackPointExtension><gpxtpx:hr>161</gpxtpx:hr></gpxtpx:TrackPointExtension></extensions>
      </trkpt>
      <trkpt lat="59.963134154677" lon="15.787344379351">
        <ele>166.4</ele>
        <time>2014-04-29T20:10:32Z</time>
        <extensions><gpxtpx:TrackPointExtension><gpxtpx:hr>161</gpxtpx:hr></gpxtpx:TrackPointExtension></extensions>
      </trkpt>
      <trkpt lat="59.963213950396" lon="15.787550741807">
        <ele>167</ele>
        <time>2014-04-29T20:10:37Z</time>
        <extensions><gpxtpx:TrackPointExtension><gpxtpx:hr>162</gpxtpx:hr></gpxtpx:TrackPointExtension></extensions>
      </trkpt>
      <trkpt lat="59.963229037821" lon="15.787589214742">
        <ele>167</ele>
        <time>2014-04-29T20:10:38Z</time>
        <extensions><gpxtpx:TrackPointExtension><gpxtpx:hr>162</gpxtpx:hr></gpxtpx:TrackPointExtension></extensions>
      </trkpt>
      <trkpt lat="59.963298104703" lon="15.7877365686">
        <ele>167.8</ele>
        <time>2014-04-29T20:10:42Z</time>
        <extensions><gpxtpx:TrackPointExtension><gpxtpx:hr>162</gpxtpx:hr></gpxtpx:TrackPointExtension></extensions>
      </trkpt>
      <trkpt lat="59.963346300647" lon="15.787849305198">
        <ele>168</ele>
        <time>2014-04-29T20:10:45Z</time>
        <extensions><gpxtpx:TrackPointExtension><gpxtpx:hr>162</gpxtpx:hr></gpxtpx:TrackPointExtension></extensions>
      </trkpt>
      <trkpt lat="59.963381169364" lon="15.787903284654">
        <ele>168.2</ele>
        <time>2014-04-29T20:10:47Z</time>
        <extensions><gpxtpx:TrackPointExtension><gpxtpx:hr>161</gpxtpx:hr></gpxtpx:TrackPointExtension></extensions>
      </trkpt>
      <trkpt lat="59.963433807716" lon="15.788068743423">
        <ele>168.8</ele>
        <time>2014-04-29T20:10:51Z</time>
        <extensions><gpxtpx:TrackPointExtension><gpxtpx:hr>161</gpxtpx:hr></gpxtpx:TrackPointExtension></extensions>
      </trkpt>
      <trkpt lat="59.963538330048" lon="15.78834082">
        <ele>168.4</ele>
        <time>2014-04-29T20:10:58Z</time>
        <extensions><gpxtpx:TrackPointExtension><gpxtpx:hr>160</gpxtpx:hr></gpxtpx:TrackPointExtension></extensions>
      </trkpt>
      <trkpt lat="59.963644780219" lon="15.788430674002">
        <ele>168</ele>
        <time>2014-04-29T20:11:02Z</time>
        <extensions><gpxtpx:TrackPointExtension><gpxtpx:hr>160</gpxtpx:hr></gpxtpx:TrackPointExtension></extensions>
      </trkpt>
      <trkpt lat="59.963700603694" lon="15.78848624602">
        <ele>168</ele>
        <time>2014-04-29T20:11:04Z</time>
        <extensions><gpxtpx:TrackPointExtension><gpxtpx:hr>160</gpxtpx:hr></gpxtpx:TrackPointExtension></extensions>
      </trkpt>
      <trkpt lat="59.963784338906" lon="15.788547433913">
        <ele>168.4</ele>
        <time>2014-04-29T20:11:08Z</time>
        <extensions><gpxtpx:TrackPointExtension><gpxtpx:hr>160</gpxtpx:hr></gpxtpx:TrackPointExtension></extensions>
      </trkpt>
      <trkpt lat="59.963876204565" lon="15.788566796109">
        <ele>168.4</ele>
        <time>2014-04-29T20:11:12Z</time>
        <extensions><gpxtpx:TrackPointExtension><gpxtpx:hr>160</gpxtpx:hr></gpxtpx:TrackPointExtension></extensions>
      </trkpt>
      <trkpt lat="59.964002519846" lon="15.788540896028">
        <ele>168.6</ele>
        <time>2014-04-29T20:11:18Z</time>
        <extensions><gpxtpx:TrackPointExtension><gpxtpx:hr>160</gpxtpx:hr></gpxtpx:TrackPointExtension></extensions>
      </trkpt>
      <trkpt lat="59.964115256444" lon="15.788500411436">
        <ele>168.8</ele>
        <time>2014-04-29T20:11:23Z</time>
        <extensions><gpxtpx:TrackPointExtension><gpxtpx:hr>160</gpxtpx:hr></gpxtpx:TrackPointExtension></extensions>
      </trkpt>
      <trkpt lat="59.964187089354" lon="15.788484653458">
        <ele>169</ele>
        <time>2014-04-29T20:11:27Z</time>
        <extensions><gpxtpx:TrackPointExtension><gpxtpx:hr>160</gpxtpx:hr></gpxtpx:TrackPointExtension></extensions>
      </trkpt>
      <trkpt lat="59.964199746028" lon="15.788482641801">
        <ele>169.2</ele>
        <time>2014-04-29T20:11:28Z</time>
        <extensions><gpxtpx:TrackPointExtension><gpxtpx:hr>160</gpxtpx:hr></gpxtpx:TrackPointExtension></extensions>
      </trkpt>
      <trkpt lat="59.964282307774" lon="15.78847065568">
        <ele>170.2</ele>
        <time>2014-04-29T20:11:32Z</time>
        <extensions><gpxtpx:TrackPointExtension><gpxtpx:hr>160</gpxtpx:hr></gpxtpx:TrackPointExtension></extensions>
      </trkpt>
      <trkpt lat="59.964306615293" lon="15.788481133059">
        <ele>170.6</ele>
        <time>2014-04-29T20:11:33Z</time>
        <extensions><gpxtpx:TrackPointExtension><gpxtpx:hr>160</gpxtpx:hr></gpxtpx:TrackPointExtension></extensions>
      </trkpt>
      <trkpt lat="59.964383477345" lon="15.788513738662">
        <ele>171.4</ele>
        <time>2014-04-29T20:11:37Z</time>
        <extensions><gpxtpx:TrackPointExtension><gpxtpx:hr>161</gpxtpx:hr></gpxtpx:TrackPointExtension></extensions>
      </trkpt>
      <trkpt lat="59.964441731572" lon="15.788531340659">
        <ele>172</ele>
        <time>2014-04-29T20:11:40Z</time>
        <extensions><gpxtpx:TrackPointExtension><gpxtpx:hr>161</gpxtpx:hr></gpxtpx:TrackPointExtension></extensions>
      </trkpt>
      <trkpt lat="59.964505266398" lon="15.788527904078">
        <ele>172.6</ele>
        <time>2014-04-29T20:11:43Z</time>
        <extensions><gpxtpx:TrackPointExtension><gpxtpx:hr>161</gpxtpx:hr></gpxtpx:TrackPointExtension></extensions>
      </trkpt>
      <trkpt lat="59.9645449128" lon="15.788535783067">
        <ele>173</ele>
        <time>2014-04-29T20:11:45Z</time>
        <extensions><gpxtpx:TrackPointExtension><gpxtpx:hr>161</gpxtpx:hr></gpxtpx:TrackPointExtension></extensions>
      </trkpt>
      <trkpt lat="59.964603669941" lon="15.788549110293">
        <ele>173.2</ele>
        <time>2014-04-29T20:11:48Z</time>
        <extensions><gpxtpx:TrackPointExtension><gpxtpx:hr>161</gpxtpx:hr></gpxtpx:TrackPointExtension></extensions>
      </trkpt>
      <trkpt lat="59.964677682146" lon="15.788549613208">
        <ele>173.6</ele>
        <time>2014-04-29T20:11:51Z</time>
        <extensions><gpxtpx:TrackPointExtension><gpxtpx:hr>161</gpxtpx:hr></gpxtpx:TrackPointExtension></extensions>
      </trkpt>
      <trkpt lat="59.964700229466" lon="15.788548104465">
        <ele>173.6</ele>
        <time>2014-04-29T20:11:52Z</time>
        <extensions><gpxtpx:TrackPointExtension><gpxtpx:hr>161</gpxtpx:hr></gpxtpx:TrackPointExtension></extensions>
      </trkpt>
      <trkpt lat="59.964830987155" lon="15.788528239354">
        <ele>174.2</ele>
        <time>2014-04-29T20:11:58Z</time>
        <extensions><gpxtpx:TrackPointExtension><gpxtpx:hr>160</gpxtpx:hr></gpxtpx:TrackPointExtension></extensions>
      </trkpt>
      <trkpt lat="59.964925199747" lon="15.788518851623">
        <ele>174.6</ele>
        <time>2014-04-29T20:12:02Z</time>
        <extensions><gpxtpx:TrackPointExtension><gpxtpx:hr>161</gpxtpx:hr></gpxtpx:TrackPointExtension></extensions>
      </trkpt>
      <trkpt lat="59.964953865856" lon="15.788527820259">
        <ele>174.8</ele>
        <time>2014-04-29T20:12:03Z</time>
        <extensions><gpxtpx:TrackPointExtension><gpxtpx:hr>161</gpxtpx:hr></gpxtpx:TrackPointExtension></extensions>
      </trkpt>
      <trkpt lat="59.965068195015" lon="15.788528742269">
        <ele>175</ele>
        <time>2014-04-29T20:12:08Z</time>
        <extensions><gpxtpx:TrackPointExtension><gpxtpx:hr>162</gpxtpx:hr></gpxtpx:TrackPointExtension></extensions>
      </trkpt>
      <trkpt lat="59.965252093971" lon="15.788595881313">
        <ele>175.2</ele>
        <time>2014-04-29T20:12:15Z</time>
        <extensions><gpxtpx:TrackPointExtension><gpxtpx:hr>161</gpxtpx:hr></gpxtpx:TrackPointExtension></extensions>
      </trkpt>
      <trkpt lat="59.965430377051" lon="15.788679616526">
        <ele>175.4</ele>
        <time>2014-04-29T20:12:22Z</time>
        <extensions><gpxtpx:TrackPointExtension><gpxtpx:hr>160</gpxtpx:hr></gpxtpx:TrackPointExtension></extensions>
      </trkpt>
      <trkpt lat="59.965549819171" lon="15.788715993986">
        <ele>175.4</ele>
        <time>2014-04-29T20:12:27Z</time>
        <extensions><gpxtpx:TrackPointExtension><gpxtpx:hr>161</gpxtpx:hr></gpxtpx:TrackPointExtension></extensions>
      </trkpt>
      <trkpt lat="59.965695161372" lon="15.788774248213">
        <ele>175</ele>
        <time>2014-04-29T20:12:33Z</time>
        <extensions><gpxtpx:TrackPointExtension><gpxtpx:hr>161</gpxtpx:hr></gpxtpx:TrackPointExtension></extensions>
      </trkpt>
      <trkpt lat="59.965842599049" lon="15.78883769922">
        <ele>175</ele>
        <time>2014-04-29T20:12:39Z</time>
        <extensions><gpxtpx:TrackPointExtension><gpxtpx:hr>159</gpxtpx:hr></gpxtpx:TrackPointExtension></extensions>
      </trkpt>
      <trkpt lat="59.965948043391" lon="15.788873070851">
        <ele>174.6</ele>
        <time>2014-04-29T20:12:43Z</time>
        <extensions><gpxtpx:TrackPointExtension><gpxtpx:hr>159</gpxtpx:hr></gpxtpx:TrackPointExtension></extensions>
      </trkpt>
      <trkpt lat="59.966141832992" lon="15.788955045864">
        <ele>175</ele>
        <time>2014-04-29T20:12:51Z</time>
        <extensions><gpxtpx:TrackPointExtension><gpxtpx:hr>158</gpxtpx:hr></gpxtpx:TrackPointExtension></extensions>
      </trkpt>
      <trkpt lat="59.966259850189" lon="15.789000140503">
        <ele>175.4</ele>
        <time>2014-04-29T20:12:56Z</time>
        <extensions><gpxtpx:TrackPointExtension><gpxtpx:hr>159</gpxtpx:hr></gpxtpx:TrackPointExtension></extensions>
      </trkpt>
      <trkpt lat="59.966287594289" lon="15.789014892653">
        <ele>175.4</ele>
        <time>2014-04-29T20:12:57Z</time>
        <extensions><gpxtpx:TrackPointExtension><gpxtpx:hr>159</gpxtpx:hr></gpxtpx:TrackPointExtension></extensions>
      </trkpt>
      <trkpt lat="59.966384237632" lon="15.789074655622">
        <ele>175.6</ele>
        <time>2014-04-29T20:13:01Z</time>
        <extensions><gpxtpx:TrackPointExtension><gpxtpx:hr>159</gpxtpx:hr></gpxtpx:TrackPointExtension></extensions>
      </trkpt>
      <trkpt lat="59.966438300908" lon="15.789092341438">
        <ele>175.8</ele>
        <time>2014-04-29T20:13:03Z</time>
        <extensions><gpxtpx:TrackPointExtension><gpxtpx:hr>159</gpxtpx:hr></gpxtpx:TrackPointExtension></extensions>
      </trkpt>
      <trkpt lat="59.966460345313" lon="15.78909996897">
        <ele>175.8</ele>
        <time>2014-04-29T20:13:04Z</time>
        <extensions><gpxtpx:TrackPointExtension><gpxtpx:hr>159</gpxtpx:hr></gpxtpx:TrackPointExtension></extensions>
      </trkpt>
      <trkpt lat="59.966501500458" lon="15.789108853787">
        <ele>175.8</ele>
        <time>2014-04-29T20:13:05Z</time>
        <extensions><gpxtpx:TrackPointExtension><gpxtpx:hr>159</gpxtpx:hr></gpxtpx:TrackPointExtension></extensions>
      </trkpt>
      <trkpt lat="59.966607699171" lon="15.789176411927">
        <ele>175.8</ele>
        <time>2014-04-29T20:13:09Z</time>
        <extensions><gpxtpx:TrackPointExtension><gpxtpx:hr>158</gpxtpx:hr></gpxtpx:TrackPointExtension></extensions>
      </trkpt>
      <trkpt lat="59.966734685004" lon="15.789340697229">
        <ele>175.2</ele>
        <time>2014-04-29T20:13:15Z</time>
        <extensions><gpxtpx:TrackPointExtension><gpxtpx:hr>157</gpxtpx:hr></gpxtpx:TrackPointExtension></extensions>
      </trkpt>
      <trkpt lat="59.966841554269" lon="15.789495259523">
        <ele>175</ele>
        <time>2014-04-29T20:13:20Z</time>
        <extensions><gpxtpx:TrackPointExtension><gpxtpx:hr>158</gpxtpx:hr></gpxtpx:TrackPointExtension></extensions>
      </trkpt>
      <trkpt lat="59.966945154592" lon="15.789619060233">
        <ele>174.8</ele>
        <time>2014-04-29T20:13:25Z</time>
        <extensions><gpxtpx:TrackPointExtension><gpxtpx:hr>157</gpxtpx:hr></gpxtpx:TrackPointExtension></extensions>
      </trkpt>
      <trkpt lat="59.967016736045" lon="15.789666837081">
        <ele>174.8</ele>
        <time>2014-04-29T20:13:28Z</time>
        <extensions><gpxtpx:TrackPointExtension><gpxtpx:hr>156</gpxtpx:hr></gpxtpx:TrackPointExtension></extensions>
      </trkpt>
      <trkpt lat="59.967137938365" lon="15.789734981954">
        <ele>174.8</ele>
        <time>2014-04-29T20:13:33Z</time>
        <extensions><gpxtpx:TrackPointExtension><gpxtpx:hr>157</gpxtpx:hr></gpxtpx:TrackPointExtension></extensions>
      </trkpt>
      <trkpt lat="59.967295518145" lon="15.789820561185">
        <ele>175</ele>
        <time>2014-04-29T20:13:40Z</time>
        <extensions><gpxtpx:TrackPointExtension><gpxtpx:hr>157</gpxtpx:hr></gpxtpx:TrackPointExtension></extensions>
      </trkpt>
      <trkpt lat="59.967430466786" lon="15.789883257821">
        <ele>175.4</ele>
        <time>2014-04-29T20:13:45Z</time>
        <extensions><gpxtpx:TrackPointExtension><gpxtpx:hr>158</gpxtpx:hr></gpxtpx:TrackPointExtension></extensions>
      </trkpt>
      <trkpt lat="59.967576647177" lon="15.789994820952">
        <ele>175.4</ele>
        <time>2014-04-29T20:13:51Z</time>
        <extensions><gpxtpx:TrackPointExtension><gpxtpx:hr>158</gpxtpx:hr></gpxtpx:TrackPointExtension></extensions>
      </trkpt>
      <trkpt lat="59.967706734315" lon="15.790207805112">
        <ele>175.8</ele>
        <time>2014-04-29T20:13:57Z</time>
        <extensions><gpxtpx:TrackPointExtension><gpxtpx:hr>159</gpxtpx:hr></gpxtpx:TrackPointExtension></extensions>
      </trkpt>
      <trkpt lat="59.967826846987" lon="15.790432523936">
        <ele>177.2</ele>
        <time>2014-04-29T20:14:03Z</time>
        <extensions><gpxtpx:TrackPointExtension><gpxtpx:hr>160</gpxtpx:hr></gpxtpx:TrackPointExtension></extensions>
      </trkpt>
      <trkpt lat="59.967961879447" lon="15.790673000738">
        <ele>178</ele>
        <time>2014-04-29T20:14:10Z</time>
        <extensions><gpxtpx:TrackPointExtension><gpxtpx:hr>161</gpxtpx:hr></gpxtpx:TrackPointExtension></extensions>
      </trkpt>
      <trkpt lat="59.968073526397" lon="15.790820689872">
        <ele>178.2</ele>
        <time>2014-04-29T20:14:15Z</time>
        <extensions><gpxtpx:TrackPointExtension><gpxtpx:hr>161</gpxtpx:hr></gpxtpx:TrackPointExtension></extensions>
      </trkpt>
      <trkpt lat="59.968097917736" lon="15.790846338496">
        <ele>178.2</ele>
        <time>2014-04-29T20:14:16Z</time>
        <extensions><gpxtpx:TrackPointExtension><gpxtpx:hr>161</gpxtpx:hr></gpxtpx:TrackPointExtension></extensions>
      </trkpt>
      <trkpt lat="59.968253988773" lon="15.791044402868">
        <ele>178.6</ele>
        <time>2014-04-29T20:14:23Z</time>
        <extensions><gpxtpx:TrackPointExtension><gpxtpx:hr>161</gpxtpx:hr></gpxtpx:TrackPointExtension></extensions>
      </trkpt>
      <trkpt lat="59.968358511105" lon="15.791213465855">
        <ele>177.8</ele>
        <time>2014-04-29T20:14:28Z</time>
        <extensions><gpxtpx:TrackPointExtension><gpxtpx:hr>160</gpxtpx:hr></gpxtpx:TrackPointExtension></extensions>
      </trkpt>
      <trkpt lat="59.968458423391" lon="15.791459474713">
        <ele>177.4</ele>
        <time>2014-04-29T20:14:33Z</time>
        <extensions><gpxtpx:TrackPointExtension><gpxtpx:hr>161</gpxtpx:hr></gpxtpx:TrackPointExtension></extensions>
      </trkpt>
      <trkpt lat="59.968517431989" lon="15.791669441387">
        <ele>177.2</ele>
        <time>2014-04-29T20:14:37Z</time>
        <extensions><gpxtpx:TrackPointExtension><gpxtpx:hr>161</gpxtpx:hr></gpxtpx:TrackPointExtension></extensions>
      </trkpt>
      <trkpt lat="59.968577614054" lon="15.791878988966">
        <ele>177.2</ele>
        <time>2014-04-29T20:14:41Z</time>
        <extensions><gpxtpx:TrackPointExtension><gpxtpx:hr>160</gpxtpx:hr></gpxtpx:TrackPointExtension></extensions>
      </trkpt>
      <trkpt lat="59.968696217984" lon="15.792153999209">
        <ele>176.8</ele>
        <time>2014-04-29T20:14:47Z</time>
        <extensions><gpxtpx:TrackPointExtension><gpxtpx:hr>158</gpxtpx:hr></gpxtpx:TrackPointExtension></extensions>
      </trkpt>
      <trkpt lat="59.968783557415" lon="15.792345441878">
        <ele>176</ele>
        <time>2014-04-29T20:14:52Z</time>
        <extensions><gpxtpx:TrackPointExtension><gpxtpx:hr>157</gpxtpx:hr></gpxtpx:TrackPointExtension></extensions>
      </trkpt>
      <trkpt lat="59.96891817078" lon="15.79260838218">
        <ele>175.6</ele>
        <time>2014-04-29T20:14:59Z</time>
        <extensions><gpxtpx:TrackPointExtension><gpxtpx:hr>158</gpxtpx:hr></gpxtpx:TrackPointExtension></extensions>
      </trkpt>
      <trkpt lat="59.969076756388" lon="15.792842237279">
        <ele>175.6</ele>
        <time>2014-04-29T20:15:06Z</time>
        <extensions><gpxtpx:TrackPointExtension><gpxtpx:hr>158</gpxtpx:hr></gpxtpx:TrackPointExtension></extensions>
      </trkpt>
      <trkpt lat="59.969144482166" lon="15.793023454025">
        <ele>175.4</ele>
        <time>2014-04-29T20:15:10Z</time>
        <extensions><gpxtpx:TrackPointExtension><gpxtpx:hr>157</gpxtpx:hr></gpxtpx:TrackPointExtension></extensions>
      </trkpt>
      <trkpt lat="59.96920122765" lon="15.793201737106">
        <ele>175</ele>
        <time>2014-04-29T20:15:14Z</time>
        <extensions><gpxtpx:TrackPointExtension><gpxtpx:hr>157</gpxtpx:hr></gpxtpx:TrackPointExtension></extensions>
      </trkpt>
      <trkpt lat="59.969235425815" lon="15.793311037123">
        <ele>174.4</ele>
        <time>2014-04-29T20:15:16Z</time>
        <extensions><gpxtpx:TrackPointExtension><gpxtpx:hr>156</gpxtpx:hr></gpxtpx:TrackPointExtension></extensions>
      </trkpt>
      <trkpt lat="59.969307091087" lon="15.793553190306">
        <ele>173.8</ele>
        <time>2014-04-29T20:15:21Z</time>
        <extensions><gpxtpx:TrackPointExtension><gpxtpx:hr>156</gpxtpx:hr></gpxtpx:TrackPointExtension></extensions>
      </trkpt>
      <trkpt lat="59.969326118007" lon="15.793590741232">
        <ele>173.6</ele>
        <time>2014-04-29T20:15:22Z</time>
        <extensions><gpxtpx:TrackPointExtension><gpxtpx:hr>156</gpxtpx:hr></gpxtpx:TrackPointExtension></extensions>
      </trkpt>
      <trkpt lat="59.969401638955" lon="15.793783441186">
        <ele>172.8</ele>
        <time>2014-04-29T20:15:26Z</time>
        <extensions><gpxtpx:TrackPointExtension><gpxtpx:hr>155</gpxtpx:hr></gpxtpx:TrackPointExtension></extensions>
      </trkpt>
      <trkpt lat="59.969447990879" lon="15.793912019581">
        <ele>172.4</ele>
        <time>2014-04-29T20:15:29Z</time>
        <extensions><gpxtpx:TrackPointExtension><gpxtpx:hr>155</gpxtpx:hr></gpxtpx:TrackPointExtension></extensions>
      </trkpt>
      <trkpt lat="59.969531558454" lon="15.794135145843">
        <ele>171.8</ele>
        <time>2014-04-29T20:15:34Z</time>
        <extensions><gpxtpx:TrackPointExtension><gpxtpx:hr>155</gpxtpx:hr></gpxtpx:TrackPointExtension></extensions>
      </trkpt>
      <trkpt lat="59.969548238441" lon="15.79417001456">
        <ele>171.8</ele>
        <time>2014-04-29T20:15:35Z</time>
        <extensions><gpxtpx:TrackPointExtension><gpxtpx:hr>155</gpxtpx:hr></gpxtpx:TrackPointExtension></extensions>
      </trkpt>
      <trkpt lat="59.969665668905" lon="15.794403199106">
        <ele>171.4</ele>
        <time>2014-04-29T20:15:41Z</time>
        <extensions><gpxtpx:TrackPointExtension><gpxtpx:hr>155</gpxtpx:hr></gpxtpx:TrackPointExtension></extensions>
      </trkpt>
      <trkpt lat="59.969783183187" lon="15.794652141631">
        <ele>171.2</ele>
        <time>2014-04-29T20:15:48Z</time>
        <extensions><gpxtpx:TrackPointExtension><gpxtpx:hr>156</gpxtpx:hr></gpxtpx:TrackPointExtension></extensions>
      </trkpt>
      <trkpt lat="59.969823751599" lon="15.79473529011">
        <ele>171.2</ele>
        <time>2014-04-29T20:15:50Z</time>
        <extensions><gpxtpx:TrackPointExtension><gpxtpx:hr>156</gpxtpx:hr></gpxtpx:TrackPointExtension></extensions>
      </trkpt>
      <trkpt lat="59.969838755205" lon="15.794772002846">
        <ele>171.2</ele>
        <time>2014-04-29T20:15:51Z</time>
        <extensions><gpxtpx:TrackPointExtension><gpxtpx:hr>155</gpxtpx:hr></gpxtpx:TrackPointExtension></extensions>
      </trkpt>
      <trkpt lat="59.969881922007" lon="15.794916674495">
        <ele>171.2</ele>
        <time>2014-04-29T20:15:54Z</time>
        <extensions><gpxtpx:TrackPointExtension><gpxtpx:hr>155</gpxtpx:hr></gpxtpx:TrackPointExtension></extensions>
      </trkpt>
      <trkpt lat="59.969917545095" lon="15.794997140765">
        <ele>171</ele>
        <time>2014-04-29T20:15:56Z</time>
        <extensions><gpxtpx:TrackPointExtension><gpxtpx:hr>155</gpxtpx:hr></gpxtpx:TrackPointExtension></extensions>
      </trkpt>
      <trkpt lat="59.970014188439" lon="15.795207861811">
        <ele>171</ele>
        <time>2014-04-29T20:16:01Z</time>
        <extensions><gpxtpx:TrackPointExtension><gpxtpx:hr>155</gpxtpx:hr></gpxtpx:TrackPointExtension></extensions>
      </trkpt>
      <trkpt lat="59.97002449818" lon="15.795243065804">
        <ele>171</ele>
        <time>2014-04-29T20:16:02Z</time>
        <extensions><gpxtpx:TrackPointExtension><gpxtpx:hr>155</gpxtpx:hr></gpxtpx:TrackPointExtension></extensions>
      </trkpt>
      <trkpt lat="59.970069760457" lon="15.795391257852">
        <ele>170.8</ele>
        <time>2014-04-29T20:16:05Z</time>
        <extensions><gpxtpx:TrackPointExtension><gpxtpx:hr>155</gpxtpx:hr></gpxtpx:TrackPointExtension></extensions>
      </trkpt>
      <trkpt lat="59.970163302496" lon="15.795647408813">
        <ele>171</ele>
        <time>2014-04-29T20:16:11Z</time>
        <extensions><gpxtpx:TrackPointExtension><gpxtpx:hr>155</gpxtpx:hr></gpxtpx:TrackPointExtension></extensions>
      </trkpt>
      <trkpt lat="59.970281990245" lon="15.795893417671">
        <ele>171</ele>
        <time>2014-04-29T20:16:17Z</time>
        <extensions><gpxtpx:TrackPointExtension><gpxtpx:hr>156</gpxtpx:hr></gpxtpx:TrackPointExtension></extensions>
      </trkpt>
      <trkpt lat="59.970358181745" lon="15.796025767922">
        <ele>170.8</ele>
        <time>2014-04-29T20:16:21Z</time>
        <extensions><gpxtpx:TrackPointExtension><gpxtpx:hr>156</gpxtpx:hr></gpxtpx:TrackPointExtension></extensions>
      </trkpt>
      <trkpt lat="59.970393301919" lon="15.796098522842">
        <ele>170.6</ele>
        <time>2014-04-29T20:16:23Z</time>
        <extensions><gpxtpx:TrackPointExtension><gpxtpx:hr>157</gpxtpx:hr></gpxtpx:TrackPointExtension></extensions>
      </trkpt>
      <trkpt lat="59.970451891422" lon="15.796192986891">
        <ele>170.2</ele>
        <time>2014-04-29T20:16:26Z</time>
        <extensions><gpxtpx:TrackPointExtension><gpxtpx:hr>156</gpxtpx:hr></gpxtpx:TrackPointExtension></extensions>
      </trkpt>
      <trkpt lat="59.970559012145" lon="15.796317206696">
        <ele>169.8</ele>
        <time>2014-04-29T20:16:32Z</time>
        <extensions><gpxtpx:TrackPointExtension><gpxtpx:hr>156</gpxtpx:hr></gpxtpx:TrackPointExtension></extensions>
      </trkpt>
      <trkpt lat="59.970575440675" lon="15.796325253323">
        <ele>169.6</ele>
        <time>2014-04-29T20:16:33Z</time>
        <extensions><gpxtpx:TrackPointExtension><gpxtpx:hr>156</gpxtpx:hr></gpxtpx:TrackPointExtension></extensions>
      </trkpt>
      <trkpt lat="59.970712736249" lon="15.796402618289">
        <ele>169</ele>
        <time>2014-04-29T20:16:38Z</time>
        <extensions><gpxtpx:TrackPointExtension><gpxtpx:hr>156</gpxtpx:hr></gpxtpx:TrackPointExtension></extensions>
      </trkpt>
      <trkpt lat="59.970911638811" lon="15.796414604411">
        <ele>168.6</ele>
        <time>2014-04-29T20:16:45Z</time>
        <extensions><gpxtpx:TrackPointExtension><gpxtpx:hr>156</gpxtpx:hr></gpxtpx:TrackPointExtension></extensions>
      </trkpt>
      <trkpt lat="59.970944914967" lon="15.796414855868">
        <ele>168.4</ele>
        <time>2014-04-29T20:16:46Z</time>
        <extensions><gpxtpx:TrackPointExtension><gpxtpx:hr>155</gpxtpx:hr></gpxtpx:TrackPointExtension></extensions>
      </trkpt>
      <trkpt lat="59.971096208319" lon="15.796424578875">
        <ele>167.8</ele>
        <time>2014-04-29T20:16:51Z</time>
        <extensions><gpxtpx:TrackPointExtension><gpxtpx:hr>156</gpxtpx:hr></gpxtpx:TrackPointExtension></extensions>
      </trkpt>
      <trkpt lat="59.971182122827" lon="15.796439331025">
        <ele>167.4</ele>
        <time>2014-04-29T20:16:54Z</time>
        <extensions><gpxtpx:TrackPointExtension><gpxtpx:hr>156</gpxtpx:hr></gpxtpx:TrackPointExtension></extensions>
      </trkpt>
      <trkpt lat="59.971239455044" lon="15.796441007406">
        <ele>167</ele>
        <time>2014-04-29T20:16:56Z</time>
        <extensions><gpxtpx:TrackPointExtension><gpxtpx:hr>156</gpxtpx:hr></gpxtpx:TrackPointExtension></extensions>
      </trkpt>
      <trkpt lat="59.97143022716" lon="15.796493645757">
        <ele>166.6</ele>
        <time>2014-04-29T20:17:03Z</time>
        <extensions><gpxtpx:TrackPointExtension><gpxtpx:hr>156</gpxtpx:hr></gpxtpx:TrackPointExtension></extensions>
      </trkpt>
      <trkpt lat="59.971585879102" lon="15.796500854194">
        <ele>166.2</ele>
        <time>2014-04-29T20:17:09Z</time>
        <extensions><gpxtpx:TrackPointExtension><gpxtpx:hr>156</gpxtpx:hr></gpxtpx:TrackPointExtension></extensions>
      </trkpt>
      <trkpt lat="59.971740944311" lon="15.796450562775">
        <ele>166.2</ele>
        <time>2014-04-29T20:17:15Z</time>
        <extensions><gpxtpx:TrackPointExtension><gpxtpx:hr>157</gpxtpx:hr></gpxtpx:TrackPointExtension></extensions>
      </trkpt>
      <trkpt lat="59.971856698394" lon="15.796353584155">
        <ele>166.2</ele>
        <time>2014-04-29T20:17:20Z</time>
        <extensions><gpxtpx:TrackPointExtension><gpxtpx:hr>157</gpxtpx:hr></gpxtpx:TrackPointExtension></extensions>
      </trkpt>
      <trkpt lat="59.972007740289" lon="15.796195082366">
        <ele>166.4</ele>
        <time>2014-04-29T20:17:26Z</time>
        <extensions><gpxtpx:TrackPointExtension><gpxtpx:hr>157</gpxtpx:hr></gpxtpx:TrackPointExtension></extensions>
      </trkpt>
      <trkpt lat="59.972163811326" lon="15.796052506194">
        <ele>165.8</ele>
        <time>2014-04-29T20:17:32Z</time>
        <extensions><gpxtpx:TrackPointExtension><gpxtpx:hr>157</gpxtpx:hr></gpxtpx:TrackPointExtension></extensions>
      </trkpt>
      <trkpt lat="59.97228551656" lon="15.79596022144">
        <ele>165.2</ele>
        <time>2014-04-29T20:17:37Z</time>
        <extensions><gpxtpx:TrackPointExtension><gpxtpx:hr>156</gpxtpx:hr></gpxtpx:TrackPointExtension></extensions>
      </trkpt>
      <trkpt lat="59.972318625078" lon="15.795939853415">
        <ele>164.8</ele>
        <time>2014-04-29T20:17:38Z</time>
        <extensions><gpxtpx:TrackPointExtension><gpxtpx:hr>156</gpxtpx:hr></gpxtpx:TrackPointExtension></extensions>
      </trkpt>
      <trkpt lat="59.97239456512" lon="15.795903140679">
        <ele>164</ele>
        <time>2014-04-29T20:17:41Z</time>
        <extensions><gpxtpx:TrackPointExtension><gpxtpx:hr>155</gpxtpx:hr></gpxtpx:TrackPointExtension></extensions>
      </trkpt>
      <trkpt lat="59.972477210686" lon="15.795899033546">
        <ele>163</ele>
        <time>2014-04-29T20:17:44Z</time>
        <extensions><gpxtpx:TrackPointExtension><gpxtpx:hr>155</gpxtpx:hr></gpxtpx:TrackPointExtension></extensions>
      </trkpt>
      <trkpt lat="59.972591456026" lon="15.795924011618">
        <ele>162</ele>
        <time>2014-04-29T20:17:48Z</time>
        <extensions><gpxtpx:TrackPointExtension><gpxtpx:hr>154</gpxtpx:hr></gpxtpx:TrackPointExtension></extensions>
      </trkpt>
      <trkpt lat="59.972617439926" lon="15.795929124579">
        <ele>161.6</ele>
        <time>2014-04-29T20:17:49Z</time>
        <extensions><gpxtpx:TrackPointExtension><gpxtpx:hr>154</gpxtpx:hr></gpxtpx:TrackPointExtension></extensions>
      </trkpt>
      <trkpt lat="59.972647698596" lon="15.795961730182">
        <ele>161.4</ele>
        <time>2014-04-29T20:17:50Z</time>
        <extensions><gpxtpx:TrackPointExtension><gpxtpx:hr>154</gpxtpx:hr></gpxtpx:TrackPointExtension></extensions>
      </trkpt>
      <trkpt lat="59.972700253129" lon="15.795997269452">
        <ele>160.8</ele>
        <time>2014-04-29T20:17:52Z</time>
        <extensions><gpxtpx:TrackPointExtension><gpxtpx:hr>154</gpxtpx:hr></gpxtpx:TrackPointExtension></extensions>
      </trkpt>
      <trkpt lat="59.97272003442" lon="15.796017386019">
        <ele>160.8</ele>
        <time>2014-04-29T20:17:53Z</time>
        <extensions><gpxtpx:TrackPointExtension><gpxtpx:hr>153</gpxtpx:hr></gpxtpx:TrackPointExtension></extensions>
      </trkpt>
      <trkpt lat="59.97280058451" lon="15.796125344932">
        <ele>159.8</ele>
        <time>2014-04-29T20:17:56Z</time>
        <extensions><gpxtpx:TrackPointExtension><gpxtpx:hr>153</gpxtpx:hr></gpxtpx:TrackPointExtension></extensions>
      </trkpt>
      <trkpt lat="59.972856156528" lon="15.796234309673">
        <ele>158.8</ele>
        <time>2014-04-29T20:17:59Z</time>
        <extensions><gpxtpx:TrackPointExtension><gpxtpx:hr>152</gpxtpx:hr></gpxtpx:TrackPointExtension></extensions>
      </trkpt>
      <trkpt lat="59.972879290581" lon="15.796292815357">
        <ele>158.6</ele>
        <time>2014-04-29T20:18:00Z</time>
        <extensions><gpxtpx:TrackPointExtension><gpxtpx:hr>152</gpxtpx:hr></gpxtpx:TrackPointExtension></extensions>
      </trkpt>
      <trkpt lat="59.972946597263" lon="15.796549804509">
        <ele>157.6</ele>
        <time>2014-04-29T20:18:05Z</time>
        <extensions><gpxtpx:TrackPointExtension><gpxtpx:hr>151</gpxtpx:hr></gpxtpx:TrackPointExtension></extensions>
      </trkpt>
      <trkpt lat="59.973013987765" lon="15.796890109777">
        <ele>157.2</ele>
        <time>2014-04-29T20:18:11Z</time>
        <extensions><gpxtpx:TrackPointExtension><gpxtpx:hr>151</gpxtpx:hr></gpxtpx:TrackPointExtension></extensions>
      </trkpt>
      <trkpt lat="59.973026979715" lon="15.796951549128">
        <ele>157</ele>
        <time>2014-04-29T20:18:12Z</time>
        <extensions><gpxtpx:TrackPointExtension><gpxtpx:hr>151</gpxtpx:hr></gpxtpx:TrackPointExtension></extensions>
      </trkpt>
      <trkpt lat="59.973083725199" lon="15.797257991508">
        <ele>156.4</ele>
        <time>2014-04-29T20:18:18Z</time>
        <extensions><gpxtpx:TrackPointExtension><gpxtpx:hr>149</gpxtpx:hr></gpxtpx:TrackPointExtension></extensions>
      </trkpt>
      <trkpt lat="59.973106523976" lon="15.7973729074">
        <ele>156.6</ele>
        <time>2014-04-29T20:18:20Z</time>
        <extensions><gpxtpx:TrackPointExtension><gpxtpx:hr>148</gpxtpx:hr></gpxtpx:TrackPointExtension></extensions>
      </trkpt>
      <trkpt lat="59.973181039095" lon="15.797714469954">
        <ele>156.2</ele>
        <time>2014-04-29T20:18:26Z</time>
        <extensions><gpxtpx:TrackPointExtension><gpxtpx:hr>151</gpxtpx:hr></gpxtpx:TrackPointExtension></extensions>
      </trkpt>
      <trkpt lat="59.973192438483" lon="15.797763084993">
        <ele>156.2</ele>
        <time>2014-04-29T20:18:27Z</time>
        <extensions><gpxtpx:TrackPointExtension><gpxtpx:hr>151</gpxtpx:hr></gpxtpx:TrackPointExtension></extensions>
      </trkpt>
      <trkpt lat="59.973232755437" lon="15.797946313396">
        <ele>156.2</ele>
        <time>2014-04-29T20:18:30Z</time>
        <extensions><gpxtpx:TrackPointExtension><gpxtpx:hr>154</gpxtpx:hr></gpxtpx:TrackPointExtension></extensions>
      </trkpt>
      <trkpt lat="59.973266702145" lon="15.798099450767">
        <ele>156.2</ele>
        <time>2014-04-29T20:18:33Z</time>
        <extensions><gpxtpx:TrackPointExtension><gpxtpx:hr>156</gpxtpx:hr></gpxtpx:TrackPointExtension></extensions>
      </trkpt>
      <trkpt lat="59.973351024091" lon="15.798450401053">
        <ele>156.2</ele>
        <time>2014-04-29T20:18:39Z</time>
        <extensions><gpxtpx:TrackPointExtension><gpxtpx:hr>156</gpxtpx:hr></gpxtpx:TrackPointExtension></extensions>
      </trkpt>
      <trkpt lat="59.97338664718" lon="15.7986038737">
        <ele>156.2</ele>
        <time>2014-04-29T20:18:42Z</time>
        <extensions><gpxtpx:TrackPointExtension><gpxtpx:hr>156</gpxtpx:hr></gpxtpx:TrackPointExtension></extensions>
      </trkpt>
      <trkpt lat="59.973482284695" lon="15.798979802057">
        <ele>156</ele>
        <time>2014-04-29T20:18:49Z</time>
        <extensions><gpxtpx:TrackPointExtension><gpxtpx:hr>158</gpxtpx:hr></gpxtpx:TrackPointExtension></extensions>
      </trkpt>
      <trkpt lat="59.97355889529" lon="15.799282221124">
        <ele>155.8</ele>
        <time>2014-04-29T20:18:55Z</time>
        <extensions><gpxtpx:TrackPointExtension><gpxtpx:hr>158</gpxtpx:hr></gpxtpx:TrackPointExtension></extensions>
      </trkpt>
      <trkpt lat="59.973652018234" lon="15.799657981843">
        <ele>155.4</ele>
        <time>2014-04-29T20:19:02Z</time>
        <extensions><gpxtpx:TrackPointExtension><gpxtpx:hr>159</gpxtpx:hr></gpxtpx:TrackPointExtension></extensions>
      </trkpt>
      <trkpt lat="59.973740112036" lon="15.799975572154">
        <ele>155.2</ele>
        <time>2014-04-29T20:19:08Z</time>
        <extensions><gpxtpx:TrackPointExtension><gpxtpx:hr>159</gpxtpx:hr></gpxtpx:TrackPointExtension></extensions>
      </trkpt>
      <trkpt lat="59.973808256909" lon="15.800226693973">
        <ele>154.4</ele>
        <time>2014-04-29T20:19:13Z</time>
        <extensions><gpxtpx:TrackPointExtension><gpxtpx:hr>159</gpxtpx:hr></gpxtpx:TrackPointExtension></extensions>
      </trkpt>
      <trkpt lat="59.97384974733" lon="15.800382932648">
        <ele>154</ele>
        <time>2014-04-29T20:19:16Z</time>
        <extensions><gpxtpx:TrackPointExtension><gpxtpx:hr>158</gpxtpx:hr></gpxtpx:TrackPointExtension></extensions>
      </trkpt>
      <trkpt lat="59.973886292428" lon="15.800520731136">
        <ele>153.4</ele>
        <time>2014-04-29T20:19:19Z</time>
        <extensions><gpxtpx:TrackPointExtension><gpxtpx:hr>158</gpxtpx:hr></gpxtpx:TrackPointExtension></extensions>
      </trkpt>
      <trkpt lat="59.973925268278" lon="15.800675461069">
        <ele>152.8</ele>
        <time>2014-04-29T20:19:22Z</time>
        <extensions><gpxtpx:TrackPointExtension><gpxtpx:hr>157</gpxtpx:hr></gpxtpx:TrackPointExtension></extensions>
      </trkpt>
      <trkpt lat="59.974006908014" lon="15.800967989489">
        <ele>152.2</ele>
        <time>2014-04-29T20:19:28Z</time>
        <extensions><gpxtpx:TrackPointExtension><gpxtpx:hr>157</gpxtpx:hr></gpxtpx:TrackPointExtension></extensions>
      </trkpt>
      <trkpt lat="59.974100617692" lon="15.801285579801">
        <ele>151.6</ele>
        <time>2014-04-29T20:19:35Z</time>
        <extensions><gpxtpx:TrackPointExtension><gpxtpx:hr>157</gpxtpx:hr></gpxtpx:TrackPointExtension></extensions>
      </trkpt>
      <trkpt lat="59.974145544693" lon="15.801436370239">
        <ele>151.2</ele>
        <time>2014-04-29T20:19:38Z</time>
        <extensions><gpxtpx:TrackPointExtension><gpxtpx:hr>156</gpxtpx:hr></gpxtpx:TrackPointExtension></extensions>
      </trkpt>
      <trkpt lat="59.974255179986" lon="15.801746249199">
        <ele>150.6</ele>
        <time>2014-04-29T20:19:45Z</time>
        <extensions><gpxtpx:TrackPointExtension><gpxtpx:hr>156</gpxtpx:hr></gpxtpx:TrackPointExtension></extensions>
      </trkpt>
      <trkpt lat="59.974279738963" lon="15.801832918078">
        <ele>150.2</ele>
        <time>2014-04-29T20:19:47Z</time>
        <extensions><gpxtpx:TrackPointExtension><gpxtpx:hr>156</gpxtpx:hr></gpxtpx:TrackPointExtension></extensions>
      </trkpt>
      <trkpt lat="59.97432843782" lon="15.801980858669">
        <ele>150</ele>
        <time>2014-04-29T20:19:50Z</time>
        <extensions><gpxtpx:TrackPointExtension><gpxtpx:hr>156</gpxtpx:hr></gpxtpx:TrackPointExtension></extensions>
      </trkpt>
      <trkpt lat="59.974387194961" lon="15.802156124264">
        <ele>150.2</ele>
        <time>2014-04-29T20:19:54Z</time>
        <extensions><gpxtpx:TrackPointExtension><gpxtpx:hr>156</gpxtpx:hr></gpxtpx:TrackPointExtension></extensions>
      </trkpt>
      <trkpt lat="59.974487945437" lon="15.802442533895">
        <ele>150</ele>
        <time>2014-04-29T20:20:01Z</time>
        <extensions><gpxtpx:TrackPointExtension><gpxtpx:hr>156</gpxtpx:hr></gpxtpx:TrackPointExtension></extensions>
      </trkpt>
      <trkpt lat="59.974604370072" lon="15.802781246603">
        <ele>149.8</ele>
        <time>2014-04-29T20:20:08Z</time>
        <extensions><gpxtpx:TrackPointExtension><gpxtpx:hr>157</gpxtpx:hr></gpxtpx:TrackPointExtension></extensions>
      </trkpt>
      <trkpt lat="59.974711742252" lon="15.803086683154">
        <ele>149.4</ele>
        <time>2014-04-29T20:20:15Z</time>
        <extensions><gpxtpx:TrackPointExtension><gpxtpx:hr>157</gpxtpx:hr></gpxtpx:TrackPointExtension></extensions>
      </trkpt>
      <trkpt lat="59.974799416959" lon="15.803319364786">
        <ele>149</ele>
        <time>2014-04-29T20:20:20Z</time>
        <extensions><gpxtpx:TrackPointExtension><gpxtpx:hr>158</gpxtpx:hr></gpxtpx:TrackPointExtension></extensions>
      </trkpt>
      <trkpt lat="59.974810983986" lon="15.803348366171">
        <ele>149</ele>
        <time>2014-04-29T20:20:21Z</time>
        <extensions><gpxtpx:TrackPointExtension><gpxtpx:hr>158</gpxtpx:hr></gpxtpx:TrackPointExtension></extensions>
      </trkpt>
      <trkpt lat="59.974918691441" lon="15.803671237081">
        <ele>149.2</ele>
        <time>2014-04-29T20:20:28Z</time>
        <extensions><gpxtpx:TrackPointExtension><gpxtpx:hr>157</gpxtpx:hr></gpxtpx:TrackPointExtension></extensions>
      </trkpt>
      <trkpt lat="59.974927073345" lon="15.803700406104">
        <ele>149</ele>
        <time>2014-04-29T20:20:29Z</time>
        <extensions><gpxtpx:TrackPointExtension><gpxtpx:hr>157</gpxtpx:hr></gpxtpx:TrackPointExtension></extensions>
      </trkpt>
      <trkpt lat="59.975010808557" lon="15.803894866258">
        <ele>148.8</ele>
        <time>2014-04-29T20:20:34Z</time>
        <extensions><gpxtpx:TrackPointExtension><gpxtpx:hr>158</gpxtpx:hr></gpxtpx:TrackPointExtension></extensions>
      </trkpt>
      <trkpt lat="59.97507375665" lon="15.803801491857">
        <ele>149</ele>
        <time>2014-04-29T20:20:37Z</time>
        <extensions><gpxtpx:TrackPointExtension><gpxtpx:hr>157</gpxtpx:hr></gpxtpx:TrackPointExtension></extensions>
      </trkpt>
      <trkpt lat="59.975098734722" lon="15.803756229579">
        <ele>149</ele>
        <time>2014-04-29T20:20:38Z</time>
        <extensions><gpxtpx:TrackPointExtension><gpxtpx:hr>157</gpxtpx:hr></gpxtpx:TrackPointExtension></extensions>
      </trkpt>
      <trkpt lat="59.975220691413" lon="15.803529080003">
        <ele>149.4</ele>
        <time>2014-04-29T20:20:44Z</time>
        <extensions><gpxtpx:TrackPointExtension><gpxtpx:hr>158</gpxtpx:hr></gpxtpx:TrackPointExtension></extensions>
      </trkpt>
      <trkpt lat="59.975344827399" lon="15.803312407807">
        <ele>149.2</ele>
        <time>2014-04-29T20:20:50Z</time>
        <extensions><gpxtpx:TrackPointExtension><gpxtpx:hr>159</gpxtpx:hr></gpxtpx:TrackPointExtension></extensions>
      </trkpt>
      <trkpt lat="59.97550140135" lon="15.80302993767">
        <ele>148.8</ele>
        <time>2014-04-29T20:20:58Z</time>
        <extensions><gpxtpx:TrackPointExtension><gpxtpx:hr>159</gpxtpx:hr></gpxtpx:TrackPointExtension></extensions>
      </trkpt>
      <trkpt lat="59.975629309192" lon="15.802827430889">
        <ele>148.8</ele>
        <time>2014-04-29T20:21:04Z</time>
        <extensions><gpxtpx:TrackPointExtension><gpxtpx:hr>159</gpxtpx:hr></gpxtpx:TrackPointExtension></extensions>
      </trkpt>
      <trkpt lat="59.975781273097" lon="15.802598940209">
        <ele>148</ele>
        <time>2014-04-29T20:21:11Z</time>
        <extensions><gpxtpx:TrackPointExtension><gpxtpx:hr>159</gpxtpx:hr></gpxtpx:TrackPointExtension></extensions>
      </trkpt>
      <trkpt lat="59.975918065757" lon="15.802413448691">
        <ele>148.2</ele>
        <time>2014-04-29T20:21:17Z</time>
        <extensions><gpxtpx:TrackPointExtension><gpxtpx:hr>158</gpxtpx:hr></gpxtpx:TrackPointExtension></extensions>
      </trkpt>
      <trkpt lat="59.97604329139" lon="15.802261903882">
        <ele>148</ele>
        <time>2014-04-29T20:21:22Z</time>
        <extensions><gpxtpx:TrackPointExtension><gpxtpx:hr>159</gpxtpx:hr></gpxtpx:TrackPointExtension></extensions>
      </trkpt>
      <trkpt lat="59.976090397686" lon="15.802205912769">
        <ele>147.8</ele>
        <time>2014-04-29T20:21:24Z</time>
        <extensions><gpxtpx:TrackPointExtension><gpxtpx:hr>158</gpxtpx:hr></gpxtpx:TrackPointExtension></extensions>
      </trkpt>
      <trkpt lat="59.976240014657" lon="15.802040873095">
        <ele>147.4</ele>
        <time>2014-04-29T20:21:30Z</time>
        <extensions><gpxtpx:TrackPointExtension><gpxtpx:hr>158</gpxtpx:hr></gpxtpx:TrackPointExtension></extensions>
      </trkpt>
      <trkpt lat="59.976386697963" lon="15.801890920848">
        <ele>147</ele>
        <time>2014-04-29T20:21:36Z</time>
        <extensions><gpxtpx:TrackPointExtension><gpxtpx:hr>158</gpxtpx:hr></gpxtpx:TrackPointExtension></extensions>
      </trkpt>
      <trkpt lat="59.976406563073" lon="15.801872732118">
        <ele>146.8</ele>
        <time>2014-04-29T20:21:37Z</time>
        <extensions><gpxtpx:TrackPointExtension><gpxtpx:hr>158</gpxtpx:hr></gpxtpx:TrackPointExtension></extensions>
      </trkpt>
      <trkpt lat="59.976546708494" lon="15.801721606404">
        <ele>145.6</ele>
        <time>2014-04-29T20:21:43Z</time>
        <extensions><gpxtpx:TrackPointExtension><gpxtpx:hr>158</gpxtpx:hr></gpxtpx:TrackPointExtension></extensions>
      </trkpt>
      <trkpt lat="59.976575542241" lon="15.801689168438">
        <ele>145.4</ele>
        <time>2014-04-29T20:21:44Z</time>
        <extensions><gpxtpx:TrackPointExtension><gpxtpx:hr>157</gpxtpx:hr></gpxtpx:TrackPointExtension></extensions>
      </trkpt>
      <trkpt lat="59.976733792573" lon="15.801523625851">
        <ele>144.6</ele>
        <time>2014-04-29T20:21:51Z</time>
        <extensions><gpxtpx:TrackPointExtension><gpxtpx:hr>157</gpxtpx:hr></gpxtpx:TrackPointExtension></extensions>
      </trkpt>
      <trkpt lat="59.976759608835" lon="15.801490517333">
        <ele>144.4</ele>
        <time>2014-04-29T20:21:52Z</time>
        <extensions><gpxtpx:TrackPointExtension><gpxtpx:hr>157</gpxtpx:hr></gpxtpx:TrackPointExtension></extensions>
      </trkpt>
      <trkpt lat="59.976888271049" lon="15.801341403276">
        <ele>143.6</ele>
        <time>2014-04-29T20:21:58Z</time>
        <extensions><gpxtpx:TrackPointExtension><gpxtpx:hr>157</gpxtpx:hr></gpxtpx:TrackPointExtension></extensions>
      </trkpt>
      <trkpt lat="59.977009221911" lon="15.801193546504">
        <ele>142.6</ele>
        <time>2014-04-29T20:22:03Z</time>
        <extensions><gpxtpx:TrackPointExtension><gpxtpx:hr>156</gpxtpx:hr></gpxtpx:TrackPointExtension></extensions>
      </trkpt>
      <trkpt lat="59.977047946304" lon="15.801149122417">
        <ele>142.6</ele>
        <time>2014-04-29T20:22:05Z</time>
        <extensions><gpxtpx:TrackPointExtension><gpxtpx:hr>156</gpxtpx:hr></gpxtpx:TrackPointExtension></extensions>
      </trkpt>
      <trkpt lat="59.977217679843" lon="15.80093504861">
        <ele>142</ele>
        <time>2014-04-29T20:22:12Z</time>
        <extensions><gpxtpx:TrackPointExtension><gpxtpx:hr>156</gpxtpx:hr></gpxtpx:TrackPointExtension></extensions>
      </trkpt>
      <trkpt lat="59.977379953489" lon="15.800720220432">
        <ele>141.6</ele>
        <time>2014-04-29T20:22:19Z</time>
        <extensions><gpxtpx:TrackPointExtension><gpxtpx:hr>156</gpxtpx:hr></gpxtpx:TrackPointExtension></extensions>
      </trkpt>
      <trkpt lat="59.977429071441" lon="15.800651405007">
        <ele>141.4</ele>
        <time>2014-04-29T20:22:21Z</time>
        <extensions><gpxtpx:TrackPointExtension><gpxtpx:hr>155</gpxtpx:hr></gpxtpx:TrackPointExtension></extensions>
      </trkpt>
      <trkpt lat="59.977523200214" lon="15.800499692559">
        <ele>141</ele>
        <time>2014-04-29T20:22:25Z</time>
        <extensions><gpxtpx:TrackPointExtension><gpxtpx:hr>156</gpxtpx:hr></gpxtpx:TrackPointExtension></extensions>
      </trkpt>
      <trkpt lat="59.977594362572" lon="15.800368599594">
        <ele>140.4</ele>
        <time>2014-04-29T20:22:28Z</time>
        <extensions><gpxtpx:TrackPointExtension><gpxtpx:hr>156</gpxtpx:hr></gpxtpx:TrackPointExtension></extensions>
      </trkpt>
      <trkpt lat="59.97765253298" lon="15.800247816369">
        <ele>140.4</ele>
        <time>2014-04-29T20:22:31Z</time>
        <extensions><gpxtpx:TrackPointExtension><gpxtpx:hr>156</gpxtpx:hr></gpxtpx:TrackPointExtension></extensions>
      </trkpt>
      <trkpt lat="59.977747164667" lon="15.800023097545">
        <ele>140.2</ele>
        <time>2014-04-29T20:22:36Z</time>
        <extensions><gpxtpx:TrackPointExtension><gpxtpx:hr>157</gpxtpx:hr></gpxtpx:TrackPointExtension></extensions>
      </trkpt>
      <trkpt lat="59.977856380865" lon="15.799785805866">
        <ele>139.8</ele>
        <time>2014-04-29T20:22:42Z</time>
        <extensions><gpxtpx:TrackPointExtension><gpxtpx:hr>157</gpxtpx:hr></gpxtpx:TrackPointExtension></extensions>
      </trkpt>
      <trkpt lat="59.97791740112" lon="15.799667285755">
        <ele>139.4</ele>
        <time>2014-04-29T20:22:45Z</time>
        <extensions><gpxtpx:TrackPointExtension><gpxtpx:hr>157</gpxtpx:hr></gpxtpx:TrackPointExtension></extensions>
      </trkpt>
      <trkpt lat="59.977987892926" lon="15.799510627985">
        <ele>139.2</ele>
        <time>2014-04-29T20:22:49Z</time>
        <extensions><gpxtpx:TrackPointExtension><gpxtpx:hr>157</gpxtpx:hr></gpxtpx:TrackPointExtension></extensions>
      </trkpt>
      <trkpt lat="59.978097192943" lon="15.799264116213">
        <ele>138.8</ele>
        <time>2014-04-29T20:22:55Z</time>
        <extensions><gpxtpx:TrackPointExtension><gpxtpx:hr>156</gpxtpx:hr></gpxtpx:TrackPointExtension></extensions>
      </trkpt>
      <trkpt lat="59.978175144643" lon="15.799093293026">
        <ele>138.2</ele>
        <time>2014-04-29T20:22:59Z</time>
        <extensions><gpxtpx:TrackPointExtension><gpxtpx:hr>157</gpxtpx:hr></gpxtpx:TrackPointExtension></extensions>
      </trkpt>
      <trkpt lat="59.978198446333" lon="15.799041241407">
        <ele>138</ele>
        <time>2014-04-29T20:23:00Z</time>
        <extensions><gpxtpx:TrackPointExtension><gpxtpx:hr>157</gpxtpx:hr></gpxtpx:TrackPointExtension></extensions>
      </trkpt>
      <trkpt lat="59.978299029171" lon="15.798771930858">
        <ele>137.2</ele>
        <time>2014-04-29T20:23:06Z</time>
        <extensions><gpxtpx:TrackPointExtension><gpxtpx:hr>156</gpxtpx:hr></gpxtpx:TrackPointExtension></extensions>
      </trkpt>
      <trkpt lat="59.978394079953" lon="15.798500273377">
        <ele>136</ele>
        <time>2014-04-29T20:23:12Z</time>
        <extensions><gpxtpx:TrackPointExtension><gpxtpx:hr>154</gpxtpx:hr></gpxtpx:TrackPointExtension></extensions>
      </trkpt>
      <trkpt lat="59.978514863178" lon="15.798197435215">
        <ele>134.8</ele>
        <time>2014-04-29T20:23:19Z</time>
        <extensions><gpxtpx:TrackPointExtension><gpxtpx:hr>155</gpxtpx:hr></gpxtpx:TrackPointExtension></extensions>
      </trkpt>
      <trkpt lat="59.978636316955" lon="15.797925526276">
        <ele>133.8</ele>
        <time>2014-04-29T20:23:25Z</time>
        <extensions><gpxtpx:TrackPointExtension><gpxtpx:hr>155</gpxtpx:hr></gpxtpx:TrackPointExtension></extensions>
      </trkpt>
      <trkpt lat="59.978660037741" lon="15.797875570133">
        <ele>133.4</ele>
        <time>2014-04-29T20:23:26Z</time>
        <extensions><gpxtpx:TrackPointExtension><gpxtpx:hr>155</gpxtpx:hr></gpxtpx:TrackPointExtension></extensions>
      </trkpt>
      <trkpt lat="59.978789789602" lon="15.797621011734">
        <ele>132.6</ele>
        <time>2014-04-29T20:23:32Z</time>
        <extensions><gpxtpx:TrackPointExtension><gpxtpx:hr>155</gpxtpx:hr></gpxtpx:TrackPointExtension></extensions>
      </trkpt>
      <trkpt lat="59.978805379942" lon="15.797588825226">
        <ele>132.2</ele>
        <time>2014-04-29T20:23:33Z</time>
        <extensions><gpxtpx:TrackPointExtension><gpxtpx:hr>155</gpxtpx:hr></gpxtpx:TrackPointExtension></extensions>
      </trkpt>
      <trkpt lat="59.978918619454" lon="15.79734432511">
        <ele>131.2</ele>
        <time>2014-04-29T20:23:38Z</time>
        <extensions><gpxtpx:TrackPointExtension><gpxtpx:hr>154</gpxtpx:hr></gpxtpx:TrackPointExtension></extensions>
      </trkpt>
      <trkpt lat="59.9790289253" lon="15.797021118924">
        <ele>130.4</ele>
        <time>2014-04-29T20:23:45Z</time>
        <extensions><gpxtpx:TrackPointExtension><gpxtpx:hr>154</gpxtpx:hr></gpxtpx:TrackPointExtension></extensions>
      </trkpt>
      <trkpt lat="59.979058094323" lon="15.796923469752">
        <ele>130.2</ele>
        <time>2014-04-29T20:23:47Z</time>
        <extensions><gpxtpx:TrackPointExtension><gpxtpx:hr>154</gpxtpx:hr></gpxtpx:TrackPointExtension></extensions>
      </trkpt>
      <trkpt lat="59.979142080992" lon="15.79667955637">
        <ele>129.8</ele>
        <time>2014-04-29T20:23:52Z</time>
        <extensions><gpxtpx:TrackPointExtension><gpxtpx:hr>154</gpxtpx:hr></gpxtpx:TrackPointExtension></extensions>
      </trkpt>
      <trkpt lat="59.97922455892" lon="15.796455843374">
        <ele>129</ele>
        <time>2014-04-29T20:23:57Z</time>
        <extensions><gpxtpx:TrackPointExtension><gpxtpx:hr>152</gpxtpx:hr></gpxtpx:TrackPointExtension></extensions>
      </trkpt>
      <trkpt lat="59.97929546982" lon="15.796262137592">
        <ele>128.6</ele>
        <time>2014-04-29T20:24:01Z</time>
        <extensions><gpxtpx:TrackPointExtension><gpxtpx:hr>151</gpxtpx:hr></gpxtpx:TrackPointExtension></extensions>
      </trkpt>
      <trkpt lat="59.979407535866" lon="15.796008249745">
        <ele>128</ele>
        <time>2014-04-29T20:24:07Z</time>
        <extensions><gpxtpx:TrackPointExtension><gpxtpx:hr>151</gpxtpx:hr></gpxtpx:TrackPointExtension></extensions>
      </trkpt>
      <trkpt lat="59.979521194473" lon="15.795831056312">
        <ele>127.4</ele>
        <time>2014-04-29T20:24:13Z</time>
        <extensions><gpxtpx:TrackPointExtension><gpxtpx:hr>154</gpxtpx:hr></gpxtpx:TrackPointExtension></extensions>
      </trkpt>
      <trkpt lat="59.979615490884" lon="15.795922419056">
        <ele>127.2</ele>
        <time>2014-04-29T20:24:17Z</time>
        <extensions><gpxtpx:TrackPointExtension><gpxtpx:hr>155</gpxtpx:hr></gpxtpx:TrackPointExtension></extensions>
      </trkpt>
      <trkpt lat="59.979641642421" lon="15.795960137621">
        <ele>127</ele>
        <time>2014-04-29T20:24:18Z</time>
        <extensions><gpxtpx:TrackPointExtension><gpxtpx:hr>155</gpxtpx:hr></gpxtpx:TrackPointExtension></extensions>
      </trkpt>
      <trkpt lat="59.979787906632" lon="15.796144204214">
        <ele>127.2</ele>
        <time>2014-04-29T20:24:24Z</time>
        <extensions><gpxtpx:TrackPointExtension><gpxtpx:hr>157</gpxtpx:hr></gpxtpx:TrackPointExtension></extensions>
      </trkpt>
      <trkpt lat="59.979896452278" lon="15.796136409044">
        <ele>127.2</ele>
        <time>2014-04-29T20:24:28Z</time>
        <extensions><gpxtpx:TrackPointExtension><gpxtpx:hr>157</gpxtpx:hr></gpxtpx:TrackPointExtension></extensions>
      </trkpt>
      <trkpt lat="59.979940792546" lon="15.796063402668">
        <ele>126.8</ele>
        <time>2014-04-29T20:24:30Z</time>
        <extensions><gpxtpx:TrackPointExtension><gpxtpx:hr>156</gpxtpx:hr></gpxtpx:TrackPointExtension></extensions>
      </trkpt>
      <trkpt lat="59.979986976832" lon="15.795949408785">
        <ele>126.6</ele>
        <time>2014-04-29T20:24:33Z</time>
        <extensions><gpxtpx:TrackPointExtension><gpxtpx:hr>156</gpxtpx:hr></gpxtpx:TrackPointExtension></extensions>
      </trkpt>
      <trkpt lat="59.980060569942" lon="15.795789733529">
        <ele>126.2</ele>
        <time>2014-04-29T20:24:37Z</time>
        <extensions><gpxtpx:TrackPointExtension><gpxtpx:hr>156</gpxtpx:hr></gpxtpx:TrackPointExtension></extensions>
      </trkpt>
      <trkpt lat="59.980092253536" lon="15.795790152624">
        <ele>126.2</ele>
        <time>2014-04-29T20:24:38Z</time>
        <extensions><gpxtpx:TrackPointExtension><gpxtpx:hr>156</gpxtpx:hr></gpxtpx:TrackPointExtension></extensions>
      </trkpt>
      <trkpt lat="59.980138856918" lon="15.795842036605">
        <ele>126.2</ele>
        <time>2014-04-29T20:24:40Z</time>
        <extensions><gpxtpx:TrackPointExtension><gpxtpx:hr>156</gpxtpx:hr></gpxtpx:TrackPointExtension></extensions>
      </trkpt>
      <trkpt lat="59.980200212449" lon="15.795932896435">
        <ele>125.8</ele>
        <time>2014-04-29T20:24:43Z</time>
        <extensions><gpxtpx:TrackPointExtension><gpxtpx:hr>157</gpxtpx:hr></gpxtpx:TrackPointExtension></extensions>
      </trkpt>
      <trkpt lat="59.98022871092" lon="15.795973883942">
        <ele>125.6</ele>
        <time>2014-04-29T20:24:44Z</time>
        <extensions><gpxtpx:TrackPointExtension><gpxtpx:hr>157</gpxtpx:hr></gpxtpx:TrackPointExtension></extensions>
      </trkpt>
      <trkpt lat="59.980332395062" lon="15.796148646623">
        <ele>125.2</ele>
        <time>2014-04-29T20:24:49Z</time>
        <extensions><gpxtpx:TrackPointExtension><gpxtpx:hr>158</gpxtpx:hr></gpxtpx:TrackPointExtension></extensions>
      </trkpt>
      <trkpt lat="59.980464829132" lon="15.796369090676">
        <ele>125</ele>
        <time>2014-04-29T20:24:55Z</time>
        <extensions><gpxtpx:TrackPointExtension><gpxtpx:hr>159</gpxtpx:hr></gpxtpx:TrackPointExtension></extensions>
      </trkpt>
      <trkpt lat="59.980621319264" lon="15.796602694318">
        <ele>125.2</ele>
        <time>2014-04-29T20:25:02Z</time>
        <extensions><gpxtpx:TrackPointExtension><gpxtpx:hr>159</gpxtpx:hr></gpxtpx:TrackPointExtension></extensions>
      </trkpt>
      <trkpt lat="59.980743275955" lon="15.796784497797">
        <ele>125</ele>
        <time>2014-04-29T20:25:08Z</time>
        <extensions><gpxtpx:TrackPointExtension><gpxtpx:hr>159</gpxtpx:hr></gpxtpx:TrackPointExtension></extensions>
      </trkpt>
      <trkpt lat="59.980865484104" lon="15.796986501664">
        <ele>124.6</ele>
        <time>2014-04-29T20:25:14Z</time>
        <extensions><gpxtpx:TrackPointExtension><gpxtpx:hr>158</gpxtpx:hr></gpxtpx:TrackPointExtension></extensions>
      </trkpt>
      <trkpt lat="59.980881912634" lon="15.797014078125">
        <ele>124.6</ele>
        <time>2014-04-29T20:25:15Z</time>
        <extensions><gpxtpx:TrackPointExtension><gpxtpx:hr>158</gpxtpx:hr></gpxtpx:TrackPointExtension></extensions>
      </trkpt>
      <trkpt lat="59.981007389724" lon="15.797205269337">
        <ele>124.6</ele>
        <time>2014-04-29T20:25:21Z</time>
        <extensions><gpxtpx:TrackPointExtension><gpxtpx:hr>158</gpxtpx:hr></gpxtpx:TrackPointExtension></extensions>
      </trkpt>
      <trkpt lat="59.981137393042" lon="15.797394365072">
        <ele>124.2</ele>
        <time>2014-04-29T20:25:27Z</time>
        <extensions><gpxtpx:TrackPointExtension><gpxtpx:hr>157</gpxtpx:hr></gpxtpx:TrackPointExtension></extensions>
      </trkpt>
      <trkpt lat="59.981283154339" lon="15.797511963174">
        <ele>124</ele>
        <time>2014-04-29T20:25:33Z</time>
        <extensions><gpxtpx:TrackPointExtension><gpxtpx:hr>156</gpxtpx:hr></gpxtpx:TrackPointExtension></extensions>
      </trkpt>
      <trkpt lat="59.981315843761" lon="15.797486230731">
        <ele>123.8</ele>
        <time>2014-04-29T20:25:34Z</time>
        <extensions><gpxtpx:TrackPointExtension><gpxtpx:hr>156</gpxtpx:hr></gpxtpx:TrackPointExtension></extensions>
      </trkpt>
      <trkpt lat="59.981378708035" lon="15.79737810418">
        <ele>123.8</ele>
        <time>2014-04-29T20:25:37Z</time>
        <extensions><gpxtpx:TrackPointExtension><gpxtpx:hr>156</gpxtpx:hr></gpxtpx:TrackPointExtension></extensions>
      </trkpt>
      <trkpt lat="59.981444841251" lon="15.79729763791">
        <ele>124</ele>
        <time>2014-04-29T20:25:40Z</time>
        <extensions><gpxtpx:TrackPointExtension><gpxtpx:hr>157</gpxtpx:hr></gpxtpx:TrackPointExtension></extensions>
      </trkpt>
      <trkpt lat="59.981496641412" lon="15.797293698415">
        <ele>124</ele>
        <time>2014-04-29T20:25:42Z</time>
        <extensions><gpxtpx:TrackPointExtension><gpxtpx:hr>157</gpxtpx:hr></gpxtpx:TrackPointExtension></extensions>
      </trkpt>
      <trkpt lat="59.981654807925" lon="15.797275006771">
        <ele>125.8</ele>
        <time>2014-04-29T20:25:49Z</time>
        <extensions><gpxtpx:TrackPointExtension><gpxtpx:hr>159</gpxtpx:hr></gpxtpx:TrackPointExtension></extensions>
      </trkpt>
      <trkpt lat="59.981763940305" lon="15.797167299315">
        <ele>126</ele>
        <time>2014-04-29T20:25:54Z</time>
        <extensions><gpxtpx:TrackPointExtension><gpxtpx:hr>160</gpxtpx:hr></gpxtpx:TrackPointExtension></extensions>
      </trkpt>
      <trkpt lat="59.9818128068" lon="15.797019526362">
        <ele>126.8</ele>
        <time>2014-04-29T20:25:58Z</time>
        <extensions><gpxtpx:TrackPointExtension><gpxtpx:hr>161</gpxtpx:hr></gpxtpx:TrackPointExtension></extensions>
      </trkpt>
      <trkpt lat="59.98182144016" lon="15.79698423855">
        <ele>127</ele>
        <time>2014-04-29T20:25:59Z</time>
        <extensions><gpxtpx:TrackPointExtension><gpxtpx:hr>161</gpxtpx:hr></gpxtpx:TrackPointExtension></extensions>
      </trkpt>
      <trkpt lat="59.981879359111" lon="15.796755161136">
        <ele>128</ele>
        <time>2014-04-29T20:26:04Z</time>
        <extensions><gpxtpx:TrackPointExtension><gpxtpx:hr>162</gpxtpx:hr></gpxtpx:TrackPointExtension></extensions>
      </trkpt>
      <trkpt lat="59.981967285275" lon="15.796460118145">
        <ele>129</ele>
        <time>2014-04-29T20:26:11Z</time>
        <extensions><gpxtpx:TrackPointExtension><gpxtpx:hr>163</gpxtpx:hr></gpxtpx:TrackPointExtension></extensions>
      </trkpt>
      <trkpt lat="59.981986479834" lon="15.796407144517">
        <ele>129.4</ele>
        <time>2014-04-29T20:26:12Z</time>
        <extensions><gpxtpx:TrackPointExtension><gpxtpx:hr>163</gpxtpx:hr></gpxtpx:TrackPointExtension></extensions>
      </trkpt>
      <trkpt lat="59.982072226703" lon="15.796214276925">
        <ele>129.8</ele>
        <time>2014-04-29T20:26:17Z</time>
        <extensions><gpxtpx:TrackPointExtension><gpxtpx:hr>165</gpxtpx:hr></gpxtpx:TrackPointExtension></extensions>
      </trkpt>
      <trkpt lat="59.982108520344" lon="15.796138755977">
        <ele>130</ele>
        <time>2014-04-29T20:26:19Z</time>
        <extensions><gpxtpx:TrackPointExtension><gpxtpx:hr>165</gpxtpx:hr></gpxtpx:TrackPointExtension></extensions>
      </trkpt>
      <trkpt lat="59.982195356861" lon="15.795961646363">
        <ele>130.2</ele>
        <time>2014-04-29T20:26:24Z</time>
        <extensions><gpxtpx:TrackPointExtension><gpxtpx:hr>165</gpxtpx:hr></gpxtpx:TrackPointExtension></extensions>
      </trkpt>
      <trkpt lat="59.982321336865" lon="15.79579828307">
        <ele>130.2</ele>
        <time>2014-04-29T20:26:30Z</time>
        <extensions><gpxtpx:TrackPointExtension><gpxtpx:hr>165</gpxtpx:hr></gpxtpx:TrackPointExtension></extensions>
      </trkpt>
      <trkpt lat="59.982415465638" lon="15.795849161223">
        <ele>130.4</ele>
        <time>2014-04-29T20:26:34Z</time>
        <extensions><gpxtpx:TrackPointExtension><gpxtpx:hr>165</gpxtpx:hr></gpxtpx:TrackPointExtension></extensions>
      </trkpt>
      <trkpt lat="59.982533734292" lon="15.795941194519">
        <ele>130</ele>
        <time>2014-04-29T20:26:39Z</time>
        <extensions><gpxtpx:TrackPointExtension><gpxtpx:hr>164</gpxtpx:hr></gpxtpx:TrackPointExtension></extensions>
      </trkpt>
      <trkpt lat="59.982691062614" lon="15.796112855896">
        <ele>129.8</ele>
        <time>2014-04-29T20:26:46Z</time>
        <extensions><gpxtpx:TrackPointExtension><gpxtpx:hr>163</gpxtpx:hr></gpxtpx:TrackPointExtension></extensions>
      </trkpt>
      <trkpt lat="59.982839338481" lon="15.796356769279">
        <ele>129.2</ele>
        <time>2014-04-29T20:26:53Z</time>
        <extensions><gpxtpx:TrackPointExtension><gpxtpx:hr>163</gpxtpx:hr></gpxtpx:TrackPointExtension></extensions>
      </trkpt>
      <trkpt lat="59.982910081744" lon="15.796462967992">
        <ele>129</ele>
        <time>2014-04-29T20:26:56Z</time>
        <extensions><gpxtpx:TrackPointExtension><gpxtpx:hr>162</gpxtpx:hr></gpxtpx:TrackPointExtension></extensions>
      </trkpt>
      <trkpt lat="59.982953416184" lon="15.796524742618">
        <ele>129</ele>
        <time>2014-04-29T20:26:58Z</time>
        <extensions><gpxtpx:TrackPointExtension><gpxtpx:hr>162</gpxtpx:hr></gpxtpx:TrackPointExtension></extensions>
      </trkpt>
      <trkpt lat="59.983114516363" lon="15.796757172793">
        <ele>128</ele>
        <time>2014-04-29T20:27:05Z</time>
        <extensions><gpxtpx:TrackPointExtension><gpxtpx:hr>163</gpxtpx:hr></gpxtpx:TrackPointExtension></extensions>
      </trkpt>
      <trkpt lat="59.983254577965" lon="15.796931348741">
        <ele>127</ele>
        <time>2014-04-29T20:27:11Z</time>
        <extensions><gpxtpx:TrackPointExtension><gpxtpx:hr>161</gpxtpx:hr></gpxtpx:TrackPointExtension></extensions>
      </trkpt>
      <trkpt lat="59.983398159966" lon="15.797124048695">
        <ele>125.8</ele>
        <time>2014-04-29T20:27:17Z</time>
        <extensions><gpxtpx:TrackPointExtension><gpxtpx:hr>159</gpxtpx:hr></gpxtpx:TrackPointExtension></extensions>
      </trkpt>
      <trkpt lat="59.983428921551" lon="15.797161431983">
        <ele>125.8</ele>
        <time>2014-04-29T20:27:18Z</time>
        <extensions><gpxtpx:TrackPointExtension><gpxtpx:hr>158</gpxtpx:hr></gpxtpx:TrackPointExtension></extensions>
      </trkpt>
      <trkpt lat="59.983576862141" lon="15.797326052561">
        <ele>124.8</ele>
        <time>2014-04-29T20:27:24Z</time>
        <extensions><gpxtpx:TrackPointExtension><gpxtpx:hr>158</gpxtpx:hr></gpxtpx:TrackPointExtension></extensions>
      </trkpt>
      <trkpt lat="59.983602175489" lon="15.797349354252">
        <ele>124.8</ele>
        <time>2014-04-29T20:27:25Z</time>
        <extensions><gpxtpx:TrackPointExtension><gpxtpx:hr>158</gpxtpx:hr></gpxtpx:TrackPointExtension></extensions>
      </trkpt>
      <trkpt lat="59.983753468841" lon="15.797511711717">
        <ele>124.4</ele>
        <time>2014-04-29T20:27:31Z</time>
        <extensions><gpxtpx:TrackPointExtension><gpxtpx:hr>157</gpxtpx:hr></gpxtpx:TrackPointExtension></extensions>
      </trkpt>
      <trkpt lat="59.983879532665" lon="15.797650180757">
        <ele>123.8</ele>
        <time>2014-04-29T20:27:36Z</time>
        <extensions><gpxtpx:TrackPointExtension><gpxtpx:hr>157</gpxtpx:hr></gpxtpx:TrackPointExtension></extensions>
      </trkpt>
      <trkpt lat="59.983898811042" lon="15.797667698935">
        <ele>123.8</ele>
        <time>2014-04-29T20:27:37Z</time>
        <extensions><gpxtpx:TrackPointExtension><gpxtpx:hr>157</gpxtpx:hr></gpxtpx:TrackPointExtension></extensions>
      </trkpt>
      <trkpt lat="59.98407818377" lon="15.797824356705">
        <ele>123.4</ele>
        <time>2014-04-29T20:27:44Z</time>
        <extensions><gpxtpx:TrackPointExtension><gpxtpx:hr>157</gpxtpx:hr></gpxtpx:TrackPointExtension></extensions>
      </trkpt>
      <trkpt lat="59.984255544841" lon="15.797947235405">
        <ele>122.8</ele>
        <time>2014-04-29T20:27:51Z</time>
        <extensions><gpxtpx:TrackPointExtension><gpxtpx:hr>156</gpxtpx:hr></gpxtpx:TrackPointExtension></extensions>
      </trkpt>
      <trkpt lat="59.984281193465" lon="15.797958299518">
        <ele>122.6</ele>
        <time>2014-04-29T20:27:52Z</time>
        <extensions><gpxtpx:TrackPointExtension><gpxtpx:hr>156</gpxtpx:hr></gpxtpx:TrackPointExtension></extensions>
      </trkpt>
      <trkpt lat="59.984406922013" lon="15.797902476043">
        <ele>122.8</ele>
        <time>2014-04-29T20:27:57Z</time>
        <extensions><gpxtpx:TrackPointExtension><gpxtpx:hr>156</gpxtpx:hr></gpxtpx:TrackPointExtension></extensions>
      </trkpt>
      <trkpt lat="59.984487975016" lon="15.797690078616">
        <ele>122.4</ele>
        <time>2014-04-29T20:28:02Z</time>
        <extensions><gpxtpx:TrackPointExtension><gpxtpx:hr>156</gpxtpx:hr></gpxtpx:TrackPointExtension></extensions>
      </trkpt>
      <trkpt lat="59.984575985" lon="15.797377014533">
        <ele>122.4</ele>
        <time>2014-04-29T20:28:09Z</time>
        <extensions><gpxtpx:TrackPointExtension><gpxtpx:hr>157</gpxtpx:hr></gpxtpx:TrackPointExtension></extensions>
      </trkpt>
      <trkpt lat="59.984589647502" lon="15.797343822196">
        <ele>122.8</ele>
        <time>2014-04-29T20:28:10Z</time>
        <extensions><gpxtpx:TrackPointExtension><gpxtpx:hr>157</gpxtpx:hr></gpxtpx:TrackPointExtension></extensions>
      </trkpt>
      <trkpt lat="59.984672376886" lon="15.797100160271">
        <ele>123.4</ele>
        <time>2014-04-29T20:28:16Z</time>
        <extensions><gpxtpx:TrackPointExtension><gpxtpx:hr>158</gpxtpx:hr></gpxtpx:TrackPointExtension></extensions>
      </trkpt>
      <trkpt lat="59.984731972218" lon="15.796894887462">
        <ele>123.8</ele>
        <time>2014-04-29T20:28:21Z</time>
        <extensions><gpxtpx:TrackPointExtension><gpxtpx:hr>159</gpxtpx:hr></gpxtpx:TrackPointExtension></extensions>
      </trkpt>
      <trkpt lat="59.984759548679" lon="15.796820120886">
        <ele>123.8</ele>
        <time>2014-04-29T20:28:23Z</time>
        <extensions><gpxtpx:TrackPointExtension><gpxtpx:hr>160</gpxtpx:hr></gpxtpx:TrackPointExtension></extensions>
      </trkpt>
      <trkpt lat="59.984837416559" lon="15.796699505299">
        <ele>123.8</ele>
        <time>2014-04-29T20:28:27Z</time>
        <extensions><gpxtpx:TrackPointExtension><gpxtpx:hr>160</gpxtpx:hr></gpxtpx:TrackPointExtension></extensions>
      </trkpt>
      <trkpt lat="59.984868681058" lon="15.796671509743">
        <ele>123.8</ele>
        <time>2014-04-29T20:28:28Z</time>
        <extensions><gpxtpx:TrackPointExtension><gpxtpx:hr>160</gpxtpx:hr></gpxtpx:TrackPointExtension></extensions>
      </trkpt>
      <trkpt lat="59.985048389062" lon="15.796545529738">
        <ele>124</ele>
        <time>2014-04-29T20:28:35Z</time>
        <extensions><gpxtpx:TrackPointExtension><gpxtpx:hr>161</gpxtpx:hr></gpxtpx:TrackPointExtension></extensions>
      </trkpt>
      <trkpt lat="59.985227929428" lon="15.796386273578">
        <ele>124.2</ele>
        <time>2014-04-29T20:28:43Z</time>
        <extensions><gpxtpx:TrackPointExtension><gpxtpx:hr>160</gpxtpx:hr></gpxtpx:TrackPointExtension></extensions>
      </trkpt>
      <trkpt lat="59.98539313674" lon="15.796218803152">
        <ele>123.6</ele>
        <time>2014-04-29T20:28:50Z</time>
        <extensions><gpxtpx:TrackPointExtension><gpxtpx:hr>161</gpxtpx:hr></gpxtpx:TrackPointExtension></extensions>
      </trkpt>
      <trkpt lat="59.98554459773" lon="15.796091314405">
        <ele>123.4</ele>
        <time>2014-04-29T20:28:56Z</time>
        <extensions><gpxtpx:TrackPointExtension><gpxtpx:hr>161</gpxtpx:hr></gpxtpx:TrackPointExtension></extensions>
      </trkpt>
      <trkpt lat="59.985680971295" lon="15.795981511474">
        <ele>123.8</ele>
        <time>2014-04-29T20:29:02Z</time>
        <extensions><gpxtpx:TrackPointExtension><gpxtpx:hr>161</gpxtpx:hr></gpxtpx:TrackPointExtension></extensions>
      </trkpt>
      <trkpt lat="59.98584927991" lon="15.79580180347">
        <ele>124</ele>
        <time>2014-04-29T20:29:10Z</time>
        <extensions><gpxtpx:TrackPointExtension><gpxtpx:hr>160</gpxtpx:hr></gpxtpx:TrackPointExtension></extensions>
      </trkpt>
      <trkpt lat="59.985984647647" lon="15.795635506511">
        <ele>124</ele>
        <time>2014-04-29T20:29:16Z</time>
        <extensions><gpxtpx:TrackPointExtension><gpxtpx:hr>161</gpxtpx:hr></gpxtpx:TrackPointExtension></extensions>
      </trkpt>
      <trkpt lat="59.986093780026" lon="15.795515645295">
        <ele>124.2</ele>
        <time>2014-04-29T20:29:21Z</time>
        <extensions><gpxtpx:TrackPointExtension><gpxtpx:hr>162</gpxtpx:hr></gpxtpx:TrackPointExtension></extensions>
      </trkpt>
      <trkpt lat="59.986232165247" lon="15.795366531238">
        <ele>124.4</ele>
        <time>2014-04-29T20:29:27Z</time>
        <extensions><gpxtpx:TrackPointExtension><gpxtpx:hr>162</gpxtpx:hr></gpxtpx:TrackPointExtension></extensions>
      </trkpt>
      <trkpt lat="59.986326964572" lon="15.795278185979">
        <ele>125</ele>
        <time>2014-04-29T20:29:31Z</time>
        <extensions><gpxtpx:TrackPointExtension><gpxtpx:hr>162</gpxtpx:hr></gpxtpx:TrackPointExtension></extensions>
      </trkpt>
      <trkpt lat="59.986373567954" lon="15.795246334746">
        <ele>125</ele>
        <time>2014-04-29T20:29:33Z</time>
        <extensions><gpxtpx:TrackPointExtension><gpxtpx:hr>162</gpxtpx:hr></gpxtpx:TrackPointExtension></extensions>
      </trkpt>
      <trkpt lat="59.98655570671" lon="15.795157402754">
        <ele>125.2</ele>
        <time>2014-04-29T20:29:40Z</time>
        <extensions><gpxtpx:TrackPointExtension><gpxtpx:hr>163</gpxtpx:hr></gpxtpx:TrackPointExtension></extensions>
      </trkpt>
      <trkpt lat="59.986764751375" lon="15.795106189325">
        <ele>126</ele>
        <time>2014-04-29T20:29:48Z</time>
        <extensions><gpxtpx:TrackPointExtension><gpxtpx:hr>164</gpxtpx:hr></gpxtpx:TrackPointExtension></extensions>
      </trkpt>
      <trkpt lat="59.986787801608" lon="15.795100238174">
        <ele>126</ele>
        <time>2014-04-29T20:29:49Z</time>
        <extensions><gpxtpx:TrackPointExtension><gpxtpx:hr>163</gpxtpx:hr></gpxtpx:TrackPointExtension></extensions>
      </trkpt>
      <trkpt lat="59.986939430237" lon="15.795148266479">
        <ele>126.6</ele>
        <time>2014-04-29T20:29:55Z</time>
        <extensions><gpxtpx:TrackPointExtension><gpxtpx:hr>163</gpxtpx:hr></gpxtpx:TrackPointExtension></extensions>
      </trkpt>
      <trkpt lat="59.987057615072" lon="15.795300398022">
        <ele>126.6</ele>
        <time>2014-04-29T20:30:00Z</time>
        <extensions><gpxtpx:TrackPointExtension><gpxtpx:hr>163</gpxtpx:hr></gpxtpx:TrackPointExtension></extensions>
      </trkpt>
      <trkpt lat="59.987102458254" lon="15.795360412449">
        <ele>126.2</ele>
        <time>2014-04-29T20:30:02Z</time>
        <extensions><gpxtpx:TrackPointExtension><gpxtpx:hr>163</gpxtpx:hr></gpxtpx:TrackPointExtension></extensions>
      </trkpt>
      <trkpt lat="59.987186277285" lon="15.795442890376">
        <ele>125.8</ele>
        <time>2014-04-29T20:30:06Z</time>
        <extensions><gpxtpx:TrackPointExtension><gpxtpx:hr>162</gpxtpx:hr></gpxtpx:TrackPointExtension></extensions>
      </trkpt>
      <trkpt lat="59.987248722464" lon="15.795552274212">
        <ele>125.4</ele>
        <time>2014-04-29T20:30:09Z</time>
        <extensions><gpxtpx:TrackPointExtension><gpxtpx:hr>162</gpxtpx:hr></gpxtpx:TrackPointExtension></extensions>
      </trkpt>
      <trkpt lat="59.987271437421" lon="15.795602230355">
        <ele>125.4</ele>
        <time>2014-04-29T20:30:10Z</time>
        <extensions><gpxtpx:TrackPointExtension><gpxtpx:hr>162</gpxtpx:hr></gpxtpx:TrackPointExtension></extensions>
      </trkpt>
      <trkpt lat="59.987363638356" lon="15.795763162896">
        <ele>124.8</ele>
        <time>2014-04-29T20:30:14Z</time>
        <extensions><gpxtpx:TrackPointExtension><gpxtpx:hr>161</gpxtpx:hr></gpxtpx:TrackPointExtension></extensions>
      </trkpt>
      <trkpt lat="59.987403536215" lon="15.795852513984">
        <ele>124.8</ele>
        <time>2014-04-29T20:30:16Z</time>
        <extensions><gpxtpx:TrackPointExtension><gpxtpx:hr>162</gpxtpx:hr></gpxtpx:TrackPointExtension></extensions>
      </trkpt>
      <trkpt lat="59.987491210923" lon="15.796015542001">
        <ele>124.2</ele>
        <time>2014-04-29T20:30:20Z</time>
        <extensions><gpxtpx:TrackPointExtension><gpxtpx:hr>162</gpxtpx:hr></gpxtpx:TrackPointExtension></extensions>
      </trkpt>
      <trkpt lat="59.987540412694" lon="15.796078909189">
        <ele>123.6</ele>
        <time>2014-04-29T20:30:22Z</time>
        <extensions><gpxtpx:TrackPointExtension><gpxtpx:hr>161</gpxtpx:hr></gpxtpx:TrackPointExtension></extensions>
      </trkpt>
      <trkpt lat="59.987657591701" lon="15.796257862821">
        <ele>123</ele>
        <time>2014-04-29T20:30:27Z</time>
        <extensions><gpxtpx:TrackPointExtension><gpxtpx:hr>161</gpxtpx:hr></gpxtpx:TrackPointExtension></extensions>
      </trkpt>
      <trkpt lat="59.987757671624" lon="15.796461207792">
        <ele>122.8</ele>
        <time>2014-04-29T20:30:32Z</time>
        <extensions><gpxtpx:TrackPointExtension><gpxtpx:hr>159</gpxtpx:hr></gpxtpx:TrackPointExtension></extensions>
      </trkpt>
      <trkpt lat="59.987799748778" lon="15.79654452391">
        <ele>122.4</ele>
        <time>2014-04-29T20:30:34Z</time>
        <extensions><gpxtpx:TrackPointExtension><gpxtpx:hr>159</gpxtpx:hr></gpxtpx:TrackPointExtension></extensions>
      </trkpt>
      <trkpt lat="59.987898152322" lon="15.796723561361">
        <ele>121.2</ele>
        <time>2014-04-29T20:30:38Z</time>
        <extensions><gpxtpx:TrackPointExtension><gpxtpx:hr>159</gpxtpx:hr></gpxtpx:TrackPointExtension></extensions>
      </trkpt>
      <trkpt lat="59.987993873656" lon="15.796917015687">
        <ele>120.2</ele>
        <time>2014-04-29T20:30:43Z</time>
        <extensions><gpxtpx:TrackPointExtension><gpxtpx:hr>159</gpxtpx:hr></gpxtpx:TrackPointExtension></extensions>
      </trkpt>
      <trkpt lat="59.98801600188" lon="15.797016173601">
        <ele>119.8</ele>
        <time>2014-04-29T20:30:45Z</time>
        <extensions><gpxtpx:TrackPointExtension><gpxtpx:hr>158</gpxtpx:hr></gpxtpx:TrackPointExtension></extensions>
      </trkpt>
      <trkpt lat="59.988004267216" lon="15.797098232433">
        <ele>119.8</ele>
        <time>2014-04-29T20:30:47Z</time>
        <extensions><gpxtpx:TrackPointExtension><gpxtpx:hr>159</gpxtpx:hr></gpxtpx:TrackPointExtension></extensions>
      </trkpt>
      <trkpt lat="59.987973840907" lon="15.797160090879">
        <ele>119.6</ele>
        <time>2014-04-29T20:30:49Z</time>
        <extensions><gpxtpx:TrackPointExtension><gpxtpx:hr>159</gpxtpx:hr></gpxtpx:TrackPointExtension></extensions>
      </trkpt>
      <trkpt lat="59.98789312318" lon="15.79727768898">
        <ele>119.8</ele>
        <time>2014-04-29T20:30:53Z</time>
        <extensions><gpxtpx:TrackPointExtension><gpxtpx:hr>160</gpxtpx:hr></gpxtpx:TrackPointExtension></extensions>
      </trkpt>
      <trkpt lat="59.987807627767" lon="15.79745253548">
        <ele>120.6</ele>
        <time>2014-04-29T20:30:58Z</time>
        <extensions><gpxtpx:TrackPointExtension><gpxtpx:hr>161</gpxtpx:hr></gpxtpx:TrackPointExtension></extensions>
      </trkpt>
      <trkpt lat="59.987766807899" lon="15.797627298161">
        <ele>121.2</ele>
        <time>2014-04-29T20:31:02Z</time>
        <extensions><gpxtpx:TrackPointExtension><gpxtpx:hr>161</gpxtpx:hr></gpxtpx:TrackPointExtension></extensions>
      </trkpt>
      <trkpt lat="59.987764209509" lon="15.797669291496">
        <ele>121.2</ele>
        <time>2014-04-29T20:31:03Z</time>
        <extensions><gpxtpx:TrackPointExtension><gpxtpx:hr>160</gpxtpx:hr></gpxtpx:TrackPointExtension></extensions>
      </trkpt>
      <trkpt lat="59.987749960274" lon="15.797754870728">
        <ele>121.2</ele>
        <time>2014-04-29T20:31:05Z</time>
        <extensions><gpxtpx:TrackPointExtension><gpxtpx:hr>160</gpxtpx:hr></gpxtpx:TrackPointExtension></extensions>
      </trkpt>
      <trkpt lat="59.987740069628" lon="15.797842293978">
        <ele>121.4</ele>
        <time>2014-04-29T20:31:07Z</time>
        <extensions><gpxtpx:TrackPointExtension><gpxtpx:hr>159</gpxtpx:hr></gpxtpx:TrackPointExtension></extensions>
      </trkpt>
      <trkpt lat="59.987721797079" lon="15.797941032797">
        <ele>121.2</ele>
        <time>2014-04-29T20:31:09Z</time>
        <extensions><gpxtpx:TrackPointExtension><gpxtpx:hr>159</gpxtpx:hr></gpxtpx:TrackPointExtension></extensions>
      </trkpt>
      <trkpt lat="59.987665722147" lon="15.798168014735">
        <ele>120.2</ele>
        <time>2014-04-29T20:31:14Z</time>
        <extensions><gpxtpx:TrackPointExtension><gpxtpx:hr>158</gpxtpx:hr></gpxtpx:TrackPointExtension></extensions>
      </trkpt>
      <trkpt lat="59.987550219521" lon="15.798356691375">
        <ele>119</ele>
        <time>2014-04-29T20:31:19Z</time>
        <extensions><gpxtpx:TrackPointExtension><gpxtpx:hr>158</gpxtpx:hr></gpxtpx:TrackPointExtension></extensions>
      </trkpt>
      <trkpt lat="59.987527085468" lon="15.798389799893">
        <ele>119</ele>
        <time>2014-04-29T20:31:20Z</time>
        <extensions><gpxtpx:TrackPointExtension><gpxtpx:hr>158</gpxtpx:hr></gpxtpx:TrackPointExtension></extensions>
      </trkpt>
      <trkpt lat="59.987412756309" lon="15.798573028296">
        <ele>118.4</ele>
        <time>2014-04-29T20:31:26Z</time>
        <extensions><gpxtpx:TrackPointExtension><gpxtpx:hr>159</gpxtpx:hr></gpxtpx:TrackPointExtension></extensions>
      </trkpt>
      <trkpt lat="59.987324159592" lon="15.798877123743">
        <ele>118.2</ele>
        <time>2014-04-29T20:31:33Z</time>
        <extensions><gpxtpx:TrackPointExtension><gpxtpx:hr>159</gpxtpx:hr></gpxtpx:TrackPointExtension></extensions>
      </trkpt>
      <trkpt lat="59.987328602001" lon="15.798931270838">
        <ele>118</ele>
        <time>2014-04-29T20:31:34Z</time>
        <extensions><gpxtpx:TrackPointExtension><gpxtpx:hr>159</gpxtpx:hr></gpxtpx:TrackPointExtension></extensions>
      </trkpt>
      <trkpt lat="59.98732172884" lon="15.799042247236">
        <ele>117.6</ele>
        <time>2014-04-29T20:31:36Z</time>
        <extensions><gpxtpx:TrackPointExtension><gpxtpx:hr>158</gpxtpx:hr></gpxtpx:TrackPointExtension></extensions>
      </trkpt>
      <trkpt lat="59.987322064117" lon="15.799081893638">
        <ele>117.4</ele>
        <time>2014-04-29T20:31:37Z</time>
        <extensions><gpxtpx:TrackPointExtension><gpxtpx:hr>157</gpxtpx:hr></gpxtpx:TrackPointExtension></extensions>
      </trkpt>
      <trkpt lat="59.987322064117" lon="15.799243161455">
        <ele>116.8</ele>
        <time>2014-04-29T20:31:40Z</time>
        <extensions><gpxtpx:TrackPointExtension><gpxtpx:hr>157</gpxtpx:hr></gpxtpx:TrackPointExtension></extensions>
      </trkpt>
      <trkpt lat="59.987327596173" lon="15.799385234714">
        <ele>116.6</ele>
        <time>2014-04-29T20:31:43Z</time>
        <extensions><gpxtpx:TrackPointExtension><gpxtpx:hr>157</gpxtpx:hr></gpxtpx:TrackPointExtension></extensions>
      </trkpt>
      <trkpt lat="59.987340252846" lon="15.79958807677">
        <ele>115.8</ele>
        <time>2014-04-29T20:31:47Z</time>
        <extensions><gpxtpx:TrackPointExtension><gpxtpx:hr>156</gpxtpx:hr></gpxtpx:TrackPointExtension></extensions>
      </trkpt>
      <trkpt lat="59.987379312515" lon="15.799746662378">
        <ele>115.4</ele>
        <time>2014-04-29T20:31:50Z</time>
        <extensions><gpxtpx:TrackPointExtension><gpxtpx:hr>156</gpxtpx:hr></gpxtpx:TrackPointExtension></extensions>
      </trkpt>
      <trkpt lat="59.987408816814" lon="15.799871888012">
        <ele>114.8</ele>
        <time>2014-04-29T20:31:53Z</time>
        <extensions><gpxtpx:TrackPointExtension><gpxtpx:hr>155</gpxtpx:hr></gpxtpx:TrackPointExtension></extensions>
      </trkpt>
      <trkpt lat="59.98743513599" lon="15.800005076453">
        <ele>114.2</ele>
        <time>2014-04-29T20:31:56Z</time>
        <extensions><gpxtpx:TrackPointExtension><gpxtpx:hr>154</gpxtpx:hr></gpxtpx:TrackPointExtension></extensions>
      </trkpt>
      <trkpt lat="59.987447792664" lon="15.800113035366">
        <ele>113.8</ele>
        <time>2014-04-29T20:31:58Z</time>
        <extensions><gpxtpx:TrackPointExtension><gpxtpx:hr>155</gpxtpx:hr></gpxtpx:TrackPointExtension></extensions>
      </trkpt>
      <trkpt lat="59.987449133769" lon="15.800326270983">
        <ele>112.8</ele>
        <time>2014-04-29T20:32:02Z</time>
        <extensions><gpxtpx:TrackPointExtension><gpxtpx:hr>154</gpxtpx:hr></gpxtpx:TrackPointExtension></extensions>
      </trkpt>
      <trkpt lat="59.987439913675" lon="15.800367677584">
        <ele>112.4</ele>
        <time>2014-04-29T20:32:03Z</time>
        <extensions><gpxtpx:TrackPointExtension><gpxtpx:hr>155</gpxtpx:hr></gpxtpx:TrackPointExtension></extensions>
      </trkpt>
      <trkpt lat="59.98740227893" lon="15.800509834662">
        <ele>112</ele>
        <time>2014-04-29T20:32:07Z</time>
        <extensions><gpxtpx:TrackPointExtension><gpxtpx:hr>155</gpxtpx:hr></gpxtpx:TrackPointExtension></extensions>
      </trkpt>
      <trkpt lat="59.98740227893" lon="15.800553252921">
        <ele>111.8</ele>
        <time>2014-04-29T20:32:08Z</time>
        <extensions><gpxtpx:TrackPointExtension><gpxtpx:hr>154</gpxtpx:hr></gpxtpx:TrackPointExtension></extensions>
      </trkpt>
      <trkpt lat="59.98740144074" lon="15.800583846867">
        <ele>111.4</ele>
        <time>2014-04-29T20:32:09Z</time>
        <extensions><gpxtpx:TrackPointExtension><gpxtpx:hr>155</gpxtpx:hr></gpxtpx:TrackPointExtension></extensions>
      </trkpt>
      <trkpt lat="59.987448547035" lon="15.800737990066">
        <ele>111.8</ele>
        <time>2014-04-29T20:32:14Z</time>
        <extensions><gpxtpx:TrackPointExtension><gpxtpx:hr>154</gpxtpx:hr></gpxtpx:TrackPointExtension></extensions>
      </trkpt>
      <trkpt lat="59.98748794198" lon="15.800837734714">
        <ele>112.6</ele>
        <time>2014-04-29T20:32:17Z</time>
        <extensions><gpxtpx:TrackPointExtension><gpxtpx:hr>155</gpxtpx:hr></gpxtpx:TrackPointExtension></extensions>
      </trkpt>
      <trkpt lat="59.987552398816" lon="15.800969917327">
        <ele>112.8</ele>
        <time>2014-04-29T20:32:20Z</time>
        <extensions><gpxtpx:TrackPointExtension><gpxtpx:hr>156</gpxtpx:hr></gpxtpx:TrackPointExtension></extensions>
      </trkpt>
      <trkpt lat="59.98765415512" lon="15.801163958386">
        <ele>112.6</ele>
        <time>2014-04-29T20:32:25Z</time>
        <extensions><gpxtpx:TrackPointExtension><gpxtpx:hr>156</gpxtpx:hr></gpxtpx:TrackPointExtension></extensions>
      </trkpt>
      <trkpt lat="59.987728083506" lon="15.801384570077">
        <ele>112.2</ele>
        <time>2014-04-29T20:32:29Z</time>
        <extensions><gpxtpx:TrackPointExtension><gpxtpx:hr>157</gpxtpx:hr></gpxtpx:TrackPointExtension></extensions>
      </trkpt>
      <trkpt lat="59.987803436816" lon="15.801565703005">
        <ele>111.8</ele>
        <time>2014-04-29T20:32:33Z</time>
        <extensions><gpxtpx:TrackPointExtension><gpxtpx:hr>157</gpxtpx:hr></gpxtpx:TrackPointExtension></extensions>
      </trkpt>
      <trkpt lat="59.987916257232" lon="15.801866780967">
        <ele>111.6</ele>
        <time>2014-04-29T20:32:40Z</time>
        <extensions><gpxtpx:TrackPointExtension><gpxtpx:hr>157</gpxtpx:hr></gpxtpx:TrackPointExtension></extensions>
      </trkpt>
      <trkpt lat="59.98792774044" lon="15.80190114677">
        <ele>111.4</ele>
        <time>2014-04-29T20:32:41Z</time>
        <extensions><gpxtpx:TrackPointExtension><gpxtpx:hr>157</gpxtpx:hr></gpxtpx:TrackPointExtension></extensions>
      </trkpt>
      <trkpt lat="59.988026060164" lon="15.802227538079">
        <ele>110.8</ele>
        <time>2014-04-29T20:32:48Z</time>
        <extensions><gpxtpx:TrackPointExtension><gpxtpx:hr>157</gpxtpx:hr></gpxtpx:TrackPointExtension></extensions>
      </trkpt>
      <trkpt lat="59.988029329106" lon="15.80230708234">
        <ele>110.8</ele>
        <time>2014-04-29T20:32:50Z</time>
        <extensions><gpxtpx:TrackPointExtension><gpxtpx:hr>157</gpxtpx:hr></gpxtpx:TrackPointExtension></extensions>
      </trkpt>
      <trkpt lat="59.98802555725" lon="15.802412526682">
        <ele>110.8</ele>
        <time>2014-04-29T20:32:53Z</time>
        <extensions><gpxtpx:TrackPointExtension><gpxtpx:hr>158</gpxtpx:hr></gpxtpx:TrackPointExtension></extensions>
      </trkpt>
      <trkpt lat="59.988024132326" lon="15.802580835298">
        <ele>110.6</ele>
        <time>2014-04-29T20:32:57Z</time>
        <extensions><gpxtpx:TrackPointExtension><gpxtpx:hr>158</gpxtpx:hr></gpxtpx:TrackPointExtension></extensions>
      </trkpt>
      <trkpt lat="59.988037291914" lon="15.802632719278">
        <ele>110.6</ele>
        <time>2014-04-29T20:32:58Z</time>
        <extensions><gpxtpx:TrackPointExtension><gpxtpx:hr>157</gpxtpx:hr></gpxtpx:TrackPointExtension></extensions>
      </trkpt>
      <trkpt lat="59.988074088469" lon="15.802722238004">
        <ele>110.6</ele>
        <time>2014-04-29T20:33:00Z</time>
        <extensions><gpxtpx:TrackPointExtension><gpxtpx:hr>157</gpxtpx:hr></gpxtpx:TrackPointExtension></extensions>
      </trkpt>
      <trkpt lat="59.988121278584" lon="15.802808487788">
        <ele>110.6</ele>
        <time>2014-04-29T20:33:02Z</time>
        <extensions><gpxtpx:TrackPointExtension><gpxtpx:hr>157</gpxtpx:hr></gpxtpx:TrackPointExtension></extensions>
      </trkpt>
      <trkpt lat="59.988212054595" lon="15.803096741438">
        <ele>110.4</ele>
        <time>2014-04-29T20:33:08Z</time>
        <extensions><gpxtpx:TrackPointExtension><gpxtpx:hr>158</gpxtpx:hr></gpxtpx:TrackPointExtension></extensions>
      </trkpt>
      <trkpt lat="59.988200319931" lon="15.803202101961">
        <ele>110.4</ele>
        <time>2014-04-29T20:33:10Z</time>
        <extensions><gpxtpx:TrackPointExtension><gpxtpx:hr>158</gpxtpx:hr></gpxtpx:TrackPointExtension></extensions>
      </trkpt>
      <trkpt lat="59.98815975152" lon="15.803292458877">
        <ele>110.4</ele>
        <time>2014-04-29T20:33:12Z</time>
        <extensions><gpxtpx:TrackPointExtension><gpxtpx:hr>158</gpxtpx:hr></gpxtpx:TrackPointExtension></extensions>
      </trkpt>
      <trkpt lat="59.988076183945" lon="15.803386839107">
        <ele>110.4</ele>
        <time>2014-04-29T20:33:16Z</time>
        <extensions><gpxtpx:TrackPointExtension><gpxtpx:hr>157</gpxtpx:hr></gpxtpx:TrackPointExtension></extensions>
      </trkpt>
      <trkpt lat="59.988024132326" lon="15.803337302059">
        <ele>110.4</ele>
        <time>2014-04-29T20:33:20Z</time>
        <extensions><gpxtpx:TrackPointExtension><gpxtpx:hr>158</gpxtpx:hr></gpxtpx:TrackPointExtension></extensions>
      </trkpt>
      <trkpt lat="59.987940983847" lon="15.803203945979">
        <ele>110.4</ele>
        <time>2014-04-29T20:33:25Z</time>
        <extensions><gpxtpx:TrackPointExtension><gpxtpx:hr>160</gpxtpx:hr></gpxtpx:TrackPointExtension></extensions>
      </trkpt>
      <trkpt lat="59.987897481769" lon="15.803164718673">
        <ele>110.4</ele>
        <time>2014-04-29T20:33:28Z</time>
        <extensions><gpxtpx:TrackPointExtension><gpxtpx:hr>159</gpxtpx:hr></gpxtpx:TrackPointExtension></extensions>
      </trkpt>
      <trkpt lat="59.987854398787" lon="15.803155750036">
        <ele>110.8</ele>
        <time>2014-04-29T20:33:30Z</time>
        <extensions><gpxtpx:TrackPointExtension><gpxtpx:hr>159</gpxtpx:hr></gpxtpx:TrackPointExtension></extensions>
      </trkpt>
      <trkpt lat="59.987775273621" lon="15.803173016757">
        <ele>111.2</ele>
        <time>2014-04-29T20:33:34Z</time>
        <extensions><gpxtpx:TrackPointExtension><gpxtpx:hr>159</gpxtpx:hr></gpxtpx:TrackPointExtension></extensions>
      </trkpt>
      <trkpt lat="59.987760353833" lon="15.803190702572">
        <ele>111.4</ele>
        <time>2014-04-29T20:33:35Z</time>
        <extensions><gpxtpx:TrackPointExtension><gpxtpx:hr>159</gpxtpx:hr></gpxtpx:TrackPointExtension></extensions>
      </trkpt>
      <trkpt lat="59.987682653591" lon="15.803288854659">
        <ele>111.6</ele>
        <time>2014-04-29T20:33:38Z</time>
        <extensions><gpxtpx:TrackPointExtension><gpxtpx:hr>159</gpxtpx:hr></gpxtpx:TrackPointExtension></extensions>
      </trkpt>
      <trkpt lat="59.987667566165" lon="15.803320035338">
        <ele>111.8</ele>
        <time>2014-04-29T20:33:39Z</time>
        <extensions><gpxtpx:TrackPointExtension><gpxtpx:hr>159</gpxtpx:hr></gpxtpx:TrackPointExtension></extensions>
      </trkpt>
      <trkpt lat="59.987594308332" lon="15.803406704217">
        <ele>111.8</ele>
        <time>2014-04-29T20:33:42Z</time>
        <extensions><gpxtpx:TrackPointExtension><gpxtpx:hr>159</gpxtpx:hr></gpxtpx:TrackPointExtension></extensions>
      </trkpt>
      <trkpt lat="59.987473441288" lon="15.803561350331">
        <ele>111.8</ele>
        <time>2014-04-29T20:33:48Z</time>
        <extensions><gpxtpx:TrackPointExtension><gpxtpx:hr>159</gpxtpx:hr></gpxtpx:TrackPointExtension></extensions>
      </trkpt>
      <trkpt lat="59.987408732995" lon="15.803601080552">
        <ele>111.8</ele>
        <time>2014-04-29T20:33:50Z</time>
        <extensions><gpxtpx:TrackPointExtension><gpxtpx:hr>160</gpxtpx:hr></gpxtpx:TrackPointExtension></extensions>
      </trkpt>
      <trkpt lat="59.987324159592" lon="15.803653970361">
        <ele>111.8</ele>
        <time>2014-04-29T20:33:53Z</time>
        <extensions><gpxtpx:TrackPointExtension><gpxtpx:hr>160</gpxtpx:hr></gpxtpx:TrackPointExtension></extensions>
      </trkpt>
      <trkpt lat="59.987154426053" lon="15.803761426359">
        <ele>111.6</ele>
        <time>2014-04-29T20:33:59Z</time>
        <extensions><gpxtpx:TrackPointExtension><gpxtpx:hr>160</gpxtpx:hr></gpxtpx:TrackPointExtension></extensions>
      </trkpt>
      <trkpt lat="59.987010257319" lon="15.803808700293">
        <ele>111</ele>
        <time>2014-04-29T20:34:04Z</time>
        <extensions><gpxtpx:TrackPointExtension><gpxtpx:hr>161</gpxtpx:hr></gpxtpx:TrackPointExtension></extensions>
      </trkpt>
      <trkpt lat="59.986888216808" lon="15.803906852379">
        <ele>111.2</ele>
        <time>2014-04-29T20:34:09Z</time>
        <extensions><gpxtpx:TrackPointExtension><gpxtpx:hr>160</gpxtpx:hr></gpxtpx:TrackPointExtension></extensions>
      </trkpt>
      <trkpt lat="59.986763745546" lon="15.804086057469">
        <ele>111.4</ele>
        <time>2014-04-29T20:34:15Z</time>
        <extensions><gpxtpx:TrackPointExtension><gpxtpx:hr>160</gpxtpx:hr></gpxtpx:TrackPointExtension></extensions>
      </trkpt>
      <trkpt lat="59.986628713086" lon="15.804294850677">
        <ele>111.2</ele>
        <time>2014-04-29T20:34:21Z</time>
        <extensions><gpxtpx:TrackPointExtension><gpxtpx:hr>160</gpxtpx:hr></gpxtpx:TrackPointExtension></extensions>
      </trkpt>
      <trkpt lat="59.986474569887" lon="15.804553348571">
        <ele>111.2</ele>
        <time>2014-04-29T20:34:28Z</time>
        <extensions><gpxtpx:TrackPointExtension><gpxtpx:hr>160</gpxtpx:hr></gpxtpx:TrackPointExtension></extensions>
      </trkpt>
      <trkpt lat="59.986364515498" lon="15.804801536724">
        <ele>111.8</ele>
        <time>2014-04-29T20:34:34Z</time>
        <extensions><gpxtpx:TrackPointExtension><gpxtpx:hr>160</gpxtpx:hr></gpxtpx:TrackPointExtension></extensions>
      </trkpt>
      <trkpt lat="59.986283294857" lon="15.805000858381">
        <ele>112.2</ele>
        <time>2014-04-29T20:34:39Z</time>
        <extensions><gpxtpx:TrackPointExtension><gpxtpx:hr>160</gpxtpx:hr></gpxtpx:TrackPointExtension></extensions>
      </trkpt>
      <trkpt lat="59.986183298752" lon="15.805262625217">
        <ele>112.4</ele>
        <time>2014-04-29T20:34:45Z</time>
        <extensions><gpxtpx:TrackPointExtension><gpxtpx:hr>161</gpxtpx:hr></gpxtpx:TrackPointExtension></extensions>
      </trkpt>
      <trkpt lat="59.986153794453" lon="15.805352982134">
        <ele>112.6</ele>
        <time>2014-04-29T20:34:47Z</time>
        <extensions><gpxtpx:TrackPointExtension><gpxtpx:hr>161</gpxtpx:hr></gpxtpx:TrackPointExtension></extensions>
      </trkpt>
      <trkpt lat="59.986073160544" lon="15.805515339598">
        <ele>112.6</ele>
        <time>2014-04-29T20:34:51Z</time>
        <extensions><gpxtpx:TrackPointExtension><gpxtpx:hr>161</gpxtpx:hr></gpxtpx:TrackPointExtension></extensions>
      </trkpt>
      <trkpt lat="59.986056899652" lon="15.805673003197">
        <ele>112.6</ele>
        <time>2014-04-29T20:34:54Z</time>
        <extensions><gpxtpx:TrackPointExtension><gpxtpx:hr>161</gpxtpx:hr></gpxtpx:TrackPointExtension></extensions>
      </trkpt>
      <trkpt lat="59.98607089743" lon="15.805726731196">
        <ele>112.6</ele>
        <time>2014-04-29T20:34:55Z</time>
        <extensions><gpxtpx:TrackPointExtension><gpxtpx:hr>161</gpxtpx:hr></gpxtpx:TrackPointExtension></extensions>
      </trkpt>
      <trkpt lat="59.986179610714" lon="15.805917000398">
        <ele>112.8</ele>
        <time>2014-04-29T20:35:00Z</time>
        <extensions><gpxtpx:TrackPointExtension><gpxtpx:hr>162</gpxtpx:hr></gpxtpx:TrackPointExtension></extensions>
      </trkpt>
      <trkpt lat="59.986326377839" lon="15.806192513555">
        <ele>113</ele>
        <time>2014-04-29T20:35:07Z</time>
        <extensions><gpxtpx:TrackPointExtension><gpxtpx:hr>163</gpxtpx:hr></gpxtpx:TrackPointExtension></extensions>
      </trkpt>
      <trkpt lat="59.986441461369" lon="15.806406335905">
        <ele>113.4</ele>
        <time>2014-04-29T20:35:13Z</time>
        <extensions><gpxtpx:TrackPointExtension><gpxtpx:hr>163</gpxtpx:hr></gpxtpx:TrackPointExtension></extensions>
      </trkpt>
      <trkpt lat="59.986589988694" lon="15.806554108858">
        <ele>113.2</ele>
        <time>2014-04-29T20:35:19Z</time>
        <extensions><gpxtpx:TrackPointExtension><gpxtpx:hr>162</gpxtpx:hr></gpxtpx:TrackPointExtension></extensions>
      </trkpt>
      <trkpt lat="59.98674874194" lon="15.806657122448">
        <ele>112.2</ele>
        <time>2014-04-29T20:35:25Z</time>
        <extensions><gpxtpx:TrackPointExtension><gpxtpx:hr>162</gpxtpx:hr></gpxtpx:TrackPointExtension></extensions>
      </trkpt>
      <trkpt lat="59.986938843504" lon="15.806750915945">
        <ele>112</ele>
        <time>2014-04-29T20:35:32Z</time>
        <extensions><gpxtpx:TrackPointExtension><gpxtpx:hr>162</gpxtpx:hr></gpxtpx:TrackPointExtension></extensions>
      </trkpt>
      <trkpt lat="59.987127101049" lon="15.806853510439">
        <ele>112</ele>
        <time>2014-04-29T20:35:40Z</time>
        <extensions><gpxtpx:TrackPointExtension><gpxtpx:hr>161</gpxtpx:hr></gpxtpx:TrackPointExtension></extensions>
      </trkpt>
      <trkpt lat="59.987235143781" lon="15.807087114081">
        <ele>112</ele>
        <time>2014-04-29T20:35:46Z</time>
        <extensions><gpxtpx:TrackPointExtension><gpxtpx:hr>162</gpxtpx:hr></gpxtpx:TrackPointExtension></extensions>
      </trkpt>
      <trkpt lat="59.987326674163" lon="15.807371512055">
        <ele>112.2</ele>
        <time>2014-04-29T20:35:52Z</time>
        <extensions><gpxtpx:TrackPointExtension><gpxtpx:hr>161</gpxtpx:hr></gpxtpx:TrackPointExtension></extensions>
      </trkpt>
      <trkpt lat="59.987422060221" lon="15.807643337175">
        <ele>112.8</ele>
        <time>2014-04-29T20:35:58Z</time>
        <extensions><gpxtpx:TrackPointExtension><gpxtpx:hr>161</gpxtpx:hr></gpxtpx:TrackPointExtension></extensions>
      </trkpt>
      <trkpt lat="59.987504119053" lon="15.808009291068">
        <ele>113.6</ele>
        <time>2014-04-29T20:36:06Z</time>
        <extensions><gpxtpx:TrackPointExtension><gpxtpx:hr>163</gpxtpx:hr></gpxtpx:TrackPointExtension></extensions>
      </trkpt>
      <trkpt lat="59.987509483472" lon="15.808049691841">
        <ele>113.6</ele>
        <time>2014-04-29T20:36:07Z</time>
        <extensions><gpxtpx:TrackPointExtension><gpxtpx:hr>164</gpxtpx:hr></gpxtpx:TrackPointExtension></extensions>
      </trkpt>
      <trkpt lat="59.987512500957" lon="15.808121021837">
        <ele>113.6</ele>
        <time>2014-04-29T20:36:08Z</time>
        <extensions><gpxtpx:TrackPointExtension><gpxtpx:hr>164</gpxtpx:hr></gpxtpx:TrackPointExtension></extensions>
      </trkpt>
      <trkpt lat="59.987490959466" lon="15.808321516961">
        <ele>114</ele>
        <time>2014-04-29T20:36:12Z</time>
        <extensions><gpxtpx:TrackPointExtension><gpxtpx:hr>165</gpxtpx:hr></gpxtpx:TrackPointExtension></extensions>
      </trkpt>
      <trkpt lat="59.987469585612" lon="15.808538440615">
        <ele>114.6</ele>
        <time>2014-04-29T20:36:17Z</time>
        <extensions><gpxtpx:TrackPointExtension><gpxtpx:hr>165</gpxtpx:hr></gpxtpx:TrackPointExtension></extensions>
      </trkpt>
      <trkpt lat="59.987462544814" lon="15.808574734256">
        <ele>115</ele>
        <time>2014-04-29T20:36:18Z</time>
        <extensions><gpxtpx:TrackPointExtension><gpxtpx:hr>165</gpxtpx:hr></gpxtpx:TrackPointExtension></extensions>
      </trkpt>
      <trkpt lat="59.987450139597" lon="15.808776235208">
        <ele>115.2</ele>
        <time>2014-04-29T20:36:22Z</time>
        <extensions><gpxtpx:TrackPointExtension><gpxtpx:hr>165</gpxtpx:hr></gpxtpx:TrackPointExtension></extensions>
      </trkpt>
      <trkpt lat="59.987446116284" lon="15.80898469314">
        <ele>115.4</ele>
        <time>2014-04-29T20:36:26Z</time>
        <extensions><gpxtpx:TrackPointExtension><gpxtpx:hr>166</gpxtpx:hr></gpxtpx:TrackPointExtension></extensions>
      </trkpt>
      <trkpt lat="59.987444775179" lon="15.80909457989">
        <ele>116</ele>
        <time>2014-04-29T20:36:28Z</time>
        <extensions><gpxtpx:TrackPointExtension><gpxtpx:hr>167</gpxtpx:hr></gpxtpx:TrackPointExtension></extensions>
      </trkpt>
      <trkpt lat="59.987435638905" lon="15.809316616505">
        <ele>116.4</ele>
        <time>2014-04-29T20:36:32Z</time>
        <extensions><gpxtpx:TrackPointExtension><gpxtpx:hr>168</gpxtpx:hr></gpxtpx:TrackPointExtension></extensions>
      </trkpt>
      <trkpt lat="59.987414935604" lon="15.809626579285">
        <ele>117</ele>
        <time>2014-04-29T20:36:38Z</time>
        <extensions><gpxtpx:TrackPointExtension><gpxtpx:hr>168</gpxtpx:hr></gpxtpx:TrackPointExtension></extensions>
      </trkpt>
      <trkpt lat="59.987414600328" lon="15.809668488801">
        <ele>117</ele>
        <time>2014-04-29T20:36:39Z</time>
        <extensions><gpxtpx:TrackPointExtension><gpxtpx:hr>168</gpxtpx:hr></gpxtpx:TrackPointExtension></extensions>
      </trkpt>
      <trkpt lat="59.987418372184" lon="15.809933189303">
        <ele>117.6</ele>
        <time>2014-04-29T20:36:44Z</time>
        <extensions><gpxtpx:TrackPointExtension><gpxtpx:hr>167</gpxtpx:hr></gpxtpx:TrackPointExtension></extensions>
      </trkpt>
      <trkpt lat="59.987430777401" lon="15.810045171529">
        <ele>118</ele>
        <time>2014-04-29T20:36:46Z</time>
        <extensions><gpxtpx:TrackPointExtension><gpxtpx:hr>165</gpxtpx:hr></gpxtpx:TrackPointExtension></extensions>
      </trkpt>
      <trkpt lat="59.987445194274" lon="15.810188921168">
        <ele>118.4</ele>
        <time>2014-04-29T20:36:49Z</time>
        <extensions><gpxtpx:TrackPointExtension><gpxtpx:hr>164</gpxtpx:hr></gpxtpx:TrackPointExtension></extensions>
      </trkpt>
      <trkpt lat="59.987490624189" lon="15.810531405732">
        <ele>118.6</ele>
        <time>2014-04-29T20:36:56Z</time>
        <extensions><gpxtpx:TrackPointExtension><gpxtpx:hr>163</gpxtpx:hr></gpxtpx:TrackPointExtension></extensions>
      </trkpt>
      <trkpt lat="59.987507387996" lon="15.810652524233">
        <ele>119.2</ele>
        <time>2014-04-29T20:36:59Z</time>
        <extensions><gpxtpx:TrackPointExtension><gpxtpx:hr>165</gpxtpx:hr></gpxtpx:TrackPointExtension></extensions>
      </trkpt>
      <trkpt lat="59.98752431944" lon="15.810807924718">
        <ele>119.2</ele>
        <time>2014-04-29T20:37:02Z</time>
        <extensions><gpxtpx:TrackPointExtension><gpxtpx:hr>166</gpxtpx:hr></gpxtpx:TrackPointExtension></extensions>
      </trkpt>
      <trkpt lat="59.987569497898" lon="15.811165664345">
        <ele>119.6</ele>
        <time>2014-04-29T20:37:09Z</time>
        <extensions><gpxtpx:TrackPointExtension><gpxtpx:hr>166</gpxtpx:hr></gpxtpx:TrackPointExtension></extensions>
      </trkpt>
      <trkpt lat="59.987607803196" lon="15.811474202201">
        <ele>119.8</ele>
        <time>2014-04-29T20:37:15Z</time>
        <extensions><gpxtpx:TrackPointExtension><gpxtpx:hr>165</gpxtpx:hr></gpxtpx:TrackPointExtension></extensions>
      </trkpt>
      <trkpt lat="59.987640576437" lon="15.811699675396">
        <ele>120.2</ele>
        <time>2014-04-29T20:37:19Z</time>
        <extensions><gpxtpx:TrackPointExtension><gpxtpx:hr>166</gpxtpx:hr></gpxtpx:TrackPointExtension></extensions>
      </trkpt>
      <trkpt lat="59.987651137635" lon="15.81175214611">
        <ele>120.2</ele>
        <time>2014-04-29T20:37:20Z</time>
        <extensions><gpxtpx:TrackPointExtension><gpxtpx:hr>167</gpxtpx:hr></gpxtpx:TrackPointExtension></extensions>
      </trkpt>
      <trkpt lat="59.987689107656" lon="15.812091613188">
        <ele>120</ele>
        <time>2014-04-29T20:37:26Z</time>
        <extensions><gpxtpx:TrackPointExtension><gpxtpx:hr>167</gpxtpx:hr></gpxtpx:TrackPointExtension></extensions>
      </trkpt>
      <trkpt lat="59.987733112648" lon="15.812404174358">
        <ele>120</ele>
        <time>2014-04-29T20:37:32Z</time>
        <extensions><gpxtpx:TrackPointExtension><gpxtpx:hr>166</gpxtpx:hr></gpxtpx:TrackPointExtension></extensions>
      </trkpt>
      <trkpt lat="59.987789019942" lon="15.812782365829">
        <ele>120</ele>
        <time>2014-04-29T20:37:40Z</time>
        <extensions><gpxtpx:TrackPointExtension><gpxtpx:hr>166</gpxtpx:hr></gpxtpx:TrackPointExtension></extensions>
      </trkpt>
      <trkpt lat="59.98784115538" lon="15.81318821758">
        <ele>119.6</ele>
        <time>2014-04-29T20:37:48Z</time>
        <extensions><gpxtpx:TrackPointExtension><gpxtpx:hr>164</gpxtpx:hr></gpxtpx:TrackPointExtension></extensions>
      </trkpt>
      <trkpt lat="59.987897817045" lon="15.813543358818">
        <ele>119.2</ele>
        <time>2014-04-29T20:37:55Z</time>
        <extensions><gpxtpx:TrackPointExtension><gpxtpx:hr>164</gpxtpx:hr></gpxtpx:TrackPointExtension></extensions>
      </trkpt>
      <trkpt lat="59.987898068503" lon="15.813608486205">
        <ele>119.2</ele>
        <time>2014-04-29T20:37:56Z</time>
        <extensions><gpxtpx:TrackPointExtension><gpxtpx:hr>165</gpxtpx:hr></gpxtpx:TrackPointExtension></extensions>
      </trkpt>
      <trkpt lat="59.987903768197" lon="15.813668165356">
        <ele>119</ele>
        <time>2014-04-29T20:37:57Z</time>
        <extensions><gpxtpx:TrackPointExtension><gpxtpx:hr>165</gpxtpx:hr></gpxtpx:TrackPointExtension></extensions>
      </trkpt>
      <trkpt lat="59.987897230312" lon="15.814018193632">
        <ele>118.2</ele>
        <time>2014-04-29T20:38:03Z</time>
        <extensions><gpxtpx:TrackPointExtension><gpxtpx:hr>163</gpxtpx:hr></gpxtpx:TrackPointExtension></extensions>
      </trkpt>
      <trkpt lat="59.987882478163" lon="15.814059432596">
        <ele>117.8</ele>
        <time>2014-04-29T20:38:04Z</time>
        <extensions><gpxtpx:TrackPointExtension><gpxtpx:hr>162</gpxtpx:hr></gpxtpx:TrackPointExtension></extensions>
      </trkpt>
      <trkpt lat="59.987850207835" lon="15.814160602167">
        <ele>117.2</ele>
        <time>2014-04-29T20:38:06Z</time>
        <extensions><gpxtpx:TrackPointExtension><gpxtpx:hr>161</gpxtpx:hr></gpxtpx:TrackPointExtension></extensions>
      </trkpt>
      <trkpt lat="59.987831851467" lon="15.814195470884">
        <ele>116.6</ele>
        <time>2014-04-29T20:38:07Z</time>
        <extensions><gpxtpx:TrackPointExtension><gpxtpx:hr>161</gpxtpx:hr></gpxtpx:TrackPointExtension></extensions>
      </trkpt>
      <trkpt lat="59.987753061578" lon="15.814388757572">
        <ele>115.4</ele>
        <time>2014-04-29T20:38:11Z</time>
        <extensions><gpxtpx:TrackPointExtension><gpxtpx:hr>160</gpxtpx:hr></gpxtpx:TrackPointExtension></extensions>
      </trkpt>
      <trkpt lat="59.987729927525" lon="15.814508870244">
        <ele>114.8</ele>
        <time>2014-04-29T20:38:13Z</time>
        <extensions><gpxtpx:TrackPointExtension><gpxtpx:hr>160</gpxtpx:hr></gpxtpx:TrackPointExtension></extensions>
      </trkpt>
      <trkpt lat="59.987731939182" lon="15.814559832215">
        <ele>114.8</ele>
        <time>2014-04-29T20:38:14Z</time>
        <extensions><gpxtpx:TrackPointExtension><gpxtpx:hr>159</gpxtpx:hr></gpxtpx:TrackPointExtension></extensions>
      </trkpt>
      <trkpt lat="59.987733364105" lon="15.814623031765">
        <ele>114.4</ele>
        <time>2014-04-29T20:38:15Z</time>
        <extensions><gpxtpx:TrackPointExtension><gpxtpx:hr>159</gpxtpx:hr></gpxtpx:TrackPointExtension></extensions>
      </trkpt>
      <trkpt lat="59.987751720473" lon="15.814731325954">
        <ele>114.2</ele>
        <time>2014-04-29T20:38:17Z</time>
        <extensions><gpxtpx:TrackPointExtension><gpxtpx:hr>159</gpxtpx:hr></gpxtpx:TrackPointExtension></extensions>
      </trkpt>
      <trkpt lat="59.987794468179" lon="15.814909525216">
        <ele>113</ele>
        <time>2014-04-29T20:38:20Z</time>
        <extensions><gpxtpx:TrackPointExtension><gpxtpx:hr>159</gpxtpx:hr></gpxtpx:TrackPointExtension></extensions>
      </trkpt>
      <trkpt lat="59.987859930843" lon="15.814979597926">
        <ele>112.4</ele>
        <time>2014-04-29T20:38:22Z</time>
        <extensions><gpxtpx:TrackPointExtension><gpxtpx:hr>159</gpxtpx:hr></gpxtpx:TrackPointExtension></extensions>
      </trkpt>
      <trkpt lat="59.98787920922" lon="15.814998624846">
        <ele>111.8</ele>
        <time>2014-04-29T20:38:23Z</time>
        <extensions><gpxtpx:TrackPointExtension><gpxtpx:hr>159</gpxtpx:hr></gpxtpx:TrackPointExtension></extensions>
      </trkpt>
      <trkpt lat="59.987899493426" lon="15.815051011741">
        <ele>111.6</ele>
        <time>2014-04-29T20:38:24Z</time>
        <extensions><gpxtpx:TrackPointExtension><gpxtpx:hr>159</gpxtpx:hr></gpxtpx:TrackPointExtension></extensions>
      </trkpt>
      <trkpt lat="59.98792338185" lon="15.815147738904">
        <ele>111.6</ele>
        <time>2014-04-29T20:38:26Z</time>
        <extensions><gpxtpx:TrackPointExtension><gpxtpx:hr>159</gpxtpx:hr></gpxtpx:TrackPointExtension></extensions>
      </trkpt>
      <trkpt lat="59.988000160083" lon="15.815298948437">
        <ele>111.6</ele>
        <time>2014-04-29T20:38:30Z</time>
        <extensions><gpxtpx:TrackPointExtension><gpxtpx:hr>160</gpxtpx:hr></gpxtpx:TrackPointExtension></extensions>
      </trkpt>
      <trkpt lat="59.988030586392" lon="15.815295930952">
        <ele>111.4</ele>
        <time>2014-04-29T20:38:31Z</time>
        <extensions><gpxtpx:TrackPointExtension><gpxtpx:hr>160</gpxtpx:hr></gpxtpx:TrackPointExtension></extensions>
      </trkpt>
      <trkpt lat="59.988157069311" lon="15.815168609843">
        <ele>111.4</ele>
        <time>2014-04-29T20:38:37Z</time>
        <extensions><gpxtpx:TrackPointExtension><gpxtpx:hr>160</gpxtpx:hr></gpxtpx:TrackPointExtension></extensions>
      </trkpt>
      <trkpt lat="59.988378938287" lon="15.814896700904">
        <ele>111.8</ele>
        <time>2014-04-29T20:38:46Z</time>
        <extensions><gpxtpx:TrackPointExtension><gpxtpx:hr>161</gpxtpx:hr></gpxtpx:TrackPointExtension></extensions>
      </trkpt>
      <trkpt lat="59.988573230803" lon="15.81470835954">
        <ele>112.6</ele>
        <time>2014-04-29T20:38:55Z</time>
        <extensions><gpxtpx:TrackPointExtension><gpxtpx:hr>163</gpxtpx:hr></gpxtpx:TrackPointExtension></extensions>
      </trkpt>
      <trkpt lat="59.988616229966" lon="15.814668713138">
        <ele>112.8</ele>
        <time>2014-04-29T20:38:57Z</time>
        <extensions><gpxtpx:TrackPointExtension><gpxtpx:hr>163</gpxtpx:hr></gpxtpx:TrackPointExtension></extensions>
      </trkpt>
      <trkpt lat="59.988645901904" lon="15.814640047029">
        <ele>113</ele>
        <time>2014-04-29T20:38:58Z</time>
        <extensions><gpxtpx:TrackPointExtension><gpxtpx:hr>164</gpxtpx:hr></gpxtpx:TrackPointExtension></extensions>
      </trkpt>
      <trkpt lat="59.988786131144" lon="15.814535524696">
        <ele>114.4</ele>
        <time>2014-04-29T20:39:04Z</time>
        <extensions><gpxtpx:TrackPointExtension><gpxtpx:hr>166</gpxtpx:hr></gpxtpx:TrackPointExtension></extensions>
      </trkpt>
      <trkpt lat="59.98880985193" lon="15.814519766718">
        <ele>114.4</ele>
        <time>2014-04-29T20:39:05Z</time>
        <extensions><gpxtpx:TrackPointExtension><gpxtpx:hr>166</gpxtpx:hr></gpxtpx:TrackPointExtension></extensions>
      </trkpt>
      <trkpt lat="59.988987464458" lon="15.814386829734">
        <ele>114.8</ele>
        <time>2014-04-29T20:39:12Z</time>
        <extensions><gpxtpx:TrackPointExtension><gpxtpx:hr>165</gpxtpx:hr></gpxtpx:TrackPointExtension></extensions>
      </trkpt>
      <trkpt lat="59.989158120006" lon="15.814268812537">
        <ele>115</ele>
        <time>2014-04-29T20:39:19Z</time>
        <extensions><gpxtpx:TrackPointExtension><gpxtpx:hr>165</gpxtpx:hr></gpxtpx:TrackPointExtension></extensions>
      </trkpt>
      <trkpt lat="59.989184690639" lon="15.814247019589">
        <ele>114.8</ele>
        <time>2014-04-29T20:39:20Z</time>
        <extensions><gpxtpx:TrackPointExtension><gpxtpx:hr>166</gpxtpx:hr></gpxtpx:TrackPointExtension></extensions>
      </trkpt>
      <trkpt lat="59.989360878244" lon="15.814127074555">
        <ele>114.6</ele>
        <time>2014-04-29T20:39:27Z</time>
        <extensions><gpxtpx:TrackPointExtension><gpxtpx:hr>167</gpxtpx:hr></gpxtpx:TrackPointExtension></extensions>
      </trkpt>
      <trkpt lat="59.989509154111" lon="15.813958933577">
        <ele>113.8</ele>
        <time>2014-04-29T20:39:33Z</time>
        <extensions><gpxtpx:TrackPointExtension><gpxtpx:hr>167</gpxtpx:hr></gpxtpx:TrackPointExtension></extensions>
      </trkpt>
      <trkpt lat="59.989688526839" lon="15.813835216686">
        <ele>113.6</ele>
        <time>2014-04-29T20:39:40Z</time>
        <extensions><gpxtpx:TrackPointExtension><gpxtpx:hr>166</gpxtpx:hr></gpxtpx:TrackPointExtension></extensions>
      </trkpt>
      <trkpt lat="59.98986161314" lon="15.813708398491">
        <ele>113.8</ele>
        <time>2014-04-29T20:39:47Z</time>
        <extensions><gpxtpx:TrackPointExtension><gpxtpx:hr>166</gpxtpx:hr></gpxtpx:TrackPointExtension></extensions>
      </trkpt>
      <trkpt lat="59.989911904559" lon="15.813676211983">
        <ele>113.6</ele>
        <time>2014-04-29T20:39:49Z</time>
        <extensions><gpxtpx:TrackPointExtension><gpxtpx:hr>166</gpxtpx:hr></gpxtpx:TrackPointExtension></extensions>
      </trkpt>
      <trkpt lat="59.990096725523" lon="15.813541263342">
        <ele>113.4</ele>
        <time>2014-04-29T20:39:56Z</time>
        <extensions><gpxtpx:TrackPointExtension><gpxtpx:hr>166</gpxtpx:hr></gpxtpx:TrackPointExtension></extensions>
      </trkpt>
      <trkpt lat="59.990148693323" lon="15.813501700759">
        <ele>113.4</ele>
        <time>2014-04-29T20:39:58Z</time>
        <extensions><gpxtpx:TrackPointExtension><gpxtpx:hr>165</gpxtpx:hr></gpxtpx:TrackPointExtension></extensions>
      </trkpt>
      <trkpt lat="59.990172749385" lon="15.813483344391">
        <ele>113.4</ele>
        <time>2014-04-29T20:39:59Z</time>
        <extensions><gpxtpx:TrackPointExtension><gpxtpx:hr>165</gpxtpx:hr></gpxtpx:TrackPointExtension></extensions>
      </trkpt>
      <trkpt lat="59.990355810151" lon="15.813378570601">
        <ele>112.6</ele>
        <time>2014-04-29T20:40:06Z</time>
        <extensions><gpxtpx:TrackPointExtension><gpxtpx:hr>166</gpxtpx:hr></gpxtpx:TrackPointExtension></extensions>
      </trkpt>
      <trkpt lat="59.99037919566" lon="15.813361471519">
        <ele>112.6</ele>
        <time>2014-04-29T20:40:07Z</time>
        <extensions><gpxtpx:TrackPointExtension><gpxtpx:hr>166</gpxtpx:hr></gpxtpx:TrackPointExtension></extensions>
      </trkpt>
      <trkpt lat="59.990431498736" lon="15.813346048817">
        <ele>112.4</ele>
        <time>2014-04-29T20:40:09Z</time>
        <extensions><gpxtpx:TrackPointExtension><gpxtpx:hr>166</gpxtpx:hr></gpxtpx:TrackPointExtension></extensions>
      </trkpt>
      <trkpt lat="59.990484137088" lon="15.813276143745">
        <ele>112.2</ele>
        <time>2014-04-29T20:40:11Z</time>
        <extensions><gpxtpx:TrackPointExtension><gpxtpx:hr>166</gpxtpx:hr></gpxtpx:TrackPointExtension></extensions>
      </trkpt>
      <trkpt lat="59.990641130134" lon="15.813137423247">
        <ele>112</ele>
        <time>2014-04-29T20:40:16Z</time>
        <extensions><gpxtpx:TrackPointExtension><gpxtpx:hr>166</gpxtpx:hr></gpxtpx:TrackPointExtension></extensions>
      </trkpt>
      <trkpt lat="59.990773312747" lon="15.81306961365">
        <ele>112</ele>
        <time>2014-04-29T20:40:21Z</time>
        <extensions><gpxtpx:TrackPointExtension><gpxtpx:hr>167</gpxtpx:hr></gpxtpx:TrackPointExtension></extensions>
      </trkpt>
      <trkpt lat="59.990953607485" lon="15.812983447686">
        <ele>112</ele>
        <time>2014-04-29T20:40:28Z</time>
        <extensions><gpxtpx:TrackPointExtension><gpxtpx:hr>166</gpxtpx:hr></gpxtpx:TrackPointExtension></extensions>
      </trkpt>
      <trkpt lat="59.990982525051" lon="15.812970204279">
        <ele>112.2</ele>
        <time>2014-04-29T20:40:29Z</time>
        <extensions><gpxtpx:TrackPointExtension><gpxtpx:hr>167</gpxtpx:hr></gpxtpx:TrackPointExtension></extensions>
      </trkpt>
      <trkpt lat="59.991176063195" lon="15.812896359712">
        <ele>112.4</ele>
        <time>2014-04-29T20:40:36Z</time>
        <extensions><gpxtpx:TrackPointExtension><gpxtpx:hr>166</gpxtpx:hr></gpxtpx:TrackPointExtension></extensions>
      </trkpt>
      <trkpt lat="59.991258373484" lon="15.812871465459">
        <ele>112.6</ele>
        <time>2014-04-29T20:40:39Z</time>
        <extensions><gpxtpx:TrackPointExtension><gpxtpx:hr>166</gpxtpx:hr></gpxtpx:TrackPointExtension></extensions>
      </trkpt>
      <trkpt lat="59.991460042074" lon="15.812789406627">
        <ele>112.6</ele>
        <time>2014-04-29T20:40:47Z</time>
        <extensions><gpxtpx:TrackPointExtension><gpxtpx:hr>166</gpxtpx:hr></gpxtpx:TrackPointExtension></extensions>
      </trkpt>
      <trkpt lat="59.991530450061" lon="15.812794687226">
        <ele>113.2</ele>
        <time>2014-04-29T20:40:50Z</time>
        <extensions><gpxtpx:TrackPointExtension><gpxtpx:hr>167</gpxtpx:hr></gpxtpx:TrackPointExtension></extensions>
      </trkpt>
      <trkpt lat="59.991548387334" lon="15.812811115757">
        <ele>113.4</ele>
        <time>2014-04-29T20:40:51Z</time>
        <extensions><gpxtpx:TrackPointExtension><gpxtpx:hr>166</gpxtpx:hr></gpxtpx:TrackPointExtension></extensions>
      </trkpt>
      <trkpt lat="59.991551237181" lon="15.812883619219">
        <ele>113.6</ele>
        <time>2014-04-29T20:40:52Z</time>
        <extensions><gpxtpx:TrackPointExtension><gpxtpx:hr>167</gpxtpx:hr></gpxtpx:TrackPointExtension></extensions>
      </trkpt>
      <trkpt lat="59.9916015286" lon="15.813263906166">
        <ele>114</ele>
        <time>2014-04-29T20:40:59Z</time>
        <extensions><gpxtpx:TrackPointExtension><gpxtpx:hr>167</gpxtpx:hr></gpxtpx:TrackPointExtension></extensions>
      </trkpt>
      <trkpt lat="59.991629440337" lon="15.813473369926">
        <ele>114.4</ele>
        <time>2014-04-29T20:41:03Z</time>
        <extensions><gpxtpx:TrackPointExtension><gpxtpx:hr>168</gpxtpx:hr></gpxtpx:TrackPointExtension></extensions>
      </trkpt>
      <trkpt lat="59.991649640724" lon="15.81369549036">
        <ele>115.2</ele>
        <time>2014-04-29T20:41:07Z</time>
        <extensions><gpxtpx:TrackPointExtension><gpxtpx:hr>169</gpxtpx:hr></gpxtpx:TrackPointExtension></extensions>
      </trkpt>
      <trkpt lat="59.991657938808" lon="15.813760785386">
        <ele>115.4</ele>
        <time>2014-04-29T20:41:08Z</time>
        <extensions><gpxtpx:TrackPointExtension><gpxtpx:hr>169</gpxtpx:hr></gpxtpx:TrackPointExtension></extensions>
      </trkpt>
      <trkpt lat="59.991694903001" lon="15.814139982685">
        <ele>116</ele>
        <time>2014-04-29T20:41:15Z</time>
        <extensions><gpxtpx:TrackPointExtension><gpxtpx:hr>171</gpxtpx:hr></gpxtpx:TrackPointExtension></extensions>
      </trkpt>
      <trkpt lat="59.991705128923" lon="15.814305189997">
        <ele>116.6</ele>
        <time>2014-04-29T20:41:18Z</time>
        <extensions><gpxtpx:TrackPointExtension><gpxtpx:hr>171</gpxtpx:hr></gpxtpx:TrackPointExtension></extensions>
      </trkpt>
      <trkpt lat="59.991709152237" lon="15.814356235787">
        <ele>116.6</ele>
        <time>2014-04-29T20:41:19Z</time>
        <extensions><gpxtpx:TrackPointExtension><gpxtpx:hr>171</gpxtpx:hr></gpxtpx:TrackPointExtension></extensions>
      </trkpt>
      <trkpt lat="59.991707224399" lon="15.814726883546">
        <ele>116.6</ele>
        <time>2014-04-29T20:41:26Z</time>
        <extensions><gpxtpx:TrackPointExtension><gpxtpx:hr>170</gpxtpx:hr></gpxtpx:TrackPointExtension></extensions>
      </trkpt>
      <trkpt lat="59.991710074246" lon="15.814779605716">
        <ele>116.6</ele>
        <time>2014-04-29T20:41:27Z</time>
        <extensions><gpxtpx:TrackPointExtension><gpxtpx:hr>170</gpxtpx:hr></gpxtpx:TrackPointExtension></extensions>
      </trkpt>
      <trkpt lat="59.991708565503" lon="15.81519744359">
        <ele>117.4</ele>
        <time>2014-04-29T20:41:35Z</time>
        <extensions><gpxtpx:TrackPointExtension><gpxtpx:hr>171</gpxtpx:hr></gpxtpx:TrackPointExtension></extensions>
      </trkpt>
      <trkpt lat="59.991707811132" lon="15.815320154652">
        <ele>117.6</ele>
        <time>2014-04-29T20:41:37Z</time>
        <extensions><gpxtpx:TrackPointExtension><gpxtpx:hr>171</gpxtpx:hr></gpxtpx:TrackPointExtension></extensions>
      </trkpt>
      <trkpt lat="59.991694903001" lon="15.815506232902">
        <ele>117.4</ele>
        <time>2014-04-29T20:41:40Z</time>
        <extensions><gpxtpx:TrackPointExtension><gpxtpx:hr>170</gpxtpx:hr></gpxtpx:TrackPointExtension></extensions>
      </trkpt>
      <trkpt lat="59.991672607139" lon="15.815880317241">
        <ele>117.6</ele>
        <time>2014-04-29T20:41:47Z</time>
        <extensions><gpxtpx:TrackPointExtension><gpxtpx:hr>170</gpxtpx:hr></gpxtpx:TrackPointExtension></extensions>
      </trkpt>
      <trkpt lat="59.991669254377" lon="15.815932285041">
        <ele>117.4</ele>
        <time>2014-04-29T20:41:48Z</time>
        <extensions><gpxtpx:TrackPointExtension><gpxtpx:hr>170</gpxtpx:hr></gpxtpx:TrackPointExtension></extensions>
      </trkpt>
      <trkpt lat="59.991645785049" lon="15.816222885624">
        <ele>117.6</ele>
        <time>2014-04-29T20:41:54Z</time>
        <extensions><gpxtpx:TrackPointExtension><gpxtpx:hr>167</gpxtpx:hr></gpxtpx:TrackPointExtension></extensions>
      </trkpt>
      <trkpt lat="59.991620387882" lon="15.816510384902">
        <ele>117.4</ele>
        <time>2014-04-29T20:42:00Z</time>
        <extensions><gpxtpx:TrackPointExtension><gpxtpx:hr>167</gpxtpx:hr></gpxtpx:TrackPointExtension></extensions>
      </trkpt>
      <trkpt lat="59.991579484195" lon="15.816861754283">
        <ele>117</ele>
        <time>2014-04-29T20:42:07Z</time>
        <extensions><gpxtpx:TrackPointExtension><gpxtpx:hr>167</gpxtpx:hr></gpxtpx:TrackPointExtension></extensions>
      </trkpt>
      <trkpt lat="59.991557104513" lon="15.816965857521">
        <ele>117</ele>
        <time>2014-04-29T20:42:09Z</time>
        <extensions><gpxtpx:TrackPointExtension><gpxtpx:hr>167</gpxtpx:hr></gpxtpx:TrackPointExtension></extensions>
      </trkpt>
      <trkpt lat="59.991518463939" lon="15.817337343469">
        <ele>116.8</ele>
        <time>2014-04-29T20:42:16Z</time>
        <extensions><gpxtpx:TrackPointExtension><gpxtpx:hr>166</gpxtpx:hr></gpxtpx:TrackPointExtension></extensions>
      </trkpt>
      <trkpt lat="59.991495413706" lon="15.81749483943">
        <ele>116.6</ele>
        <time>2014-04-29T20:42:19Z</time>
        <extensions><gpxtpx:TrackPointExtension><gpxtpx:hr>166</gpxtpx:hr></gpxtpx:TrackPointExtension></extensions>
      </trkpt>
      <trkpt lat="59.991466244683" lon="15.817811088637">
        <ele>116.6</ele>
        <time>2014-04-29T20:42:25Z</time>
        <extensions><gpxtpx:TrackPointExtension><gpxtpx:hr>167</gpxtpx:hr></gpxtpx:TrackPointExtension></extensions>
      </trkpt>
      <trkpt lat="59.991435147822" lon="15.818193638697">
        <ele>116.2</ele>
        <time>2014-04-29T20:42:32Z</time>
        <extensions><gpxtpx:TrackPointExtension><gpxtpx:hr>166</gpxtpx:hr></gpxtpx:TrackPointExtension></extensions>
      </trkpt>
      <trkpt lat="59.991429029033" lon="15.81825055182">
        <ele>116</ele>
        <time>2014-04-29T20:42:33Z</time>
        <extensions><gpxtpx:TrackPointExtension><gpxtpx:hr>167</gpxtpx:hr></gpxtpx:TrackPointExtension></extensions>
      </trkpt>
      <trkpt lat="59.99143187888" lon="15.818605860695">
        <ele>115.8</ele>
        <time>2014-04-29T20:42:40Z</time>
        <extensions><gpxtpx:TrackPointExtension><gpxtpx:hr>165</gpxtpx:hr></gpxtpx:TrackPointExtension></extensions>
      </trkpt>
      <trkpt lat="59.991428023204" lon="15.8190053422">
        <ele>116.2</ele>
        <time>2014-04-29T20:42:48Z</time>
        <extensions><gpxtpx:TrackPointExtension><gpxtpx:hr>165</gpxtpx:hr></gpxtpx:TrackPointExtension></extensions>
      </trkpt>
      <trkpt lat="59.991426263005" lon="15.819157809019">
        <ele>116.4</ele>
        <time>2014-04-29T20:42:51Z</time>
        <extensions><gpxtpx:TrackPointExtension><gpxtpx:hr>165</gpxtpx:hr></gpxtpx:TrackPointExtension></extensions>
      </trkpt>
      <trkpt lat="59.991429196671" lon="15.819523679093">
        <ele>116.2</ele>
        <time>2014-04-29T20:42:58Z</time>
        <extensions><gpxtpx:TrackPointExtension><gpxtpx:hr>166</gpxtpx:hr></gpxtpx:TrackPointExtension></extensions>
      </trkpt>
      <trkpt lat="59.991434141994" lon="15.819892566651">
        <ele>116.6</ele>
        <time>2014-04-29T20:43:05Z</time>
        <extensions><gpxtpx:TrackPointExtension><gpxtpx:hr>167</gpxtpx:hr></gpxtpx:TrackPointExtension></extensions>
      </trkpt>
      <trkpt lat="59.991433387622" lon="15.819992311299">
        <ele>116.8</ele>
        <time>2014-04-29T20:43:07Z</time>
        <extensions><gpxtpx:TrackPointExtension><gpxtpx:hr>167</gpxtpx:hr></gpxtpx:TrackPointExtension></extensions>
      </trkpt>
      <trkpt lat="59.991425005719" lon="15.820395397022">
        <ele>117.2</ele>
        <time>2014-04-29T20:43:15Z</time>
        <extensions><gpxtpx:TrackPointExtension><gpxtpx:hr>168</gpxtpx:hr></gpxtpx:TrackPointExtension></extensions>
      </trkpt>
      <trkpt lat="59.991422491148" lon="15.82078775391">
        <ele>117.2</ele>
        <time>2014-04-29T20:43:23Z</time>
        <extensions><gpxtpx:TrackPointExtension><gpxtpx:hr>167</gpxtpx:hr></gpxtpx:TrackPointExtension></extensions>
      </trkpt>
      <trkpt lat="59.991420479491" lon="15.820836871862">
        <ele>117.4</ele>
        <time>2014-04-29T20:43:24Z</time>
        <extensions><gpxtpx:TrackPointExtension><gpxtpx:hr>168</gpxtpx:hr></gpxtpx:TrackPointExtension></extensions>
      </trkpt>
      <trkpt lat="59.991414444521" lon="15.821214560419">
        <ele>117.6</ele>
        <time>2014-04-29T20:43:31Z</time>
        <extensions><gpxtpx:TrackPointExtension><gpxtpx:hr>166</gpxtpx:hr></gpxtpx:TrackPointExtension></extensions>
      </trkpt>
      <trkpt lat="59.991413522512" lon="15.821264768019">
        <ele>117.4</ele>
        <time>2014-04-29T20:43:32Z</time>
        <extensions><gpxtpx:TrackPointExtension><gpxtpx:hr>166</gpxtpx:hr></gpxtpx:TrackPointExtension></extensions>
      </trkpt>
      <trkpt lat="59.991407152265" lon="15.821361076087">
        <ele>117.6</ele>
        <time>2014-04-29T20:43:34Z</time>
        <extensions><gpxtpx:TrackPointExtension><gpxtpx:hr>166</gpxtpx:hr></gpxtpx:TrackPointExtension></extensions>
      </trkpt>
      <trkpt lat="59.991374546662" lon="15.82169576548">
        <ele>117.6</ele>
        <time>2014-04-29T20:43:40Z</time>
        <extensions><gpxtpx:TrackPointExtension><gpxtpx:hr>167</gpxtpx:hr></gpxtpx:TrackPointExtension></extensions>
      </trkpt>
      <trkpt lat="59.99134789221" lon="15.822083177045">
        <ele>117.8</ele>
        <time>2014-04-29T20:43:47Z</time>
        <extensions><gpxtpx:TrackPointExtension><gpxtpx:hr>167</gpxtpx:hr></gpxtpx:TrackPointExtension></extensions>
      </trkpt>
      <trkpt lat="59.991302462295" lon="15.822471678257">
        <ele>118</ele>
        <time>2014-04-29T20:43:54Z</time>
        <extensions><gpxtpx:TrackPointExtension><gpxtpx:hr>167</gpxtpx:hr></gpxtpx:TrackPointExtension></extensions>
      </trkpt>
      <trkpt lat="59.991298271343" lon="15.822519790381">
        <ele>118</ele>
        <time>2014-04-29T20:43:55Z</time>
        <extensions><gpxtpx:TrackPointExtension><gpxtpx:hr>168</gpxtpx:hr></gpxtpx:TrackPointExtension></extensions>
      </trkpt>
      <trkpt lat="59.991288045421" lon="15.822857748717">
        <ele>118</ele>
        <time>2014-04-29T20:44:01Z</time>
        <extensions><gpxtpx:TrackPointExtension><gpxtpx:hr>168</gpxtpx:hr></gpxtpx:TrackPointExtension></extensions>
      </trkpt>
      <trkpt lat="59.991288883612" lon="15.822892198339">
        <ele>118.2</ele>
        <time>2014-04-29T20:44:02Z</time>
        <extensions><gpxtpx:TrackPointExtension><gpxtpx:hr>168</gpxtpx:hr></gpxtpx:TrackPointExtension></extensions>
      </trkpt>
      <trkpt lat="59.991299696267" lon="15.82322973758">
        <ele>118.6</ele>
        <time>2014-04-29T20:44:09Z</time>
        <extensions><gpxtpx:TrackPointExtension><gpxtpx:hr>168</gpxtpx:hr></gpxtpx:TrackPointExtension></extensions>
      </trkpt>
      <trkpt lat="59.991242112592" lon="15.823439536616">
        <ele>118.8</ele>
        <time>2014-04-29T20:44:14Z</time>
        <extensions><gpxtpx:TrackPointExtension><gpxtpx:hr>168</gpxtpx:hr></gpxtpx:TrackPointExtension></extensions>
      </trkpt>
      <trkpt lat="59.991223504767" lon="15.823730807751">
        <ele>117.6</ele>
        <time>2014-04-29T20:44:20Z</time>
        <extensions><gpxtpx:TrackPointExtension><gpxtpx:hr>165</gpxtpx:hr></gpxtpx:TrackPointExtension></extensions>
      </trkpt>
      <trkpt lat="59.991236580536" lon="15.8238772396">
        <ele>117.4</ele>
        <time>2014-04-29T20:44:23Z</time>
        <extensions><gpxtpx:TrackPointExtension><gpxtpx:hr>165</gpxtpx:hr></gpxtpx:TrackPointExtension></extensions>
      </trkpt>
      <trkpt lat="59.991260552779" lon="15.824081255123">
        <ele>116.6</ele>
        <time>2014-04-29T20:44:27Z</time>
        <extensions><gpxtpx:TrackPointExtension><gpxtpx:hr>166</gpxtpx:hr></gpxtpx:TrackPointExtension></extensions>
      </trkpt>
      <trkpt lat="59.991266923025" lon="15.824139006436">
        <ele>116.2</ele>
        <time>2014-04-29T20:44:28Z</time>
        <extensions><gpxtpx:TrackPointExtension><gpxtpx:hr>166</gpxtpx:hr></gpxtpx:TrackPointExtension></extensions>
      </trkpt>
      <trkpt lat="59.991273293272" lon="15.824449472129">
        <ele>115</ele>
        <time>2014-04-29T20:44:34Z</time>
        <extensions><gpxtpx:TrackPointExtension><gpxtpx:hr>165</gpxtpx:hr></gpxtpx:TrackPointExtension></extensions>
      </trkpt>
      <trkpt lat="59.991237418726" lon="15.824820706621">
        <ele>114.2</ele>
        <time>2014-04-29T20:44:41Z</time>
        <extensions><gpxtpx:TrackPointExtension><gpxtpx:hr>163</gpxtpx:hr></gpxtpx:TrackPointExtension></extensions>
      </trkpt>
      <trkpt lat="59.99123448506" lon="15.824871417135">
        <ele>114</ele>
        <time>2014-04-29T20:44:42Z</time>
        <extensions><gpxtpx:TrackPointExtension><gpxtpx:hr>164</gpxtpx:hr></gpxtpx:TrackPointExtension></extensions>
      </trkpt>
      <trkpt lat="59.991226270795" lon="15.82497920841">
        <ele>113.8</ele>
        <time>2014-04-29T20:44:44Z</time>
        <extensions><gpxtpx:TrackPointExtension><gpxtpx:hr>164</gpxtpx:hr></gpxtpx:TrackPointExtension></extensions>
      </trkpt>
      <trkpt lat="59.991186289117" lon="15.82527089864">
        <ele>114.2</ele>
        <time>2014-04-29T20:44:50Z</time>
        <extensions><gpxtpx:TrackPointExtension><gpxtpx:hr>166</gpxtpx:hr></gpxtpx:TrackPointExtension></extensions>
      </trkpt>
      <trkpt lat="59.9911514204" lon="15.825491761789">
        <ele>114.4</ele>
        <time>2014-04-29T20:44:55Z</time>
        <extensions><gpxtpx:TrackPointExtension><gpxtpx:hr>167</gpxtpx:hr></gpxtpx:TrackPointExtension></extensions>
      </trkpt>
      <trkpt lat="59.9911514204" lon="15.82559033297">
        <ele>114.6</ele>
        <time>2014-04-29T20:44:57Z</time>
        <extensions><gpxtpx:TrackPointExtension><gpxtpx:hr>167</gpxtpx:hr></gpxtpx:TrackPointExtension></extensions>
      </trkpt>
      <trkpt lat="59.99118427746" lon="15.825678007677">
        <ele>114.8</ele>
        <time>2014-04-29T20:44:59Z</time>
        <extensions><gpxtpx:TrackPointExtension><gpxtpx:hr>167</gpxtpx:hr></gpxtpx:TrackPointExtension></extensions>
      </trkpt>
      <trkpt lat="59.991206405684" lon="15.825718911365">
        <ele>114.8</ele>
        <time>2014-04-29T20:45:00Z</time>
        <extensions><gpxtpx:TrackPointExtension><gpxtpx:hr>167</gpxtpx:hr></gpxtpx:TrackPointExtension></extensions>
      </trkpt>
      <trkpt lat="59.991237502545" lon="15.825713044032">
        <ele>115</ele>
        <time>2014-04-29T20:45:01Z</time>
        <extensions><gpxtpx:TrackPointExtension><gpxtpx:hr>168</gpxtpx:hr></gpxtpx:TrackPointExtension></extensions>
      </trkpt>
      <trkpt lat="59.991422826424" lon="15.825747158378">
        <ele>115.8</ele>
        <time>2014-04-29T20:45:08Z</time>
        <extensions><gpxtpx:TrackPointExtension><gpxtpx:hr>169</gpxtpx:hr></gpxtpx:TrackPointExtension></extensions>
      </trkpt>
      <trkpt lat="59.991448977962" lon="15.825755456463">
        <ele>116</ele>
        <time>2014-04-29T20:45:09Z</time>
        <extensions><gpxtpx:TrackPointExtension><gpxtpx:hr>169</gpxtpx:hr></gpxtpx:TrackPointExtension></extensions>
      </trkpt>
      <trkpt lat="59.99163790606" lon="15.825785715133">
        <ele>117</ele>
        <time>2014-04-29T20:45:16Z</time>
        <extensions><gpxtpx:TrackPointExtension><gpxtpx:hr>169</gpxtpx:hr></gpxtpx:TrackPointExtension></extensions>
      </trkpt>
      <trkpt lat="59.991788109764" lon="15.825800132006">
        <ele>118</ele>
        <time>2014-04-29T20:45:22Z</time>
        <extensions><gpxtpx:TrackPointExtension><gpxtpx:hr>169</gpxtpx:hr></gpxtpx:TrackPointExtension></extensions>
      </trkpt>
      <trkpt lat="59.991894643754" lon="15.825810860842">
        <ele>118.8</ele>
        <time>2014-04-29T20:45:26Z</time>
        <extensions><gpxtpx:TrackPointExtension><gpxtpx:hr>170</gpxtpx:hr></gpxtpx:TrackPointExtension></extensions>
      </trkpt>
      <trkpt lat="59.992031520233" lon="15.825862074271">
        <ele>119.2</ele>
        <time>2014-04-29T20:45:32Z</time>
        <extensions><gpxtpx:TrackPointExtension><gpxtpx:hr>172</gpxtpx:hr></gpxtpx:TrackPointExtension></extensions>
      </trkpt>
      <trkpt lat="59.992058677599" lon="15.825879592448">
        <ele>119.4</ele>
        <time>2014-04-29T20:45:33Z</time>
        <extensions><gpxtpx:TrackPointExtension><gpxtpx:hr>172</gpxtpx:hr></gpxtpx:TrackPointExtension></extensions>
      </trkpt>
      <trkpt lat="59.992197649553" lon="15.825986294076">
        <ele>120.2</ele>
        <time>2014-04-29T20:45:39Z</time>
        <extensions><gpxtpx:TrackPointExtension><gpxtpx:hr>170</gpxtpx:hr></gpxtpx:TrackPointExtension></extensions>
      </trkpt>
      <trkpt lat="59.99226805754" lon="15.826054774225">
        <ele>120.4</ele>
        <time>2014-04-29T20:45:42Z</time>
        <extensions><gpxtpx:TrackPointExtension><gpxtpx:hr>169</gpxtpx:hr></gpxtpx:TrackPointExtension></extensions>
      </trkpt>
      <trkpt lat="59.992434438318" lon="15.826275972649">
        <ele>120.4</ele>
        <time>2014-04-29T20:45:49Z</time>
        <extensions><gpxtpx:TrackPointExtension><gpxtpx:hr>170</gpxtpx:hr></gpxtpx:TrackPointExtension></extensions>
      </trkpt>
      <trkpt lat="59.992454219609" lon="15.826308745891">
        <ele>120.4</ele>
        <time>2014-04-29T20:45:50Z</time>
        <extensions><gpxtpx:TrackPointExtension><gpxtpx:hr>170</gpxtpx:hr></gpxtpx:TrackPointExtension></extensions>
      </trkpt>
      <trkpt lat="59.992604507133" lon="15.826570428908">
        <ele>120.4</ele>
        <time>2014-04-29T20:45:57Z</time>
        <extensions><gpxtpx:TrackPointExtension><gpxtpx:hr>171</gpxtpx:hr></gpxtpx:TrackPointExtension></extensions>
      </trkpt>
      <trkpt lat="59.992623282596" lon="15.82660487853">
        <ele>120.4</ele>
        <time>2014-04-29T20:45:58Z</time>
        <extensions><gpxtpx:TrackPointExtension><gpxtpx:hr>171</gpxtpx:hr></gpxtpx:TrackPointExtension></extensions>
      </trkpt>
      <trkpt lat="59.992758063599" lon="15.826871087775">
        <ele>120.6</ele>
        <time>2014-04-29T20:46:05Z</time>
        <extensions><gpxtpx:TrackPointExtension><gpxtpx:hr>171</gpxtpx:hr></gpxtpx:TrackPointExtension></extensions>
      </trkpt>
      <trkpt lat="59.992791842669" lon="15.82695549354">
        <ele>121</ele>
        <time>2014-04-29T20:46:07Z</time>
        <extensions><gpxtpx:TrackPointExtension><gpxtpx:hr>171</gpxtpx:hr></gpxtpx:TrackPointExtension></extensions>
      </trkpt>
      <trkpt lat="59.992790166289" lon="15.827042162418">
        <ele>121</ele>
        <time>2014-04-29T20:46:09Z</time>
        <extensions><gpxtpx:TrackPointExtension><gpxtpx:hr>171</gpxtpx:hr></gpxtpx:TrackPointExtension></extensions>
      </trkpt>
      <trkpt lat="59.992758147418" lon="15.827118018642">
        <ele>121.2</ele>
        <time>2014-04-29T20:46:11Z</time>
        <extensions><gpxtpx:TrackPointExtension><gpxtpx:hr>172</gpxtpx:hr></gpxtpx:TrackPointExtension></extensions>
      </trkpt>
      <trkpt lat="59.992735013366" lon="15.827143834904">
        <ele>121.4</ele>
        <time>2014-04-29T20:46:12Z</time>
        <extensions><gpxtpx:TrackPointExtension><gpxtpx:hr>172</gpxtpx:hr></gpxtpx:TrackPointExtension></extensions>
      </trkpt>
      <trkpt lat="59.992622192949" lon="15.827262690291">
        <ele>121.8</ele>
        <time>2014-04-29T20:46:16Z</time>
        <extensions><gpxtpx:TrackPointExtension><gpxtpx:hr>172</gpxtpx:hr></gpxtpx:TrackPointExtension></extensions>
      </trkpt>
      <trkpt lat="59.992466373369" lon="15.827429993078">
        <ele>122</ele>
        <time>2014-04-29T20:46:22Z</time>
        <extensions><gpxtpx:TrackPointExtension><gpxtpx:hr>170</gpxtpx:hr></gpxtpx:TrackPointExtension></extensions>
      </trkpt>
      <trkpt lat="59.992313235998" lon="15.827597128227">
        <ele>121.8</ele>
        <time>2014-04-29T20:46:29Z</time>
        <extensions><gpxtpx:TrackPointExtension><gpxtpx:hr>170</gpxtpx:hr></gpxtpx:TrackPointExtension></extensions>
      </trkpt>
      <trkpt lat="59.992166636512" lon="15.82779510878">
        <ele>122.4</ele>
        <time>2014-04-29T20:46:35Z</time>
        <extensions><gpxtpx:TrackPointExtension><gpxtpx:hr>170</gpxtpx:hr></gpxtpx:TrackPointExtension></extensions>
      </trkpt>
      <trkpt lat="59.991999333724" lon="15.82800465636">
        <ele>123.2</ele>
        <time>2014-04-29T20:46:43Z</time>
        <extensions><gpxtpx:TrackPointExtension><gpxtpx:hr>172</gpxtpx:hr></gpxtpx:TrackPointExtension></extensions>
      </trkpt>
      <trkpt lat="59.991980222985" lon="15.828033825383">
        <ele>123.4</ele>
        <time>2014-04-29T20:46:44Z</time>
        <extensions><gpxtpx:TrackPointExtension><gpxtpx:hr>171</gpxtpx:hr></gpxtpx:TrackPointExtension></extensions>
      </trkpt>
      <trkpt lat="59.991835551336" lon="15.828263154253">
        <ele>123.8</ele>
        <time>2014-04-29T20:46:52Z</time>
        <extensions><gpxtpx:TrackPointExtension><gpxtpx:hr>171</gpxtpx:hr></gpxtpx:TrackPointExtension></extensions>
      </trkpt>
      <trkpt lat="59.991799928248" lon="15.828324761242">
        <ele>124.2</ele>
        <time>2014-04-29T20:46:54Z</time>
        <extensions><gpxtpx:TrackPointExtension><gpxtpx:hr>171</gpxtpx:hr></gpxtpx:TrackPointExtension></extensions>
      </trkpt>
      <trkpt lat="59.991770172492" lon="15.828342949972">
        <ele>124.2</ele>
        <time>2014-04-29T20:46:55Z</time>
        <extensions><gpxtpx:TrackPointExtension><gpxtpx:hr>171</gpxtpx:hr></gpxtpx:TrackPointExtension></extensions>
      </trkpt>
      <trkpt lat="59.991699764505" lon="15.828419476748">
        <ele>124.6</ele>
        <time>2014-04-29T20:46:58Z</time>
        <extensions><gpxtpx:TrackPointExtension><gpxtpx:hr>171</gpxtpx:hr></gpxtpx:TrackPointExtension></extensions>
      </trkpt>
      <trkpt lat="59.991678809747" lon="15.828433725983">
        <ele>124.6</ele>
        <time>2014-04-29T20:46:59Z</time>
        <extensions><gpxtpx:TrackPointExtension><gpxtpx:hr>171</gpxtpx:hr></gpxtpx:TrackPointExtension></extensions>
      </trkpt>
      <trkpt lat="59.991517039016" lon="15.828663306311">
        <ele>125.2</ele>
        <time>2014-04-29T20:47:07Z</time>
        <extensions><gpxtpx:TrackPointExtension><gpxtpx:hr>171</gpxtpx:hr></gpxtpx:TrackPointExtension></extensions>
      </trkpt>
      <trkpt lat="59.991446882486" lon="15.828800518066">
        <ele>125.8</ele>
        <time>2014-04-29T20:47:11Z</time>
        <extensions><gpxtpx:TrackPointExtension><gpxtpx:hr>171</gpxtpx:hr></gpxtpx:TrackPointExtension></extensions>
      </trkpt>
      <trkpt lat="59.991380497813" lon="15.828957092017">
        <ele>126</ele>
        <time>2014-04-29T20:47:15Z</time>
        <extensions><gpxtpx:TrackPointExtension><gpxtpx:hr>170</gpxtpx:hr></gpxtpx:TrackPointExtension></extensions>
      </trkpt>
      <trkpt lat="59.991293074563" lon="15.829086257145">
        <ele>126.2</ele>
        <time>2014-04-29T20:47:19Z</time>
        <extensions><gpxtpx:TrackPointExtension><gpxtpx:hr>170</gpxtpx:hr></gpxtpx:TrackPointExtension></extensions>
      </trkpt>
      <trkpt lat="59.9912258517" lon="15.82917409949">
        <ele>126.2</ele>
        <time>2014-04-29T20:47:22Z</time>
        <extensions><gpxtpx:TrackPointExtension><gpxtpx:hr>170</gpxtpx:hr></gpxtpx:TrackPointExtension></extensions>
      </trkpt>
      <trkpt lat="59.991082688794" lon="15.829437458888">
        <ele>126.6</ele>
        <time>2014-04-29T20:47:30Z</time>
        <extensions><gpxtpx:TrackPointExtension><gpxtpx:hr>169</gpxtpx:hr></gpxtpx:TrackPointExtension></extensions>
      </trkpt>
      <trkpt lat="59.991059973836" lon="15.829476937652">
        <ele>126.8</ele>
        <time>2014-04-29T20:47:31Z</time>
        <extensions><gpxtpx:TrackPointExtension><gpxtpx:hr>170</gpxtpx:hr></gpxtpx:TrackPointExtension></extensions>
      </trkpt>
      <trkpt lat="59.990972969681" lon="15.829649269581">
        <ele>127</ele>
        <time>2014-04-29T20:47:36Z</time>
        <extensions><gpxtpx:TrackPointExtension><gpxtpx:hr>170</gpxtpx:hr></gpxtpx:TrackPointExtension></extensions>
      </trkpt>
      <trkpt lat="59.99083802104" lon="15.829888321459">
        <ele>127</ele>
        <time>2014-04-29T20:47:43Z</time>
        <extensions><gpxtpx:TrackPointExtension><gpxtpx:hr>170</gpxtpx:hr></gpxtpx:TrackPointExtension></extensions>
      </trkpt>
      <trkpt lat="59.99066577293" lon="15.830276235938">
        <ele>127</ele>
        <time>2014-04-29T20:47:53Z</time>
        <extensions><gpxtpx:TrackPointExtension><gpxtpx:hr>170</gpxtpx:hr></gpxtpx:TrackPointExtension></extensions>
      </trkpt>
      <trkpt lat="59.990647081286" lon="15.83031328395">
        <ele>127</ele>
        <time>2014-04-29T20:47:54Z</time>
        <extensions><gpxtpx:TrackPointExtension><gpxtpx:hr>170</gpxtpx:hr></gpxtpx:TrackPointExtension></extensions>
      </trkpt>
      <trkpt lat="59.990517832339" lon="15.830623582006">
        <ele>126.6</ele>
        <time>2014-04-29T20:48:01Z</time>
        <extensions><gpxtpx:TrackPointExtension><gpxtpx:hr>169</gpxtpx:hr></gpxtpx:TrackPointExtension></extensions>
      </trkpt>
      <trkpt lat="59.990478102118" lon="15.830713687465">
        <ele>126.8</ele>
        <time>2014-04-29T20:48:03Z</time>
        <extensions><gpxtpx:TrackPointExtension><gpxtpx:hr>169</gpxtpx:hr></gpxtpx:TrackPointExtension></extensions>
      </trkpt>
      <trkpt lat="59.990352205932" lon="15.831041922793">
        <ele>127</ele>
        <time>2014-04-29T20:48:11Z</time>
        <extensions><gpxtpx:TrackPointExtension><gpxtpx:hr>169</gpxtpx:hr></gpxtpx:TrackPointExtension></extensions>
      </trkpt>
      <trkpt lat="59.990334520116" lon="15.831082239747">
        <ele>127</ele>
        <time>2014-04-29T20:48:12Z</time>
        <extensions><gpxtpx:TrackPointExtension><gpxtpx:hr>169</gpxtpx:hr></gpxtpx:TrackPointExtension></extensions>
      </trkpt>
      <trkpt lat="59.990228153765" lon="15.831360602751">
        <ele>127</ele>
        <time>2014-04-29T20:48:18Z</time>
        <extensions><gpxtpx:TrackPointExtension><gpxtpx:hr>167</gpxtpx:hr></gpxtpx:TrackPointExtension></extensions>
      </trkpt>
      <trkpt lat="59.990120949224" lon="15.831685401499">
        <ele>127.2</ele>
        <time>2014-04-29T20:48:25Z</time>
        <extensions><gpxtpx:TrackPointExtension><gpxtpx:hr>167</gpxtpx:hr></gpxtpx:TrackPointExtension></extensions>
      </trkpt>
      <trkpt lat="59.9900173489" lon="15.832025036216">
        <ele>126.8</ele>
        <time>2014-04-29T20:48:32Z</time>
        <extensions><gpxtpx:TrackPointExtension><gpxtpx:hr>169</gpxtpx:hr></gpxtpx:TrackPointExtension></extensions>
      </trkpt>
      <trkpt lat="59.989996058866" lon="15.832126289606">
        <ele>127</ele>
        <time>2014-04-29T20:48:34Z</time>
        <extensions><gpxtpx:TrackPointExtension><gpxtpx:hr>169</gpxtpx:hr></gpxtpx:TrackPointExtension></extensions>
      </trkpt>
      <trkpt lat="59.989922046661" lon="15.832374310121">
        <ele>126.6</ele>
        <time>2014-04-29T20:48:39Z</time>
        <extensions><gpxtpx:TrackPointExtension><gpxtpx:hr>168</gpxtpx:hr></gpxtpx:TrackPointExtension></extensions>
      </trkpt>
      <trkpt lat="59.989875862375" lon="15.832405406982">
        <ele>126.8</ele>
        <time>2014-04-29T20:48:41Z</time>
        <extensions><gpxtpx:TrackPointExtension><gpxtpx:hr>169</gpxtpx:hr></gpxtpx:TrackPointExtension></extensions>
      </trkpt>
      <trkpt lat="59.989827247337" lon="15.832377159968">
        <ele>126.8</ele>
        <time>2014-04-29T20:48:43Z</time>
        <extensions><gpxtpx:TrackPointExtension><gpxtpx:hr>169</gpxtpx:hr></gpxtpx:TrackPointExtension></extensions>
      </trkpt>
      <trkpt lat="59.989746194333" lon="15.832292083651">
        <ele>127.2</ele>
        <time>2014-04-29T20:48:47Z</time>
        <extensions><gpxtpx:TrackPointExtension><gpxtpx:hr>170</gpxtpx:hr></gpxtpx:TrackPointExtension></extensions>
      </trkpt>
      <trkpt lat="59.989667739719" lon="15.832206839696">
        <ele>128</ele>
        <time>2014-04-29T20:48:51Z</time>
        <extensions><gpxtpx:TrackPointExtension><gpxtpx:hr>169</gpxtpx:hr></gpxtpx:TrackPointExtension></extensions>
      </trkpt>
      <trkpt lat="59.989556428045" lon="15.832080189139">
        <ele>128.4</ele>
        <time>2014-04-29T20:48:56Z</time>
        <extensions><gpxtpx:TrackPointExtension><gpxtpx:hr>170</gpxtpx:hr></gpxtpx:TrackPointExtension></extensions>
      </trkpt>
      <trkpt lat="59.989442098886" lon="15.831918921322">
        <ele>128.2</ele>
        <time>2014-04-29T20:49:02Z</time>
        <extensions><gpxtpx:TrackPointExtension><gpxtpx:hr>167</gpxtpx:hr></gpxtpx:TrackPointExtension></extensions>
      </trkpt>
      <trkpt lat="59.989350736141" lon="15.831794533879">
        <ele>128.2</ele>
        <time>2014-04-29T20:49:06Z</time>
        <extensions><gpxtpx:TrackPointExtension><gpxtpx:hr>164</gpxtpx:hr></gpxtpx:TrackPointExtension></extensions>
      </trkpt>
      <trkpt lat="59.989324584603" lon="15.831752708182">
        <ele>128</ele>
        <time>2014-04-29T20:49:07Z</time>
        <extensions><gpxtpx:TrackPointExtension><gpxtpx:hr>163</gpxtpx:hr></gpxtpx:TrackPointExtension></extensions>
      </trkpt>
      <trkpt lat="59.989209417254" lon="15.831484990194">
        <ele>127.6</ele>
        <time>2014-04-29T20:49:13Z</time>
        <extensions><gpxtpx:TrackPointExtension><gpxtpx:hr>164</gpxtpx:hr></gpxtpx:TrackPointExtension></extensions>
      </trkpt>
      <trkpt lat="59.989158539101" lon="15.831250716001">
        <ele>127</ele>
        <time>2014-04-29T20:49:18Z</time>
        <extensions><gpxtpx:TrackPointExtension><gpxtpx:hr>166</gpxtpx:hr></gpxtpx:TrackPointExtension></extensions>
      </trkpt>
      <trkpt lat="59.989141104743" lon="15.831154827029">
        <ele>126.6</ele>
        <time>2014-04-29T20:49:20Z</time>
        <extensions><gpxtpx:TrackPointExtension><gpxtpx:hr>167</gpxtpx:hr></gpxtpx:TrackPointExtension></extensions>
      </trkpt>
      <trkpt lat="59.989161137491" lon="15.83110017702">
        <ele>126.6</ele>
        <time>2014-04-29T20:49:21Z</time>
        <extensions><gpxtpx:TrackPointExtension><gpxtpx:hr>168</gpxtpx:hr></gpxtpx:TrackPointExtension></extensions>
      </trkpt>
      <trkpt lat="59.989196257666" lon="15.831012837589">
        <ele>126.4</ele>
        <time>2014-04-29T20:49:23Z</time>
        <extensions><gpxtpx:TrackPointExtension><gpxtpx:hr>168</gpxtpx:hr></gpxtpx:TrackPointExtension></extensions>
      </trkpt>
      <trkpt lat="59.989325841889" lon="15.830743694678">
        <ele>126.2</ele>
        <time>2014-04-29T20:49:30Z</time>
        <extensions><gpxtpx:TrackPointExtension><gpxtpx:hr>168</gpxtpx:hr></gpxtpx:TrackPointExtension></extensions>
      </trkpt>
      <trkpt lat="59.989363308996" lon="15.830655936152">
        <ele>126.6</ele>
        <time>2014-04-29T20:49:32Z</time>
        <extensions><gpxtpx:TrackPointExtension><gpxtpx:hr>169</gpxtpx:hr></gpxtpx:TrackPointExtension></extensions>
      </trkpt>
      <trkpt lat="59.98948761262" lon="15.830381428823">
        <ele>127</ele>
        <time>2014-04-29T20:49:39Z</time>
        <extensions><gpxtpx:TrackPointExtension><gpxtpx:hr>169</gpxtpx:hr></gpxtpx:TrackPointExtension></extensions>
      </trkpt>
      <trkpt lat="59.989500688389" lon="15.830331556499">
        <ele>127</ele>
        <time>2014-04-29T20:49:40Z</time>
        <extensions><gpxtpx:TrackPointExtension><gpxtpx:hr>168</gpxtpx:hr></gpxtpx:TrackPointExtension></extensions>
      </trkpt>
      <trkpt lat="59.989497000352" lon="15.830277409405">
        <ele>127</ele>
        <time>2014-04-29T20:49:41Z</time>
        <extensions><gpxtpx:TrackPointExtension><gpxtpx:hr>169</gpxtpx:hr></gpxtpx:TrackPointExtension></extensions>
      </trkpt>
      <trkpt lat="59.989482332021" lon="15.830119913444">
        <ele>127</ele>
        <time>2014-04-29T20:49:44Z</time>
        <extensions><gpxtpx:TrackPointExtension><gpxtpx:hr>169</gpxtpx:hr></gpxtpx:TrackPointExtension></extensions>
      </trkpt>
      <trkpt lat="59.989462886006" lon="15.830071633682">
        <ele>127</ele>
        <time>2014-04-29T20:49:45Z</time>
        <extensions><gpxtpx:TrackPointExtension><gpxtpx:hr>169</gpxtpx:hr></gpxtpx:TrackPointExtension></extensions>
      </trkpt>
      <trkpt lat="59.9893941544" lon="15.82994280383">
        <ele>127.2</ele>
        <time>2014-04-29T20:49:49Z</time>
        <extensions><gpxtpx:TrackPointExtension><gpxtpx:hr>170</gpxtpx:hr></gpxtpx:TrackPointExtension></extensions>
      </trkpt>
      <trkpt lat="59.989283261821" lon="15.829751193523">
        <ele>128</ele>
        <time>2014-04-29T20:49:54Z</time>
        <extensions><gpxtpx:TrackPointExtension><gpxtpx:hr>170</gpxtpx:hr></gpxtpx:TrackPointExtension></extensions>
      </trkpt>
      <trkpt lat="59.989255852997" lon="15.829684389755">
        <ele>128.2</ele>
        <time>2014-04-29T20:49:56Z</time>
        <extensions><gpxtpx:TrackPointExtension><gpxtpx:hr>170</gpxtpx:hr></gpxtpx:TrackPointExtension></extensions>
      </trkpt>
      <trkpt lat="59.989088047296" lon="15.829498311505">
        <ele>128</ele>
        <time>2014-04-29T20:50:03Z</time>
        <extensions><gpxtpx:TrackPointExtension><gpxtpx:hr>168</gpxtpx:hr></gpxtpx:TrackPointExtension></extensions>
      </trkpt>
      <trkpt lat="59.988911608234" lon="15.829355316237">
        <ele>127.2</ele>
        <time>2014-04-29T20:50:10Z</time>
        <extensions><gpxtpx:TrackPointExtension><gpxtpx:hr>167</gpxtpx:hr></gpxtpx:TrackPointExtension></extensions>
      </trkpt>
      <trkpt lat="59.988885791972" lon="15.829332601279">
        <ele>127.2</ele>
        <time>2014-04-29T20:50:11Z</time>
        <extensions><gpxtpx:TrackPointExtension><gpxtpx:hr>167</gpxtpx:hr></gpxtpx:TrackPointExtension></extensions>
      </trkpt>
      <trkpt lat="59.988860813901" lon="15.829310724512">
        <ele>127</ele>
        <time>2014-04-29T20:50:12Z</time>
        <extensions><gpxtpx:TrackPointExtension><gpxtpx:hr>168</gpxtpx:hr></gpxtpx:TrackPointExtension></extensions>
      </trkpt>
      <trkpt lat="59.98878470622" lon="15.82930737175">
        <ele>126.6</ele>
        <time>2014-04-29T20:50:15Z</time>
        <extensions><gpxtpx:TrackPointExtension><gpxtpx:hr>167</gpxtpx:hr></gpxtpx:TrackPointExtension></extensions>
      </trkpt>
      <trkpt lat="59.988746987656" lon="15.829369984567">
        <ele>126.4</ele>
        <time>2014-04-29T20:50:17Z</time>
        <extensions><gpxtpx:TrackPointExtension><gpxtpx:hr>167</gpxtpx:hr></gpxtpx:TrackPointExtension></extensions>
      </trkpt>
      <trkpt lat="59.988740868866" lon="15.829474171624">
        <ele>126.2</ele>
        <time>2014-04-29T20:50:19Z</time>
        <extensions><gpxtpx:TrackPointExtension><gpxtpx:hr>167</gpxtpx:hr></gpxtpx:TrackPointExtension></extensions>
      </trkpt>
      <trkpt lat="59.988760817796" lon="15.829632421955">
        <ele>126.2</ele>
        <time>2014-04-29T20:50:22Z</time>
        <extensions><gpxtpx:TrackPointExtension><gpxtpx:hr>167</gpxtpx:hr></gpxtpx:TrackPointExtension></extensions>
      </trkpt>
      <trkpt lat="59.988793004304" lon="15.829991502687">
        <ele>126.4</ele>
        <time>2014-04-29T20:50:29Z</time>
        <extensions><gpxtpx:TrackPointExtension><gpxtpx:hr>167</gpxtpx:hr></gpxtpx:TrackPointExtension></extensions>
      </trkpt>
      <trkpt lat="59.98879509978" lon="15.830094935372">
        <ele>126.6</ele>
        <time>2014-04-29T20:50:31Z</time>
        <extensions><gpxtpx:TrackPointExtension><gpxtpx:hr>167</gpxtpx:hr></gpxtpx:TrackPointExtension></extensions>
      </trkpt>
      <trkpt lat="59.988736342639" lon="15.830396516249">
        <ele>127.2</ele>
        <time>2014-04-29T20:50:37Z</time>
        <extensions><gpxtpx:TrackPointExtension><gpxtpx:hr>167</gpxtpx:hr></gpxtpx:TrackPointExtension></extensions>
      </trkpt>
      <trkpt lat="59.988632071763" lon="15.830695498735">
        <ele>127.6</ele>
        <time>2014-04-29T20:50:44Z</time>
        <extensions><gpxtpx:TrackPointExtension><gpxtpx:hr>167</gpxtpx:hr></gpxtpx:TrackPointExtension></extensions>
      </trkpt>
      <trkpt lat="59.988608350977" lon="15.830776551738">
        <ele>127.8</ele>
        <time>2014-04-29T20:50:46Z</time>
        <extensions><gpxtpx:TrackPointExtension><gpxtpx:hr>167</gpxtpx:hr></gpxtpx:TrackPointExtension></extensions>
      </trkpt>
      <trkpt lat="59.988519502804" lon="15.831039072946">
        <ele>127.8</ele>
        <time>2014-04-29T20:50:52Z</time>
        <extensions><gpxtpx:TrackPointExtension><gpxtpx:hr>167</gpxtpx:hr></gpxtpx:TrackPointExtension></extensions>
      </trkpt>
      <trkpt lat="59.988419171423" lon="15.83136160858">
        <ele>128</ele>
        <time>2014-04-29T20:50:59Z</time>
        <extensions><gpxtpx:TrackPointExtension><gpxtpx:hr>168</gpxtpx:hr></gpxtpx:TrackPointExtension></extensions>
      </trkpt>
      <trkpt lat="59.988394696265" lon="15.831454060972">
        <ele>127.8</ele>
        <time>2014-04-29T20:51:01Z</time>
        <extensions><gpxtpx:TrackPointExtension><gpxtpx:hr>168</gpxtpx:hr></gpxtpx:TrackPointExtension></extensions>
      </trkpt>
      <trkpt lat="59.988295873627" lon="15.831763939932">
        <ele>126.2</ele>
        <time>2014-04-29T20:51:08Z</time>
        <extensions><gpxtpx:TrackPointExtension><gpxtpx:hr>167</gpxtpx:hr></gpxtpx:TrackPointExtension></extensions>
      </trkpt>
      <trkpt lat="59.988277014345" lon="15.831799814478">
        <ele>125.8</ele>
        <time>2014-04-29T20:51:09Z</time>
        <extensions><gpxtpx:TrackPointExtension><gpxtpx:hr>166</gpxtpx:hr></gpxtpx:TrackPointExtension></extensions>
      </trkpt>
      <trkpt lat="59.988223621622" lon="15.831918837503">
        <ele>124.6</ele>
        <time>2014-04-29T20:51:12Z</time>
        <extensions><gpxtpx:TrackPointExtension><gpxtpx:hr>166</gpxtpx:hr></gpxtpx:TrackPointExtension></extensions>
      </trkpt>
      <trkpt lat="59.988172575831" lon="15.832055713981">
        <ele>124</ele>
        <time>2014-04-29T20:51:15Z</time>
        <extensions><gpxtpx:TrackPointExtension><gpxtpx:hr>166</gpxtpx:hr></gpxtpx:TrackPointExtension></extensions>
      </trkpt>
      <trkpt lat="59.988117422909" lon="15.832173982635">
        <ele>123.6</ele>
        <time>2014-04-29T20:51:18Z</time>
        <extensions><gpxtpx:TrackPointExtension><gpxtpx:hr>166</gpxtpx:hr></gpxtpx:TrackPointExtension></extensions>
      </trkpt>
      <trkpt lat="59.98804542236" lon="15.832269201055">
        <ele>123.2</ele>
        <time>2014-04-29T20:51:22Z</time>
        <extensions><gpxtpx:TrackPointExtension><gpxtpx:hr>165</gpxtpx:hr></gpxtpx:TrackPointExtension></extensions>
      </trkpt>
      <trkpt lat="59.987940480933" lon="15.83239861764">
        <ele>123</ele>
        <time>2014-04-29T20:51:27Z</time>
        <extensions><gpxtpx:TrackPointExtension><gpxtpx:hr>165</gpxtpx:hr></gpxtpx:TrackPointExtension></extensions>
      </trkpt>
      <trkpt lat="59.987896811217" lon="15.832448657602">
        <ele>123.2</ele>
        <time>2014-04-29T20:51:29Z</time>
        <extensions><gpxtpx:TrackPointExtension><gpxtpx:hr>165</gpxtpx:hr></gpxtpx:TrackPointExtension></extensions>
      </trkpt>
      <trkpt lat="59.987833444029" lon="15.832501547411">
        <ele>123.2</ele>
        <time>2014-04-29T20:51:32Z</time>
        <extensions><gpxtpx:TrackPointExtension><gpxtpx:hr>167</gpxtpx:hr></gpxtpx:TrackPointExtension></extensions>
      </trkpt>
      <trkpt lat="59.987658094615" lon="15.832614870742">
        <ele>123.4</ele>
        <time>2014-04-29T20:51:39Z</time>
        <extensions><gpxtpx:TrackPointExtension><gpxtpx:hr>168</gpxtpx:hr></gpxtpx:TrackPointExtension></extensions>
      </trkpt>
      <trkpt lat="59.987488109618" lon="15.83280371502">
        <ele>123.6</ele>
        <time>2014-04-29T20:51:46Z</time>
        <extensions><gpxtpx:TrackPointExtension><gpxtpx:hr>167</gpxtpx:hr></gpxtpx:TrackPointExtension></extensions>
      </trkpt>
      <trkpt lat="59.987433627248" lon="15.832868339494">
        <ele>123.6</ele>
        <time>2014-04-29T20:51:48Z</time>
        <extensions><gpxtpx:TrackPointExtension><gpxtpx:hr>166</gpxtpx:hr></gpxtpx:TrackPointExtension></extensions>
      </trkpt>
      <trkpt lat="59.98727160506" lon="15.833107139915">
        <ele>122.8</ele>
        <time>2014-04-29T20:51:56Z</time>
        <extensions><gpxtpx:TrackPointExtension><gpxtpx:hr>165</gpxtpx:hr></gpxtpx:TrackPointExtension></extensions>
      </trkpt>
      <trkpt lat="59.987188624218" lon="15.833242340013">
        <ele>122.6</ele>
        <time>2014-04-29T20:52:00Z</time>
        <extensions><gpxtpx:TrackPointExtension><gpxtpx:hr>165</gpxtpx:hr></gpxtpx:TrackPointExtension></extensions>
      </trkpt>
      <trkpt lat="59.98713648878" lon="15.8333404921">
        <ele>122.2</ele>
        <time>2014-04-29T20:52:03Z</time>
        <extensions><gpxtpx:TrackPointExtension><gpxtpx:hr>164</gpxtpx:hr></gpxtpx:TrackPointExtension></extensions>
      </trkpt>
      <trkpt lat="59.987066835165" lon="15.833633607253">
        <ele>121.8</ele>
        <time>2014-04-29T20:52:10Z</time>
        <extensions><gpxtpx:TrackPointExtension><gpxtpx:hr>163</gpxtpx:hr></gpxtpx:TrackPointExtension></extensions>
      </trkpt>
      <trkpt lat="59.987008748576" lon="15.833940804005">
        <ele>121.6</ele>
        <time>2014-04-29T20:52:17Z</time>
        <extensions><gpxtpx:TrackPointExtension><gpxtpx:hr>163</gpxtpx:hr></gpxtpx:TrackPointExtension></extensions>
      </trkpt>
      <trkpt lat="59.986960887909" lon="15.834140041843">
        <ele>121.8</ele>
        <time>2014-04-29T20:52:21Z</time>
        <extensions><gpxtpx:TrackPointExtension><gpxtpx:hr>163</gpxtpx:hr></gpxtpx:TrackPointExtension></extensions>
      </trkpt>
      <trkpt lat="59.986949656159" lon="15.834182621911">
        <ele>121.8</ele>
        <time>2014-04-29T20:52:22Z</time>
        <extensions><gpxtpx:TrackPointExtension><gpxtpx:hr>163</gpxtpx:hr></gpxtpx:TrackPointExtension></extensions>
      </trkpt>
      <trkpt lat="59.986910093576" lon="15.8345696982">
        <ele>121.8</ele>
        <time>2014-04-29T20:52:29Z</time>
        <extensions><gpxtpx:TrackPointExtension><gpxtpx:hr>163</gpxtpx:hr></gpxtpx:TrackPointExtension></extensions>
      </trkpt>
      <trkpt lat="59.986902885139" lon="15.834684614092">
        <ele>121.8</ele>
        <time>2014-04-29T20:52:31Z</time>
        <extensions><gpxtpx:TrackPointExtension><gpxtpx:hr>164</gpxtpx:hr></gpxtpx:TrackPointExtension></extensions>
      </trkpt>
      <trkpt lat="59.98690104112" lon="15.834851581603">
        <ele>121.6</ele>
        <time>2014-04-29T20:52:34Z</time>
        <extensions><gpxtpx:TrackPointExtension><gpxtpx:hr>164</gpxtpx:hr></gpxtpx:TrackPointExtension></extensions>
      </trkpt>
      <trkpt lat="59.986895592883" lon="15.834971945733">
        <ele>121.6</ele>
        <time>2014-04-29T20:52:36Z</time>
        <extensions><gpxtpx:TrackPointExtension><gpxtpx:hr>165</gpxtpx:hr></gpxtpx:TrackPointExtension></extensions>
      </trkpt>
      <trkpt lat="59.986922917888" lon="15.835344772786">
        <ele>121.8</ele>
        <time>2014-04-29T20:52:43Z</time>
        <extensions><gpxtpx:TrackPointExtension><gpxtpx:hr>166</gpxtpx:hr></gpxtpx:TrackPointExtension></extensions>
      </trkpt>
      <trkpt lat="59.986935742199" lon="15.835389951244">
        <ele>121.8</ele>
        <time>2014-04-29T20:52:44Z</time>
        <extensions><gpxtpx:TrackPointExtension><gpxtpx:hr>165</gpxtpx:hr></gpxtpx:TrackPointExtension></extensions>
      </trkpt>
      <trkpt lat="59.986976729706" lon="15.835502604023">
        <ele>121.6</ele>
        <time>2014-04-29T20:52:47Z</time>
        <extensions><gpxtpx:TrackPointExtension><gpxtpx:hr>164</gpxtpx:hr></gpxtpx:TrackPointExtension></extensions>
      </trkpt>
      <trkpt lat="59.986976729706" lon="15.835546692833">
        <ele>121.6</ele>
        <time>2014-04-29T20:52:48Z</time>
        <extensions><gpxtpx:TrackPointExtension><gpxtpx:hr>164</gpxtpx:hr></gpxtpx:TrackPointExtension></extensions>
      </trkpt>
      <trkpt lat="59.986951164901" lon="15.835577705875">
        <ele>121.6</ele>
        <time>2014-04-29T20:52:49Z</time>
        <extensions><gpxtpx:TrackPointExtension><gpxtpx:hr>163</gpxtpx:hr></gpxtpx:TrackPointExtension></extensions>
      </trkpt>
      <trkpt lat="59.98692099005" lon="15.835692454129">
        <ele>121.4</ele>
        <time>2014-04-29T20:52:52Z</time>
        <extensions><gpxtpx:TrackPointExtension><gpxtpx:hr>164</gpxtpx:hr></gpxtpx:TrackPointExtension></extensions>
      </trkpt>
      <trkpt lat="59.986891234294" lon="15.835731597617">
        <ele>121.2</ele>
        <time>2014-04-29T20:52:53Z</time>
        <extensions><gpxtpx:TrackPointExtension><gpxtpx:hr>163</gpxtpx:hr></gpxtpx:TrackPointExtension></extensions>
      </trkpt>
      <trkpt lat="59.986802637577" lon="15.835855565965">
        <ele>121.2</ele>
        <time>2014-04-29T20:52:57Z</time>
        <extensions><gpxtpx:TrackPointExtension><gpxtpx:hr>164</gpxtpx:hr></gpxtpx:TrackPointExtension></extensions>
      </trkpt>
      <trkpt lat="59.986654613167" lon="15.836110124364">
        <ele>120.8</ele>
        <time>2014-04-29T20:53:04Z</time>
        <extensions><gpxtpx:TrackPointExtension><gpxtpx:hr>165</gpxtpx:hr></gpxtpx:TrackPointExtension></extensions>
      </trkpt>
      <trkpt lat="59.986557886004" lon="15.836461661384">
        <ele>121</ele>
        <time>2014-04-29T20:53:12Z</time>
        <extensions><gpxtpx:TrackPointExtension><gpxtpx:hr>164</gpxtpx:hr></gpxtpx:TrackPointExtension></extensions>
      </trkpt>
      <trkpt lat="59.986538020894" lon="15.836512539536">
        <ele>121</ele>
        <time>2014-04-29T20:53:13Z</time>
        <extensions><gpxtpx:TrackPointExtension><gpxtpx:hr>165</gpxtpx:hr></gpxtpx:TrackPointExtension></extensions>
      </trkpt>
      <trkpt lat="59.98641807586" lon="15.836793249473">
        <ele>121.4</ele>
        <time>2014-04-29T20:53:20Z</time>
        <extensions><gpxtpx:TrackPointExtension><gpxtpx:hr>166</gpxtpx:hr></gpxtpx:TrackPointExtension></extensions>
      </trkpt>
      <trkpt lat="59.986302237958" lon="15.837071193382">
        <ele>121.4</ele>
        <time>2014-04-29T20:53:27Z</time>
        <extensions><gpxtpx:TrackPointExtension><gpxtpx:hr>166</gpxtpx:hr></gpxtpx:TrackPointExtension></extensions>
      </trkpt>
      <trkpt lat="59.986269883811" lon="15.837148055434">
        <ele>121.2</ele>
        <time>2014-04-29T20:53:29Z</time>
        <extensions><gpxtpx:TrackPointExtension><gpxtpx:hr>166</gpxtpx:hr></gpxtpx:TrackPointExtension></extensions>
      </trkpt>
      <trkpt lat="59.986133845523" lon="15.837445277721">
        <ele>120.6</ele>
        <time>2014-04-29T20:53:37Z</time>
        <extensions><gpxtpx:TrackPointExtension><gpxtpx:hr>165</gpxtpx:hr></gpxtpx:TrackPointExtension></extensions>
      </trkpt>
      <trkpt lat="59.986115572974" lon="15.83748257719">
        <ele>120.6</ele>
        <time>2014-04-29T20:53:38Z</time>
        <extensions><gpxtpx:TrackPointExtension><gpxtpx:hr>165</gpxtpx:hr></gpxtpx:TrackPointExtension></extensions>
      </trkpt>
      <trkpt lat="59.986101742834" lon="15.837508393452">
        <ele>120.6</ele>
        <time>2014-04-29T20:53:39Z</time>
        <extensions><gpxtpx:TrackPointExtension><gpxtpx:hr>165</gpxtpx:hr></gpxtpx:TrackPointExtension></extensions>
      </trkpt>
      <trkpt lat="59.985962854698" lon="15.837780721486">
        <ele>120</ele>
        <time>2014-04-29T20:53:46Z</time>
        <extensions><gpxtpx:TrackPointExtension><gpxtpx:hr>164</gpxtpx:hr></gpxtpx:TrackPointExtension></extensions>
      </trkpt>
      <trkpt lat="59.985885825008" lon="15.837941067293">
        <ele>119.6</ele>
        <time>2014-04-29T20:53:50Z</time>
        <extensions><gpxtpx:TrackPointExtension><gpxtpx:hr>164</gpxtpx:hr></gpxtpx:TrackPointExtension></extensions>
      </trkpt>
      <trkpt lat="59.985764035955" lon="15.838156733662">
        <ele>118.4</ele>
        <time>2014-04-29T20:53:56Z</time>
        <extensions><gpxtpx:TrackPointExtension><gpxtpx:hr>164</gpxtpx:hr></gpxtpx:TrackPointExtension></extensions>
      </trkpt>
      <trkpt lat="59.985743248835" lon="15.838191937655">
        <ele>118.4</ele>
        <time>2014-04-29T20:53:57Z</time>
        <extensions><gpxtpx:TrackPointExtension><gpxtpx:hr>163</gpxtpx:hr></gpxtpx:TrackPointExtension></extensions>
      </trkpt>
      <trkpt lat="59.985603103414" lon="15.838465187699">
        <ele>117.2</ele>
        <time>2014-04-29T20:54:04Z</time>
        <extensions><gpxtpx:TrackPointExtension><gpxtpx:hr>164</gpxtpx:hr></gpxtpx:TrackPointExtension></extensions>
      </trkpt>
      <trkpt lat="59.985536048189" lon="15.838576918468">
        <ele>117</ele>
        <time>2014-04-29T20:54:07Z</time>
        <extensions><gpxtpx:TrackPointExtension><gpxtpx:hr>164</gpxtpx:hr></gpxtpx:TrackPointExtension></extensions>
      </trkpt>
      <trkpt lat="59.985406463966" lon="15.838774563745">
        <ele>116.2</ele>
        <time>2014-04-29T20:54:13Z</time>
        <extensions><gpxtpx:TrackPointExtension><gpxtpx:hr>164</gpxtpx:hr></gpxtpx:TrackPointExtension></extensions>
      </trkpt>
      <trkpt lat="59.985380563885" lon="15.83880440332">
        <ele>116</ele>
        <time>2014-04-29T20:54:14Z</time>
        <extensions><gpxtpx:TrackPointExtension><gpxtpx:hr>164</gpxtpx:hr></gpxtpx:TrackPointExtension></extensions>
      </trkpt>
      <trkpt lat="59.985229438171" lon="15.839033396915">
        <ele>116</ele>
        <time>2014-04-29T20:54:21Z</time>
        <extensions><gpxtpx:TrackPointExtension><gpxtpx:hr>165</gpxtpx:hr></gpxtpx:TrackPointExtension></extensions>
      </trkpt>
      <trkpt lat="59.985066410154" lon="15.839259959757">
        <ele>115.6</ele>
        <time>2014-04-29T20:54:28Z</time>
        <extensions><gpxtpx:TrackPointExtension><gpxtpx:hr>166</gpxtpx:hr></gpxtpx:TrackPointExtension></extensions>
      </trkpt>
      <trkpt lat="59.985023913905" lon="15.839322153479">
        <ele>115.8</ele>
        <time>2014-04-29T20:54:30Z</time>
        <extensions><gpxtpx:TrackPointExtension><gpxtpx:hr>165</gpxtpx:hr></gpxtpx:TrackPointExtension></extensions>
      </trkpt>
      <trkpt lat="59.984857449308" lon="15.839501442388">
        <ele>115.6</ele>
        <time>2014-04-29T20:54:37Z</time>
        <extensions><gpxtpx:TrackPointExtension><gpxtpx:hr>164</gpxtpx:hr></gpxtpx:TrackPointExtension></extensions>
      </trkpt>
      <trkpt lat="59.984831465408" lon="15.83952893503">
        <ele>115.4</ele>
        <time>2014-04-29T20:54:38Z</time>
        <extensions><gpxtpx:TrackPointExtension><gpxtpx:hr>164</gpxtpx:hr></gpxtpx:TrackPointExtension></extensions>
      </trkpt>
      <trkpt lat="59.984698528424" lon="15.83963974379">
        <ele>115</ele>
        <time>2014-04-29T20:54:44Z</time>
        <extensions><gpxtpx:TrackPointExtension><gpxtpx:hr>162</gpxtpx:hr></gpxtpx:TrackPointExtension></extensions>
      </trkpt>
      <trkpt lat="59.984518904239" lon="15.839734040201">
        <ele>114.8</ele>
        <time>2014-04-29T20:54:51Z</time>
        <extensions><gpxtpx:TrackPointExtension><gpxtpx:hr>161</gpxtpx:hr></gpxtpx:TrackPointExtension></extensions>
      </trkpt>
      <trkpt lat="59.984348332509" lon="15.839820038527">
        <ele>114.2</ele>
        <time>2014-04-29T20:54:58Z</time>
        <extensions><gpxtpx:TrackPointExtension><gpxtpx:hr>161</gpxtpx:hr></gpxtpx:TrackPointExtension></extensions>
      </trkpt>
      <trkpt lat="59.984331736341" lon="15.839824397117">
        <ele>114</ele>
        <time>2014-04-29T20:54:59Z</time>
        <extensions><gpxtpx:TrackPointExtension><gpxtpx:hr>161</gpxtpx:hr></gpxtpx:TrackPointExtension></extensions>
      </trkpt>
      <trkpt lat="59.984166864306" lon="15.839872844517">
        <ele>113.4</ele>
        <time>2014-04-29T20:55:06Z</time>
        <extensions><gpxtpx:TrackPointExtension><gpxtpx:hr>161</gpxtpx:hr></gpxtpx:TrackPointExtension></extensions>
      </trkpt>
      <trkpt lat="59.984006769955" lon="15.839939061552">
        <ele>112.8</ele>
        <time>2014-04-29T20:55:12Z</time>
        <extensions><gpxtpx:TrackPointExtension><gpxtpx:hr>162</gpxtpx:hr></gpxtpx:TrackPointExtension></extensions>
      </trkpt>
      <trkpt lat="59.983829827979" lon="15.840004608035">
        <ele>112.4</ele>
        <time>2014-04-29T20:55:19Z</time>
        <extensions><gpxtpx:TrackPointExtension><gpxtpx:hr>162</gpxtpx:hr></gpxtpx:TrackPointExtension></extensions>
      </trkpt>
      <trkpt lat="59.983774675056" lon="15.840026736259">
        <ele>112</ele>
        <time>2014-04-29T20:55:21Z</time>
        <extensions><gpxtpx:TrackPointExtension><gpxtpx:hr>163</gpxtpx:hr></gpxtpx:TrackPointExtension></extensions>
      </trkpt>
      <trkpt lat="59.98374835588" lon="15.84004140459">
        <ele>111.8</ele>
        <time>2014-04-29T20:55:22Z</time>
        <extensions><gpxtpx:TrackPointExtension><gpxtpx:hr>163</gpxtpx:hr></gpxtpx:TrackPointExtension></extensions>
      </trkpt>
      <trkpt lat="59.983563283458" lon="15.84011759609">
        <ele>111.2</ele>
        <time>2014-04-29T20:55:29Z</time>
        <extensions><gpxtpx:TrackPointExtension><gpxtpx:hr>163</gpxtpx:hr></gpxtpx:TrackPointExtension></extensions>
      </trkpt>
      <trkpt lat="59.983484074473" lon="15.840144082904">
        <ele>110.8</ele>
        <time>2014-04-29T20:55:32Z</time>
        <extensions><gpxtpx:TrackPointExtension><gpxtpx:hr>162</gpxtpx:hr></gpxtpx:TrackPointExtension></extensions>
      </trkpt>
      <trkpt lat="59.983459096402" lon="15.840151039883">
        <ele>110.8</ele>
        <time>2014-04-29T20:55:33Z</time>
        <extensions><gpxtpx:TrackPointExtension><gpxtpx:hr>162</gpxtpx:hr></gpxtpx:TrackPointExtension></extensions>
      </trkpt>
      <trkpt lat="59.983274275437" lon="15.840226225555">
        <ele>110.2</ele>
        <time>2014-04-29T20:55:40Z</time>
        <extensions><gpxtpx:TrackPointExtension><gpxtpx:hr>162</gpxtpx:hr></gpxtpx:TrackPointExtension></extensions>
      </trkpt>
      <trkpt lat="59.983240328729" lon="15.840228740126">
        <ele>109.8</ele>
        <time>2014-04-29T20:55:41Z</time>
        <extensions><gpxtpx:TrackPointExtension><gpxtpx:hr>162</gpxtpx:hr></gpxtpx:TrackPointExtension></extensions>
      </trkpt>
      <trkpt lat="59.983212416992" lon="15.840238127857">
        <ele>109.6</ele>
        <time>2014-04-29T20:55:42Z</time>
        <extensions><gpxtpx:TrackPointExtension><gpxtpx:hr>162</gpxtpx:hr></gpxtpx:TrackPointExtension></extensions>
      </trkpt>
      <trkpt lat="59.983021728694" lon="15.840304261073">
        <ele>108.6</ele>
        <time>2014-04-29T20:55:49Z</time>
        <extensions><gpxtpx:TrackPointExtension><gpxtpx:hr>161</gpxtpx:hr></gpxtpx:TrackPointExtension></extensions>
      </trkpt>
      <trkpt lat="59.982942687348" lon="15.840331586078">
        <ele>108.4</ele>
        <time>2014-04-29T20:55:52Z</time>
        <extensions><gpxtpx:TrackPointExtension><gpxtpx:hr>161</gpxtpx:hr></gpxtpx:TrackPointExtension></extensions>
      </trkpt>
      <trkpt lat="59.982808576897" lon="15.840290850028">
        <ele>108</ele>
        <time>2014-04-29T20:55:57Z</time>
        <extensions><gpxtpx:TrackPointExtension><gpxtpx:hr>162</gpxtpx:hr></gpxtpx:TrackPointExtension></extensions>
      </trkpt>
      <trkpt lat="59.982780329883" lon="15.840257992968">
        <ele>108</ele>
        <time>2014-04-29T20:55:58Z</time>
        <extensions><gpxtpx:TrackPointExtension><gpxtpx:hr>162</gpxtpx:hr></gpxtpx:TrackPointExtension></extensions>
      </trkpt>
      <trkpt lat="59.982725512236" lon="15.840062443167">
        <ele>107.8</ele>
        <time>2014-04-29T20:56:02Z</time>
        <extensions><gpxtpx:TrackPointExtension><gpxtpx:hr>163</gpxtpx:hr></gpxtpx:TrackPointExtension></extensions>
      </trkpt>
      <trkpt lat="59.982714448124" lon="15.839716019109">
        <ele>108.2</ele>
        <time>2014-04-29T20:56:08Z</time>
        <extensions><gpxtpx:TrackPointExtension><gpxtpx:hr>162</gpxtpx:hr></gpxtpx:TrackPointExtension></extensions>
      </trkpt>
      <trkpt lat="59.982693744823" lon="15.839358530939">
        <ele>108.2</ele>
        <time>2014-04-29T20:56:14Z</time>
        <extensions><gpxtpx:TrackPointExtension><gpxtpx:hr>160</gpxtpx:hr></gpxtpx:TrackPointExtension></extensions>
      </trkpt>
      <trkpt lat="59.982690811157" lon="15.839259037748">
        <ele>108.4</ele>
        <time>2014-04-29T20:56:16Z</time>
        <extensions><gpxtpx:TrackPointExtension><gpxtpx:hr>159</gpxtpx:hr></gpxtpx:TrackPointExtension></extensions>
      </trkpt>
      <trkpt lat="59.982670191675" lon="15.838858885691">
        <ele>108</ele>
        <time>2014-04-29T20:56:23Z</time>
        <extensions><gpxtpx:TrackPointExtension><gpxtpx:hr>160</gpxtpx:hr></gpxtpx:TrackPointExtension></extensions>
      </trkpt>
      <trkpt lat="59.982663486153" lon="15.838754866272">
        <ele>108.2</ele>
        <time>2014-04-29T20:56:25Z</time>
        <extensions><gpxtpx:TrackPointExtension><gpxtpx:hr>161</gpxtpx:hr></gpxtpx:TrackPointExtension></extensions>
      </trkpt>
      <trkpt lat="59.982652841136" lon="15.838520675898">
        <ele>108.4</ele>
        <time>2014-04-29T20:56:29Z</time>
        <extensions><gpxtpx:TrackPointExtension><gpxtpx:hr>164</gpxtpx:hr></gpxtpx:TrackPointExtension></extensions>
      </trkpt>
      <trkpt lat="59.982628617436" lon="15.838194619864">
        <ele>108.2</ele>
        <time>2014-04-29T20:56:35Z</time>
        <extensions><gpxtpx:TrackPointExtension><gpxtpx:hr>167</gpxtpx:hr></gpxtpx:TrackPointExtension></extensions>
      </trkpt>
      <trkpt lat="59.982622498646" lon="15.838138042018">
        <ele>108.2</ele>
        <time>2014-04-29T20:56:36Z</time>
        <extensions><gpxtpx:TrackPointExtension><gpxtpx:hr>167</gpxtpx:hr></gpxtpx:TrackPointExtension></extensions>
      </trkpt>
      <trkpt lat="59.982588719577" lon="15.837747948244">
        <ele>108.2</ele>
        <time>2014-04-29T20:56:43Z</time>
        <extensions><gpxtpx:TrackPointExtension><gpxtpx:hr>168</gpxtpx:hr></gpxtpx:TrackPointExtension></extensions>
      </trkpt>
      <trkpt lat="59.982575140893" lon="15.837587937713">
        <ele>108.2</ele>
        <time>2014-04-29T20:56:46Z</time>
        <extensions><gpxtpx:TrackPointExtension><gpxtpx:hr>169</gpxtpx:hr></gpxtpx:TrackPointExtension></extensions>
      </trkpt>
      <trkpt lat="59.982549073175" lon="15.837215445936">
        <ele>108.4</ele>
        <time>2014-04-29T20:56:53Z</time>
        <extensions><gpxtpx:TrackPointExtension><gpxtpx:hr>168</gpxtpx:hr></gpxtpx:TrackPointExtension></extensions>
      </trkpt>
      <trkpt lat="59.982543624938" lon="15.837156688794">
        <ele>108.4</ele>
        <time>2014-04-29T20:56:54Z</time>
        <extensions><gpxtpx:TrackPointExtension><gpxtpx:hr>167</gpxtpx:hr></gpxtpx:TrackPointExtension></extensions>
      </trkpt>
      <trkpt lat="59.982519736513" lon="15.836841193959">
        <ele>108.4</ele>
        <time>2014-04-29T20:57:00Z</time>
        <extensions><gpxtpx:TrackPointExtension><gpxtpx:hr>167</gpxtpx:hr></gpxtpx:TrackPointExtension></extensions>
      </trkpt>
      <trkpt lat="59.982487550005" lon="15.836483873427">
        <ele>108.6</ele>
        <time>2014-04-29T20:57:07Z</time>
        <extensions><gpxtpx:TrackPointExtension><gpxtpx:hr>168</gpxtpx:hr></gpxtpx:TrackPointExtension></extensions>
      </trkpt>
      <trkpt lat="59.982460895553" lon="15.83610702306">
        <ele>108.6</ele>
        <time>2014-04-29T20:57:14Z</time>
        <extensions><gpxtpx:TrackPointExtension><gpxtpx:hr>168</gpxtpx:hr></gpxtpx:TrackPointExtension></extensions>
      </trkpt>
      <trkpt lat="59.982426278293" lon="15.835731429979">
        <ele>108.8</ele>
        <time>2014-04-29T20:57:21Z</time>
        <extensions><gpxtpx:TrackPointExtension><gpxtpx:hr>167</gpxtpx:hr></gpxtpx:TrackPointExtension></extensions>
      </trkpt>
      <trkpt lat="59.982425859198" lon="15.835667978972">
        <ele>108.8</ele>
        <time>2014-04-29T20:57:22Z</time>
        <extensions><gpxtpx:TrackPointExtension><gpxtpx:hr>167</gpxtpx:hr></gpxtpx:TrackPointExtension></extensions>
      </trkpt>
      <trkpt lat="59.982398701832" lon="15.835357764736">
        <ele>108.8</ele>
        <time>2014-04-29T20:57:28Z</time>
        <extensions><gpxtpx:TrackPointExtension><gpxtpx:hr>168</gpxtpx:hr></gpxtpx:TrackPointExtension></extensions>
      </trkpt>
      <trkpt lat="59.982357546687" lon="15.834996001795">
        <ele>108.6</ele>
        <time>2014-04-29T20:57:35Z</time>
        <extensions><gpxtpx:TrackPointExtension><gpxtpx:hr>168</gpxtpx:hr></gpxtpx:TrackPointExtension></extensions>
      </trkpt>
      <trkpt lat="59.982349164784" lon="15.834795506671">
        <ele>108.8</ele>
        <time>2014-04-29T20:57:39Z</time>
        <extensions><gpxtpx:TrackPointExtension><gpxtpx:hr>169</gpxtpx:hr></gpxtpx:TrackPointExtension></extensions>
      </trkpt>
      <trkpt lat="59.982329299673" lon="15.834411615506">
        <ele>108.6</ele>
        <time>2014-04-29T20:57:46Z</time>
        <extensions><gpxtpx:TrackPointExtension><gpxtpx:hr>168</gpxtpx:hr></gpxtpx:TrackPointExtension></extensions>
      </trkpt>
      <trkpt lat="59.982330389321" lon="15.834243139252">
        <ele>108.6</ele>
        <time>2014-04-29T20:57:49Z</time>
        <extensions><gpxtpx:TrackPointExtension><gpxtpx:hr>168</gpxtpx:hr></gpxtpx:TrackPointExtension></extensions>
      </trkpt>
      <trkpt lat="59.982322929427" lon="15.833857068792">
        <ele>108.4</ele>
        <time>2014-04-29T20:57:56Z</time>
        <extensions><gpxtpx:TrackPointExtension><gpxtpx:hr>168</gpxtpx:hr></gpxtpx:TrackPointExtension></extensions>
      </trkpt>
      <trkpt lat="59.982323432341" lon="15.833738967776">
        <ele>108.4</ele>
        <time>2014-04-29T20:57:58Z</time>
        <extensions><gpxtpx:TrackPointExtension><gpxtpx:hr>168</gpxtpx:hr></gpxtpx:TrackPointExtension></extensions>
      </trkpt>
      <trkpt lat="59.98232351616" lon="15.833400757983">
        <ele>108</ele>
        <time>2014-04-29T20:58:04Z</time>
        <extensions><gpxtpx:TrackPointExtension><gpxtpx:hr>168</gpxtpx:hr></gpxtpx:TrackPointExtension></extensions>
      </trkpt>
      <trkpt lat="59.982326868922" lon="15.833242507651">
        <ele>107.8</ele>
        <time>2014-04-29T20:58:07Z</time>
        <extensions><gpxtpx:TrackPointExtension><gpxtpx:hr>167</gpxtpx:hr></gpxtpx:TrackPointExtension></extensions>
      </trkpt>
      <trkpt lat="59.982334077358" lon="15.832956600934">
        <ele>107.6</ele>
        <time>2014-04-29T20:58:12Z</time>
        <extensions><gpxtpx:TrackPointExtension><gpxtpx:hr>167</gpxtpx:hr></gpxtpx:TrackPointExtension></extensions>
      </trkpt>
      <trkpt lat="59.982333993539" lon="15.832902621478">
        <ele>107.4</ele>
        <time>2014-04-29T20:58:13Z</time>
        <extensions><gpxtpx:TrackPointExtension><gpxtpx:hr>167</gpxtpx:hr></gpxtpx:TrackPointExtension></extensions>
      </trkpt>
      <trkpt lat="59.982345225289" lon="15.832521244884">
        <ele>107.2</ele>
        <time>2014-04-29T20:58:20Z</time>
        <extensions><gpxtpx:TrackPointExtension><gpxtpx:hr>167</gpxtpx:hr></gpxtpx:TrackPointExtension></extensions>
      </trkpt>
      <trkpt lat="59.982350170612" lon="15.83241680637">
        <ele>107.2</ele>
        <time>2014-04-29T20:58:22Z</time>
        <extensions><gpxtpx:TrackPointExtension><gpxtpx:hr>165</gpxtpx:hr></gpxtpx:TrackPointExtension></extensions>
      </trkpt>
      <trkpt lat="59.982362911105" lon="15.832147914916">
        <ele>106.8</ele>
        <time>2014-04-29T20:58:28Z</time>
        <extensions><gpxtpx:TrackPointExtension><gpxtpx:hr>162</gpxtpx:hr></gpxtpx:TrackPointExtension></extensions>
      </trkpt>
      <trkpt lat="59.982376992702" lon="15.831949263811">
        <ele>106.8</ele>
        <time>2014-04-29T20:58:32Z</time>
        <extensions><gpxtpx:TrackPointExtension><gpxtpx:hr>161</gpxtpx:hr></gpxtpx:TrackPointExtension></extensions>
      </trkpt>
      <trkpt lat="59.982403647155" lon="15.831621028483">
        <ele>106.6</ele>
        <time>2014-04-29T20:58:39Z</time>
        <extensions><gpxtpx:TrackPointExtension><gpxtpx:hr>161</gpxtpx:hr></gpxtpx:TrackPointExtension></extensions>
      </trkpt>
      <trkpt lat="59.982418986037" lon="15.831471160054">
        <ele>106.4</ele>
        <time>2014-04-29T20:58:42Z</time>
        <extensions><gpxtpx:TrackPointExtension><gpxtpx:hr>161</gpxtpx:hr></gpxtpx:TrackPointExtension></extensions>
      </trkpt>
      <trkpt lat="59.982428876683" lon="15.831348365173">
        <ele>106.4</ele>
        <time>2014-04-29T20:58:45Z</time>
        <extensions><gpxtpx:TrackPointExtension><gpxtpx:hr>161</gpxtpx:hr></gpxtpx:TrackPointExtension></extensions>
      </trkpt>
      <trkpt lat="59.982466679066" lon="15.8310031984">
        <ele>106.6</ele>
        <time>2014-04-29T20:58:52Z</time>
        <extensions><gpxtpx:TrackPointExtension><gpxtpx:hr>163</gpxtpx:hr></gpxtpx:TrackPointExtension></extensions>
      </trkpt>
      <trkpt lat="59.982524095103" lon="15.830626599491">
        <ele>106.8</ele>
        <time>2014-04-29T20:59:00Z</time>
        <extensions><gpxtpx:TrackPointExtension><gpxtpx:hr>163</gpxtpx:hr></gpxtpx:TrackPointExtension></extensions>
      </trkpt>
      <trkpt lat="59.982592575252" lon="15.830327197909">
        <ele>106.6</ele>
        <time>2014-04-29T20:59:07Z</time>
        <extensions><gpxtpx:TrackPointExtension><gpxtpx:hr>163</gpxtpx:hr></gpxtpx:TrackPointExtension></extensions>
      </trkpt>
      <trkpt lat="59.98264554888" lon="15.829978762195">
        <ele>106.6</ele>
        <time>2014-04-29T20:59:14Z</time>
        <extensions><gpxtpx:TrackPointExtension><gpxtpx:hr>163</gpxtpx:hr></gpxtpx:TrackPointExtension></extensions>
      </trkpt>
      <trkpt lat="59.982650494203" lon="15.829948084429">
        <ele>106.6</ele>
        <time>2014-04-29T20:59:15Z</time>
        <extensions><gpxtpx:TrackPointExtension><gpxtpx:hr>164</gpxtpx:hr></gpxtpx:TrackPointExtension></extensions>
      </trkpt>
      <trkpt lat="59.982711263001" lon="15.829664189368">
        <ele>107.2</ele>
        <time>2014-04-29T20:59:21Z</time>
        <extensions><gpxtpx:TrackPointExtension><gpxtpx:hr>166</gpxtpx:hr></gpxtpx:TrackPointExtension></extensions>
      </trkpt>
      <trkpt lat="59.982724422589" lon="15.829609371722">
        <ele>107.6</ele>
        <time>2014-04-29T20:59:22Z</time>
        <extensions><gpxtpx:TrackPointExtension><gpxtpx:hr>166</gpxtpx:hr></gpxtpx:TrackPointExtension></extensions>
      </trkpt>
      <trkpt lat="59.982778653502" lon="15.829389598221">
        <ele>107.6</ele>
        <time>2014-04-29T20:59:27Z</time>
        <extensions><gpxtpx:TrackPointExtension><gpxtpx:hr>166</gpxtpx:hr></gpxtpx:TrackPointExtension></extensions>
      </trkpt>
      <trkpt lat="59.982866663486" lon="15.829061279073">
        <ele>107.8</ele>
        <time>2014-04-29T20:59:34Z</time>
        <extensions><gpxtpx:TrackPointExtension><gpxtpx:hr>167</gpxtpx:hr></gpxtpx:TrackPointExtension></extensions>
      </trkpt>
      <trkpt lat="59.982925755903" lon="15.828859442845">
        <ele>108.4</ele>
        <time>2014-04-29T20:59:39Z</time>
        <extensions><gpxtpx:TrackPointExtension><gpxtpx:hr>166</gpxtpx:hr></gpxtpx:TrackPointExtension></extensions>
      </trkpt>
      <trkpt lat="59.982984261587" lon="15.828688619658">
        <ele>108.6</ele>
        <time>2014-04-29T20:59:43Z</time>
        <extensions><gpxtpx:TrackPointExtension><gpxtpx:hr>167</gpxtpx:hr></gpxtpx:TrackPointExtension></extensions>
      </trkpt>
      <trkpt lat="59.983012927696" lon="15.828612511978">
        <ele>108.6</ele>
        <time>2014-04-29T20:59:45Z</time>
        <extensions><gpxtpx:TrackPointExtension><gpxtpx:hr>167</gpxtpx:hr></gpxtpx:TrackPointExtension></extensions>
      </trkpt>
      <trkpt lat="59.983099261299" lon="15.828368850052">
        <ele>109</ele>
        <time>2014-04-29T20:59:51Z</time>
        <extensions><gpxtpx:TrackPointExtension><gpxtpx:hr>169</gpxtpx:hr></gpxtpx:TrackPointExtension></extensions>
      </trkpt>
      <trkpt lat="59.983179476112" lon="15.82814572379">
        <ele>109.4</ele>
        <time>2014-04-29T20:59:57Z</time>
        <extensions><gpxtpx:TrackPointExtension><gpxtpx:hr>169</gpxtpx:hr></gpxtpx:TrackPointExtension></extensions>
      </trkpt>
      <trkpt lat="59.983210656792" lon="15.828073974699">
        <ele>109.8</ele>
        <time>2014-04-29T20:59:59Z</time>
        <extensions><gpxtpx:TrackPointExtension><gpxtpx:hr>168</gpxtpx:hr></gpxtpx:TrackPointExtension></extensions>
      </trkpt>
      <trkpt lat="59.983257176355" lon="15.827963668853">
        <ele>109.6</ele>
        <time>2014-04-29T21:00:02Z</time>
        <extensions><gpxtpx:TrackPointExtension><gpxtpx:hr>168</gpxtpx:hr></gpxtpx:TrackPointExtension></extensions>
      </trkpt>
      <trkpt lat="59.983359435573" lon="15.827751103789">
        <ele>110.2</ele>
        <time>2014-04-29T21:00:08Z</time>
        <extensions><gpxtpx:TrackPointExtension><gpxtpx:hr>168</gpxtpx:hr></gpxtpx:TrackPointExtension></extensions>
      </trkpt>
      <trkpt lat="59.983469070867" lon="15.827531917021">
        <ele>110.6</ele>
        <time>2014-04-29T21:00:14Z</time>
        <extensions><gpxtpx:TrackPointExtension><gpxtpx:hr>169</gpxtpx:hr></gpxtpx:TrackPointExtension></extensions>
      </trkpt>
      <trkpt lat="59.983510142192" lon="15.827460000291">
        <ele>110.8</ele>
        <time>2014-04-29T21:00:16Z</time>
        <extensions><gpxtpx:TrackPointExtension><gpxtpx:hr>169</gpxtpx:hr></gpxtpx:TrackPointExtension></extensions>
      </trkpt>
      <trkpt lat="59.983590273187" lon="15.827322034165">
        <ele>111</ele>
        <time>2014-04-29T21:00:20Z</time>
        <extensions><gpxtpx:TrackPointExtension><gpxtpx:hr>169</gpxtpx:hr></gpxtpx:TrackPointExtension></extensions>
      </trkpt>
      <trkpt lat="59.983725473285" lon="15.827073426917">
        <ele>111.2</ele>
        <time>2014-04-29T21:00:27Z</time>
        <extensions><gpxtpx:TrackPointExtension><gpxtpx:hr>169</gpxtpx:hr></gpxtpx:TrackPointExtension></extensions>
      </trkpt>
      <trkpt lat="59.983877521008" lon="15.826827250421">
        <ele>111.4</ele>
        <time>2014-04-29T21:00:34Z</time>
        <extensions><gpxtpx:TrackPointExtension><gpxtpx:hr>168</gpxtpx:hr></gpxtpx:TrackPointExtension></extensions>
      </trkpt>
      <trkpt lat="59.983994532377" lon="15.826628431678">
        <ele>111.4</ele>
        <time>2014-04-29T21:00:40Z</time>
        <extensions><gpxtpx:TrackPointExtension><gpxtpx:hr>168</gpxtpx:hr></gpxtpx:TrackPointExtension></extensions>
      </trkpt>
      <trkpt lat="59.984104419127" lon="15.826499182731">
        <ele>111.4</ele>
        <time>2014-04-29T21:00:45Z</time>
        <extensions><gpxtpx:TrackPointExtension><gpxtpx:hr>168</gpxtpx:hr></gpxtpx:TrackPointExtension></extensions>
      </trkpt>
      <trkpt lat="59.984230818227" lon="15.826571350917">
        <ele>111</ele>
        <time>2014-04-29T21:00:50Z</time>
        <extensions><gpxtpx:TrackPointExtension><gpxtpx:hr>169</gpxtpx:hr></gpxtpx:TrackPointExtension></extensions>
      </trkpt>
      <trkpt lat="59.984318157658" lon="15.826735133305">
        <ele>111.2</ele>
        <time>2014-04-29T21:00:55Z</time>
        <extensions><gpxtpx:TrackPointExtension><gpxtpx:hr>168</gpxtpx:hr></gpxtpx:TrackPointExtension></extensions>
      </trkpt>
      <trkpt lat="59.984457800165" lon="15.826932778582">
        <ele>112.2</ele>
        <time>2014-04-29T21:01:02Z</time>
        <extensions><gpxtpx:TrackPointExtension><gpxtpx:hr>168</gpxtpx:hr></gpxtpx:TrackPointExtension></extensions>
      </trkpt>
      <trkpt lat="59.984592162073" lon="15.827051717788">
        <ele>112.8</ele>
        <time>2014-04-29T21:01:08Z</time>
        <extensions><gpxtpx:TrackPointExtension><gpxtpx:hr>168</gpxtpx:hr></gpxtpx:TrackPointExtension></extensions>
      </trkpt>
      <trkpt lat="59.984636669978" lon="15.827090106905">
        <ele>113.2</ele>
        <time>2014-04-29T21:01:10Z</time>
        <extensions><gpxtpx:TrackPointExtension><gpxtpx:hr>168</gpxtpx:hr></gpxtpx:TrackPointExtension></extensions>
      </trkpt>
      <trkpt lat="59.984785867855" lon="15.827176691964">
        <ele>114.2</ele>
        <time>2014-04-29T21:01:16Z</time>
        <extensions><gpxtpx:TrackPointExtension><gpxtpx:hr>168</gpxtpx:hr></gpxtpx:TrackPointExtension></extensions>
      </trkpt>
      <trkpt lat="59.98482442461" lon="15.827230839059">
        <ele>114.4</ele>
        <time>2014-04-29T21:01:18Z</time>
        <extensions><gpxtpx:TrackPointExtension><gpxtpx:hr>168</gpxtpx:hr></gpxtpx:TrackPointExtension></extensions>
      </trkpt>
      <trkpt lat="59.984849318862" lon="15.827342150733">
        <ele>115</ele>
        <time>2014-04-29T21:01:21Z</time>
        <extensions><gpxtpx:TrackPointExtension><gpxtpx:hr>169</gpxtpx:hr></gpxtpx:TrackPointExtension></extensions>
      </trkpt>
      <trkpt lat="59.984830711037" lon="15.827522026375">
        <ele>115.4</ele>
        <time>2014-04-29T21:01:25Z</time>
        <extensions><gpxtpx:TrackPointExtension><gpxtpx:hr>170</gpxtpx:hr></gpxtpx:TrackPointExtension></extensions>
      </trkpt>
      <trkpt lat="59.984819646925" lon="15.827604336664">
        <ele>115.6</ele>
        <time>2014-04-29T21:01:27Z</time>
        <extensions><gpxtpx:TrackPointExtension><gpxtpx:hr>169</gpxtpx:hr></gpxtpx:TrackPointExtension></extensions>
      </trkpt>
      <trkpt lat="59.984811516479" lon="15.827648509294">
        <ele>115.6</ele>
        <time>2014-04-29T21:01:28Z</time>
        <extensions><gpxtpx:TrackPointExtension><gpxtpx:hr>169</gpxtpx:hr></gpxtpx:TrackPointExtension></extensions>
      </trkpt>
    </trkseg>
  </trk>
</gpx>